<?xml version="1.0" encoding="UTF-8" standalone="no" ?>
<gpx xmlns="http://www.topografix.com/GPX/1/1" xmlns:xsi="http://www.w3.org/2001/XMLSchema-instance" xsi:schemaLocation="http://www.topografix.com/GPX/1/1 http://www.topografix.com/GPX/1/1/gpx.xsd" version="1.1" creator="VisuGPX - https://www.visugpx.com">
  <metadata>
    <name>Champagnat Cyclisme sur route</name>
  </metadata>
  <trk>
    <name><![CDATA[Champagnat Cyclisme sur route_1]]></name>
    <trkseg>
      <trkpt lat="46.48277" lon="5.36843">
        <ele>266.8</ele>
        <time>2021-10-23T10:46:25Z</time>
      </trkpt>
      <trkpt lat="46.48269" lon="5.36829">
        <ele>265.6</ele>
        <time>2021-10-23T10:46:26Z</time>
      </trkpt>
      <trkpt lat="46.48259" lon="5.36817">
        <ele>264.8</ele>
        <time>2021-10-23T10:46:27Z</time>
      </trkpt>
      <trkpt lat="46.48249" lon="5.36807">
        <ele>263.6</ele>
        <time>2021-10-23T10:46:28Z</time>
      </trkpt>
      <trkpt lat="46.48227" lon="5.36789">
        <ele>262.4</ele>
        <time>2021-10-23T10:46:30Z</time>
      </trkpt>
      <trkpt lat="46.48216" lon="5.3678">
        <ele>261.2</ele>
        <time>2021-10-23T10:46:31Z</time>
      </trkpt>
      <trkpt lat="46.48193" lon="5.36763">
        <ele>258.8</ele>
        <time>2021-10-23T10:46:33Z</time>
      </trkpt>
      <trkpt lat="46.48171" lon="5.36745">
        <ele>257.4</ele>
        <time>2021-10-23T10:46:35Z</time>
      </trkpt>
      <trkpt lat="46.4815" lon="5.36729">
        <ele>256.2</ele>
        <time>2021-10-23T10:46:37Z</time>
      </trkpt>
      <trkpt lat="46.48122" lon="5.3671">
        <ele>254.8</ele>
        <time>2021-10-23T10:46:40Z</time>
      </trkpt>
      <trkpt lat="46.48115" lon="5.36704">
        <ele>254.4</ele>
        <time>2021-10-23T10:46:41Z</time>
      </trkpt>
      <trkpt lat="46.48111" lon="5.36698">
        <ele>253.8</ele>
        <time>2021-10-23T10:46:42Z</time>
      </trkpt>
      <trkpt lat="46.4811" lon="5.36689">
        <ele>253.2</ele>
        <time>2021-10-23T10:46:43Z</time>
      </trkpt>
      <trkpt lat="46.48112" lon="5.36681">
        <ele>253</ele>
        <time>2021-10-23T10:46:44Z</time>
      </trkpt>
      <trkpt lat="46.48116" lon="5.36673">
        <ele>252.6</ele>
        <time>2021-10-23T10:46:45Z</time>
      </trkpt>
      <trkpt lat="46.48129" lon="5.3666">
        <ele>252</ele>
        <time>2021-10-23T10:46:47Z</time>
      </trkpt>
      <trkpt lat="46.48143" lon="5.36647">
        <ele>250.8</ele>
        <time>2021-10-23T10:46:49Z</time>
      </trkpt>
      <trkpt lat="46.48156" lon="5.36634">
        <ele>249.4</ele>
        <time>2021-10-23T10:46:51Z</time>
      </trkpt>
      <trkpt lat="46.48163" lon="5.36627">
        <ele>248.6</ele>
        <time>2021-10-23T10:46:52Z</time>
      </trkpt>
      <trkpt lat="46.48169" lon="5.3662">
        <ele>248.4</ele>
        <time>2021-10-23T10:46:53Z</time>
      </trkpt>
      <trkpt lat="46.48179" lon="5.36614">
        <ele>248.2</ele>
        <time>2021-10-23T10:46:54Z</time>
      </trkpt>
      <trkpt lat="46.48192" lon="5.36605">
        <ele>248</ele>
        <time>2021-10-23T10:46:56Z</time>
      </trkpt>
      <trkpt lat="46.48199" lon="5.36603">
        <ele>247.8</ele>
        <time>2021-10-23T10:46:57Z</time>
      </trkpt>
      <trkpt lat="46.48213" lon="5.36598">
        <ele>247.8</ele>
        <time>2021-10-23T10:46:59Z</time>
      </trkpt>
      <trkpt lat="46.48218" lon="5.36593">
        <ele>247.8</ele>
        <time>2021-10-23T10:47:00Z</time>
      </trkpt>
      <trkpt lat="46.48223" lon="5.36585">
        <ele>247.8</ele>
        <time>2021-10-23T10:47:01Z</time>
      </trkpt>
      <trkpt lat="46.48228" lon="5.36566">
        <ele>247.6</ele>
        <time>2021-10-23T10:47:03Z</time>
      </trkpt>
      <trkpt lat="46.48237" lon="5.36551">
        <ele>247.2</ele>
        <time>2021-10-23T10:47:05Z</time>
      </trkpt>
      <trkpt lat="46.48242" lon="5.36545">
        <ele>247.2</ele>
        <time>2021-10-23T10:47:06Z</time>
      </trkpt>
      <trkpt lat="46.48289" lon="5.36494">
        <ele>246.2</ele>
        <time>2021-10-23T10:47:14Z</time>
      </trkpt>
      <trkpt lat="46.48295" lon="5.36487">
        <ele>246</ele>
        <time>2021-10-23T10:47:15Z</time>
      </trkpt>
      <trkpt lat="46.48326" lon="5.36453">
        <ele>245</ele>
        <time>2021-10-23T10:47:20Z</time>
      </trkpt>
      <trkpt lat="46.48358" lon="5.36418">
        <ele>243.8</ele>
        <time>2021-10-23T10:47:25Z</time>
      </trkpt>
      <trkpt lat="46.48384" lon="5.3639">
        <ele>242.8</ele>
        <time>2021-10-23T10:47:29Z</time>
      </trkpt>
      <trkpt lat="46.48403" lon="5.3637">
        <ele>241.8</ele>
        <time>2021-10-23T10:47:32Z</time>
      </trkpt>
      <trkpt lat="46.4841" lon="5.36365">
        <ele>241.6</ele>
        <time>2021-10-23T10:47:33Z</time>
      </trkpt>
      <trkpt lat="46.48431" lon="5.36354">
        <ele>241.2</ele>
        <time>2021-10-23T10:47:36Z</time>
      </trkpt>
      <trkpt lat="46.48438" lon="5.36352">
        <ele>241</ele>
        <time>2021-10-23T10:47:37Z</time>
      </trkpt>
      <trkpt lat="46.48452" lon="5.36349">
        <ele>240.8</ele>
        <time>2021-10-23T10:47:39Z</time>
      </trkpt>
      <trkpt lat="46.4848" lon="5.36345">
        <ele>240.8</ele>
        <time>2021-10-23T10:47:43Z</time>
      </trkpt>
      <trkpt lat="46.48531" lon="5.36336">
        <ele>240.6</ele>
        <time>2021-10-23T10:47:51Z</time>
      </trkpt>
      <trkpt lat="46.48545" lon="5.36334">
        <ele>240.4</ele>
        <time>2021-10-23T10:47:53Z</time>
      </trkpt>
      <trkpt lat="46.48594" lon="5.36325">
        <ele>240</ele>
        <time>2021-10-23T10:48:00Z</time>
      </trkpt>
      <trkpt lat="46.48599" lon="5.36324">
        <ele>239.8</ele>
        <time>2021-10-23T10:48:01Z</time>
      </trkpt>
      <trkpt lat="46.48615" lon="5.3632">
        <ele>239</ele>
        <time>2021-10-23T10:48:03Z</time>
      </trkpt>
      <trkpt lat="46.48622" lon="5.36314">
        <ele>238.6</ele>
        <time>2021-10-23T10:48:04Z</time>
      </trkpt>
      <trkpt lat="46.48628" lon="5.36306">
        <ele>238.2</ele>
        <time>2021-10-23T10:48:05Z</time>
      </trkpt>
      <trkpt lat="46.48635" lon="5.36287">
        <ele>237.8</ele>
        <time>2021-10-23T10:48:07Z</time>
      </trkpt>
      <trkpt lat="46.48637" lon="5.36275">
        <ele>237.6</ele>
        <time>2021-10-23T10:48:08Z</time>
      </trkpt>
      <trkpt lat="46.4864" lon="5.36249">
        <ele>236.6</ele>
        <time>2021-10-23T10:48:10Z</time>
      </trkpt>
      <trkpt lat="46.48641" lon="5.36235">
        <ele>236.4</ele>
        <time>2021-10-23T10:48:11Z</time>
      </trkpt>
      <trkpt lat="46.48644" lon="5.36209">
        <ele>235.4</ele>
        <time>2021-10-23T10:48:13Z</time>
      </trkpt>
      <trkpt lat="46.48647" lon="5.36169">
        <ele>234</ele>
        <time>2021-10-23T10:48:16Z</time>
      </trkpt>
      <trkpt lat="46.48648" lon="5.36156">
        <ele>233.6</ele>
        <time>2021-10-23T10:48:17Z</time>
      </trkpt>
      <trkpt lat="46.48656" lon="5.3611">
        <ele>233</ele>
        <time>2021-10-23T10:48:21Z</time>
      </trkpt>
      <trkpt lat="46.48658" lon="5.36101">
        <ele>232.8</ele>
        <time>2021-10-23T10:48:22Z</time>
      </trkpt>
      <trkpt lat="46.48674" lon="5.36029">
        <ele>233</ele>
        <time>2021-10-23T10:48:29Z</time>
      </trkpt>
      <trkpt lat="46.48681" lon="5.35987">
        <ele>234</ele>
        <time>2021-10-23T10:48:34Z</time>
      </trkpt>
      <trkpt lat="46.48686" lon="5.35945">
        <ele>235</ele>
        <time>2021-10-23T10:48:39Z</time>
      </trkpt>
      <trkpt lat="46.48689" lon="5.35926">
        <ele>235.4</ele>
        <time>2021-10-23T10:48:41Z</time>
      </trkpt>
      <trkpt lat="46.48703" lon="5.35882">
        <ele>235.6</ele>
        <time>2021-10-23T10:48:46Z</time>
      </trkpt>
      <trkpt lat="46.48734" lon="5.35807">
        <ele>234</ele>
        <time>2021-10-23T10:48:54Z</time>
      </trkpt>
      <trkpt lat="46.48737" lon="5.358">
        <ele>234</ele>
        <time>2021-10-23T10:48:55Z</time>
      </trkpt>
      <trkpt lat="46.48749" lon="5.35772">
        <ele>233.6</ele>
        <time>2021-10-23T10:48:58Z</time>
      </trkpt>
      <trkpt lat="46.48764" lon="5.35736">
        <ele>232.6</ele>
        <time>2021-10-23T10:49:02Z</time>
      </trkpt>
      <trkpt lat="46.48768" lon="5.35728">
        <ele>232.4</ele>
        <time>2021-10-23T10:49:03Z</time>
      </trkpt>
      <trkpt lat="46.48798" lon="5.35659">
        <ele>232.4</ele>
        <time>2021-10-23T10:49:11Z</time>
      </trkpt>
      <trkpt lat="46.48805" lon="5.35643">
        <ele>232.4</ele>
        <time>2021-10-23T10:49:13Z</time>
      </trkpt>
      <trkpt lat="46.48837" lon="5.35572">
        <ele>232.6</ele>
        <time>2021-10-23T10:49:22Z</time>
      </trkpt>
      <trkpt lat="46.48842" lon="5.35566">
        <ele>232.6</ele>
        <time>2021-10-23T10:49:23Z</time>
      </trkpt>
      <trkpt lat="46.48849" lon="5.3556">
        <ele>232.6</ele>
        <time>2021-10-23T10:49:24Z</time>
      </trkpt>
      <trkpt lat="46.48862" lon="5.35557">
        <ele>232.6</ele>
        <time>2021-10-23T10:49:26Z</time>
      </trkpt>
      <trkpt lat="46.48911" lon="5.35556">
        <ele>232.2</ele>
        <time>2021-10-23T10:49:33Z</time>
      </trkpt>
      <trkpt lat="46.48928" lon="5.35555">
        <ele>231.6</ele>
        <time>2021-10-23T10:49:35Z</time>
      </trkpt>
      <trkpt lat="46.4895" lon="5.35555">
        <ele>230.6</ele>
        <time>2021-10-23T10:49:38Z</time>
      </trkpt>
      <trkpt lat="46.48959" lon="5.35555">
        <ele>230.4</ele>
        <time>2021-10-23T10:49:39Z</time>
      </trkpt>
      <trkpt lat="46.48975" lon="5.35555">
        <ele>229.8</ele>
        <time>2021-10-23T10:49:41Z</time>
      </trkpt>
      <trkpt lat="46.48991" lon="5.35554">
        <ele>229</ele>
        <time>2021-10-23T10:49:43Z</time>
      </trkpt>
      <trkpt lat="46.49034" lon="5.35552">
        <ele>228.4</ele>
        <time>2021-10-23T10:49:49Z</time>
      </trkpt>
      <trkpt lat="46.49067" lon="5.3555">
        <ele>228.6</ele>
        <time>2021-10-23T10:49:54Z</time>
      </trkpt>
      <trkpt lat="46.49106" lon="5.35549">
        <ele>229.2</ele>
        <time>2021-10-23T10:50:00Z</time>
      </trkpt>
      <trkpt lat="46.49131" lon="5.35547">
        <ele>230</ele>
        <time>2021-10-23T10:50:04Z</time>
      </trkpt>
      <trkpt lat="46.49144" lon="5.35547">
        <ele>230.6</ele>
        <time>2021-10-23T10:50:06Z</time>
      </trkpt>
      <trkpt lat="46.49157" lon="5.35547">
        <ele>231.2</ele>
        <time>2021-10-23T10:50:08Z</time>
      </trkpt>
      <trkpt lat="46.49168" lon="5.35547">
        <ele>231.4</ele>
        <time>2021-10-23T10:50:10Z</time>
      </trkpt>
      <trkpt lat="46.49187" lon="5.35547">
        <ele>231.6</ele>
        <time>2021-10-23T10:50:13Z</time>
      </trkpt>
      <trkpt lat="46.49192" lon="5.35547">
        <ele>231.8</ele>
        <time>2021-10-23T10:50:14Z</time>
      </trkpt>
      <trkpt lat="46.49207" lon="5.35546">
        <ele>232.2</ele>
        <time>2021-10-23T10:50:17Z</time>
      </trkpt>
      <trkpt lat="46.49219" lon="5.35545">
        <ele>232.6</ele>
        <time>2021-10-23T10:50:19Z</time>
      </trkpt>
      <trkpt lat="46.49224" lon="5.35544">
        <ele>232.8</ele>
        <time>2021-10-23T10:50:20Z</time>
      </trkpt>
      <trkpt lat="46.49244" lon="5.35542">
        <ele>233</ele>
        <time>2021-10-23T10:50:23Z</time>
      </trkpt>
      <trkpt lat="46.49258" lon="5.35541">
        <ele>233.2</ele>
        <time>2021-10-23T10:50:25Z</time>
      </trkpt>
      <trkpt lat="46.49293" lon="5.35538">
        <ele>233.6</ele>
        <time>2021-10-23T10:50:30Z</time>
      </trkpt>
      <trkpt lat="46.49325" lon="5.35535">
        <ele>233.6</ele>
        <time>2021-10-23T10:50:35Z</time>
      </trkpt>
      <trkpt lat="46.49382" lon="5.35537">
        <ele>232.8</ele>
        <time>2021-10-23T10:50:43Z</time>
      </trkpt>
      <trkpt lat="46.49411" lon="5.35544">
        <ele>232.2</ele>
        <time>2021-10-23T10:50:47Z</time>
      </trkpt>
      <trkpt lat="46.49433" lon="5.35553">
        <ele>231.8</ele>
        <time>2021-10-23T10:50:50Z</time>
      </trkpt>
      <trkpt lat="46.49473" lon="5.35569">
        <ele>231</ele>
        <time>2021-10-23T10:50:56Z</time>
      </trkpt>
      <trkpt lat="46.49484" lon="5.35574">
        <ele>231</ele>
        <time>2021-10-23T10:50:58Z</time>
      </trkpt>
      <trkpt lat="46.49524" lon="5.3559">
        <ele>230.4</ele>
        <time>2021-10-23T10:51:04Z</time>
      </trkpt>
      <trkpt lat="46.49545" lon="5.35599">
        <ele>230</ele>
        <time>2021-10-23T10:51:07Z</time>
      </trkpt>
      <trkpt lat="46.49551" lon="5.35602">
        <ele>230</ele>
        <time>2021-10-23T10:51:08Z</time>
      </trkpt>
      <trkpt lat="46.49599" lon="5.35618">
        <ele>228.8</ele>
        <time>2021-10-23T10:51:15Z</time>
      </trkpt>
      <trkpt lat="46.49615" lon="5.35623">
        <ele>228.6</ele>
        <time>2021-10-23T10:51:17Z</time>
      </trkpt>
      <trkpt lat="46.4967" lon="5.35639">
        <ele>228</ele>
        <time>2021-10-23T10:51:25Z</time>
      </trkpt>
      <trkpt lat="46.49683" lon="5.35644">
        <ele>228</ele>
        <time>2021-10-23T10:51:27Z</time>
      </trkpt>
      <trkpt lat="46.49688" lon="5.35645">
        <ele>227.6</ele>
        <time>2021-10-23T10:51:28Z</time>
      </trkpt>
      <trkpt lat="46.49691" lon="5.35647">
        <ele>227.2</ele>
        <time>2021-10-23T10:51:29Z</time>
      </trkpt>
      <trkpt lat="46.49694" lon="5.3565">
        <ele>226.8</ele>
        <time>2021-10-23T10:51:30Z</time>
      </trkpt>
      <trkpt lat="46.49696" lon="5.35655">
        <ele>226.4</ele>
        <time>2021-10-23T10:51:31Z</time>
      </trkpt>
      <trkpt lat="46.49695" lon="5.35669">
        <ele>226.2</ele>
        <time>2021-10-23T10:51:33Z</time>
      </trkpt>
      <trkpt lat="46.49688" lon="5.35704">
        <ele>225.6</ele>
        <time>2021-10-23T10:51:37Z</time>
      </trkpt>
      <trkpt lat="46.49684" lon="5.35713">
        <ele>225.4</ele>
        <time>2021-10-23T10:51:38Z</time>
      </trkpt>
      <trkpt lat="46.49662" lon="5.35766">
        <ele>224.4</ele>
        <time>2021-10-23T10:51:44Z</time>
      </trkpt>
      <trkpt lat="46.49659" lon="5.35775">
        <ele>224.2</ele>
        <time>2021-10-23T10:51:45Z</time>
      </trkpt>
      <trkpt lat="46.49641" lon="5.35821">
        <ele>223</ele>
        <time>2021-10-23T10:51:50Z</time>
      </trkpt>
      <trkpt lat="46.49637" lon="5.35843">
        <ele>222.4</ele>
        <time>2021-10-23T10:51:52Z</time>
      </trkpt>
      <trkpt lat="46.49636" lon="5.35868">
        <ele>222</ele>
        <time>2021-10-23T10:51:54Z</time>
      </trkpt>
      <trkpt lat="46.49638" lon="5.35917">
        <ele>220.4</ele>
        <time>2021-10-23T10:51:58Z</time>
      </trkpt>
      <trkpt lat="46.4964" lon="5.35941">
        <ele>219.4</ele>
        <time>2021-10-23T10:52:00Z</time>
      </trkpt>
      <trkpt lat="46.49644" lon="5.36018">
        <ele>218.4</ele>
        <time>2021-10-23T10:52:07Z</time>
      </trkpt>
      <trkpt lat="46.49651" lon="5.36087">
        <ele>218.2</ele>
        <time>2021-10-23T10:52:14Z</time>
      </trkpt>
      <trkpt lat="46.49656" lon="5.36104">
        <ele>218.2</ele>
        <time>2021-10-23T10:52:16Z</time>
      </trkpt>
      <trkpt lat="46.49666" lon="5.36126">
        <ele>218.6</ele>
        <time>2021-10-23T10:52:19Z</time>
      </trkpt>
      <trkpt lat="46.49695" lon="5.36175">
        <ele>218.8</ele>
        <time>2021-10-23T10:52:26Z</time>
      </trkpt>
      <trkpt lat="46.4973" lon="5.36237">
        <ele>219</ele>
        <time>2021-10-23T10:52:35Z</time>
      </trkpt>
      <trkpt lat="46.49748" lon="5.36279">
        <ele>219.4</ele>
        <time>2021-10-23T10:52:41Z</time>
      </trkpt>
      <trkpt lat="46.49756" lon="5.36299">
        <ele>219.8</ele>
        <time>2021-10-23T10:52:44Z</time>
      </trkpt>
      <trkpt lat="46.49766" lon="5.36324">
        <ele>220.4</ele>
        <time>2021-10-23T10:52:48Z</time>
      </trkpt>
      <trkpt lat="46.49775" lon="5.36347">
        <ele>221</ele>
        <time>2021-10-23T10:52:52Z</time>
      </trkpt>
      <trkpt lat="46.4978" lon="5.36359">
        <ele>221.4</ele>
        <time>2021-10-23T10:52:54Z</time>
      </trkpt>
      <trkpt lat="46.4979" lon="5.36382">
        <ele>222.6</ele>
        <time>2021-10-23T10:52:58Z</time>
      </trkpt>
      <trkpt lat="46.498" lon="5.36405">
        <ele>223.4</ele>
        <time>2021-10-23T10:53:02Z</time>
      </trkpt>
      <trkpt lat="46.49806" lon="5.36418">
        <ele>223.6</ele>
        <time>2021-10-23T10:53:04Z</time>
      </trkpt>
      <trkpt lat="46.49826" lon="5.36461">
        <ele>224.8</ele>
        <time>2021-10-23T10:53:11Z</time>
      </trkpt>
      <trkpt lat="46.49835" lon="5.36477">
        <ele>225.4</ele>
        <time>2021-10-23T10:53:14Z</time>
      </trkpt>
      <trkpt lat="46.49845" lon="5.36492">
        <ele>225.8</ele>
        <time>2021-10-23T10:53:17Z</time>
      </trkpt>
      <trkpt lat="46.49848" lon="5.36497">
        <ele>225.8</ele>
        <time>2021-10-23T10:53:18Z</time>
      </trkpt>
      <trkpt lat="46.49871" lon="5.36531">
        <ele>226</ele>
        <time>2021-10-23T10:53:25Z</time>
      </trkpt>
      <trkpt lat="46.49902" lon="5.36579">
        <ele>227</ele>
        <time>2021-10-23T10:53:34Z</time>
      </trkpt>
      <trkpt lat="46.49905" lon="5.36584">
        <ele>227</ele>
        <time>2021-10-23T10:53:35Z</time>
      </trkpt>
      <trkpt lat="46.49918" lon="5.36614">
        <ele>227.8</ele>
        <time>2021-10-23T10:53:40Z</time>
      </trkpt>
      <trkpt lat="46.4992" lon="5.3662">
        <ele>227.8</ele>
        <time>2021-10-23T10:53:41Z</time>
      </trkpt>
      <trkpt lat="46.49922" lon="5.36627">
        <ele>227.8</ele>
        <time>2021-10-23T10:53:42Z</time>
      </trkpt>
      <trkpt lat="46.49928" lon="5.36636">
        <ele>228</ele>
        <time>2021-10-23T10:53:44Z</time>
      </trkpt>
      <trkpt lat="46.49931" lon="5.36642">
        <ele>228</ele>
        <time>2021-10-23T10:53:45Z</time>
      </trkpt>
      <trkpt lat="46.49936" lon="5.36657">
        <ele>228</ele>
        <time>2021-10-23T10:53:47Z</time>
      </trkpt>
      <trkpt lat="46.49937" lon="5.36665">
        <ele>228.2</ele>
        <time>2021-10-23T10:53:48Z</time>
      </trkpt>
      <trkpt lat="46.49949" lon="5.36724">
        <ele>228.6</ele>
        <time>2021-10-23T10:53:56Z</time>
      </trkpt>
      <trkpt lat="46.49955" lon="5.3676">
        <ele>229</ele>
        <time>2021-10-23T10:54:01Z</time>
      </trkpt>
      <trkpt lat="46.49962" lon="5.36793">
        <ele>229.8</ele>
        <time>2021-10-23T10:54:06Z</time>
      </trkpt>
      <trkpt lat="46.49966" lon="5.36814">
        <ele>230</ele>
        <time>2021-10-23T10:54:09Z</time>
      </trkpt>
      <trkpt lat="46.49972" lon="5.36848">
        <ele>231</ele>
        <time>2021-10-23T10:54:14Z</time>
      </trkpt>
      <trkpt lat="46.49977" lon="5.36875">
        <ele>231.6</ele>
        <time>2021-10-23T10:54:18Z</time>
      </trkpt>
      <trkpt lat="46.49985" lon="5.36915">
        <ele>232.2</ele>
        <time>2021-10-23T10:54:24Z</time>
      </trkpt>
      <trkpt lat="46.4999" lon="5.36942">
        <ele>233</ele>
        <time>2021-10-23T10:54:28Z</time>
      </trkpt>
      <trkpt lat="46.49991" lon="5.36949">
        <ele>233.2</ele>
        <time>2021-10-23T10:54:29Z</time>
      </trkpt>
      <trkpt lat="46.49999" lon="5.36992">
        <ele>234.4</ele>
        <time>2021-10-23T10:54:36Z</time>
      </trkpt>
      <trkpt lat="46.50001" lon="5.37002">
        <ele>234.8</ele>
        <time>2021-10-23T10:54:38Z</time>
      </trkpt>
      <trkpt lat="46.50003" lon="5.37013">
        <ele>235.2</ele>
        <time>2021-10-23T10:54:43Z</time>
      </trkpt>
      <trkpt lat="46.50003" lon="5.37013">
        <ele>235.2</ele>
        <time>2021-10-23T10:54:44Z</time>
      </trkpt>
      <trkpt lat="46.50004" lon="5.37018">
        <ele>235.2</ele>
        <time>2021-10-23T10:55:30Z</time>
      </trkpt>
      <trkpt lat="46.50006" lon="5.37031">
        <ele>235.4</ele>
        <time>2021-10-23T10:55:33Z</time>
      </trkpt>
      <trkpt lat="46.50013" lon="5.37067">
        <ele>235.4</ele>
        <time>2021-10-23T10:55:39Z</time>
      </trkpt>
      <trkpt lat="46.50017" lon="5.37088">
        <ele>235.4</ele>
        <time>2021-10-23T10:55:42Z</time>
      </trkpt>
      <trkpt lat="46.50021" lon="5.37115">
        <ele>235.8</ele>
        <time>2021-10-23T10:55:46Z</time>
      </trkpt>
      <trkpt lat="46.50022" lon="5.37122">
        <ele>235.8</ele>
        <time>2021-10-23T10:55:47Z</time>
      </trkpt>
      <trkpt lat="46.50025" lon="5.37136">
        <ele>236.2</ele>
        <time>2021-10-23T10:55:49Z</time>
      </trkpt>
      <trkpt lat="46.50029" lon="5.3715">
        <ele>236.6</ele>
        <time>2021-10-23T10:55:51Z</time>
      </trkpt>
      <trkpt lat="46.50033" lon="5.37171">
        <ele>237</ele>
        <time>2021-10-23T10:55:54Z</time>
      </trkpt>
      <trkpt lat="46.50037" lon="5.37192">
        <ele>237.4</ele>
        <time>2021-10-23T10:55:57Z</time>
      </trkpt>
      <trkpt lat="46.50043" lon="5.37221">
        <ele>237.6</ele>
        <time>2021-10-23T10:56:01Z</time>
      </trkpt>
      <trkpt lat="46.50047" lon="5.37242">
        <ele>238.6</ele>
        <time>2021-10-23T10:56:04Z</time>
      </trkpt>
      <trkpt lat="46.50049" lon="5.37249">
        <ele>238.8</ele>
        <time>2021-10-23T10:56:05Z</time>
      </trkpt>
      <trkpt lat="46.50058" lon="5.373">
        <ele>239.8</ele>
        <time>2021-10-23T10:56:12Z</time>
      </trkpt>
      <trkpt lat="46.50059" lon="5.37307">
        <ele>239.8</ele>
        <time>2021-10-23T10:56:13Z</time>
      </trkpt>
      <trkpt lat="46.50063" lon="5.37328">
        <ele>240.8</ele>
        <time>2021-10-23T10:56:16Z</time>
      </trkpt>
      <trkpt lat="46.50064" lon="5.37334">
        <ele>241.2</ele>
        <time>2021-10-23T10:56:17Z</time>
      </trkpt>
      <trkpt lat="46.50067" lon="5.37355">
        <ele>241.6</ele>
        <time>2021-10-23T10:56:20Z</time>
      </trkpt>
      <trkpt lat="46.5007" lon="5.37375">
        <ele>242</ele>
        <time>2021-10-23T10:56:23Z</time>
      </trkpt>
      <trkpt lat="46.5008" lon="5.37417">
        <ele>243</ele>
        <time>2021-10-23T10:56:29Z</time>
      </trkpt>
      <trkpt lat="46.50082" lon="5.37424">
        <ele>243.2</ele>
        <time>2021-10-23T10:56:30Z</time>
      </trkpt>
      <trkpt lat="46.50097" lon="5.37457">
        <ele>243.4</ele>
        <time>2021-10-23T10:56:35Z</time>
      </trkpt>
      <trkpt lat="46.50131" lon="5.37519">
        <ele>243</ele>
        <time>2021-10-23T10:56:45Z</time>
      </trkpt>
      <trkpt lat="46.50142" lon="5.37564">
        <ele>243.4</ele>
        <time>2021-10-23T10:56:51Z</time>
      </trkpt>
      <trkpt lat="46.50144" lon="5.3758">
        <ele>243.4</ele>
        <time>2021-10-23T10:56:53Z</time>
      </trkpt>
      <trkpt lat="46.50146" lon="5.3762">
        <ele>243.8</ele>
        <time>2021-10-23T10:56:58Z</time>
      </trkpt>
      <trkpt lat="46.50147" lon="5.37659">
        <ele>244</ele>
        <time>2021-10-23T10:57:03Z</time>
      </trkpt>
      <trkpt lat="46.50148" lon="5.37672">
        <ele>244</ele>
        <time>2021-10-23T10:57:05Z</time>
      </trkpt>
      <trkpt lat="46.50147" lon="5.37678">
        <ele>244.2</ele>
        <time>2021-10-23T10:57:06Z</time>
      </trkpt>
      <trkpt lat="46.50146" lon="5.37684">
        <ele>244.4</ele>
        <time>2021-10-23T10:57:07Z</time>
      </trkpt>
      <trkpt lat="46.50146" lon="5.37691">
        <ele>244.6</ele>
        <time>2021-10-23T10:57:08Z</time>
      </trkpt>
      <trkpt lat="46.50149" lon="5.37706">
        <ele>245</ele>
        <time>2021-10-23T10:57:11Z</time>
      </trkpt>
      <trkpt lat="46.50154" lon="5.37718">
        <ele>245.2</ele>
        <time>2021-10-23T10:57:13Z</time>
      </trkpt>
      <trkpt lat="46.50165" lon="5.3774">
        <ele>246</ele>
        <time>2021-10-23T10:57:17Z</time>
      </trkpt>
      <trkpt lat="46.50172" lon="5.37748">
        <ele>246.6</ele>
        <time>2021-10-23T10:57:19Z</time>
      </trkpt>
      <trkpt lat="46.50177" lon="5.37751">
        <ele>246.6</ele>
        <time>2021-10-23T10:57:20Z</time>
      </trkpt>
      <trkpt lat="46.50183" lon="5.37753">
        <ele>247.4</ele>
        <time>2021-10-23T10:57:21Z</time>
      </trkpt>
      <trkpt lat="46.50188" lon="5.37756">
        <ele>247.6</ele>
        <time>2021-10-23T10:57:22Z</time>
      </trkpt>
      <trkpt lat="46.50216" lon="5.37773">
        <ele>248.2</ele>
        <time>2021-10-23T10:57:27Z</time>
      </trkpt>
      <trkpt lat="46.50246" lon="5.37797">
        <ele>248.2</ele>
        <time>2021-10-23T10:57:33Z</time>
      </trkpt>
      <trkpt lat="46.50273" lon="5.37822">
        <ele>248.8</ele>
        <time>2021-10-23T10:57:39Z</time>
      </trkpt>
      <trkpt lat="46.50281" lon="5.37831">
        <ele>249</ele>
        <time>2021-10-23T10:57:41Z</time>
      </trkpt>
      <trkpt lat="46.50328" lon="5.37879">
        <ele>249.6</ele>
        <time>2021-10-23T10:57:51Z</time>
      </trkpt>
      <trkpt lat="46.50332" lon="5.37884">
        <ele>249.6</ele>
        <time>2021-10-23T10:57:52Z</time>
      </trkpt>
      <trkpt lat="46.50344" lon="5.379">
        <ele>249.6</ele>
        <time>2021-10-23T10:57:55Z</time>
      </trkpt>
      <trkpt lat="46.50351" lon="5.37914">
        <ele>249.6</ele>
        <time>2021-10-23T10:57:57Z</time>
      </trkpt>
      <trkpt lat="46.50353" lon="5.37921">
        <ele>249.8</ele>
        <time>2021-10-23T10:57:58Z</time>
      </trkpt>
      <trkpt lat="46.50358" lon="5.37943">
        <ele>249.8</ele>
        <time>2021-10-23T10:58:01Z</time>
      </trkpt>
      <trkpt lat="46.50359" lon="5.3795">
        <ele>249.8</ele>
        <time>2021-10-23T10:58:02Z</time>
      </trkpt>
      <trkpt lat="46.50359" lon="5.37957">
        <ele>249.8</ele>
        <time>2021-10-23T10:58:03Z</time>
      </trkpt>
      <trkpt lat="46.50358" lon="5.3798">
        <ele>250</ele>
        <time>2021-10-23T10:58:06Z</time>
      </trkpt>
      <trkpt lat="46.50354" lon="5.38019">
        <ele>249.8</ele>
        <time>2021-10-23T10:58:11Z</time>
      </trkpt>
      <trkpt lat="46.50355" lon="5.38026">
        <ele>249.8</ele>
        <time>2021-10-23T10:58:12Z</time>
      </trkpt>
      <trkpt lat="46.50357" lon="5.38032">
        <ele>249.6</ele>
        <time>2021-10-23T10:58:13Z</time>
      </trkpt>
      <trkpt lat="46.50363" lon="5.38042">
        <ele>249.6</ele>
        <time>2021-10-23T10:58:15Z</time>
      </trkpt>
      <trkpt lat="46.50368" lon="5.38046">
        <ele>249.4</ele>
        <time>2021-10-23T10:58:18Z</time>
      </trkpt>
      <trkpt lat="46.50368" lon="5.38045">
        <ele>249.4</ele>
        <time>2021-10-23T10:58:20Z</time>
      </trkpt>
      <trkpt lat="46.50372" lon="5.38046">
        <ele>249.6</ele>
        <time>2021-10-23T10:58:25Z</time>
      </trkpt>
      <trkpt lat="46.50376" lon="5.38046">
        <ele>249.8</ele>
        <time>2021-10-23T10:58:26Z</time>
      </trkpt>
      <trkpt lat="46.5038" lon="5.38043">
        <ele>249.8</ele>
        <time>2021-10-23T10:58:27Z</time>
      </trkpt>
      <trkpt lat="46.50389" lon="5.38034">
        <ele>249.6</ele>
        <time>2021-10-23T10:58:29Z</time>
      </trkpt>
      <trkpt lat="46.50412" lon="5.37995">
        <ele>248.2</ele>
        <time>2021-10-23T10:58:34Z</time>
      </trkpt>
      <trkpt lat="46.50427" lon="5.3797">
        <ele>247.2</ele>
        <time>2021-10-23T10:58:37Z</time>
      </trkpt>
      <trkpt lat="46.5045" lon="5.37933">
        <ele>246.4</ele>
        <time>2021-10-23T10:58:41Z</time>
      </trkpt>
      <trkpt lat="46.50457" lon="5.37926">
        <ele>246.2</ele>
        <time>2021-10-23T10:58:42Z</time>
      </trkpt>
      <trkpt lat="46.50476" lon="5.37898">
        <ele>244.6</ele>
        <time>2021-10-23T10:58:45Z</time>
      </trkpt>
      <trkpt lat="46.50494" lon="5.3787">
        <ele>243.2</ele>
        <time>2021-10-23T10:58:48Z</time>
      </trkpt>
      <trkpt lat="46.50512" lon="5.37843">
        <ele>243</ele>
        <time>2021-10-23T10:58:51Z</time>
      </trkpt>
      <trkpt lat="46.50524" lon="5.37824">
        <ele>242.6</ele>
        <time>2021-10-23T10:58:53Z</time>
      </trkpt>
      <trkpt lat="46.50552" lon="5.37782">
        <ele>241.6</ele>
        <time>2021-10-23T10:58:57Z</time>
      </trkpt>
      <trkpt lat="46.50565" lon="5.37761">
        <ele>240.2</ele>
        <time>2021-10-23T10:58:59Z</time>
      </trkpt>
      <trkpt lat="46.50578" lon="5.37741">
        <ele>238.8</ele>
        <time>2021-10-23T10:59:01Z</time>
      </trkpt>
      <trkpt lat="46.50591" lon="5.37721">
        <ele>237.6</ele>
        <time>2021-10-23T10:59:03Z</time>
      </trkpt>
      <trkpt lat="46.50612" lon="5.3769">
        <ele>236.2</ele>
        <time>2021-10-23T10:59:06Z</time>
      </trkpt>
      <trkpt lat="46.50631" lon="5.37661">
        <ele>234.8</ele>
        <time>2021-10-23T10:59:09Z</time>
      </trkpt>
      <trkpt lat="46.50643" lon="5.37642">
        <ele>234.2</ele>
        <time>2021-10-23T10:59:11Z</time>
      </trkpt>
      <trkpt lat="46.50655" lon="5.37624">
        <ele>233.6</ele>
        <time>2021-10-23T10:59:13Z</time>
      </trkpt>
      <trkpt lat="46.50682" lon="5.37582">
        <ele>232.6</ele>
        <time>2021-10-23T10:59:18Z</time>
      </trkpt>
      <trkpt lat="46.50693" lon="5.37569">
        <ele>232.4</ele>
        <time>2021-10-23T10:59:20Z</time>
      </trkpt>
      <trkpt lat="46.50699" lon="5.37567">
        <ele>232.4</ele>
        <time>2021-10-23T10:59:21Z</time>
      </trkpt>
      <trkpt lat="46.50705" lon="5.37569">
        <ele>232.2</ele>
        <time>2021-10-23T10:59:22Z</time>
      </trkpt>
      <trkpt lat="46.50716" lon="5.37581">
        <ele>232</ele>
        <time>2021-10-23T10:59:24Z</time>
      </trkpt>
      <trkpt lat="46.50732" lon="5.37609">
        <ele>231.8</ele>
        <time>2021-10-23T10:59:28Z</time>
      </trkpt>
      <trkpt lat="46.50735" lon="5.37616">
        <ele>231.8</ele>
        <time>2021-10-23T10:59:29Z</time>
      </trkpt>
      <trkpt lat="46.50737" lon="5.37623">
        <ele>231.8</ele>
        <time>2021-10-23T10:59:30Z</time>
      </trkpt>
      <trkpt lat="46.5074" lon="5.37637">
        <ele>231.8</ele>
        <time>2021-10-23T10:59:32Z</time>
      </trkpt>
      <trkpt lat="46.50741" lon="5.37652">
        <ele>232.4</ele>
        <time>2021-10-23T10:59:34Z</time>
      </trkpt>
      <trkpt lat="46.50743" lon="5.37678">
        <ele>233.6</ele>
        <time>2021-10-23T10:59:38Z</time>
      </trkpt>
      <trkpt lat="46.50744" lon="5.37685">
        <ele>233.8</ele>
        <time>2021-10-23T10:59:39Z</time>
      </trkpt>
      <trkpt lat="46.50745" lon="5.37693">
        <ele>234.4</ele>
        <time>2021-10-23T10:59:40Z</time>
      </trkpt>
      <trkpt lat="46.50747" lon="5.37706">
        <ele>234.8</ele>
        <time>2021-10-23T10:59:42Z</time>
      </trkpt>
      <trkpt lat="46.5075" lon="5.37739">
        <ele>236</ele>
        <time>2021-10-23T10:59:47Z</time>
      </trkpt>
      <trkpt lat="46.50753" lon="5.37769">
        <ele>236.6</ele>
        <time>2021-10-23T10:59:51Z</time>
      </trkpt>
      <trkpt lat="46.50756" lon="5.37783">
        <ele>236.6</ele>
        <time>2021-10-23T10:59:53Z</time>
      </trkpt>
      <trkpt lat="46.5076" lon="5.37797">
        <ele>237</ele>
        <time>2021-10-23T10:59:55Z</time>
      </trkpt>
      <trkpt lat="46.50769" lon="5.37823">
        <ele>237.4</ele>
        <time>2021-10-23T10:59:59Z</time>
      </trkpt>
      <trkpt lat="46.50772" lon="5.37829">
        <ele>237.4</ele>
        <time>2021-10-23T11:00:00Z</time>
      </trkpt>
      <trkpt lat="46.50788" lon="5.37857">
        <ele>238</ele>
        <time>2021-10-23T11:00:05Z</time>
      </trkpt>
      <trkpt lat="46.50795" lon="5.37867">
        <ele>238.2</ele>
        <time>2021-10-23T11:00:07Z</time>
      </trkpt>
      <trkpt lat="46.50819" lon="5.37893">
        <ele>238.8</ele>
        <time>2021-10-23T11:00:13Z</time>
      </trkpt>
      <trkpt lat="46.50824" lon="5.37895">
        <ele>238.8</ele>
        <time>2021-10-23T11:00:14Z</time>
      </trkpt>
      <trkpt lat="46.50829" lon="5.37898">
        <ele>238.8</ele>
        <time>2021-10-23T11:00:15Z</time>
      </trkpt>
      <trkpt lat="46.50851" lon="5.37902">
        <ele>239</ele>
        <time>2021-10-23T11:00:19Z</time>
      </trkpt>
      <trkpt lat="46.50862" lon="5.37903">
        <ele>239.2</ele>
        <time>2021-10-23T11:00:21Z</time>
      </trkpt>
      <trkpt lat="46.50911" lon="5.37905">
        <ele>239.2</ele>
        <time>2021-10-23T11:00:30Z</time>
      </trkpt>
      <trkpt lat="46.50953" lon="5.37894">
        <ele>239.4</ele>
        <time>2021-10-23T11:00:38Z</time>
      </trkpt>
      <trkpt lat="46.51008" lon="5.37881">
        <ele>239.6</ele>
        <time>2021-10-23T11:00:48Z</time>
      </trkpt>
      <trkpt lat="46.51059" lon="5.37874">
        <ele>238.6</ele>
        <time>2021-10-23T11:00:56Z</time>
      </trkpt>
      <trkpt lat="46.51073" lon="5.37873">
        <ele>238</ele>
        <time>2021-10-23T11:00:58Z</time>
      </trkpt>
      <trkpt lat="46.51101" lon="5.37866">
        <ele>237.2</ele>
        <time>2021-10-23T11:01:02Z</time>
      </trkpt>
      <trkpt lat="46.51108" lon="5.37863">
        <ele>237</ele>
        <time>2021-10-23T11:01:03Z</time>
      </trkpt>
      <trkpt lat="46.51143" lon="5.37841">
        <ele>236</ele>
        <time>2021-10-23T11:01:08Z</time>
      </trkpt>
      <trkpt lat="46.51149" lon="5.37835">
        <ele>235.4</ele>
        <time>2021-10-23T11:01:09Z</time>
      </trkpt>
      <trkpt lat="46.51175" lon="5.37817">
        <ele>234.2</ele>
        <time>2021-10-23T11:01:13Z</time>
      </trkpt>
      <trkpt lat="46.51181" lon="5.37814">
        <ele>233.8</ele>
        <time>2021-10-23T11:01:14Z</time>
      </trkpt>
      <trkpt lat="46.51188" lon="5.37812">
        <ele>233.6</ele>
        <time>2021-10-23T11:01:15Z</time>
      </trkpt>
      <trkpt lat="46.5121" lon="5.37808">
        <ele>233.2</ele>
        <time>2021-10-23T11:01:18Z</time>
      </trkpt>
      <trkpt lat="46.51233" lon="5.37804">
        <ele>232.6</ele>
        <time>2021-10-23T11:01:21Z</time>
      </trkpt>
      <trkpt lat="46.51255" lon="5.37799">
        <ele>232.2</ele>
        <time>2021-10-23T11:01:24Z</time>
      </trkpt>
      <trkpt lat="46.51262" lon="5.37796">
        <ele>231.8</ele>
        <time>2021-10-23T11:01:25Z</time>
      </trkpt>
      <trkpt lat="46.51269" lon="5.37793">
        <ele>231.4</ele>
        <time>2021-10-23T11:01:26Z</time>
      </trkpt>
      <trkpt lat="46.51309" lon="5.37772">
        <ele>230.6</ele>
        <time>2021-10-23T11:01:32Z</time>
      </trkpt>
      <trkpt lat="46.51323" lon="5.37766">
        <ele>230.2</ele>
        <time>2021-10-23T11:01:34Z</time>
      </trkpt>
      <trkpt lat="46.51372" lon="5.37741">
        <ele>229.4</ele>
        <time>2021-10-23T11:01:41Z</time>
      </trkpt>
      <trkpt lat="46.51394" lon="5.3773">
        <ele>228.4</ele>
        <time>2021-10-23T11:01:44Z</time>
      </trkpt>
      <trkpt lat="46.51402" lon="5.37727">
        <ele>228.2</ele>
        <time>2021-10-23T11:01:45Z</time>
      </trkpt>
      <trkpt lat="46.51446" lon="5.37713">
        <ele>227.4</ele>
        <time>2021-10-23T11:01:51Z</time>
      </trkpt>
      <trkpt lat="46.51468" lon="5.37708">
        <ele>226.8</ele>
        <time>2021-10-23T11:01:54Z</time>
      </trkpt>
      <trkpt lat="46.5149" lon="5.37704">
        <ele>226.2</ele>
        <time>2021-10-23T11:01:57Z</time>
      </trkpt>
      <trkpt lat="46.51534" lon="5.37693">
        <ele>225.8</ele>
        <time>2021-10-23T11:02:03Z</time>
      </trkpt>
      <trkpt lat="46.51556" lon="5.37688">
        <ele>225.2</ele>
        <time>2021-10-23T11:02:06Z</time>
      </trkpt>
      <trkpt lat="46.51592" lon="5.37684">
        <ele>223.8</ele>
        <time>2021-10-23T11:02:11Z</time>
      </trkpt>
      <trkpt lat="46.51631" lon="5.37673">
        <ele>222.8</ele>
        <time>2021-10-23T11:02:16Z</time>
      </trkpt>
      <trkpt lat="46.51673" lon="5.37652">
        <ele>222</ele>
        <time>2021-10-23T11:02:22Z</time>
      </trkpt>
      <trkpt lat="46.51685" lon="5.37642">
        <ele>221.8</ele>
        <time>2021-10-23T11:02:24Z</time>
      </trkpt>
      <trkpt lat="46.51691" lon="5.37637">
        <ele>221.6</ele>
        <time>2021-10-23T11:02:25Z</time>
      </trkpt>
      <trkpt lat="46.51705" lon="5.37632">
        <ele>221.4</ele>
        <time>2021-10-23T11:02:27Z</time>
      </trkpt>
      <trkpt lat="46.51711" lon="5.37632">
        <ele>221.4</ele>
        <time>2021-10-23T11:02:28Z</time>
      </trkpt>
      <trkpt lat="46.51718" lon="5.37633">
        <ele>221.4</ele>
        <time>2021-10-23T11:02:29Z</time>
      </trkpt>
      <trkpt lat="46.5173" lon="5.37637">
        <ele>221.4</ele>
        <time>2021-10-23T11:02:31Z</time>
      </trkpt>
      <trkpt lat="46.51776" lon="5.37651">
        <ele>222.4</ele>
        <time>2021-10-23T11:02:39Z</time>
      </trkpt>
      <trkpt lat="46.51798" lon="5.37654">
        <ele>222.8</ele>
        <time>2021-10-23T11:02:43Z</time>
      </trkpt>
      <trkpt lat="46.5182" lon="5.37654">
        <ele>223.4</ele>
        <time>2021-10-23T11:02:47Z</time>
      </trkpt>
      <trkpt lat="46.5184" lon="5.37652">
        <ele>224</ele>
        <time>2021-10-23T11:02:51Z</time>
      </trkpt>
      <trkpt lat="46.51878" lon="5.37649">
        <ele>224.8</ele>
        <time>2021-10-23T11:02:58Z</time>
      </trkpt>
      <trkpt lat="46.51884" lon="5.37649">
        <ele>225</ele>
        <time>2021-10-23T11:02:59Z</time>
      </trkpt>
      <trkpt lat="46.51922" lon="5.37646">
        <ele>225.6</ele>
        <time>2021-10-23T11:03:05Z</time>
      </trkpt>
      <trkpt lat="46.51978" lon="5.37637">
        <ele>225.4</ele>
        <time>2021-10-23T11:03:15Z</time>
      </trkpt>
      <trkpt lat="46.51984" lon="5.37636">
        <ele>225.4</ele>
        <time>2021-10-23T11:03:16Z</time>
      </trkpt>
      <trkpt lat="46.52004" lon="5.37632">
        <ele>225</ele>
        <time>2021-10-23T11:03:20Z</time>
      </trkpt>
      <trkpt lat="46.52009" lon="5.37632">
        <ele>225</ele>
        <time>2021-10-23T11:03:21Z</time>
      </trkpt>
      <trkpt lat="46.52013" lon="5.37632">
        <ele>224.8</ele>
        <time>2021-10-23T11:03:22Z</time>
      </trkpt>
      <trkpt lat="46.52023" lon="5.37623">
        <ele>224.8</ele>
        <time>2021-10-23T11:03:25Z</time>
      </trkpt>
      <trkpt lat="46.52026" lon="5.37618">
        <ele>224.8</ele>
        <time>2021-10-23T11:03:26Z</time>
      </trkpt>
      <trkpt lat="46.52031" lon="5.37604">
        <ele>224.8</ele>
        <time>2021-10-23T11:03:28Z</time>
      </trkpt>
      <trkpt lat="46.52032" lon="5.37596">
        <ele>224.8</ele>
        <time>2021-10-23T11:03:29Z</time>
      </trkpt>
      <trkpt lat="46.52046" lon="5.37531">
        <ele>224.4</ele>
        <time>2021-10-23T11:03:37Z</time>
      </trkpt>
      <trkpt lat="46.52064" lon="5.37452">
        <ele>224.8</ele>
        <time>2021-10-23T11:03:47Z</time>
      </trkpt>
      <trkpt lat="46.52067" lon="5.37437">
        <ele>224.8</ele>
        <time>2021-10-23T11:03:49Z</time>
      </trkpt>
      <trkpt lat="46.52083" lon="5.37366">
        <ele>224.6</ele>
        <time>2021-10-23T11:03:58Z</time>
      </trkpt>
      <trkpt lat="46.52086" lon="5.37358">
        <ele>224.6</ele>
        <time>2021-10-23T11:03:59Z</time>
      </trkpt>
      <trkpt lat="46.5209" lon="5.37351">
        <ele>224.4</ele>
        <time>2021-10-23T11:04:00Z</time>
      </trkpt>
      <trkpt lat="46.52101" lon="5.37339">
        <ele>224.2</ele>
        <time>2021-10-23T11:04:02Z</time>
      </trkpt>
      <trkpt lat="46.52114" lon="5.37329">
        <ele>223.8</ele>
        <time>2021-10-23T11:04:04Z</time>
      </trkpt>
      <trkpt lat="46.52137" lon="5.37314">
        <ele>222.6</ele>
        <time>2021-10-23T11:04:07Z</time>
      </trkpt>
      <trkpt lat="46.5216" lon="5.37298">
        <ele>221.2</ele>
        <time>2021-10-23T11:04:10Z</time>
      </trkpt>
      <trkpt lat="46.52175" lon="5.37288">
        <ele>220</ele>
        <time>2021-10-23T11:04:12Z</time>
      </trkpt>
      <trkpt lat="46.52191" lon="5.37277">
        <ele>219</ele>
        <time>2021-10-23T11:04:14Z</time>
      </trkpt>
      <trkpt lat="46.52199" lon="5.37272">
        <ele>219</ele>
        <time>2021-10-23T11:04:15Z</time>
      </trkpt>
      <trkpt lat="46.52223" lon="5.37253">
        <ele>217.4</ele>
        <time>2021-10-23T11:04:18Z</time>
      </trkpt>
      <trkpt lat="46.52246" lon="5.37233">
        <ele>215.8</ele>
        <time>2021-10-23T11:04:21Z</time>
      </trkpt>
      <trkpt lat="46.52253" lon="5.37226">
        <ele>215.6</ele>
        <time>2021-10-23T11:04:22Z</time>
      </trkpt>
      <trkpt lat="46.52275" lon="5.37204">
        <ele>214.4</ele>
        <time>2021-10-23T11:04:25Z</time>
      </trkpt>
      <trkpt lat="46.52305" lon="5.37172">
        <ele>213.2</ele>
        <time>2021-10-23T11:04:29Z</time>
      </trkpt>
      <trkpt lat="46.5232" lon="5.37156">
        <ele>212.4</ele>
        <time>2021-10-23T11:04:31Z</time>
      </trkpt>
      <trkpt lat="46.52327" lon="5.37148">
        <ele>211.8</ele>
        <time>2021-10-23T11:04:32Z</time>
      </trkpt>
      <trkpt lat="46.52351" lon="5.37124">
        <ele>210.6</ele>
        <time>2021-10-23T11:04:35Z</time>
      </trkpt>
      <trkpt lat="46.52381" lon="5.37091">
        <ele>209.4</ele>
        <time>2021-10-23T11:04:39Z</time>
      </trkpt>
      <trkpt lat="46.52396" lon="5.37075">
        <ele>208.4</ele>
        <time>2021-10-23T11:04:41Z</time>
      </trkpt>
      <trkpt lat="46.52403" lon="5.37065">
        <ele>207.8</ele>
        <time>2021-10-23T11:04:42Z</time>
      </trkpt>
      <trkpt lat="46.52409" lon="5.37056">
        <ele>207.2</ele>
        <time>2021-10-23T11:04:43Z</time>
      </trkpt>
      <trkpt lat="46.52431" lon="5.37017">
        <ele>206.4</ele>
        <time>2021-10-23T11:04:47Z</time>
      </trkpt>
      <trkpt lat="46.52443" lon="5.36986">
        <ele>206.4</ele>
        <time>2021-10-23T11:04:50Z</time>
      </trkpt>
      <trkpt lat="46.52449" lon="5.36964">
        <ele>206.6</ele>
        <time>2021-10-23T11:04:52Z</time>
      </trkpt>
      <trkpt lat="46.5246" lon="5.36884">
        <ele>206.4</ele>
        <time>2021-10-23T11:04:59Z</time>
      </trkpt>
      <trkpt lat="46.52462" lon="5.36873">
        <ele>206.2</ele>
        <time>2021-10-23T11:05:00Z</time>
      </trkpt>
      <trkpt lat="46.52467" lon="5.36809">
        <ele>206</ele>
        <time>2021-10-23T11:05:06Z</time>
      </trkpt>
      <trkpt lat="46.52469" lon="5.36723">
        <ele>205.8</ele>
        <time>2021-10-23T11:05:14Z</time>
      </trkpt>
      <trkpt lat="46.52472" lon="5.3668">
        <ele>205.8</ele>
        <time>2021-10-23T11:05:18Z</time>
      </trkpt>
      <trkpt lat="46.52476" lon="5.36593">
        <ele>206</ele>
        <time>2021-10-23T11:05:26Z</time>
      </trkpt>
      <trkpt lat="46.52478" lon="5.36561">
        <ele>205.6</ele>
        <time>2021-10-23T11:05:29Z</time>
      </trkpt>
      <trkpt lat="46.52485" lon="5.36485">
        <ele>205</ele>
        <time>2021-10-23T11:05:36Z</time>
      </trkpt>
      <trkpt lat="46.52488" lon="5.36463">
        <ele>204.8</ele>
        <time>2021-10-23T11:05:38Z</time>
      </trkpt>
      <trkpt lat="46.52492" lon="5.36431">
        <ele>203.8</ele>
        <time>2021-10-23T11:05:41Z</time>
      </trkpt>
      <trkpt lat="46.52503" lon="5.3636">
        <ele>203.6</ele>
        <time>2021-10-23T11:05:48Z</time>
      </trkpt>
      <trkpt lat="46.5251" lon="5.36343">
        <ele>203.6</ele>
        <time>2021-10-23T11:05:50Z</time>
      </trkpt>
      <trkpt lat="46.52521" lon="5.36329">
        <ele>203.6</ele>
        <time>2021-10-23T11:05:52Z</time>
      </trkpt>
      <trkpt lat="46.52527" lon="5.36324">
        <ele>203.6</ele>
        <time>2021-10-23T11:05:53Z</time>
      </trkpt>
      <trkpt lat="46.52539" lon="5.36317">
        <ele>203.4</ele>
        <time>2021-10-23T11:05:55Z</time>
      </trkpt>
      <trkpt lat="46.52546" lon="5.36316">
        <ele>203.4</ele>
        <time>2021-10-23T11:05:56Z</time>
      </trkpt>
      <trkpt lat="46.52552" lon="5.36316">
        <ele>203.4</ele>
        <time>2021-10-23T11:05:57Z</time>
      </trkpt>
      <trkpt lat="46.52565" lon="5.36319">
        <ele>203.4</ele>
        <time>2021-10-23T11:05:59Z</time>
      </trkpt>
      <trkpt lat="46.52577" lon="5.36314">
        <ele>203.4</ele>
        <time>2021-10-23T11:06:01Z</time>
      </trkpt>
      <trkpt lat="46.52583" lon="5.36309">
        <ele>203.2</ele>
        <time>2021-10-23T11:06:02Z</time>
      </trkpt>
      <trkpt lat="46.52593" lon="5.36295">
        <ele>203.4</ele>
        <time>2021-10-23T11:06:04Z</time>
      </trkpt>
      <trkpt lat="46.52611" lon="5.36279">
        <ele>203.4</ele>
        <time>2021-10-23T11:06:07Z</time>
      </trkpt>
      <trkpt lat="46.52655" lon="5.36252">
        <ele>203</ele>
        <time>2021-10-23T11:06:14Z</time>
      </trkpt>
      <trkpt lat="46.52697" lon="5.36221">
        <ele>203.2</ele>
        <time>2021-10-23T11:06:21Z</time>
      </trkpt>
      <trkpt lat="46.52701" lon="5.36215">
        <ele>203.2</ele>
        <time>2021-10-23T11:06:22Z</time>
      </trkpt>
      <trkpt lat="46.52713" lon="5.36193">
        <ele>203.2</ele>
        <time>2021-10-23T11:06:25Z</time>
      </trkpt>
      <trkpt lat="46.52731" lon="5.36135">
        <ele>203.2</ele>
        <time>2021-10-23T11:06:32Z</time>
      </trkpt>
      <trkpt lat="46.52757" lon="5.36062">
        <ele>204</ele>
        <time>2021-10-23T11:06:41Z</time>
      </trkpt>
      <trkpt lat="46.52761" lon="5.36056">
        <ele>204.2</ele>
        <time>2021-10-23T11:06:42Z</time>
      </trkpt>
      <trkpt lat="46.52766" lon="5.36051">
        <ele>204.4</ele>
        <time>2021-10-23T11:06:43Z</time>
      </trkpt>
      <trkpt lat="46.52778" lon="5.36047">
        <ele>204.6</ele>
        <time>2021-10-23T11:06:45Z</time>
      </trkpt>
      <trkpt lat="46.52789" lon="5.3605">
        <ele>205</ele>
        <time>2021-10-23T11:06:47Z</time>
      </trkpt>
      <trkpt lat="46.52804" lon="5.36056">
        <ele>205.2</ele>
        <time>2021-10-23T11:06:50Z</time>
      </trkpt>
      <trkpt lat="46.52827" lon="5.36064">
        <ele>206</ele>
        <time>2021-10-23T11:06:55Z</time>
      </trkpt>
      <trkpt lat="46.5283" lon="5.36065">
        <ele>206.6</ele>
        <time>2021-10-23T11:06:56Z</time>
      </trkpt>
      <trkpt lat="46.52833" lon="5.36068">
        <ele>206.6</ele>
        <time>2021-10-23T11:06:57Z</time>
      </trkpt>
      <trkpt lat="46.52835" lon="5.36077">
        <ele>207.4</ele>
        <time>2021-10-23T11:06:59Z</time>
      </trkpt>
      <trkpt lat="46.52835" lon="5.3609">
        <ele>207.8</ele>
        <time>2021-10-23T11:07:01Z</time>
      </trkpt>
      <trkpt lat="46.52835" lon="5.36105">
        <ele>208</ele>
        <time>2021-10-23T11:07:03Z</time>
      </trkpt>
      <trkpt lat="46.52837" lon="5.36156">
        <ele>207.8</ele>
        <time>2021-10-23T11:07:09Z</time>
      </trkpt>
      <trkpt lat="46.52838" lon="5.36228">
        <ele>207.2</ele>
        <time>2021-10-23T11:07:17Z</time>
      </trkpt>
      <trkpt lat="46.52839" lon="5.36283">
        <ele>206</ele>
        <time>2021-10-23T11:07:23Z</time>
      </trkpt>
      <trkpt lat="46.5284" lon="5.36327">
        <ele>205.6</ele>
        <time>2021-10-23T11:07:28Z</time>
      </trkpt>
      <trkpt lat="46.52843" lon="5.36406">
        <ele>206</ele>
        <time>2021-10-23T11:07:37Z</time>
      </trkpt>
      <trkpt lat="46.52844" lon="5.36431">
        <ele>206</ele>
        <time>2021-10-23T11:07:40Z</time>
      </trkpt>
      <trkpt lat="46.52846" lon="5.36517">
        <ele>205.8</ele>
        <time>2021-10-23T11:07:50Z</time>
      </trkpt>
      <trkpt lat="46.52846" lon="5.36534">
        <ele>205.8</ele>
        <time>2021-10-23T11:07:52Z</time>
      </trkpt>
      <trkpt lat="46.52846" lon="5.3655">
        <ele>205.8</ele>
        <time>2021-10-23T11:07:54Z</time>
      </trkpt>
      <trkpt lat="46.52849" lon="5.36616">
        <ele>206.4</ele>
        <time>2021-10-23T11:08:02Z</time>
      </trkpt>
      <trkpt lat="46.5285" lon="5.36672">
        <ele>207.2</ele>
        <time>2021-10-23T11:08:09Z</time>
      </trkpt>
      <trkpt lat="46.52852" lon="5.36712">
        <ele>207.8</ele>
        <time>2021-10-23T11:08:14Z</time>
      </trkpt>
      <trkpt lat="46.52853" lon="5.36768">
        <ele>208.4</ele>
        <time>2021-10-23T11:08:21Z</time>
      </trkpt>
      <trkpt lat="46.52854" lon="5.36793">
        <ele>208.6</ele>
        <time>2021-10-23T11:08:24Z</time>
      </trkpt>
      <trkpt lat="46.52856" lon="5.36873">
        <ele>208.6</ele>
        <time>2021-10-23T11:08:33Z</time>
      </trkpt>
      <trkpt lat="46.52856" lon="5.36882">
        <ele>208.6</ele>
        <time>2021-10-23T11:08:34Z</time>
      </trkpt>
      <trkpt lat="46.52857" lon="5.36964">
        <ele>208.4</ele>
        <time>2021-10-23T11:08:43Z</time>
      </trkpt>
      <trkpt lat="46.52858" lon="5.36982">
        <ele>208.4</ele>
        <time>2021-10-23T11:08:45Z</time>
      </trkpt>
      <trkpt lat="46.5286" lon="5.37064">
        <ele>208.4</ele>
        <time>2021-10-23T11:08:54Z</time>
      </trkpt>
      <trkpt lat="46.52864" lon="5.37144">
        <ele>208.4</ele>
        <time>2021-10-23T11:09:03Z</time>
      </trkpt>
      <trkpt lat="46.52865" lon="5.37152">
        <ele>208.6</ele>
        <time>2021-10-23T11:09:04Z</time>
      </trkpt>
      <trkpt lat="46.52868" lon="5.37218">
        <ele>209.4</ele>
        <time>2021-10-23T11:09:12Z</time>
      </trkpt>
      <trkpt lat="46.52868" lon="5.37234">
        <ele>209.8</ele>
        <time>2021-10-23T11:09:14Z</time>
      </trkpt>
      <trkpt lat="46.5287" lon="5.37318">
        <ele>209.4</ele>
        <time>2021-10-23T11:09:24Z</time>
      </trkpt>
      <trkpt lat="46.5287" lon="5.37327">
        <ele>209.6</ele>
        <time>2021-10-23T11:09:25Z</time>
      </trkpt>
      <trkpt lat="46.52871" lon="5.37351">
        <ele>209.4</ele>
        <time>2021-10-23T11:09:28Z</time>
      </trkpt>
      <trkpt lat="46.52873" lon="5.37436">
        <ele>209.6</ele>
        <time>2021-10-23T11:09:38Z</time>
      </trkpt>
      <trkpt lat="46.52876" lon="5.37518">
        <ele>210.2</ele>
        <time>2021-10-23T11:09:48Z</time>
      </trkpt>
      <trkpt lat="46.52876" lon="5.37534">
        <ele>210.2</ele>
        <time>2021-10-23T11:09:50Z</time>
      </trkpt>
      <trkpt lat="46.52877" lon="5.37574">
        <ele>210.6</ele>
        <time>2021-10-23T11:09:55Z</time>
      </trkpt>
      <trkpt lat="46.52879" lon="5.37639">
        <ele>211</ele>
        <time>2021-10-23T11:10:03Z</time>
      </trkpt>
      <trkpt lat="46.52881" lon="5.37682">
        <ele>211.6</ele>
        <time>2021-10-23T11:10:08Z</time>
      </trkpt>
      <trkpt lat="46.52882" lon="5.37725">
        <ele>212</ele>
        <time>2021-10-23T11:10:13Z</time>
      </trkpt>
      <trkpt lat="46.52884" lon="5.378">
        <ele>211.8</ele>
        <time>2021-10-23T11:10:22Z</time>
      </trkpt>
      <trkpt lat="46.52886" lon="5.37882">
        <ele>212</ele>
        <time>2021-10-23T11:10:32Z</time>
      </trkpt>
      <trkpt lat="46.52886" lon="5.37908">
        <ele>212.2</ele>
        <time>2021-10-23T11:10:35Z</time>
      </trkpt>
      <trkpt lat="46.52887" lon="5.37916">
        <ele>212.2</ele>
        <time>2021-10-23T11:10:36Z</time>
      </trkpt>
      <trkpt lat="46.52888" lon="5.37949">
        <ele>212.2</ele>
        <time>2021-10-23T11:10:40Z</time>
      </trkpt>
      <trkpt lat="46.52888" lon="5.37967">
        <ele>212.6</ele>
        <time>2021-10-23T11:10:42Z</time>
      </trkpt>
      <trkpt lat="46.52889" lon="5.37975">
        <ele>212.8</ele>
        <time>2021-10-23T11:10:43Z</time>
      </trkpt>
      <trkpt lat="46.5289" lon="5.38028">
        <ele>213.4</ele>
        <time>2021-10-23T11:10:49Z</time>
      </trkpt>
      <trkpt lat="46.52893" lon="5.38107">
        <ele>213.4</ele>
        <time>2021-10-23T11:10:58Z</time>
      </trkpt>
      <trkpt lat="46.52893" lon="5.38115">
        <ele>213.4</ele>
        <time>2021-10-23T11:10:59Z</time>
      </trkpt>
      <trkpt lat="46.52894" lon="5.38158">
        <ele>213.8</ele>
        <time>2021-10-23T11:11:04Z</time>
      </trkpt>
      <trkpt lat="46.52895" lon="5.38201">
        <ele>214.2</ele>
        <time>2021-10-23T11:11:09Z</time>
      </trkpt>
      <trkpt lat="46.52895" lon="5.38274">
        <ele>214.6</ele>
        <time>2021-10-23T11:11:18Z</time>
      </trkpt>
      <trkpt lat="46.52896" lon="5.3829">
        <ele>214.8</ele>
        <time>2021-10-23T11:11:20Z</time>
      </trkpt>
      <trkpt lat="46.52899" lon="5.3833">
        <ele>215.2</ele>
        <time>2021-10-23T11:11:25Z</time>
      </trkpt>
      <trkpt lat="46.52902" lon="5.38392">
        <ele>215.8</ele>
        <time>2021-10-23T11:11:33Z</time>
      </trkpt>
      <trkpt lat="46.52902" lon="5.384">
        <ele>216</ele>
        <time>2021-10-23T11:11:34Z</time>
      </trkpt>
      <trkpt lat="46.52905" lon="5.3846">
        <ele>216.8</ele>
        <time>2021-10-23T11:11:42Z</time>
      </trkpt>
      <trkpt lat="46.52906" lon="5.38522">
        <ele>217.8</ele>
        <time>2021-10-23T11:11:50Z</time>
      </trkpt>
      <trkpt lat="46.52906" lon="5.38538">
        <ele>218</ele>
        <time>2021-10-23T11:11:52Z</time>
      </trkpt>
      <trkpt lat="46.52907" lon="5.38576">
        <ele>218.2</ele>
        <time>2021-10-23T11:11:57Z</time>
      </trkpt>
      <trkpt lat="46.52907" lon="5.38583">
        <ele>218.2</ele>
        <time>2021-10-23T11:11:58Z</time>
      </trkpt>
      <trkpt lat="46.52908" lon="5.38591">
        <ele>218.2</ele>
        <time>2021-10-23T11:11:59Z</time>
      </trkpt>
      <trkpt lat="46.52912" lon="5.38604">
        <ele>218.2</ele>
        <time>2021-10-23T11:12:01Z</time>
      </trkpt>
      <trkpt lat="46.52916" lon="5.38608">
        <ele>218.2</ele>
        <time>2021-10-23T11:12:02Z</time>
      </trkpt>
      <trkpt lat="46.52921" lon="5.38611">
        <ele>218.2</ele>
        <time>2021-10-23T11:12:03Z</time>
      </trkpt>
      <trkpt lat="46.5293" lon="5.38609">
        <ele>218.4</ele>
        <time>2021-10-23T11:12:05Z</time>
      </trkpt>
      <trkpt lat="46.5294" lon="5.38606">
        <ele>218.8</ele>
        <time>2021-10-23T11:12:07Z</time>
      </trkpt>
      <trkpt lat="46.52945" lon="5.38605">
        <ele>219</ele>
        <time>2021-10-23T11:12:08Z</time>
      </trkpt>
      <trkpt lat="46.5295" lon="5.38605">
        <ele>219.2</ele>
        <time>2021-10-23T11:12:09Z</time>
      </trkpt>
      <trkpt lat="46.52955" lon="5.38606">
        <ele>219.4</ele>
        <time>2021-10-23T11:12:10Z</time>
      </trkpt>
      <trkpt lat="46.52977" lon="5.3861">
        <ele>220.2</ele>
        <time>2021-10-23T11:12:15Z</time>
      </trkpt>
      <trkpt lat="46.52985" lon="5.38612">
        <ele>220.6</ele>
        <time>2021-10-23T11:12:17Z</time>
      </trkpt>
      <trkpt lat="46.52993" lon="5.38612">
        <ele>221.2</ele>
        <time>2021-10-23T11:12:19Z</time>
      </trkpt>
      <trkpt lat="46.52997" lon="5.38611">
        <ele>221.4</ele>
        <time>2021-10-23T11:12:20Z</time>
      </trkpt>
      <trkpt lat="46.5301" lon="5.3861">
        <ele>222</ele>
        <time>2021-10-23T11:12:23Z</time>
      </trkpt>
      <trkpt lat="46.53019" lon="5.3861">
        <ele>222.6</ele>
        <time>2021-10-23T11:12:25Z</time>
      </trkpt>
      <trkpt lat="46.5304" lon="5.38605">
        <ele>223.6</ele>
        <time>2021-10-23T11:12:30Z</time>
      </trkpt>
      <trkpt lat="46.53045" lon="5.38604">
        <ele>223.8</ele>
        <time>2021-10-23T11:12:31Z</time>
      </trkpt>
      <trkpt lat="46.5308" lon="5.38596">
        <ele>224.8</ele>
        <time>2021-10-23T11:12:39Z</time>
      </trkpt>
      <trkpt lat="46.53084" lon="5.38594">
        <ele>225</ele>
        <time>2021-10-23T11:12:40Z</time>
      </trkpt>
      <trkpt lat="46.53107" lon="5.3859">
        <ele>225.6</ele>
        <time>2021-10-23T11:12:45Z</time>
      </trkpt>
      <trkpt lat="46.53116" lon="5.38591">
        <ele>225.8</ele>
        <time>2021-10-23T11:12:47Z</time>
      </trkpt>
      <trkpt lat="46.53126" lon="5.38591">
        <ele>226</ele>
        <time>2021-10-23T11:12:49Z</time>
      </trkpt>
      <trkpt lat="46.5313" lon="5.38592">
        <ele>226</ele>
        <time>2021-10-23T11:12:50Z</time>
      </trkpt>
      <trkpt lat="46.53139" lon="5.38595">
        <ele>226.2</ele>
        <time>2021-10-23T11:12:52Z</time>
      </trkpt>
      <trkpt lat="46.53144" lon="5.38597">
        <ele>226.4</ele>
        <time>2021-10-23T11:12:53Z</time>
      </trkpt>
      <trkpt lat="46.53164" lon="5.3861">
        <ele>227</ele>
        <time>2021-10-23T11:12:58Z</time>
      </trkpt>
      <trkpt lat="46.53175" lon="5.3862">
        <ele>227.6</ele>
        <time>2021-10-23T11:13:01Z</time>
      </trkpt>
      <trkpt lat="46.53192" lon="5.38639">
        <ele>228.2</ele>
        <time>2021-10-23T11:13:06Z</time>
      </trkpt>
      <trkpt lat="46.5321" lon="5.38656">
        <ele>229.2</ele>
        <time>2021-10-23T11:13:11Z</time>
      </trkpt>
      <trkpt lat="46.53253" lon="5.38675">
        <ele>230.2</ele>
        <time>2021-10-23T11:13:21Z</time>
      </trkpt>
      <trkpt lat="46.53274" lon="5.38684">
        <ele>231.2</ele>
        <time>2021-10-23T11:13:26Z</time>
      </trkpt>
      <trkpt lat="46.53295" lon="5.38694">
        <ele>232</ele>
        <time>2021-10-23T11:13:31Z</time>
      </trkpt>
      <trkpt lat="46.53304" lon="5.38697">
        <ele>232.4</ele>
        <time>2021-10-23T11:13:33Z</time>
      </trkpt>
      <trkpt lat="46.53345" lon="5.38705">
        <ele>233.4</ele>
        <time>2021-10-23T11:13:42Z</time>
      </trkpt>
      <trkpt lat="46.53355" lon="5.38706">
        <ele>233.6</ele>
        <time>2021-10-23T11:13:44Z</time>
      </trkpt>
      <trkpt lat="46.53396" lon="5.38707">
        <ele>234</ele>
        <time>2021-10-23T11:13:53Z</time>
      </trkpt>
      <trkpt lat="46.5341" lon="5.38708">
        <ele>234.2</ele>
        <time>2021-10-23T11:13:56Z</time>
      </trkpt>
      <trkpt lat="46.5343" lon="5.38712">
        <ele>234.4</ele>
        <time>2021-10-23T11:14:00Z</time>
      </trkpt>
      <trkpt lat="46.53461" lon="5.38721">
        <ele>234.4</ele>
        <time>2021-10-23T11:14:06Z</time>
      </trkpt>
      <trkpt lat="46.53469" lon="5.38727">
        <ele>234.2</ele>
        <time>2021-10-23T11:14:08Z</time>
      </trkpt>
      <trkpt lat="46.53478" lon="5.38736">
        <ele>234.2</ele>
        <time>2021-10-23T11:14:10Z</time>
      </trkpt>
      <trkpt lat="46.53485" lon="5.38747">
        <ele>234.2</ele>
        <time>2021-10-23T11:14:12Z</time>
      </trkpt>
      <trkpt lat="46.53487" lon="5.38753">
        <ele>234.2</ele>
        <time>2021-10-23T11:14:13Z</time>
      </trkpt>
      <trkpt lat="46.53491" lon="5.38766">
        <ele>234.2</ele>
        <time>2021-10-23T11:14:15Z</time>
      </trkpt>
      <trkpt lat="46.53491" lon="5.38773">
        <ele>234.2</ele>
        <time>2021-10-23T11:14:16Z</time>
      </trkpt>
      <trkpt lat="46.53491" lon="5.3878">
        <ele>234.4</ele>
        <time>2021-10-23T11:14:17Z</time>
      </trkpt>
      <trkpt lat="46.53489" lon="5.38793">
        <ele>234.6</ele>
        <time>2021-10-23T11:14:19Z</time>
      </trkpt>
      <trkpt lat="46.53485" lon="5.38806">
        <ele>235</ele>
        <time>2021-10-23T11:14:21Z</time>
      </trkpt>
      <trkpt lat="46.53477" lon="5.38837">
        <ele>235.6</ele>
        <time>2021-10-23T11:14:26Z</time>
      </trkpt>
      <trkpt lat="46.53469" lon="5.3886">
        <ele>236.2</ele>
        <time>2021-10-23T11:14:30Z</time>
      </trkpt>
      <trkpt lat="46.53462" lon="5.38883">
        <ele>237</ele>
        <time>2021-10-23T11:14:34Z</time>
      </trkpt>
      <trkpt lat="46.53452" lon="5.38912">
        <ele>238</ele>
        <time>2021-10-23T11:14:39Z</time>
      </trkpt>
      <trkpt lat="46.5345" lon="5.38918">
        <ele>238.2</ele>
        <time>2021-10-23T11:14:40Z</time>
      </trkpt>
      <trkpt lat="46.53446" lon="5.38929">
        <ele>238.6</ele>
        <time>2021-10-23T11:14:42Z</time>
      </trkpt>
      <trkpt lat="46.53437" lon="5.38958">
        <ele>239</ele>
        <time>2021-10-23T11:14:47Z</time>
      </trkpt>
      <trkpt lat="46.53435" lon="5.38963">
        <ele>239.2</ele>
        <time>2021-10-23T11:14:48Z</time>
      </trkpt>
      <trkpt lat="46.53427" lon="5.38992">
        <ele>240</ele>
        <time>2021-10-23T11:14:53Z</time>
      </trkpt>
      <trkpt lat="46.53424" lon="5.39003">
        <ele>240.4</ele>
        <time>2021-10-23T11:14:55Z</time>
      </trkpt>
      <trkpt lat="46.53421" lon="5.39014">
        <ele>240.8</ele>
        <time>2021-10-23T11:14:57Z</time>
      </trkpt>
      <trkpt lat="46.53418" lon="5.39024">
        <ele>241</ele>
        <time>2021-10-23T11:14:59Z</time>
      </trkpt>
      <trkpt lat="46.53407" lon="5.39056">
        <ele>241.8</ele>
        <time>2021-10-23T11:15:05Z</time>
      </trkpt>
      <trkpt lat="46.53401" lon="5.39074">
        <ele>242.2</ele>
        <time>2021-10-23T11:15:08Z</time>
      </trkpt>
      <trkpt lat="46.53395" lon="5.39096">
        <ele>242.8</ele>
        <time>2021-10-23T11:15:12Z</time>
      </trkpt>
      <trkpt lat="46.53388" lon="5.39118">
        <ele>243.2</ele>
        <time>2021-10-23T11:15:16Z</time>
      </trkpt>
      <trkpt lat="46.53377" lon="5.39155">
        <ele>244</ele>
        <time>2021-10-23T11:15:23Z</time>
      </trkpt>
      <trkpt lat="46.53374" lon="5.39164">
        <ele>244.4</ele>
        <time>2021-10-23T11:15:25Z</time>
      </trkpt>
      <trkpt lat="46.53369" lon="5.39186">
        <ele>245</ele>
        <time>2021-10-23T11:15:29Z</time>
      </trkpt>
      <trkpt lat="46.53368" lon="5.3919">
        <ele>245.2</ele>
        <time>2021-10-23T11:15:30Z</time>
      </trkpt>
      <trkpt lat="46.53364" lon="5.39199">
        <ele>245.4</ele>
        <time>2021-10-23T11:15:32Z</time>
      </trkpt>
      <trkpt lat="46.53362" lon="5.39203">
        <ele>245.6</ele>
        <time>2021-10-23T11:15:33Z</time>
      </trkpt>
      <trkpt lat="46.53358" lon="5.39221">
        <ele>246</ele>
        <time>2021-10-23T11:15:37Z</time>
      </trkpt>
      <trkpt lat="46.53354" lon="5.3923">
        <ele>246.6</ele>
        <time>2021-10-23T11:15:40Z</time>
      </trkpt>
      <trkpt lat="46.53352" lon="5.39232">
        <ele>246.8</ele>
        <time>2021-10-23T11:15:42Z</time>
      </trkpt>
      <trkpt lat="46.53352" lon="5.39232">
        <ele>247.2</ele>
        <time>2021-10-23T11:15:44Z</time>
      </trkpt>
      <trkpt lat="46.53346" lon="5.3923">
        <ele>247.2</ele>
        <time>2021-10-23T11:15:49Z</time>
      </trkpt>
      <trkpt lat="46.53343" lon="5.39228">
        <ele>247.2</ele>
        <time>2021-10-23T11:15:50Z</time>
      </trkpt>
      <trkpt lat="46.53327" lon="5.39219">
        <ele>247</ele>
        <time>2021-10-23T11:15:54Z</time>
      </trkpt>
      <trkpt lat="46.53314" lon="5.3921">
        <ele>247</ele>
        <time>2021-10-23T11:15:57Z</time>
      </trkpt>
      <trkpt lat="46.53298" lon="5.39201">
        <ele>246.6</ele>
        <time>2021-10-23T11:16:00Z</time>
      </trkpt>
      <trkpt lat="46.53257" lon="5.39176">
        <ele>246.4</ele>
        <time>2021-10-23T11:16:08Z</time>
      </trkpt>
      <trkpt lat="46.53219" lon="5.39153">
        <ele>246.2</ele>
        <time>2021-10-23T11:16:15Z</time>
      </trkpt>
      <trkpt lat="46.53187" lon="5.39132">
        <ele>245.6</ele>
        <time>2021-10-23T11:16:21Z</time>
      </trkpt>
      <trkpt lat="46.53156" lon="5.39116">
        <ele>245.2</ele>
        <time>2021-10-23T11:16:27Z</time>
      </trkpt>
      <trkpt lat="46.53106" lon="5.39091">
        <ele>245</ele>
        <time>2021-10-23T11:16:37Z</time>
      </trkpt>
      <trkpt lat="46.53085" lon="5.39085">
        <ele>244.8</ele>
        <time>2021-10-23T11:16:41Z</time>
      </trkpt>
      <trkpt lat="46.53077" lon="5.39083">
        <ele>244.8</ele>
        <time>2021-10-23T11:16:43Z</time>
      </trkpt>
      <trkpt lat="46.53068" lon="5.39087">
        <ele>244.6</ele>
        <time>2021-10-23T11:16:46Z</time>
      </trkpt>
      <trkpt lat="46.53067" lon="5.3909">
        <ele>244.6</ele>
        <time>2021-10-23T11:16:47Z</time>
      </trkpt>
      <trkpt lat="46.53066" lon="5.39094">
        <ele>244.6</ele>
        <time>2021-10-23T11:16:48Z</time>
      </trkpt>
      <trkpt lat="46.53067" lon="5.39096">
        <ele>244.6</ele>
        <time>2021-10-23T11:16:49Z</time>
      </trkpt>
      <trkpt lat="46.53066" lon="5.39098">
        <ele>244.4</ele>
        <time>2021-10-23T11:16:50Z</time>
      </trkpt>
      <trkpt lat="46.53065" lon="5.39106">
        <ele>244.4</ele>
        <time>2021-10-23T11:16:54Z</time>
      </trkpt>
      <trkpt lat="46.53066" lon="5.3911">
        <ele>244.4</ele>
        <time>2021-10-23T11:16:56Z</time>
      </trkpt>
      <trkpt lat="46.53067" lon="5.39113">
        <ele>244.6</ele>
        <time>2021-10-23T11:16:58Z</time>
      </trkpt>
      <trkpt lat="46.53069" lon="5.39114">
        <ele>244.6</ele>
        <time>2021-10-23T11:17:01Z</time>
      </trkpt>
      <trkpt lat="46.53069" lon="5.39113">
        <ele>244.8</ele>
        <time>2021-10-23T11:17:05Z</time>
      </trkpt>
      <trkpt lat="46.53069" lon="5.39105">
        <ele>245.6</ele>
        <time>2021-10-23T11:34:37Z</time>
      </trkpt>
      <trkpt lat="46.53071" lon="5.39094">
        <ele>245.4</ele>
        <time>2021-10-23T11:34:42Z</time>
      </trkpt>
      <trkpt lat="46.53072" lon="5.39092">
        <ele>245.4</ele>
        <time>2021-10-23T11:34:43Z</time>
      </trkpt>
      <trkpt lat="46.53072" lon="5.39092">
        <ele>245.4</ele>
        <time>2021-10-23T11:34:45Z</time>
      </trkpt>
      <trkpt lat="46.53066" lon="5.39087">
        <ele>245.2</ele>
        <time>2021-10-23T11:34:57Z</time>
      </trkpt>
      <trkpt lat="46.53063" lon="5.39086">
        <ele>245</ele>
        <time>2021-10-23T11:34:58Z</time>
      </trkpt>
      <trkpt lat="46.5305" lon="5.39079">
        <ele>244.8</ele>
        <time>2021-10-23T11:35:03Z</time>
      </trkpt>
      <trkpt lat="46.53034" lon="5.39067">
        <ele>244.4</ele>
        <time>2021-10-23T11:35:08Z</time>
      </trkpt>
      <trkpt lat="46.5302" lon="5.39057">
        <ele>244.2</ele>
        <time>2021-10-23T11:35:11Z</time>
      </trkpt>
      <trkpt lat="46.53008" lon="5.39053">
        <ele>244</ele>
        <time>2021-10-23T11:35:13Z</time>
      </trkpt>
      <trkpt lat="46.52995" lon="5.39056">
        <ele>243.6</ele>
        <time>2021-10-23T11:35:15Z</time>
      </trkpt>
      <trkpt lat="46.52989" lon="5.39061">
        <ele>243.2</ele>
        <time>2021-10-23T11:35:16Z</time>
      </trkpt>
      <trkpt lat="46.52962" lon="5.39095">
        <ele>241.8</ele>
        <time>2021-10-23T11:35:21Z</time>
      </trkpt>
      <trkpt lat="46.52956" lon="5.39103">
        <ele>241.4</ele>
        <time>2021-10-23T11:35:22Z</time>
      </trkpt>
      <trkpt lat="46.5295" lon="5.3911">
        <ele>240.6</ele>
        <time>2021-10-23T11:35:23Z</time>
      </trkpt>
      <trkpt lat="46.5293" lon="5.39125">
        <ele>239.6</ele>
        <time>2021-10-23T11:35:26Z</time>
      </trkpt>
      <trkpt lat="46.52922" lon="5.39129">
        <ele>239.6</ele>
        <time>2021-10-23T11:35:27Z</time>
      </trkpt>
      <trkpt lat="46.52915" lon="5.39133">
        <ele>239</ele>
        <time>2021-10-23T11:35:28Z</time>
      </trkpt>
      <trkpt lat="46.52906" lon="5.39149">
        <ele>238.4</ele>
        <time>2021-10-23T11:35:30Z</time>
      </trkpt>
      <trkpt lat="46.52901" lon="5.39184">
        <ele>236.8</ele>
        <time>2021-10-23T11:35:33Z</time>
      </trkpt>
      <trkpt lat="46.52898" lon="5.39221">
        <ele>235.6</ele>
        <time>2021-10-23T11:35:36Z</time>
      </trkpt>
      <trkpt lat="46.52896" lon="5.39244">
        <ele>234.2</ele>
        <time>2021-10-23T11:35:38Z</time>
      </trkpt>
      <trkpt lat="46.52893" lon="5.39276">
        <ele>233.4</ele>
        <time>2021-10-23T11:35:41Z</time>
      </trkpt>
      <trkpt lat="46.52888" lon="5.39331">
        <ele>233.2</ele>
        <time>2021-10-23T11:35:47Z</time>
      </trkpt>
      <trkpt lat="46.52886" lon="5.3937">
        <ele>233.6</ele>
        <time>2021-10-23T11:35:52Z</time>
      </trkpt>
      <trkpt lat="46.52882" lon="5.394">
        <ele>234.6</ele>
        <time>2021-10-23T11:35:56Z</time>
      </trkpt>
      <trkpt lat="46.52874" lon="5.39441">
        <ele>235.4</ele>
        <time>2021-10-23T11:36:02Z</time>
      </trkpt>
      <trkpt lat="46.52872" lon="5.39455">
        <ele>235.6</ele>
        <time>2021-10-23T11:36:04Z</time>
      </trkpt>
      <trkpt lat="46.52863" lon="5.39512">
        <ele>236</ele>
        <time>2021-10-23T11:36:12Z</time>
      </trkpt>
      <trkpt lat="46.52856" lon="5.39562">
        <ele>235.6</ele>
        <time>2021-10-23T11:36:19Z</time>
      </trkpt>
      <trkpt lat="46.52854" lon="5.39578">
        <ele>235.6</ele>
        <time>2021-10-23T11:36:21Z</time>
      </trkpt>
      <trkpt lat="46.52848" lon="5.3962">
        <ele>235.4</ele>
        <time>2021-10-23T11:36:26Z</time>
      </trkpt>
      <trkpt lat="46.52849" lon="5.39637">
        <ele>235.2</ele>
        <time>2021-10-23T11:36:28Z</time>
      </trkpt>
      <trkpt lat="46.52851" lon="5.39647">
        <ele>235.2</ele>
        <time>2021-10-23T11:36:29Z</time>
      </trkpt>
      <trkpt lat="46.52857" lon="5.39682">
        <ele>234.8</ele>
        <time>2021-10-23T11:36:33Z</time>
      </trkpt>
      <trkpt lat="46.52862" lon="5.39698">
        <ele>233.8</ele>
        <time>2021-10-23T11:36:35Z</time>
      </trkpt>
      <trkpt lat="46.52874" lon="5.39729">
        <ele>233</ele>
        <time>2021-10-23T11:36:39Z</time>
      </trkpt>
      <trkpt lat="46.52877" lon="5.39737">
        <ele>233</ele>
        <time>2021-10-23T11:36:40Z</time>
      </trkpt>
      <trkpt lat="46.52885" lon="5.39752">
        <ele>232.8</ele>
        <time>2021-10-23T11:36:42Z</time>
      </trkpt>
      <trkpt lat="46.52893" lon="5.39764">
        <ele>233</ele>
        <time>2021-10-23T11:36:44Z</time>
      </trkpt>
      <trkpt lat="46.52924" lon="5.39815">
        <ele>233.2</ele>
        <time>2021-10-23T11:36:52Z</time>
      </trkpt>
      <trkpt lat="46.52945" lon="5.39852">
        <ele>233</ele>
        <time>2021-10-23T11:36:58Z</time>
      </trkpt>
      <trkpt lat="46.52948" lon="5.39859">
        <ele>233</ele>
        <time>2021-10-23T11:36:59Z</time>
      </trkpt>
      <trkpt lat="46.5295" lon="5.39867">
        <ele>233</ele>
        <time>2021-10-23T11:37:00Z</time>
      </trkpt>
      <trkpt lat="46.52952" lon="5.39881">
        <ele>233</ele>
        <time>2021-10-23T11:37:02Z</time>
      </trkpt>
      <trkpt lat="46.52952" lon="5.39889">
        <ele>232.8</ele>
        <time>2021-10-23T11:37:03Z</time>
      </trkpt>
      <trkpt lat="46.52952" lon="5.39896">
        <ele>232.8</ele>
        <time>2021-10-23T11:37:04Z</time>
      </trkpt>
      <trkpt lat="46.52951" lon="5.39903">
        <ele>232.6</ele>
        <time>2021-10-23T11:37:05Z</time>
      </trkpt>
      <trkpt lat="46.52948" lon="5.39926">
        <ele>232.6</ele>
        <time>2021-10-23T11:37:08Z</time>
      </trkpt>
      <trkpt lat="46.52933" lon="5.39987">
        <ele>232.2</ele>
        <time>2021-10-23T11:37:16Z</time>
      </trkpt>
      <trkpt lat="46.52931" lon="5.39993">
        <ele>232.2</ele>
        <time>2021-10-23T11:37:17Z</time>
      </trkpt>
      <trkpt lat="46.52929" lon="5.40009">
        <ele>232.2</ele>
        <time>2021-10-23T11:37:19Z</time>
      </trkpt>
      <trkpt lat="46.52932" lon="5.40024">
        <ele>232.2</ele>
        <time>2021-10-23T11:37:21Z</time>
      </trkpt>
      <trkpt lat="46.52947" lon="5.4005">
        <ele>232.2</ele>
        <time>2021-10-23T11:37:25Z</time>
      </trkpt>
      <trkpt lat="46.52958" lon="5.40086">
        <ele>232.2</ele>
        <time>2021-10-23T11:37:30Z</time>
      </trkpt>
      <trkpt lat="46.5296" lon="5.40094">
        <ele>232.2</ele>
        <time>2021-10-23T11:37:31Z</time>
      </trkpt>
      <trkpt lat="46.52961" lon="5.40109">
        <ele>232.4</ele>
        <time>2021-10-23T11:37:33Z</time>
      </trkpt>
      <trkpt lat="46.52961" lon="5.40116">
        <ele>232.4</ele>
        <time>2021-10-23T11:37:34Z</time>
      </trkpt>
      <trkpt lat="46.52959" lon="5.40168">
        <ele>232.6</ele>
        <time>2021-10-23T11:37:41Z</time>
      </trkpt>
      <trkpt lat="46.52954" lon="5.40221">
        <ele>232.8</ele>
        <time>2021-10-23T11:37:48Z</time>
      </trkpt>
      <trkpt lat="46.52951" lon="5.40243">
        <ele>232.8</ele>
        <time>2021-10-23T11:37:51Z</time>
      </trkpt>
      <trkpt lat="46.52947" lon="5.40273">
        <ele>233</ele>
        <time>2021-10-23T11:37:55Z</time>
      </trkpt>
      <trkpt lat="46.52945" lon="5.40308">
        <ele>233.6</ele>
        <time>2021-10-23T11:38:00Z</time>
      </trkpt>
      <trkpt lat="46.52943" lon="5.40322">
        <ele>233.8</ele>
        <time>2021-10-23T11:38:02Z</time>
      </trkpt>
      <trkpt lat="46.5294" lon="5.40332">
        <ele>234</ele>
        <time>2021-10-23T11:38:04Z</time>
      </trkpt>
      <trkpt lat="46.52935" lon="5.40348">
        <ele>234.6</ele>
        <time>2021-10-23T11:38:07Z</time>
      </trkpt>
      <trkpt lat="46.52933" lon="5.40361">
        <ele>234.8</ele>
        <time>2021-10-23T11:38:09Z</time>
      </trkpt>
      <trkpt lat="46.52932" lon="5.40377">
        <ele>235</ele>
        <time>2021-10-23T11:38:11Z</time>
      </trkpt>
      <trkpt lat="46.52931" lon="5.40383">
        <ele>235</ele>
        <time>2021-10-23T11:38:12Z</time>
      </trkpt>
      <trkpt lat="46.52931" lon="5.40406">
        <ele>235.4</ele>
        <time>2021-10-23T11:38:15Z</time>
      </trkpt>
      <trkpt lat="46.52931" lon="5.40414">
        <ele>235.4</ele>
        <time>2021-10-23T11:38:16Z</time>
      </trkpt>
      <trkpt lat="46.52932" lon="5.4043">
        <ele>235.6</ele>
        <time>2021-10-23T11:38:18Z</time>
      </trkpt>
      <trkpt lat="46.52935" lon="5.40469">
        <ele>235.8</ele>
        <time>2021-10-23T11:38:24Z</time>
      </trkpt>
      <trkpt lat="46.52942" lon="5.40512">
        <ele>236.8</ele>
        <time>2021-10-23T11:38:30Z</time>
      </trkpt>
      <trkpt lat="46.52944" lon="5.40525">
        <ele>237</ele>
        <time>2021-10-23T11:38:32Z</time>
      </trkpt>
      <trkpt lat="46.52949" lon="5.40552">
        <ele>237.4</ele>
        <time>2021-10-23T11:38:36Z</time>
      </trkpt>
      <trkpt lat="46.52953" lon="5.40576">
        <ele>237.8</ele>
        <time>2021-10-23T11:38:40Z</time>
      </trkpt>
      <trkpt lat="46.52954" lon="5.40583">
        <ele>237.8</ele>
        <time>2021-10-23T11:38:41Z</time>
      </trkpt>
      <trkpt lat="46.52957" lon="5.40608">
        <ele>238</ele>
        <time>2021-10-23T11:38:45Z</time>
      </trkpt>
      <trkpt lat="46.52956" lon="5.40621">
        <ele>238.2</ele>
        <time>2021-10-23T11:38:47Z</time>
      </trkpt>
      <trkpt lat="46.52949" lon="5.40649">
        <ele>238.2</ele>
        <time>2021-10-23T11:38:51Z</time>
      </trkpt>
      <trkpt lat="46.52946" lon="5.40656">
        <ele>238.2</ele>
        <time>2021-10-23T11:38:52Z</time>
      </trkpt>
      <trkpt lat="46.52925" lon="5.40709">
        <ele>237.6</ele>
        <time>2021-10-23T11:39:00Z</time>
      </trkpt>
      <trkpt lat="46.52909" lon="5.40751">
        <ele>237.4</ele>
        <time>2021-10-23T11:39:06Z</time>
      </trkpt>
      <trkpt lat="46.5289" lon="5.40796">
        <ele>236.8</ele>
        <time>2021-10-23T11:39:12Z</time>
      </trkpt>
      <trkpt lat="46.52886" lon="5.40801">
        <ele>236.8</ele>
        <time>2021-10-23T11:39:13Z</time>
      </trkpt>
      <trkpt lat="46.52882" lon="5.40807">
        <ele>236.6</ele>
        <time>2021-10-23T11:39:14Z</time>
      </trkpt>
      <trkpt lat="46.52873" lon="5.40814">
        <ele>236.6</ele>
        <time>2021-10-23T11:39:16Z</time>
      </trkpt>
      <trkpt lat="46.52868" lon="5.40817">
        <ele>236.6</ele>
        <time>2021-10-23T11:39:17Z</time>
      </trkpt>
      <trkpt lat="46.52839" lon="5.40825">
        <ele>236.8</ele>
        <time>2021-10-23T11:39:23Z</time>
      </trkpt>
      <trkpt lat="46.52825" lon="5.4083">
        <ele>237.2</ele>
        <time>2021-10-23T11:39:26Z</time>
      </trkpt>
      <trkpt lat="46.52816" lon="5.40836">
        <ele>237.6</ele>
        <time>2021-10-23T11:39:28Z</time>
      </trkpt>
      <trkpt lat="46.52812" lon="5.4084">
        <ele>237.6</ele>
        <time>2021-10-23T11:39:29Z</time>
      </trkpt>
      <trkpt lat="46.52808" lon="5.40846">
        <ele>237.6</ele>
        <time>2021-10-23T11:39:30Z</time>
      </trkpt>
      <trkpt lat="46.528" lon="5.40867">
        <ele>237.8</ele>
        <time>2021-10-23T11:39:33Z</time>
      </trkpt>
      <trkpt lat="46.52792" lon="5.40887">
        <ele>237.8</ele>
        <time>2021-10-23T11:39:36Z</time>
      </trkpt>
      <trkpt lat="46.5278" lon="5.40913">
        <ele>238</ele>
        <time>2021-10-23T11:39:40Z</time>
      </trkpt>
      <trkpt lat="46.52774" lon="5.40927">
        <ele>238</ele>
        <time>2021-10-23T11:39:42Z</time>
      </trkpt>
      <trkpt lat="46.52769" lon="5.4095">
        <ele>238</ele>
        <time>2021-10-23T11:39:45Z</time>
      </trkpt>
      <trkpt lat="46.52769" lon="5.40996">
        <ele>238.2</ele>
        <time>2021-10-23T11:39:51Z</time>
      </trkpt>
      <trkpt lat="46.52775" lon="5.41052">
        <ele>238.6</ele>
        <time>2021-10-23T11:39:58Z</time>
      </trkpt>
      <trkpt lat="46.52776" lon="5.4106">
        <ele>238.6</ele>
        <time>2021-10-23T11:39:59Z</time>
      </trkpt>
      <trkpt lat="46.52778" lon="5.41076">
        <ele>238.6</ele>
        <time>2021-10-23T11:40:01Z</time>
      </trkpt>
      <trkpt lat="46.52777" lon="5.41092">
        <ele>238.6</ele>
        <time>2021-10-23T11:40:03Z</time>
      </trkpt>
      <trkpt lat="46.52775" lon="5.41108">
        <ele>238.8</ele>
        <time>2021-10-23T11:40:05Z</time>
      </trkpt>
      <trkpt lat="46.52773" lon="5.41139">
        <ele>239</ele>
        <time>2021-10-23T11:40:09Z</time>
      </trkpt>
      <trkpt lat="46.52773" lon="5.41146">
        <ele>239</ele>
        <time>2021-10-23T11:40:10Z</time>
      </trkpt>
      <trkpt lat="46.52778" lon="5.41198">
        <ele>239.4</ele>
        <time>2021-10-23T11:40:17Z</time>
      </trkpt>
      <trkpt lat="46.52778" lon="5.41223">
        <ele>239.8</ele>
        <time>2021-10-23T11:40:20Z</time>
      </trkpt>
      <trkpt lat="46.52777" lon="5.41255">
        <ele>239.8</ele>
        <time>2021-10-23T11:40:24Z</time>
      </trkpt>
      <trkpt lat="46.52774" lon="5.41313">
        <ele>240</ele>
        <time>2021-10-23T11:40:32Z</time>
      </trkpt>
      <trkpt lat="46.52765" lon="5.41354">
        <ele>240.2</ele>
        <time>2021-10-23T11:40:38Z</time>
      </trkpt>
      <trkpt lat="46.52763" lon="5.41385">
        <ele>240.8</ele>
        <time>2021-10-23T11:40:42Z</time>
      </trkpt>
      <trkpt lat="46.52763" lon="5.41401">
        <ele>241</ele>
        <time>2021-10-23T11:40:44Z</time>
      </trkpt>
      <trkpt lat="46.52767" lon="5.41461">
        <ele>241.8</ele>
        <time>2021-10-23T11:40:52Z</time>
      </trkpt>
      <trkpt lat="46.52768" lon="5.41469">
        <ele>241.8</ele>
        <time>2021-10-23T11:40:53Z</time>
      </trkpt>
      <trkpt lat="46.52769" lon="5.41485">
        <ele>242</ele>
        <time>2021-10-23T11:40:55Z</time>
      </trkpt>
      <trkpt lat="46.52771" lon="5.41534">
        <ele>242.2</ele>
        <time>2021-10-23T11:41:01Z</time>
      </trkpt>
      <trkpt lat="46.52772" lon="5.41547">
        <ele>242.4</ele>
        <time>2021-10-23T11:41:03Z</time>
      </trkpt>
      <trkpt lat="46.52776" lon="5.4157">
        <ele>242.6</ele>
        <time>2021-10-23T11:41:06Z</time>
      </trkpt>
      <trkpt lat="46.52782" lon="5.41607">
        <ele>242.8</ele>
        <time>2021-10-23T11:41:11Z</time>
      </trkpt>
      <trkpt lat="46.52783" lon="5.4162">
        <ele>242.8</ele>
        <time>2021-10-23T11:41:13Z</time>
      </trkpt>
      <trkpt lat="46.52783" lon="5.41629">
        <ele>242.8</ele>
        <time>2021-10-23T11:41:14Z</time>
      </trkpt>
      <trkpt lat="46.52781" lon="5.41638">
        <ele>242.8</ele>
        <time>2021-10-23T11:41:15Z</time>
      </trkpt>
      <trkpt lat="46.52778" lon="5.41654">
        <ele>242.8</ele>
        <time>2021-10-23T11:41:17Z</time>
      </trkpt>
      <trkpt lat="46.52776" lon="5.41668">
        <ele>243.2</ele>
        <time>2021-10-23T11:41:19Z</time>
      </trkpt>
      <trkpt lat="46.52771" lon="5.41689">
        <ele>243.6</ele>
        <time>2021-10-23T11:41:22Z</time>
      </trkpt>
      <trkpt lat="46.52768" lon="5.41699">
        <ele>243.8</ele>
        <time>2021-10-23T11:41:23Z</time>
      </trkpt>
      <trkpt lat="46.52767" lon="5.41716">
        <ele>244.2</ele>
        <time>2021-10-23T11:41:26Z</time>
      </trkpt>
      <trkpt lat="46.52768" lon="5.41721">
        <ele>244.4</ele>
        <time>2021-10-23T11:41:27Z</time>
      </trkpt>
      <trkpt lat="46.52763" lon="5.41749">
        <ele>245.2</ele>
        <time>2021-10-23T11:41:32Z</time>
      </trkpt>
      <trkpt lat="46.5275" lon="5.41761">
        <ele>246.2</ele>
        <time>2021-10-23T11:41:37Z</time>
      </trkpt>
      <trkpt lat="46.5274" lon="5.41765">
        <ele>246.6</ele>
        <time>2021-10-23T11:41:40Z</time>
      </trkpt>
      <trkpt lat="46.52737" lon="5.41767">
        <ele>247</ele>
        <time>2021-10-23T11:41:41Z</time>
      </trkpt>
      <trkpt lat="46.52731" lon="5.41772">
        <ele>247.4</ele>
        <time>2021-10-23T11:41:43Z</time>
      </trkpt>
      <trkpt lat="46.52724" lon="5.41784">
        <ele>248.4</ele>
        <time>2021-10-23T11:41:46Z</time>
      </trkpt>
      <trkpt lat="46.52723" lon="5.4179">
        <ele>248.6</ele>
        <time>2021-10-23T11:41:47Z</time>
      </trkpt>
      <trkpt lat="46.52722" lon="5.41805">
        <ele>250</ele>
        <time>2021-10-23T11:41:50Z</time>
      </trkpt>
      <trkpt lat="46.52725" lon="5.41815">
        <ele>250.6</ele>
        <time>2021-10-23T11:41:52Z</time>
      </trkpt>
      <trkpt lat="46.52726" lon="5.41825">
        <ele>251</ele>
        <time>2021-10-23T11:41:54Z</time>
      </trkpt>
      <trkpt lat="46.52725" lon="5.41843">
        <ele>252.2</ele>
        <time>2021-10-23T11:41:57Z</time>
      </trkpt>
      <trkpt lat="46.52727" lon="5.41853">
        <ele>252.8</ele>
        <time>2021-10-23T11:41:59Z</time>
      </trkpt>
      <trkpt lat="46.52727" lon="5.41871">
        <ele>253.2</ele>
        <time>2021-10-23T11:42:02Z</time>
      </trkpt>
      <trkpt lat="46.5273" lon="5.41886">
        <ele>254.2</ele>
        <time>2021-10-23T11:42:05Z</time>
      </trkpt>
      <trkpt lat="46.52729" lon="5.41891">
        <ele>254.4</ele>
        <time>2021-10-23T11:42:06Z</time>
      </trkpt>
      <trkpt lat="46.5273" lon="5.4192">
        <ele>255.4</ele>
        <time>2021-10-23T11:42:11Z</time>
      </trkpt>
      <trkpt lat="46.5273" lon="5.41926">
        <ele>255.4</ele>
        <time>2021-10-23T11:42:12Z</time>
      </trkpt>
      <trkpt lat="46.52727" lon="5.41959">
        <ele>255.8</ele>
        <time>2021-10-23T11:42:17Z</time>
      </trkpt>
      <trkpt lat="46.52724" lon="5.4198">
        <ele>256</ele>
        <time>2021-10-23T11:42:20Z</time>
      </trkpt>
      <trkpt lat="46.52726" lon="5.42007">
        <ele>256.2</ele>
        <time>2021-10-23T11:42:24Z</time>
      </trkpt>
      <trkpt lat="46.52728" lon="5.42023">
        <ele>256</ele>
        <time>2021-10-23T11:42:26Z</time>
      </trkpt>
      <trkpt lat="46.52734" lon="5.42039">
        <ele>255.8</ele>
        <time>2021-10-23T11:42:28Z</time>
      </trkpt>
      <trkpt lat="46.52757" lon="5.4208">
        <ele>254.4</ele>
        <time>2021-10-23T11:42:33Z</time>
      </trkpt>
      <trkpt lat="46.5276" lon="5.42087">
        <ele>254</ele>
        <time>2021-10-23T11:42:34Z</time>
      </trkpt>
      <trkpt lat="46.5277" lon="5.42105">
        <ele>253.2</ele>
        <time>2021-10-23T11:42:36Z</time>
      </trkpt>
      <trkpt lat="46.52775" lon="5.42112">
        <ele>253</ele>
        <time>2021-10-23T11:42:37Z</time>
      </trkpt>
      <trkpt lat="46.5278" lon="5.42116">
        <ele>252.6</ele>
        <time>2021-10-23T11:42:38Z</time>
      </trkpt>
      <trkpt lat="46.52797" lon="5.42129">
        <ele>252.4</ele>
        <time>2021-10-23T11:42:41Z</time>
      </trkpt>
      <trkpt lat="46.52806" lon="5.42133">
        <ele>252.4</ele>
        <time>2021-10-23T11:42:43Z</time>
      </trkpt>
      <trkpt lat="46.52813" lon="5.42131">
        <ele>252.6</ele>
        <time>2021-10-23T11:42:45Z</time>
      </trkpt>
      <trkpt lat="46.52823" lon="5.42104">
        <ele>253</ele>
        <time>2021-10-23T11:42:49Z</time>
      </trkpt>
      <trkpt lat="46.52837" lon="5.42065">
        <ele>253.2</ele>
        <time>2021-10-23T11:42:55Z</time>
      </trkpt>
      <trkpt lat="46.52838" lon="5.42045">
        <ele>253.2</ele>
        <time>2021-10-23T11:42:59Z</time>
      </trkpt>
      <trkpt lat="46.52838" lon="5.42033">
        <ele>253.6</ele>
        <time>2021-10-23T11:43:01Z</time>
      </trkpt>
      <trkpt lat="46.52835" lon="5.42018">
        <ele>254.2</ele>
        <time>2021-10-23T11:43:04Z</time>
      </trkpt>
      <trkpt lat="46.52834" lon="5.42014">
        <ele>254.2</ele>
        <time>2021-10-23T11:43:05Z</time>
      </trkpt>
      <trkpt lat="46.52829" lon="5.41987">
        <ele>254.8</ele>
        <time>2021-10-23T11:43:10Z</time>
      </trkpt>
      <trkpt lat="46.52828" lon="5.41977">
        <ele>255.2</ele>
        <time>2021-10-23T11:43:12Z</time>
      </trkpt>
      <trkpt lat="46.52829" lon="5.41954">
        <ele>255.8</ele>
        <time>2021-10-23T11:43:16Z</time>
      </trkpt>
      <trkpt lat="46.5283" lon="5.41947">
        <ele>256</ele>
        <time>2021-10-23T11:43:17Z</time>
      </trkpt>
      <trkpt lat="46.5283" lon="5.4194">
        <ele>256.2</ele>
        <time>2021-10-23T11:43:18Z</time>
      </trkpt>
      <trkpt lat="46.52834" lon="5.4192">
        <ele>256.6</ele>
        <time>2021-10-23T11:43:21Z</time>
      </trkpt>
      <trkpt lat="46.52838" lon="5.41884">
        <ele>257.4</ele>
        <time>2021-10-23T11:43:27Z</time>
      </trkpt>
      <trkpt lat="46.5284" lon="5.41872">
        <ele>257.4</ele>
        <time>2021-10-23T11:43:29Z</time>
      </trkpt>
      <trkpt lat="46.52844" lon="5.41828">
        <ele>258.6</ele>
        <time>2021-10-23T11:43:36Z</time>
      </trkpt>
      <trkpt lat="46.52844" lon="5.41823">
        <ele>258.8</ele>
        <time>2021-10-23T11:43:37Z</time>
      </trkpt>
      <trkpt lat="46.52847" lon="5.418">
        <ele>259.8</ele>
        <time>2021-10-23T11:43:41Z</time>
      </trkpt>
      <trkpt lat="46.52848" lon="5.41784">
        <ele>260.2</ele>
        <time>2021-10-23T11:43:44Z</time>
      </trkpt>
      <trkpt lat="46.52849" lon="5.41778">
        <ele>260.4</ele>
        <time>2021-10-23T11:43:45Z</time>
      </trkpt>
      <trkpt lat="46.52852" lon="5.41759">
        <ele>260.8</ele>
        <time>2021-10-23T11:43:48Z</time>
      </trkpt>
      <trkpt lat="46.52857" lon="5.41744">
        <ele>261</ele>
        <time>2021-10-23T11:43:51Z</time>
      </trkpt>
      <trkpt lat="46.52869" lon="5.41713">
        <ele>261.8</ele>
        <time>2021-10-23T11:43:57Z</time>
      </trkpt>
      <trkpt lat="46.52873" lon="5.41703">
        <ele>262.2</ele>
        <time>2021-10-23T11:43:59Z</time>
      </trkpt>
      <trkpt lat="46.52882" lon="5.41681">
        <ele>263</ele>
        <time>2021-10-23T11:44:03Z</time>
      </trkpt>
      <trkpt lat="46.52892" lon="5.41656">
        <ele>263.6</ele>
        <time>2021-10-23T11:44:08Z</time>
      </trkpt>
      <trkpt lat="46.52897" lon="5.41642">
        <ele>264.2</ele>
        <time>2021-10-23T11:44:11Z</time>
      </trkpt>
      <trkpt lat="46.52902" lon="5.41627">
        <ele>264.8</ele>
        <time>2021-10-23T11:44:14Z</time>
      </trkpt>
      <trkpt lat="46.52908" lon="5.41612">
        <ele>265.2</ele>
        <time>2021-10-23T11:44:17Z</time>
      </trkpt>
      <trkpt lat="46.52919" lon="5.41588">
        <ele>265.8</ele>
        <time>2021-10-23T11:44:22Z</time>
      </trkpt>
      <trkpt lat="46.52928" lon="5.4157">
        <ele>266</ele>
        <time>2021-10-23T11:44:26Z</time>
      </trkpt>
      <trkpt lat="46.52937" lon="5.41557">
        <ele>266.4</ele>
        <time>2021-10-23T11:44:29Z</time>
      </trkpt>
      <trkpt lat="46.52946" lon="5.41546">
        <ele>266.6</ele>
        <time>2021-10-23T11:44:32Z</time>
      </trkpt>
      <trkpt lat="46.52959" lon="5.41531">
        <ele>267.4</ele>
        <time>2021-10-23T11:44:36Z</time>
      </trkpt>
      <trkpt lat="46.52976" lon="5.41516">
        <ele>268.2</ele>
        <time>2021-10-23T11:44:41Z</time>
      </trkpt>
      <trkpt lat="46.52979" lon="5.41513">
        <ele>268.6</ele>
        <time>2021-10-23T11:44:42Z</time>
      </trkpt>
      <trkpt lat="46.52989" lon="5.41504">
        <ele>269.6</ele>
        <time>2021-10-23T11:44:45Z</time>
      </trkpt>
      <trkpt lat="46.53006" lon="5.41491">
        <ele>270.6</ele>
        <time>2021-10-23T11:44:50Z</time>
      </trkpt>
      <trkpt lat="46.53013" lon="5.41485">
        <ele>271</ele>
        <time>2021-10-23T11:44:52Z</time>
      </trkpt>
      <trkpt lat="46.53032" lon="5.41472">
        <ele>271.8</ele>
        <time>2021-10-23T11:44:57Z</time>
      </trkpt>
      <trkpt lat="46.53044" lon="5.41467">
        <ele>272.4</ele>
        <time>2021-10-23T11:45:00Z</time>
      </trkpt>
      <trkpt lat="46.53061" lon="5.41465">
        <ele>272.6</ele>
        <time>2021-10-23T11:45:04Z</time>
      </trkpt>
      <trkpt lat="46.53069" lon="5.41464">
        <ele>272.8</ele>
        <time>2021-10-23T11:45:06Z</time>
      </trkpt>
      <trkpt lat="46.53077" lon="5.41462">
        <ele>273.2</ele>
        <time>2021-10-23T11:45:08Z</time>
      </trkpt>
      <trkpt lat="46.53085" lon="5.41458">
        <ele>273.6</ele>
        <time>2021-10-23T11:45:10Z</time>
      </trkpt>
      <trkpt lat="46.53088" lon="5.41455">
        <ele>274</ele>
        <time>2021-10-23T11:45:11Z</time>
      </trkpt>
      <trkpt lat="46.53101" lon="5.41443">
        <ele>274.8</ele>
        <time>2021-10-23T11:45:16Z</time>
      </trkpt>
      <trkpt lat="46.53103" lon="5.4144">
        <ele>275.2</ele>
        <time>2021-10-23T11:45:17Z</time>
      </trkpt>
      <trkpt lat="46.53122" lon="5.41416">
        <ele>276.2</ele>
        <time>2021-10-23T11:45:23Z</time>
      </trkpt>
      <trkpt lat="46.53134" lon="5.41384">
        <ele>277</ele>
        <time>2021-10-23T11:45:29Z</time>
      </trkpt>
      <trkpt lat="46.53133" lon="5.41373">
        <ele>277.2</ele>
        <time>2021-10-23T11:45:31Z</time>
      </trkpt>
      <trkpt lat="46.5313" lon="5.41355">
        <ele>277.6</ele>
        <time>2021-10-23T11:45:34Z</time>
      </trkpt>
      <trkpt lat="46.53126" lon="5.41338">
        <ele>278.4</ele>
        <time>2021-10-23T11:45:37Z</time>
      </trkpt>
      <trkpt lat="46.53125" lon="5.41333">
        <ele>278.6</ele>
        <time>2021-10-23T11:45:38Z</time>
      </trkpt>
      <trkpt lat="46.53125" lon="5.41322">
        <ele>278.8</ele>
        <time>2021-10-23T11:45:40Z</time>
      </trkpt>
      <trkpt lat="46.53126" lon="5.41317">
        <ele>278.8</ele>
        <time>2021-10-23T11:45:41Z</time>
      </trkpt>
      <trkpt lat="46.53135" lon="5.41298">
        <ele>279.4</ele>
        <time>2021-10-23T11:45:45Z</time>
      </trkpt>
      <trkpt lat="46.53138" lon="5.41295">
        <ele>279.8</ele>
        <time>2021-10-23T11:45:46Z</time>
      </trkpt>
      <trkpt lat="46.53149" lon="5.41285">
        <ele>280.6</ele>
        <time>2021-10-23T11:45:49Z</time>
      </trkpt>
      <trkpt lat="46.53158" lon="5.41276">
        <ele>281.2</ele>
        <time>2021-10-23T11:45:52Z</time>
      </trkpt>
      <trkpt lat="46.53162" lon="5.41273">
        <ele>281.6</ele>
        <time>2021-10-23T11:45:53Z</time>
      </trkpt>
      <trkpt lat="46.5318" lon="5.41258">
        <ele>283</ele>
        <time>2021-10-23T11:45:58Z</time>
      </trkpt>
      <trkpt lat="46.53183" lon="5.41255">
        <ele>283</ele>
        <time>2021-10-23T11:45:59Z</time>
      </trkpt>
      <trkpt lat="46.53191" lon="5.41236">
        <ele>283.6</ele>
        <time>2021-10-23T11:46:03Z</time>
      </trkpt>
      <trkpt lat="46.5319" lon="5.41219">
        <ele>284</ele>
        <time>2021-10-23T11:46:06Z</time>
      </trkpt>
      <trkpt lat="46.53188" lon="5.41214">
        <ele>284</ele>
        <time>2021-10-23T11:46:07Z</time>
      </trkpt>
      <trkpt lat="46.53172" lon="5.41199">
        <ele>285</ele>
        <time>2021-10-23T11:46:12Z</time>
      </trkpt>
      <trkpt lat="46.53146" lon="5.4118">
        <ele>286.2</ele>
        <time>2021-10-23T11:46:19Z</time>
      </trkpt>
      <trkpt lat="46.53142" lon="5.41178">
        <ele>286.2</ele>
        <time>2021-10-23T11:46:20Z</time>
      </trkpt>
      <trkpt lat="46.53134" lon="5.41173">
        <ele>286.8</ele>
        <time>2021-10-23T11:46:22Z</time>
      </trkpt>
      <trkpt lat="46.53118" lon="5.41166">
        <ele>287.2</ele>
        <time>2021-10-23T11:46:26Z</time>
      </trkpt>
      <trkpt lat="46.5311" lon="5.41163">
        <ele>287.6</ele>
        <time>2021-10-23T11:46:28Z</time>
      </trkpt>
      <trkpt lat="46.5309" lon="5.41157">
        <ele>288.4</ele>
        <time>2021-10-23T11:46:33Z</time>
      </trkpt>
      <trkpt lat="46.53071" lon="5.41151">
        <ele>289.6</ele>
        <time>2021-10-23T11:46:38Z</time>
      </trkpt>
      <trkpt lat="46.53067" lon="5.4115">
        <ele>290</ele>
        <time>2021-10-23T11:46:39Z</time>
      </trkpt>
      <trkpt lat="46.53054" lon="5.41136">
        <ele>291</ele>
        <time>2021-10-23T11:46:44Z</time>
      </trkpt>
      <trkpt lat="46.53053" lon="5.41131">
        <ele>291</ele>
        <time>2021-10-23T11:46:45Z</time>
      </trkpt>
      <trkpt lat="46.53056" lon="5.41117">
        <ele>291.8</ele>
        <time>2021-10-23T11:46:48Z</time>
      </trkpt>
      <trkpt lat="46.53059" lon="5.41114">
        <ele>292.2</ele>
        <time>2021-10-23T11:46:49Z</time>
      </trkpt>
      <trkpt lat="46.53069" lon="5.4111">
        <ele>292.8</ele>
        <time>2021-10-23T11:46:52Z</time>
      </trkpt>
      <trkpt lat="46.53073" lon="5.4111">
        <ele>293.4</ele>
        <time>2021-10-23T11:46:53Z</time>
      </trkpt>
      <trkpt lat="46.53088" lon="5.41115">
        <ele>294.4</ele>
        <time>2021-10-23T11:46:57Z</time>
      </trkpt>
      <trkpt lat="46.53092" lon="5.41116">
        <ele>294.8</ele>
        <time>2021-10-23T11:46:58Z</time>
      </trkpt>
      <trkpt lat="46.53111" lon="5.41125">
        <ele>295.6</ele>
        <time>2021-10-23T11:47:03Z</time>
      </trkpt>
      <trkpt lat="46.53118" lon="5.41129">
        <ele>295.8</ele>
        <time>2021-10-23T11:47:05Z</time>
      </trkpt>
      <trkpt lat="46.53133" lon="5.41136">
        <ele>296.6</ele>
        <time>2021-10-23T11:47:09Z</time>
      </trkpt>
      <trkpt lat="46.53154" lon="5.41143">
        <ele>297.4</ele>
        <time>2021-10-23T11:47:14Z</time>
      </trkpt>
      <trkpt lat="46.53163" lon="5.41143">
        <ele>297.6</ele>
        <time>2021-10-23T11:47:16Z</time>
      </trkpt>
      <trkpt lat="46.53167" lon="5.41142">
        <ele>297.6</ele>
        <time>2021-10-23T11:47:17Z</time>
      </trkpt>
      <trkpt lat="46.53193" lon="5.41135">
        <ele>298.8</ele>
        <time>2021-10-23T11:47:23Z</time>
      </trkpt>
      <trkpt lat="46.53197" lon="5.41134">
        <ele>298.8</ele>
        <time>2021-10-23T11:47:24Z</time>
      </trkpt>
      <trkpt lat="46.53214" lon="5.4113">
        <ele>299</ele>
        <time>2021-10-23T11:47:28Z</time>
      </trkpt>
      <trkpt lat="46.53224" lon="5.4113">
        <ele>299.2</ele>
        <time>2021-10-23T11:47:30Z</time>
      </trkpt>
      <trkpt lat="46.53227" lon="5.41131">
        <ele>299.2</ele>
        <time>2021-10-23T11:47:31Z</time>
      </trkpt>
      <trkpt lat="46.53242" lon="5.41137">
        <ele>299.4</ele>
        <time>2021-10-23T11:47:34Z</time>
      </trkpt>
      <trkpt lat="46.5325" lon="5.41141">
        <ele>299.8</ele>
        <time>2021-10-23T11:47:36Z</time>
      </trkpt>
      <trkpt lat="46.53257" lon="5.41145">
        <ele>300</ele>
        <time>2021-10-23T11:47:38Z</time>
      </trkpt>
      <trkpt lat="46.53261" lon="5.41149">
        <ele>300.2</ele>
        <time>2021-10-23T11:47:39Z</time>
      </trkpt>
      <trkpt lat="46.53267" lon="5.41156">
        <ele>300.4</ele>
        <time>2021-10-23T11:47:41Z</time>
      </trkpt>
      <trkpt lat="46.5327" lon="5.41163">
        <ele>300.6</ele>
        <time>2021-10-23T11:47:42Z</time>
      </trkpt>
      <trkpt lat="46.53272" lon="5.41169">
        <ele>300.6</ele>
        <time>2021-10-23T11:47:43Z</time>
      </trkpt>
      <trkpt lat="46.53273" lon="5.41175">
        <ele>300.8</ele>
        <time>2021-10-23T11:47:44Z</time>
      </trkpt>
      <trkpt lat="46.53275" lon="5.41195">
        <ele>301.6</ele>
        <time>2021-10-23T11:47:47Z</time>
      </trkpt>
      <trkpt lat="46.53276" lon="5.41208">
        <ele>302</ele>
        <time>2021-10-23T11:47:49Z</time>
      </trkpt>
      <trkpt lat="46.53277" lon="5.41255">
        <ele>303.2</ele>
        <time>2021-10-23T11:47:56Z</time>
      </trkpt>
      <trkpt lat="46.53278" lon="5.41261">
        <ele>303.4</ele>
        <time>2021-10-23T11:47:57Z</time>
      </trkpt>
      <trkpt lat="46.53279" lon="5.4131">
        <ele>304.4</ele>
        <time>2021-10-23T11:48:05Z</time>
      </trkpt>
      <trkpt lat="46.53279" lon="5.41316">
        <ele>304.6</ele>
        <time>2021-10-23T11:48:06Z</time>
      </trkpt>
      <trkpt lat="46.5328" lon="5.41346">
        <ele>305.4</ele>
        <time>2021-10-23T11:48:11Z</time>
      </trkpt>
      <trkpt lat="46.53281" lon="5.41369">
        <ele>305.8</ele>
        <time>2021-10-23T11:48:15Z</time>
      </trkpt>
      <trkpt lat="46.53282" lon="5.41389">
        <ele>306.6</ele>
        <time>2021-10-23T11:48:18Z</time>
      </trkpt>
      <trkpt lat="46.53282" lon="5.41427">
        <ele>307.4</ele>
        <time>2021-10-23T11:48:24Z</time>
      </trkpt>
      <trkpt lat="46.53282" lon="5.41433">
        <ele>307.6</ele>
        <time>2021-10-23T11:48:25Z</time>
      </trkpt>
      <trkpt lat="46.53277" lon="5.41452">
        <ele>307.6</ele>
        <time>2021-10-23T11:48:28Z</time>
      </trkpt>
      <trkpt lat="46.53275" lon="5.41458">
        <ele>307.6</ele>
        <time>2021-10-23T11:48:29Z</time>
      </trkpt>
      <trkpt lat="46.53271" lon="5.41469">
        <ele>307.6</ele>
        <time>2021-10-23T11:48:31Z</time>
      </trkpt>
      <trkpt lat="46.53257" lon="5.41494">
        <ele>308.6</ele>
        <time>2021-10-23T11:48:36Z</time>
      </trkpt>
      <trkpt lat="46.53246" lon="5.41515">
        <ele>309.6</ele>
        <time>2021-10-23T11:48:40Z</time>
      </trkpt>
      <trkpt lat="46.53243" lon="5.41519">
        <ele>309.8</ele>
        <time>2021-10-23T11:48:41Z</time>
      </trkpt>
      <trkpt lat="46.53237" lon="5.4153">
        <ele>310.2</ele>
        <time>2021-10-23T11:48:43Z</time>
      </trkpt>
      <trkpt lat="46.5323" lon="5.41539">
        <ele>310.6</ele>
        <time>2021-10-23T11:48:45Z</time>
      </trkpt>
      <trkpt lat="46.53227" lon="5.41543">
        <ele>310.8</ele>
        <time>2021-10-23T11:48:46Z</time>
      </trkpt>
      <trkpt lat="46.53211" lon="5.41554">
        <ele>311.6</ele>
        <time>2021-10-23T11:48:50Z</time>
      </trkpt>
      <trkpt lat="46.53207" lon="5.41557">
        <ele>311.6</ele>
        <time>2021-10-23T11:48:51Z</time>
      </trkpt>
      <trkpt lat="46.5318" lon="5.41573">
        <ele>312.6</ele>
        <time>2021-10-23T11:48:58Z</time>
      </trkpt>
      <trkpt lat="46.53176" lon="5.41575">
        <ele>313</ele>
        <time>2021-10-23T11:48:59Z</time>
      </trkpt>
      <trkpt lat="46.53161" lon="5.41585">
        <ele>314.2</ele>
        <time>2021-10-23T11:49:03Z</time>
      </trkpt>
      <trkpt lat="46.53143" lon="5.41597">
        <ele>314.8</ele>
        <time>2021-10-23T11:49:08Z</time>
      </trkpt>
      <trkpt lat="46.53128" lon="5.41606">
        <ele>315.2</ele>
        <time>2021-10-23T11:49:12Z</time>
      </trkpt>
      <trkpt lat="46.53116" lon="5.41613">
        <ele>316.2</ele>
        <time>2021-10-23T11:49:15Z</time>
      </trkpt>
      <trkpt lat="46.53112" lon="5.41615">
        <ele>316.4</ele>
        <time>2021-10-23T11:49:16Z</time>
      </trkpt>
      <trkpt lat="46.5309" lon="5.41629">
        <ele>317.4</ele>
        <time>2021-10-23T11:49:22Z</time>
      </trkpt>
      <trkpt lat="46.53076" lon="5.41637">
        <ele>317.8</ele>
        <time>2021-10-23T11:49:26Z</time>
      </trkpt>
      <trkpt lat="46.53066" lon="5.41644">
        <ele>318.6</ele>
        <time>2021-10-23T11:49:29Z</time>
      </trkpt>
      <trkpt lat="46.53051" lon="5.41653">
        <ele>319.6</ele>
        <time>2021-10-23T11:49:33Z</time>
      </trkpt>
      <trkpt lat="46.53038" lon="5.41663">
        <ele>320.2</ele>
        <time>2021-10-23T11:49:37Z</time>
      </trkpt>
      <trkpt lat="46.53028" lon="5.41673">
        <ele>320.8</ele>
        <time>2021-10-23T11:49:40Z</time>
      </trkpt>
      <trkpt lat="46.53022" lon="5.41681">
        <ele>321</ele>
        <time>2021-10-23T11:49:42Z</time>
      </trkpt>
      <trkpt lat="46.5301" lon="5.41707">
        <ele>321.4</ele>
        <time>2021-10-23T11:49:47Z</time>
      </trkpt>
      <trkpt lat="46.53004" lon="5.41723">
        <ele>322</ele>
        <time>2021-10-23T11:49:50Z</time>
      </trkpt>
      <trkpt lat="46.52999" lon="5.41752">
        <ele>322.8</ele>
        <time>2021-10-23T11:49:55Z</time>
      </trkpt>
      <trkpt lat="46.52999" lon="5.41758">
        <ele>323.4</ele>
        <time>2021-10-23T11:49:56Z</time>
      </trkpt>
      <trkpt lat="46.53" lon="5.4177">
        <ele>323.8</ele>
        <time>2021-10-23T11:49:58Z</time>
      </trkpt>
      <trkpt lat="46.53004" lon="5.41787">
        <ele>324.6</ele>
        <time>2021-10-23T11:50:01Z</time>
      </trkpt>
      <trkpt lat="46.53009" lon="5.41812">
        <ele>325.8</ele>
        <time>2021-10-23T11:50:05Z</time>
      </trkpt>
      <trkpt lat="46.53015" lon="5.4183">
        <ele>326.2</ele>
        <time>2021-10-23T11:50:08Z</time>
      </trkpt>
      <trkpt lat="46.5302" lon="5.41847">
        <ele>326.8</ele>
        <time>2021-10-23T11:50:11Z</time>
      </trkpt>
      <trkpt lat="46.53021" lon="5.41853">
        <ele>327</ele>
        <time>2021-10-23T11:50:12Z</time>
      </trkpt>
      <trkpt lat="46.53022" lon="5.41866">
        <ele>327.4</ele>
        <time>2021-10-23T11:50:14Z</time>
      </trkpt>
      <trkpt lat="46.53022" lon="5.41877">
        <ele>327.8</ele>
        <time>2021-10-23T11:50:16Z</time>
      </trkpt>
      <trkpt lat="46.53021" lon="5.41893">
        <ele>328.6</ele>
        <time>2021-10-23T11:50:19Z</time>
      </trkpt>
      <trkpt lat="46.5302" lon="5.41904">
        <ele>328.8</ele>
        <time>2021-10-23T11:50:21Z</time>
      </trkpt>
      <trkpt lat="46.53019" lon="5.41916">
        <ele>329.2</ele>
        <time>2021-10-23T11:50:23Z</time>
      </trkpt>
      <trkpt lat="46.53016" lon="5.41943">
        <ele>329.8</ele>
        <time>2021-10-23T11:50:27Z</time>
      </trkpt>
      <trkpt lat="46.53015" lon="5.41957">
        <ele>330</ele>
        <time>2021-10-23T11:50:29Z</time>
      </trkpt>
      <trkpt lat="46.53014" lon="5.4197">
        <ele>330.8</ele>
        <time>2021-10-23T11:50:31Z</time>
      </trkpt>
      <trkpt lat="46.53011" lon="5.42012">
        <ele>331.6</ele>
        <time>2021-10-23T11:50:37Z</time>
      </trkpt>
      <trkpt lat="46.53011" lon="5.42016">
        <ele>331.8</ele>
        <time>2021-10-23T11:50:38Z</time>
      </trkpt>
      <trkpt lat="46.53016" lon="5.42026">
        <ele>332.2</ele>
        <time>2021-10-23T11:50:40Z</time>
      </trkpt>
      <trkpt lat="46.53019" lon="5.42029">
        <ele>332.2</ele>
        <time>2021-10-23T11:50:41Z</time>
      </trkpt>
      <trkpt lat="46.53026" lon="5.4203">
        <ele>332.6</ele>
        <time>2021-10-23T11:50:43Z</time>
      </trkpt>
      <trkpt lat="46.53035" lon="5.42027">
        <ele>333</ele>
        <time>2021-10-23T11:50:45Z</time>
      </trkpt>
      <trkpt lat="46.53052" lon="5.42024">
        <ele>333.6</ele>
        <time>2021-10-23T11:50:48Z</time>
      </trkpt>
      <trkpt lat="46.53061" lon="5.42025">
        <ele>333.8</ele>
        <time>2021-10-23T11:50:51Z</time>
      </trkpt>
      <trkpt lat="46.53069" lon="5.42029">
        <ele>333.8</ele>
        <time>2021-10-23T11:50:52Z</time>
      </trkpt>
      <trkpt lat="46.53074" lon="5.42031">
        <ele>334</ele>
        <time>2021-10-23T11:50:53Z</time>
      </trkpt>
      <trkpt lat="46.53074" lon="5.42031">
        <ele>334.4</ele>
        <time>2021-10-23T11:50:54Z</time>
      </trkpt>
      <trkpt lat="46.53081" lon="5.42039">
        <ele>334.6</ele>
        <time>2021-10-23T11:50:55Z</time>
      </trkpt>
      <trkpt lat="46.53084" lon="5.42044">
        <ele>335.2</ele>
        <time>2021-10-23T11:50:57Z</time>
      </trkpt>
      <trkpt lat="46.53087" lon="5.42055">
        <ele>335.4</ele>
        <time>2021-10-23T11:50:58Z</time>
      </trkpt>
      <trkpt lat="46.53088" lon="5.42067">
        <ele>335.4</ele>
        <time>2021-10-23T11:51:00Z</time>
      </trkpt>
      <trkpt lat="46.53087" lon="5.42071">
        <ele>335.4</ele>
        <time>2021-10-23T11:51:01Z</time>
      </trkpt>
      <trkpt lat="46.53082" lon="5.42091">
        <ele>336</ele>
        <time>2021-10-23T11:51:05Z</time>
      </trkpt>
      <trkpt lat="46.53081" lon="5.42097">
        <ele>336.6</ele>
        <time>2021-10-23T11:51:07Z</time>
      </trkpt>
      <trkpt lat="46.53081" lon="5.42106">
        <ele>336.6</ele>
        <time>2021-10-23T11:51:08Z</time>
      </trkpt>
      <trkpt lat="46.53083" lon="5.42116">
        <ele>337.2</ele>
        <time>2021-10-23T11:51:10Z</time>
      </trkpt>
      <trkpt lat="46.53084" lon="5.42119">
        <ele>337.8</ele>
        <time>2021-10-23T11:51:12Z</time>
      </trkpt>
      <trkpt lat="46.5309" lon="5.42129">
        <ele>338.2</ele>
        <time>2021-10-23T11:51:14Z</time>
      </trkpt>
      <trkpt lat="46.53101" lon="5.42148">
        <ele>338.8</ele>
        <time>2021-10-23T11:51:17Z</time>
      </trkpt>
      <trkpt lat="46.53102" lon="5.42154">
        <ele>338.8</ele>
        <time>2021-10-23T11:51:18Z</time>
      </trkpt>
      <trkpt lat="46.53105" lon="5.42177">
        <ele>340.2</ele>
        <time>2021-10-23T11:51:23Z</time>
      </trkpt>
      <trkpt lat="46.53104" lon="5.42207">
        <ele>341</ele>
        <time>2021-10-23T11:51:28Z</time>
      </trkpt>
      <trkpt lat="46.53104" lon="5.42218">
        <ele>341.2</ele>
        <time>2021-10-23T11:51:29Z</time>
      </trkpt>
      <trkpt lat="46.53102" lon="5.42255">
        <ele>342.2</ele>
        <time>2021-10-23T11:51:34Z</time>
      </trkpt>
      <trkpt lat="46.53103" lon="5.42263">
        <ele>342.2</ele>
        <time>2021-10-23T11:51:35Z</time>
      </trkpt>
      <trkpt lat="46.53103" lon="5.42287">
        <ele>343</ele>
        <time>2021-10-23T11:51:41Z</time>
      </trkpt>
      <trkpt lat="46.53105" lon="5.4231">
        <ele>343.4</ele>
        <time>2021-10-23T11:51:44Z</time>
      </trkpt>
      <trkpt lat="46.53107" lon="5.42329">
        <ele>343.8</ele>
        <time>2021-10-23T11:51:47Z</time>
      </trkpt>
      <trkpt lat="46.53111" lon="5.42339">
        <ele>344.6</ele>
        <time>2021-10-23T11:51:49Z</time>
      </trkpt>
      <trkpt lat="46.53117" lon="5.42351">
        <ele>345.2</ele>
        <time>2021-10-23T11:51:52Z</time>
      </trkpt>
      <trkpt lat="46.53124" lon="5.42361">
        <ele>345.6</ele>
        <time>2021-10-23T11:51:54Z</time>
      </trkpt>
      <trkpt lat="46.53136" lon="5.42381">
        <ele>346.4</ele>
        <time>2021-10-23T11:51:58Z</time>
      </trkpt>
      <trkpt lat="46.53143" lon="5.42387">
        <ele>346.6</ele>
        <time>2021-10-23T11:52:00Z</time>
      </trkpt>
      <trkpt lat="46.53146" lon="5.42391">
        <ele>346.8</ele>
        <time>2021-10-23T11:52:01Z</time>
      </trkpt>
      <trkpt lat="46.53149" lon="5.42393">
        <ele>347</ele>
        <time>2021-10-23T11:52:02Z</time>
      </trkpt>
      <trkpt lat="46.53158" lon="5.42399">
        <ele>347.8</ele>
        <time>2021-10-23T11:52:05Z</time>
      </trkpt>
      <trkpt lat="46.53158" lon="5.42399">
        <ele>347.8</ele>
        <time>2021-10-23T11:52:06Z</time>
      </trkpt>
      <trkpt lat="46.53165" lon="5.42404">
        <ele>348</ele>
        <time>2021-10-23T11:52:07Z</time>
      </trkpt>
      <trkpt lat="46.53171" lon="5.42407">
        <ele>348.2</ele>
        <time>2021-10-23T11:52:09Z</time>
      </trkpt>
      <trkpt lat="46.53171" lon="5.42407">
        <ele>348.2</ele>
        <time>2021-10-23T11:52:10Z</time>
      </trkpt>
      <trkpt lat="46.53182" lon="5.42414">
        <ele>349</ele>
        <time>2021-10-23T11:52:13Z</time>
      </trkpt>
      <trkpt lat="46.53187" lon="5.42415">
        <ele>349.6</ele>
        <time>2021-10-23T11:52:15Z</time>
      </trkpt>
      <trkpt lat="46.53202" lon="5.42417">
        <ele>350</ele>
        <time>2021-10-23T11:52:17Z</time>
      </trkpt>
      <trkpt lat="46.53213" lon="5.42424">
        <ele>350.8</ele>
        <time>2021-10-23T11:52:20Z</time>
      </trkpt>
      <trkpt lat="46.53228" lon="5.42437">
        <ele>351.2</ele>
        <time>2021-10-23T11:52:24Z</time>
      </trkpt>
      <trkpt lat="46.53237" lon="5.4246">
        <ele>352.6</ele>
        <time>2021-10-23T11:52:28Z</time>
      </trkpt>
      <trkpt lat="46.53238" lon="5.42466">
        <ele>352.6</ele>
        <time>2021-10-23T11:52:29Z</time>
      </trkpt>
      <trkpt lat="46.53239" lon="5.42481">
        <ele>352.8</ele>
        <time>2021-10-23T11:52:31Z</time>
      </trkpt>
      <trkpt lat="46.53241" lon="5.42486">
        <ele>353.2</ele>
        <time>2021-10-23T11:52:32Z</time>
      </trkpt>
      <trkpt lat="46.53246" lon="5.42498">
        <ele>353.4</ele>
        <time>2021-10-23T11:52:35Z</time>
      </trkpt>
      <trkpt lat="46.53246" lon="5.42498">
        <ele>353.6</ele>
        <time>2021-10-23T11:52:36Z</time>
      </trkpt>
      <trkpt lat="46.53252" lon="5.42498">
        <ele>353.8</ele>
        <time>2021-10-23T11:52:37Z</time>
      </trkpt>
      <trkpt lat="46.53257" lon="5.42487">
        <ele>354.6</ele>
        <time>2021-10-23T11:52:40Z</time>
      </trkpt>
      <trkpt lat="46.53257" lon="5.42483">
        <ele>355</ele>
        <time>2021-10-23T11:52:41Z</time>
      </trkpt>
      <trkpt lat="46.53255" lon="5.42477">
        <ele>355.8</ele>
        <time>2021-10-23T11:52:44Z</time>
      </trkpt>
      <trkpt lat="46.53252" lon="5.42469">
        <ele>355.8</ele>
        <time>2021-10-23T11:52:45Z</time>
      </trkpt>
      <trkpt lat="46.53246" lon="5.42453">
        <ele>356.8</ele>
        <time>2021-10-23T11:52:48Z</time>
      </trkpt>
      <trkpt lat="46.53243" lon="5.42448">
        <ele>357</ele>
        <time>2021-10-23T11:52:49Z</time>
      </trkpt>
      <trkpt lat="46.53232" lon="5.42431">
        <ele>357.4</ele>
        <time>2021-10-23T11:52:53Z</time>
      </trkpt>
      <trkpt lat="46.5322" lon="5.42417">
        <ele>358</ele>
        <time>2021-10-23T11:52:57Z</time>
      </trkpt>
      <trkpt lat="46.53203" lon="5.42404">
        <ele>359</ele>
        <time>2021-10-23T11:53:02Z</time>
      </trkpt>
      <trkpt lat="46.53175" lon="5.42372">
        <ele>359.8</ele>
        <time>2021-10-23T11:53:10Z</time>
      </trkpt>
      <trkpt lat="46.53168" lon="5.42363">
        <ele>360</ele>
        <time>2021-10-23T11:53:13Z</time>
      </trkpt>
      <trkpt lat="46.53153" lon="5.42337">
        <ele>360.6</ele>
        <time>2021-10-23T11:53:17Z</time>
      </trkpt>
      <trkpt lat="46.53148" lon="5.4232">
        <ele>361.2</ele>
        <time>2021-10-23T11:53:20Z</time>
      </trkpt>
      <trkpt lat="46.53143" lon="5.4229">
        <ele>361.8</ele>
        <time>2021-10-23T11:53:25Z</time>
      </trkpt>
      <trkpt lat="46.53143" lon="5.42278">
        <ele>362.4</ele>
        <time>2021-10-23T11:53:27Z</time>
      </trkpt>
      <trkpt lat="46.53143" lon="5.42253">
        <ele>363.4</ele>
        <time>2021-10-23T11:53:31Z</time>
      </trkpt>
      <trkpt lat="46.53143" lon="5.42248">
        <ele>363.6</ele>
        <time>2021-10-23T11:53:32Z</time>
      </trkpt>
      <trkpt lat="46.53143" lon="5.42236">
        <ele>363.8</ele>
        <time>2021-10-23T11:53:34Z</time>
      </trkpt>
      <trkpt lat="46.53145" lon="5.42224">
        <ele>364.2</ele>
        <time>2021-10-23T11:53:37Z</time>
      </trkpt>
      <trkpt lat="46.53147" lon="5.42213">
        <ele>364.4</ele>
        <time>2021-10-23T11:53:38Z</time>
      </trkpt>
      <trkpt lat="46.5315" lon="5.42197">
        <ele>364.8</ele>
        <time>2021-10-23T11:53:42Z</time>
      </trkpt>
      <trkpt lat="46.53152" lon="5.42173">
        <ele>365.6</ele>
        <time>2021-10-23T11:53:46Z</time>
      </trkpt>
      <trkpt lat="46.53154" lon="5.42153">
        <ele>366</ele>
        <time>2021-10-23T11:53:49Z</time>
      </trkpt>
      <trkpt lat="46.53149" lon="5.42126">
        <ele>366.6</ele>
        <time>2021-10-23T11:53:55Z</time>
      </trkpt>
      <trkpt lat="46.53142" lon="5.42101">
        <ele>367.8</ele>
        <time>2021-10-23T11:53:59Z</time>
      </trkpt>
      <trkpt lat="46.53141" lon="5.42091">
        <ele>368.2</ele>
        <time>2021-10-23T11:54:01Z</time>
      </trkpt>
      <trkpt lat="46.53142" lon="5.42082">
        <ele>368.4</ele>
        <time>2021-10-23T11:54:03Z</time>
      </trkpt>
      <trkpt lat="46.53145" lon="5.42071">
        <ele>368.8</ele>
        <time>2021-10-23T11:54:05Z</time>
      </trkpt>
      <trkpt lat="46.53146" lon="5.42065">
        <ele>369.4</ele>
        <time>2021-10-23T11:54:06Z</time>
      </trkpt>
      <trkpt lat="46.53154" lon="5.42049">
        <ele>369.8</ele>
        <time>2021-10-23T11:54:09Z</time>
      </trkpt>
      <trkpt lat="46.5317" lon="5.42025">
        <ele>370.6</ele>
        <time>2021-10-23T11:54:14Z</time>
      </trkpt>
      <trkpt lat="46.53182" lon="5.42005">
        <ele>371</ele>
        <time>2021-10-23T11:54:18Z</time>
      </trkpt>
      <trkpt lat="46.53187" lon="5.41994">
        <ele>371.4</ele>
        <time>2021-10-23T11:54:21Z</time>
      </trkpt>
      <trkpt lat="46.53201" lon="5.41956">
        <ele>371.4</ele>
        <time>2021-10-23T11:54:26Z</time>
      </trkpt>
      <trkpt lat="46.53206" lon="5.41936">
        <ele>372</ele>
        <time>2021-10-23T11:54:29Z</time>
      </trkpt>
      <trkpt lat="46.53214" lon="5.41908">
        <ele>372.4</ele>
        <time>2021-10-23T11:54:33Z</time>
      </trkpt>
      <trkpt lat="46.53216" lon="5.419">
        <ele>372.4</ele>
        <time>2021-10-23T11:54:34Z</time>
      </trkpt>
      <trkpt lat="46.53218" lon="5.41888">
        <ele>373</ele>
        <time>2021-10-23T11:54:36Z</time>
      </trkpt>
      <trkpt lat="46.53217" lon="5.41881">
        <ele>373</ele>
        <time>2021-10-23T11:54:37Z</time>
      </trkpt>
      <trkpt lat="46.53215" lon="5.41874">
        <ele>373.2</ele>
        <time>2021-10-23T11:54:38Z</time>
      </trkpt>
      <trkpt lat="46.53211" lon="5.4186">
        <ele>373.4</ele>
        <time>2021-10-23T11:54:40Z</time>
      </trkpt>
      <trkpt lat="46.53208" lon="5.41854">
        <ele>373.4</ele>
        <time>2021-10-23T11:54:41Z</time>
      </trkpt>
      <trkpt lat="46.53193" lon="5.41815">
        <ele>373.6</ele>
        <time>2021-10-23T11:54:47Z</time>
      </trkpt>
      <trkpt lat="46.53193" lon="5.41808">
        <ele>373.8</ele>
        <time>2021-10-23T11:54:48Z</time>
      </trkpt>
      <trkpt lat="46.53194" lon="5.41801">
        <ele>374.2</ele>
        <time>2021-10-23T11:54:49Z</time>
      </trkpt>
      <trkpt lat="46.53199" lon="5.41789">
        <ele>374.4</ele>
        <time>2021-10-23T11:54:51Z</time>
      </trkpt>
      <trkpt lat="46.53201" lon="5.41784">
        <ele>374.6</ele>
        <time>2021-10-23T11:54:52Z</time>
      </trkpt>
      <trkpt lat="46.53204" lon="5.4178">
        <ele>374.6</ele>
        <time>2021-10-23T11:54:53Z</time>
      </trkpt>
      <trkpt lat="46.53211" lon="5.41773">
        <ele>375</ele>
        <time>2021-10-23T11:54:55Z</time>
      </trkpt>
      <trkpt lat="46.53211" lon="5.41773">
        <ele>375</ele>
        <time>2021-10-23T11:54:56Z</time>
      </trkpt>
      <trkpt lat="46.5322" lon="5.41773">
        <ele>375.2</ele>
        <time>2021-10-23T11:54:57Z</time>
      </trkpt>
      <trkpt lat="46.53227" lon="5.41777">
        <ele>375.6</ele>
        <time>2021-10-23T11:54:59Z</time>
      </trkpt>
      <trkpt lat="46.53233" lon="5.41785">
        <ele>376.2</ele>
        <time>2021-10-23T11:55:01Z</time>
      </trkpt>
      <trkpt lat="46.53235" lon="5.4179">
        <ele>376.4</ele>
        <time>2021-10-23T11:55:02Z</time>
      </trkpt>
      <trkpt lat="46.53236" lon="5.41796">
        <ele>377</ele>
        <time>2021-10-23T11:55:03Z</time>
      </trkpt>
      <trkpt lat="46.53237" lon="5.41801">
        <ele>377.4</ele>
        <time>2021-10-23T11:55:04Z</time>
      </trkpt>
      <trkpt lat="46.53239" lon="5.41812">
        <ele>378.4</ele>
        <time>2021-10-23T11:55:07Z</time>
      </trkpt>
      <trkpt lat="46.53243" lon="5.4184">
        <ele>379.4</ele>
        <time>2021-10-23T11:55:11Z</time>
      </trkpt>
      <trkpt lat="46.53244" lon="5.41846">
        <ele>379.6</ele>
        <time>2021-10-23T11:55:12Z</time>
      </trkpt>
      <trkpt lat="46.53244" lon="5.41867">
        <ele>380.6</ele>
        <time>2021-10-23T11:55:16Z</time>
      </trkpt>
      <trkpt lat="46.53244" lon="5.41881">
        <ele>381.6</ele>
        <time>2021-10-23T11:55:19Z</time>
      </trkpt>
      <trkpt lat="46.53243" lon="5.41886">
        <ele>381.8</ele>
        <time>2021-10-23T11:55:20Z</time>
      </trkpt>
      <trkpt lat="46.53237" lon="5.41905">
        <ele>383</ele>
        <time>2021-10-23T11:55:24Z</time>
      </trkpt>
      <trkpt lat="46.53235" lon="5.41911">
        <ele>383.2</ele>
        <time>2021-10-23T11:55:25Z</time>
      </trkpt>
      <trkpt lat="46.53224" lon="5.41942">
        <ele>384.2</ele>
        <time>2021-10-23T11:55:31Z</time>
      </trkpt>
      <trkpt lat="46.53221" lon="5.41953">
        <ele>384.8</ele>
        <time>2021-10-23T11:55:33Z</time>
      </trkpt>
      <trkpt lat="46.5322" lon="5.41958">
        <ele>385.6</ele>
        <time>2021-10-23T11:55:35Z</time>
      </trkpt>
      <trkpt lat="46.53215" lon="5.41982">
        <ele>386.2</ele>
        <time>2021-10-23T11:55:39Z</time>
      </trkpt>
      <trkpt lat="46.53212" lon="5.41991">
        <ele>386.6</ele>
        <time>2021-10-23T11:55:41Z</time>
      </trkpt>
      <trkpt lat="46.53207" lon="5.42006">
        <ele>387.8</ele>
        <time>2021-10-23T11:55:45Z</time>
      </trkpt>
      <trkpt lat="46.53204" lon="5.42016">
        <ele>388.4</ele>
        <time>2021-10-23T11:55:47Z</time>
      </trkpt>
      <trkpt lat="46.53202" lon="5.42025">
        <ele>389</ele>
        <time>2021-10-23T11:55:49Z</time>
      </trkpt>
      <trkpt lat="46.532" lon="5.4204">
        <ele>390.2</ele>
        <time>2021-10-23T11:55:53Z</time>
      </trkpt>
      <trkpt lat="46.532" lon="5.42042">
        <ele>390.4</ele>
        <time>2021-10-23T11:55:54Z</time>
      </trkpt>
      <trkpt lat="46.53202" lon="5.42052">
        <ele>391.4</ele>
        <time>2021-10-23T11:55:57Z</time>
      </trkpt>
      <trkpt lat="46.53204" lon="5.42064">
        <ele>392.2</ele>
        <time>2021-10-23T11:56:00Z</time>
      </trkpt>
      <trkpt lat="46.53204" lon="5.42069">
        <ele>392.4</ele>
        <time>2021-10-23T11:56:01Z</time>
      </trkpt>
      <trkpt lat="46.53206" lon="5.42078">
        <ele>393.6</ele>
        <time>2021-10-23T11:56:03Z</time>
      </trkpt>
      <trkpt lat="46.53209" lon="5.42086">
        <ele>394.4</ele>
        <time>2021-10-23T11:56:05Z</time>
      </trkpt>
      <trkpt lat="46.53211" lon="5.42094">
        <ele>394.6</ele>
        <time>2021-10-23T11:56:07Z</time>
      </trkpt>
      <trkpt lat="46.5322" lon="5.4212">
        <ele>395.4</ele>
        <time>2021-10-23T11:56:12Z</time>
      </trkpt>
      <trkpt lat="46.53222" lon="5.42132">
        <ele>395.8</ele>
        <time>2021-10-23T11:56:14Z</time>
      </trkpt>
      <trkpt lat="46.53227" lon="5.42162">
        <ele>396.8</ele>
        <time>2021-10-23T11:56:20Z</time>
      </trkpt>
      <trkpt lat="46.53229" lon="5.42181">
        <ele>398</ele>
        <time>2021-10-23T11:56:24Z</time>
      </trkpt>
      <trkpt lat="46.53233" lon="5.42194">
        <ele>398.8</ele>
        <time>2021-10-23T11:56:27Z</time>
      </trkpt>
      <trkpt lat="46.53234" lon="5.42197">
        <ele>399.2</ele>
        <time>2021-10-23T11:56:28Z</time>
      </trkpt>
      <trkpt lat="46.53238" lon="5.42206">
        <ele>399.6</ele>
        <time>2021-10-23T11:56:30Z</time>
      </trkpt>
      <trkpt lat="46.53242" lon="5.42212">
        <ele>400.2</ele>
        <time>2021-10-23T11:56:32Z</time>
      </trkpt>
      <trkpt lat="46.53245" lon="5.42216">
        <ele>400.4</ele>
        <time>2021-10-23T11:56:33Z</time>
      </trkpt>
      <trkpt lat="46.53256" lon="5.42232">
        <ele>401.2</ele>
        <time>2021-10-23T11:56:37Z</time>
      </trkpt>
      <trkpt lat="46.5326" lon="5.4224">
        <ele>401.6</ele>
        <time>2021-10-23T11:56:39Z</time>
      </trkpt>
      <trkpt lat="46.53266" lon="5.42255">
        <ele>402.4</ele>
        <time>2021-10-23T11:56:43Z</time>
      </trkpt>
      <trkpt lat="46.53269" lon="5.42272">
        <ele>402.8</ele>
        <time>2021-10-23T11:56:46Z</time>
      </trkpt>
      <trkpt lat="46.5327" lon="5.42278">
        <ele>402.8</ele>
        <time>2021-10-23T11:56:47Z</time>
      </trkpt>
      <trkpt lat="46.53276" lon="5.42315">
        <ele>403.8</ele>
        <time>2021-10-23T11:56:53Z</time>
      </trkpt>
      <trkpt lat="46.5328" lon="5.42327">
        <ele>404</ele>
        <time>2021-10-23T11:56:55Z</time>
      </trkpt>
      <trkpt lat="46.53284" lon="5.42344">
        <ele>405</ele>
        <time>2021-10-23T11:56:58Z</time>
      </trkpt>
      <trkpt lat="46.53289" lon="5.42357">
        <ele>405.2</ele>
        <time>2021-10-23T11:57:00Z</time>
      </trkpt>
      <trkpt lat="46.533" lon="5.42384">
        <ele>406</ele>
        <time>2021-10-23T11:57:05Z</time>
      </trkpt>
      <trkpt lat="46.53314" lon="5.42419">
        <ele>407</ele>
        <time>2021-10-23T11:57:12Z</time>
      </trkpt>
      <trkpt lat="46.53316" lon="5.42426">
        <ele>407.2</ele>
        <time>2021-10-23T11:57:13Z</time>
      </trkpt>
      <trkpt lat="46.53326" lon="5.42458">
        <ele>408.2</ele>
        <time>2021-10-23T11:57:19Z</time>
      </trkpt>
      <trkpt lat="46.53335" lon="5.42485">
        <ele>409.2</ele>
        <time>2021-10-23T11:57:24Z</time>
      </trkpt>
      <trkpt lat="46.53338" lon="5.42495">
        <ele>409.4</ele>
        <time>2021-10-23T11:57:26Z</time>
      </trkpt>
      <trkpt lat="46.53351" lon="5.42526">
        <ele>410.4</ele>
        <time>2021-10-23T11:57:32Z</time>
      </trkpt>
      <trkpt lat="46.5336" lon="5.42546">
        <ele>411.4</ele>
        <time>2021-10-23T11:57:36Z</time>
      </trkpt>
      <trkpt lat="46.53362" lon="5.4255">
        <ele>411.6</ele>
        <time>2021-10-23T11:57:37Z</time>
      </trkpt>
      <trkpt lat="46.53375" lon="5.42577">
        <ele>412.6</ele>
        <time>2021-10-23T11:57:43Z</time>
      </trkpt>
      <trkpt lat="46.53377" lon="5.42581">
        <ele>413</ele>
        <time>2021-10-23T11:57:44Z</time>
      </trkpt>
      <trkpt lat="46.53388" lon="5.42596">
        <ele>413.8</ele>
        <time>2021-10-23T11:57:48Z</time>
      </trkpt>
      <trkpt lat="46.53395" lon="5.42607">
        <ele>414.8</ele>
        <time>2021-10-23T11:57:51Z</time>
      </trkpt>
      <trkpt lat="46.53401" lon="5.42615">
        <ele>415.2</ele>
        <time>2021-10-23T11:57:53Z</time>
      </trkpt>
      <trkpt lat="46.53414" lon="5.42636">
        <ele>416.2</ele>
        <time>2021-10-23T11:57:58Z</time>
      </trkpt>
      <trkpt lat="46.53429" lon="5.42678">
        <ele>417.2</ele>
        <time>2021-10-23T11:58:06Z</time>
      </trkpt>
      <trkpt lat="46.53438" lon="5.42726">
        <ele>418.2</ele>
        <time>2021-10-23T11:58:14Z</time>
      </trkpt>
      <trkpt lat="46.5344" lon="5.42747">
        <ele>418.8</ele>
        <time>2021-10-23T11:58:19Z</time>
      </trkpt>
      <trkpt lat="46.5344" lon="5.42751">
        <ele>419.2</ele>
        <time>2021-10-23T11:58:21Z</time>
      </trkpt>
      <trkpt lat="46.53439" lon="5.42753">
        <ele>419.2</ele>
        <time>2021-10-23T11:58:22Z</time>
      </trkpt>
      <trkpt lat="46.53437" lon="5.42758">
        <ele>419.4</ele>
        <time>2021-10-23T11:58:24Z</time>
      </trkpt>
      <trkpt lat="46.53437" lon="5.42759">
        <ele>419.8</ele>
        <time>2021-10-23T11:58:27Z</time>
      </trkpt>
      <trkpt lat="46.53439" lon="5.42765">
        <ele>419.2</ele>
        <time>2021-10-23T11:59:12Z</time>
      </trkpt>
      <trkpt lat="46.53441" lon="5.4279">
        <ele>419</ele>
        <time>2021-10-23T11:59:17Z</time>
      </trkpt>
      <trkpt lat="46.53442" lon="5.42818">
        <ele>418.4</ele>
        <time>2021-10-23T11:59:21Z</time>
      </trkpt>
      <trkpt lat="46.53443" lon="5.42834">
        <ele>417.8</ele>
        <time>2021-10-23T11:59:23Z</time>
      </trkpt>
      <trkpt lat="46.53444" lon="5.42852">
        <ele>417.2</ele>
        <time>2021-10-23T11:59:25Z</time>
      </trkpt>
      <trkpt lat="46.53445" lon="5.42892">
        <ele>416</ele>
        <time>2021-10-23T11:59:29Z</time>
      </trkpt>
      <trkpt lat="46.53443" lon="5.42936">
        <ele>414.4</ele>
        <time>2021-10-23T11:59:33Z</time>
      </trkpt>
      <trkpt lat="46.53441" lon="5.4296">
        <ele>413.4</ele>
        <time>2021-10-23T11:59:35Z</time>
      </trkpt>
      <trkpt lat="46.5344" lon="5.42972">
        <ele>413</ele>
        <time>2021-10-23T11:59:36Z</time>
      </trkpt>
      <trkpt lat="46.53436" lon="5.43019">
        <ele>411.6</ele>
        <time>2021-10-23T11:59:40Z</time>
      </trkpt>
      <trkpt lat="46.53435" lon="5.43031">
        <ele>411.6</ele>
        <time>2021-10-23T11:59:41Z</time>
      </trkpt>
      <trkpt lat="46.53432" lon="5.43067">
        <ele>410.6</ele>
        <time>2021-10-23T11:59:44Z</time>
      </trkpt>
      <trkpt lat="46.53428" lon="5.43114">
        <ele>409.4</ele>
        <time>2021-10-23T11:59:48Z</time>
      </trkpt>
      <trkpt lat="46.53426" lon="5.43149">
        <ele>408.2</ele>
        <time>2021-10-23T11:59:51Z</time>
      </trkpt>
      <trkpt lat="46.53421" lon="5.43219">
        <ele>407.2</ele>
        <time>2021-10-23T11:59:57Z</time>
      </trkpt>
      <trkpt lat="46.53417" lon="5.4327">
        <ele>406.4</ele>
        <time>2021-10-23T12:00:01Z</time>
      </trkpt>
      <trkpt lat="46.53417" lon="5.43283">
        <ele>406.4</ele>
        <time>2021-10-23T12:00:02Z</time>
      </trkpt>
      <trkpt lat="46.53419" lon="5.43296">
        <ele>406</ele>
        <time>2021-10-23T12:00:03Z</time>
      </trkpt>
      <trkpt lat="46.53426" lon="5.43321">
        <ele>405.8</ele>
        <time>2021-10-23T12:00:05Z</time>
      </trkpt>
      <trkpt lat="46.53428" lon="5.43345">
        <ele>405.2</ele>
        <time>2021-10-23T12:00:07Z</time>
      </trkpt>
      <trkpt lat="46.53425" lon="5.43356">
        <ele>404.8</ele>
        <time>2021-10-23T12:00:08Z</time>
      </trkpt>
      <trkpt lat="46.53417" lon="5.43363">
        <ele>404.6</ele>
        <time>2021-10-23T12:00:09Z</time>
      </trkpt>
      <trkpt lat="46.53408" lon="5.43365">
        <ele>404.2</ele>
        <time>2021-10-23T12:00:10Z</time>
      </trkpt>
      <trkpt lat="46.53399" lon="5.43364">
        <ele>403.8</ele>
        <time>2021-10-23T12:00:11Z</time>
      </trkpt>
      <trkpt lat="46.53391" lon="5.43362">
        <ele>403.4</ele>
        <time>2021-10-23T12:00:12Z</time>
      </trkpt>
      <trkpt lat="46.53379" lon="5.43359">
        <ele>402.6</ele>
        <time>2021-10-23T12:00:13Z</time>
      </trkpt>
      <trkpt lat="46.53368" lon="5.43357">
        <ele>401.6</ele>
        <time>2021-10-23T12:00:14Z</time>
      </trkpt>
      <trkpt lat="46.53336" lon="5.43349">
        <ele>399.6</ele>
        <time>2021-10-23T12:00:17Z</time>
      </trkpt>
      <trkpt lat="46.53313" lon="5.43342">
        <ele>398.2</ele>
        <time>2021-10-23T12:00:19Z</time>
      </trkpt>
      <trkpt lat="46.53291" lon="5.43332">
        <ele>396.4</ele>
        <time>2021-10-23T12:00:21Z</time>
      </trkpt>
      <trkpt lat="46.53268" lon="5.4332">
        <ele>395.2</ele>
        <time>2021-10-23T12:00:23Z</time>
      </trkpt>
      <trkpt lat="46.53256" lon="5.43313">
        <ele>394</ele>
        <time>2021-10-23T12:00:24Z</time>
      </trkpt>
      <trkpt lat="46.53245" lon="5.43306">
        <ele>393.6</ele>
        <time>2021-10-23T12:00:25Z</time>
      </trkpt>
      <trkpt lat="46.53234" lon="5.43299">
        <ele>391.8</ele>
        <time>2021-10-23T12:00:26Z</time>
      </trkpt>
      <trkpt lat="46.53222" lon="5.43294">
        <ele>391</ele>
        <time>2021-10-23T12:00:27Z</time>
      </trkpt>
      <trkpt lat="46.5321" lon="5.4329">
        <ele>390</ele>
        <time>2021-10-23T12:00:28Z</time>
      </trkpt>
      <trkpt lat="46.53185" lon="5.43286">
        <ele>388.4</ele>
        <time>2021-10-23T12:00:30Z</time>
      </trkpt>
      <trkpt lat="46.53173" lon="5.43284">
        <ele>387.4</ele>
        <time>2021-10-23T12:00:31Z</time>
      </trkpt>
      <trkpt lat="46.53148" lon="5.43278">
        <ele>386.2</ele>
        <time>2021-10-23T12:00:33Z</time>
      </trkpt>
      <trkpt lat="46.53124" lon="5.43272">
        <ele>385</ele>
        <time>2021-10-23T12:00:35Z</time>
      </trkpt>
      <trkpt lat="46.53099" lon="5.43266">
        <ele>383.4</ele>
        <time>2021-10-23T12:00:37Z</time>
      </trkpt>
      <trkpt lat="46.53074" lon="5.43262">
        <ele>381.6</ele>
        <time>2021-10-23T12:00:39Z</time>
      </trkpt>
      <trkpt lat="46.53062" lon="5.43264">
        <ele>380.8</ele>
        <time>2021-10-23T12:00:40Z</time>
      </trkpt>
      <trkpt lat="46.53053" lon="5.4327">
        <ele>380.4</ele>
        <time>2021-10-23T12:00:41Z</time>
      </trkpt>
      <trkpt lat="46.53044" lon="5.43282">
        <ele>379.6</ele>
        <time>2021-10-23T12:00:42Z</time>
      </trkpt>
      <trkpt lat="46.53037" lon="5.433">
        <ele>379.2</ele>
        <time>2021-10-23T12:00:43Z</time>
      </trkpt>
      <trkpt lat="46.53034" lon="5.43317">
        <ele>378.4</ele>
        <time>2021-10-23T12:00:44Z</time>
      </trkpt>
      <trkpt lat="46.53033" lon="5.43334">
        <ele>377.8</ele>
        <time>2021-10-23T12:00:45Z</time>
      </trkpt>
      <trkpt lat="46.53032" lon="5.43367">
        <ele>375.6</ele>
        <time>2021-10-23T12:00:47Z</time>
      </trkpt>
      <trkpt lat="46.53032" lon="5.43383">
        <ele>375.2</ele>
        <time>2021-10-23T12:00:48Z</time>
      </trkpt>
      <trkpt lat="46.53031" lon="5.43414">
        <ele>374.4</ele>
        <time>2021-10-23T12:00:50Z</time>
      </trkpt>
      <trkpt lat="46.53029" lon="5.43456">
        <ele>373.8</ele>
        <time>2021-10-23T12:00:53Z</time>
      </trkpt>
      <trkpt lat="46.53025" lon="5.43546">
        <ele>374.2</ele>
        <time>2021-10-23T12:01:00Z</time>
      </trkpt>
      <trkpt lat="46.53021" lon="5.43617">
        <ele>374.2</ele>
        <time>2021-10-23T12:01:06Z</time>
      </trkpt>
      <trkpt lat="46.53017" lon="5.43676">
        <ele>374.2</ele>
        <time>2021-10-23T12:01:12Z</time>
      </trkpt>
      <trkpt lat="46.53015" lon="5.43684">
        <ele>374.2</ele>
        <time>2021-10-23T12:01:13Z</time>
      </trkpt>
      <trkpt lat="46.53008" lon="5.43711">
        <ele>375.6</ele>
        <time>2021-10-23T12:01:17Z</time>
      </trkpt>
      <trkpt lat="46.53004" lon="5.43722">
        <ele>376.6</ele>
        <time>2021-10-23T12:01:19Z</time>
      </trkpt>
      <trkpt lat="46.52998" lon="5.43739">
        <ele>378</ele>
        <time>2021-10-23T12:01:22Z</time>
      </trkpt>
      <trkpt lat="46.52992" lon="5.43757">
        <ele>379.2</ele>
        <time>2021-10-23T12:01:25Z</time>
      </trkpt>
      <trkpt lat="46.52988" lon="5.43768">
        <ele>379.6</ele>
        <time>2021-10-23T12:01:27Z</time>
      </trkpt>
      <trkpt lat="46.52984" lon="5.43786">
        <ele>380.4</ele>
        <time>2021-10-23T12:01:30Z</time>
      </trkpt>
      <trkpt lat="46.52983" lon="5.43792">
        <ele>380.6</ele>
        <time>2021-10-23T12:01:31Z</time>
      </trkpt>
      <trkpt lat="46.52979" lon="5.43807">
        <ele>381.4</ele>
        <time>2021-10-23T12:01:34Z</time>
      </trkpt>
      <trkpt lat="46.52979" lon="5.43813">
        <ele>381.8</ele>
        <time>2021-10-23T12:01:35Z</time>
      </trkpt>
      <trkpt lat="46.52979" lon="5.43829">
        <ele>382.6</ele>
        <time>2021-10-23T12:01:38Z</time>
      </trkpt>
      <trkpt lat="46.5298" lon="5.43835">
        <ele>383.2</ele>
        <time>2021-10-23T12:01:39Z</time>
      </trkpt>
      <trkpt lat="46.52987" lon="5.43856">
        <ele>384.2</ele>
        <time>2021-10-23T12:01:43Z</time>
      </trkpt>
      <trkpt lat="46.52989" lon="5.43862">
        <ele>384.6</ele>
        <time>2021-10-23T12:01:44Z</time>
      </trkpt>
      <trkpt lat="46.52993" lon="5.43872">
        <ele>385.4</ele>
        <time>2021-10-23T12:01:46Z</time>
      </trkpt>
      <trkpt lat="46.52998" lon="5.43881">
        <ele>386.4</ele>
        <time>2021-10-23T12:01:48Z</time>
      </trkpt>
      <trkpt lat="46.53005" lon="5.43894">
        <ele>387.2</ele>
        <time>2021-10-23T12:01:51Z</time>
      </trkpt>
      <trkpt lat="46.53006" lon="5.43899">
        <ele>387.6</ele>
        <time>2021-10-23T12:01:52Z</time>
      </trkpt>
      <trkpt lat="46.53015" lon="5.43921">
        <ele>388.6</ele>
        <time>2021-10-23T12:01:57Z</time>
      </trkpt>
      <trkpt lat="46.53019" lon="5.4393">
        <ele>389.2</ele>
        <time>2021-10-23T12:01:59Z</time>
      </trkpt>
      <trkpt lat="46.53025" lon="5.43942">
        <ele>389.8</ele>
        <time>2021-10-23T12:02:02Z</time>
      </trkpt>
      <trkpt lat="46.53033" lon="5.43959">
        <ele>390.4</ele>
        <time>2021-10-23T12:02:06Z</time>
      </trkpt>
      <trkpt lat="46.53034" lon="5.43964">
        <ele>391</ele>
        <time>2021-10-23T12:02:07Z</time>
      </trkpt>
      <trkpt lat="46.53044" lon="5.43985">
        <ele>392</ele>
        <time>2021-10-23T12:02:12Z</time>
      </trkpt>
      <trkpt lat="46.53046" lon="5.43989">
        <ele>392.4</ele>
        <time>2021-10-23T12:02:13Z</time>
      </trkpt>
      <trkpt lat="46.5306" lon="5.44012">
        <ele>393.4</ele>
        <time>2021-10-23T12:02:18Z</time>
      </trkpt>
      <trkpt lat="46.53062" lon="5.44017">
        <ele>393.6</ele>
        <time>2021-10-23T12:02:19Z</time>
      </trkpt>
      <trkpt lat="46.53071" lon="5.44033">
        <ele>394.4</ele>
        <time>2021-10-23T12:02:22Z</time>
      </trkpt>
      <trkpt lat="46.53079" lon="5.44047">
        <ele>395.6</ele>
        <time>2021-10-23T12:02:25Z</time>
      </trkpt>
      <trkpt lat="46.53082" lon="5.44051">
        <ele>395.6</ele>
        <time>2021-10-23T12:02:26Z</time>
      </trkpt>
      <trkpt lat="46.53096" lon="5.44074">
        <ele>396.8</ele>
        <time>2021-10-23T12:02:31Z</time>
      </trkpt>
      <trkpt lat="46.53101" lon="5.44083">
        <ele>397.2</ele>
        <time>2021-10-23T12:02:33Z</time>
      </trkpt>
      <trkpt lat="46.53107" lon="5.44098">
        <ele>397.8</ele>
        <time>2021-10-23T12:02:36Z</time>
      </trkpt>
      <trkpt lat="46.53109" lon="5.44108">
        <ele>398.2</ele>
        <time>2021-10-23T12:02:38Z</time>
      </trkpt>
      <trkpt lat="46.53112" lon="5.44124">
        <ele>399</ele>
        <time>2021-10-23T12:02:41Z</time>
      </trkpt>
      <trkpt lat="46.53113" lon="5.44147">
        <ele>399.8</ele>
        <time>2021-10-23T12:02:45Z</time>
      </trkpt>
      <trkpt lat="46.53113" lon="5.44153">
        <ele>400</ele>
        <time>2021-10-23T12:02:47Z</time>
      </trkpt>
      <trkpt lat="46.53105" lon="5.44178">
        <ele>400.8</ele>
        <time>2021-10-23T12:02:51Z</time>
      </trkpt>
      <trkpt lat="46.53103" lon="5.44182">
        <ele>401.2</ele>
        <time>2021-10-23T12:02:52Z</time>
      </trkpt>
      <trkpt lat="46.53092" lon="5.44196">
        <ele>402</ele>
        <time>2021-10-23T12:02:56Z</time>
      </trkpt>
      <trkpt lat="46.53089" lon="5.442">
        <ele>402.4</ele>
        <time>2021-10-23T12:02:57Z</time>
      </trkpt>
      <trkpt lat="46.53075" lon="5.44214">
        <ele>403.6</ele>
        <time>2021-10-23T12:03:01Z</time>
      </trkpt>
      <trkpt lat="46.53065" lon="5.44222">
        <ele>404.2</ele>
        <time>2021-10-23T12:03:04Z</time>
      </trkpt>
      <trkpt lat="46.53054" lon="5.4423">
        <ele>404.8</ele>
        <time>2021-10-23T12:03:07Z</time>
      </trkpt>
      <trkpt lat="46.53042" lon="5.44238">
        <ele>405.4</ele>
        <time>2021-10-23T12:03:10Z</time>
      </trkpt>
      <trkpt lat="46.53039" lon="5.44241">
        <ele>405.8</ele>
        <time>2021-10-23T12:03:11Z</time>
      </trkpt>
      <trkpt lat="46.53016" lon="5.44266">
        <ele>406.8</ele>
        <time>2021-10-23T12:03:18Z</time>
      </trkpt>
      <trkpt lat="46.53001" lon="5.44301">
        <ele>407.8</ele>
        <time>2021-10-23T12:03:25Z</time>
      </trkpt>
      <trkpt lat="46.53" lon="5.44307">
        <ele>408</ele>
        <time>2021-10-23T12:03:26Z</time>
      </trkpt>
      <trkpt lat="46.52998" lon="5.44313">
        <ele>408.2</ele>
        <time>2021-10-23T12:03:27Z</time>
      </trkpt>
      <trkpt lat="46.52989" lon="5.44351">
        <ele>409</ele>
        <time>2021-10-23T12:03:34Z</time>
      </trkpt>
      <trkpt lat="46.52986" lon="5.44361">
        <ele>409.2</ele>
        <time>2021-10-23T12:03:36Z</time>
      </trkpt>
      <trkpt lat="46.52979" lon="5.44393">
        <ele>410.4</ele>
        <time>2021-10-23T12:03:42Z</time>
      </trkpt>
      <trkpt lat="46.52976" lon="5.44409">
        <ele>410.8</ele>
        <time>2021-10-23T12:03:45Z</time>
      </trkpt>
      <trkpt lat="46.52973" lon="5.44424">
        <ele>411.4</ele>
        <time>2021-10-23T12:03:48Z</time>
      </trkpt>
      <trkpt lat="46.52969" lon="5.44444">
        <ele>412.2</ele>
        <time>2021-10-23T12:03:52Z</time>
      </trkpt>
      <trkpt lat="46.52967" lon="5.44463">
        <ele>412.6</ele>
        <time>2021-10-23T12:03:56Z</time>
      </trkpt>
      <trkpt lat="46.52968" lon="5.44485">
        <ele>413.2</ele>
        <time>2021-10-23T12:04:00Z</time>
      </trkpt>
      <trkpt lat="46.52969" lon="5.44503">
        <ele>413.6</ele>
        <time>2021-10-23T12:04:03Z</time>
      </trkpt>
      <trkpt lat="46.52972" lon="5.44535">
        <ele>414.8</ele>
        <time>2021-10-23T12:04:09Z</time>
      </trkpt>
      <trkpt lat="46.52974" lon="5.44567">
        <ele>415.8</ele>
        <time>2021-10-23T12:04:15Z</time>
      </trkpt>
      <trkpt lat="46.52975" lon="5.44577">
        <ele>416</ele>
        <time>2021-10-23T12:04:17Z</time>
      </trkpt>
      <trkpt lat="46.52978" lon="5.44604">
        <ele>416.8</ele>
        <time>2021-10-23T12:04:22Z</time>
      </trkpt>
      <trkpt lat="46.52982" lon="5.44636">
        <ele>418.2</ele>
        <time>2021-10-23T12:04:28Z</time>
      </trkpt>
      <trkpt lat="46.52986" lon="5.44673">
        <ele>419.6</ele>
        <time>2021-10-23T12:04:35Z</time>
      </trkpt>
      <trkpt lat="46.52987" lon="5.44683">
        <ele>420.2</ele>
        <time>2021-10-23T12:04:37Z</time>
      </trkpt>
      <trkpt lat="46.52989" lon="5.44699">
        <ele>420.6</ele>
        <time>2021-10-23T12:04:40Z</time>
      </trkpt>
      <trkpt lat="46.52992" lon="5.44726">
        <ele>421.8</ele>
        <time>2021-10-23T12:04:45Z</time>
      </trkpt>
      <trkpt lat="46.52992" lon="5.44732">
        <ele>422</ele>
        <time>2021-10-23T12:04:46Z</time>
      </trkpt>
      <trkpt lat="46.52996" lon="5.44758">
        <ele>423.4</ele>
        <time>2021-10-23T12:04:51Z</time>
      </trkpt>
      <trkpt lat="46.53" lon="5.44783">
        <ele>424.4</ele>
        <time>2021-10-23T12:04:56Z</time>
      </trkpt>
      <trkpt lat="46.53006" lon="5.44818">
        <ele>425.8</ele>
        <time>2021-10-23T12:05:03Z</time>
      </trkpt>
      <trkpt lat="46.53006" lon="5.44823">
        <ele>426</ele>
        <time>2021-10-23T12:05:04Z</time>
      </trkpt>
      <trkpt lat="46.53008" lon="5.44839">
        <ele>427</ele>
        <time>2021-10-23T12:05:07Z</time>
      </trkpt>
      <trkpt lat="46.53009" lon="5.44858">
        <ele>428</ele>
        <time>2021-10-23T12:05:11Z</time>
      </trkpt>
      <trkpt lat="46.5301" lon="5.44869">
        <ele>428.6</ele>
        <time>2021-10-23T12:05:13Z</time>
      </trkpt>
      <trkpt lat="46.53008" lon="5.44882">
        <ele>429.4</ele>
        <time>2021-10-23T12:05:16Z</time>
      </trkpt>
      <trkpt lat="46.53006" lon="5.44897">
        <ele>430.2</ele>
        <time>2021-10-23T12:05:19Z</time>
      </trkpt>
      <trkpt lat="46.53004" lon="5.44906">
        <ele>430.6</ele>
        <time>2021-10-23T12:05:21Z</time>
      </trkpt>
      <trkpt lat="46.52997" lon="5.44923">
        <ele>431.4</ele>
        <time>2021-10-23T12:05:25Z</time>
      </trkpt>
      <trkpt lat="46.52993" lon="5.44932">
        <ele>431.8</ele>
        <time>2021-10-23T12:05:27Z</time>
      </trkpt>
      <trkpt lat="46.52982" lon="5.44952">
        <ele>433.2</ele>
        <time>2021-10-23T12:05:32Z</time>
      </trkpt>
      <trkpt lat="46.52976" lon="5.44959">
        <ele>433.6</ele>
        <time>2021-10-23T12:05:34Z</time>
      </trkpt>
      <trkpt lat="46.52964" lon="5.44968">
        <ele>434.2</ele>
        <time>2021-10-23T12:05:38Z</time>
      </trkpt>
      <trkpt lat="46.52953" lon="5.44975">
        <ele>435</ele>
        <time>2021-10-23T12:05:41Z</time>
      </trkpt>
      <trkpt lat="46.52949" lon="5.44977">
        <ele>435.2</ele>
        <time>2021-10-23T12:05:42Z</time>
      </trkpt>
      <trkpt lat="46.52946" lon="5.44979">
        <ele>435.4</ele>
        <time>2021-10-23T12:05:43Z</time>
      </trkpt>
      <trkpt lat="46.52927" lon="5.44991">
        <ele>436.4</ele>
        <time>2021-10-23T12:05:48Z</time>
      </trkpt>
      <trkpt lat="46.52913" lon="5.45001">
        <ele>437.4</ele>
        <time>2021-10-23T12:05:52Z</time>
      </trkpt>
      <trkpt lat="46.5291" lon="5.45004">
        <ele>437.6</ele>
        <time>2021-10-23T12:05:53Z</time>
      </trkpt>
      <trkpt lat="46.52893" lon="5.45016">
        <ele>438.6</ele>
        <time>2021-10-23T12:05:58Z</time>
      </trkpt>
      <trkpt lat="46.52872" lon="5.4503">
        <ele>439.6</ele>
        <time>2021-10-23T12:06:04Z</time>
      </trkpt>
      <trkpt lat="46.52865" lon="5.45035">
        <ele>440.2</ele>
        <time>2021-10-23T12:06:06Z</time>
      </trkpt>
      <trkpt lat="46.52858" lon="5.4504">
        <ele>440.8</ele>
        <time>2021-10-23T12:06:08Z</time>
      </trkpt>
      <trkpt lat="46.52847" lon="5.45047">
        <ele>441.8</ele>
        <time>2021-10-23T12:06:11Z</time>
      </trkpt>
      <trkpt lat="46.52829" lon="5.45059">
        <ele>443</ele>
        <time>2021-10-23T12:06:16Z</time>
      </trkpt>
      <trkpt lat="46.52822" lon="5.45063">
        <ele>443.4</ele>
        <time>2021-10-23T12:06:18Z</time>
      </trkpt>
      <trkpt lat="46.52809" lon="5.45072">
        <ele>444.2</ele>
        <time>2021-10-23T12:06:22Z</time>
      </trkpt>
      <trkpt lat="46.52796" lon="5.4508">
        <ele>445</ele>
        <time>2021-10-23T12:06:26Z</time>
      </trkpt>
      <trkpt lat="46.52793" lon="5.45083">
        <ele>445.4</ele>
        <time>2021-10-23T12:06:27Z</time>
      </trkpt>
      <trkpt lat="46.52783" lon="5.45098">
        <ele>446.6</ele>
        <time>2021-10-23T12:06:31Z</time>
      </trkpt>
      <trkpt lat="46.52782" lon="5.45103">
        <ele>446.8</ele>
        <time>2021-10-23T12:06:32Z</time>
      </trkpt>
      <trkpt lat="46.52783" lon="5.45117">
        <ele>447.6</ele>
        <time>2021-10-23T12:06:35Z</time>
      </trkpt>
      <trkpt lat="46.52784" lon="5.45122">
        <ele>448</ele>
        <time>2021-10-23T12:06:36Z</time>
      </trkpt>
      <trkpt lat="46.5279" lon="5.45133">
        <ele>448.6</ele>
        <time>2021-10-23T12:06:39Z</time>
      </trkpt>
      <trkpt lat="46.52793" lon="5.45136">
        <ele>449</ele>
        <time>2021-10-23T12:06:40Z</time>
      </trkpt>
      <trkpt lat="46.5281" lon="5.45149">
        <ele>450.2</ele>
        <time>2021-10-23T12:06:45Z</time>
      </trkpt>
      <trkpt lat="46.52831" lon="5.45167">
        <ele>451.4</ele>
        <time>2021-10-23T12:06:51Z</time>
      </trkpt>
      <trkpt lat="46.52839" lon="5.45173">
        <ele>452</ele>
        <time>2021-10-23T12:06:53Z</time>
      </trkpt>
      <trkpt lat="46.52846" lon="5.45178">
        <ele>452.4</ele>
        <time>2021-10-23T12:06:55Z</time>
      </trkpt>
      <trkpt lat="46.52862" lon="5.4519">
        <ele>453.6</ele>
        <time>2021-10-23T12:06:59Z</time>
      </trkpt>
      <trkpt lat="46.52869" lon="5.45196">
        <ele>453.8</ele>
        <time>2021-10-23T12:07:01Z</time>
      </trkpt>
      <trkpt lat="46.52877" lon="5.45201">
        <ele>454.6</ele>
        <time>2021-10-23T12:07:03Z</time>
      </trkpt>
      <trkpt lat="46.5289" lon="5.45212">
        <ele>455.8</ele>
        <time>2021-10-23T12:07:07Z</time>
      </trkpt>
      <trkpt lat="46.52904" lon="5.45222">
        <ele>456</ele>
        <time>2021-10-23T12:07:11Z</time>
      </trkpt>
      <trkpt lat="46.52917" lon="5.45233">
        <ele>457</ele>
        <time>2021-10-23T12:07:15Z</time>
      </trkpt>
      <trkpt lat="46.52927" lon="5.4524">
        <ele>457.2</ele>
        <time>2021-10-23T12:07:18Z</time>
      </trkpt>
      <trkpt lat="46.52943" lon="5.45252">
        <ele>458.2</ele>
        <time>2021-10-23T12:07:23Z</time>
      </trkpt>
      <trkpt lat="46.52953" lon="5.4526">
        <ele>459</ele>
        <time>2021-10-23T12:07:26Z</time>
      </trkpt>
      <trkpt lat="46.52956" lon="5.45263">
        <ele>459.2</ele>
        <time>2021-10-23T12:07:27Z</time>
      </trkpt>
      <trkpt lat="46.52967" lon="5.45283">
        <ele>460.2</ele>
        <time>2021-10-23T12:07:32Z</time>
      </trkpt>
      <trkpt lat="46.52969" lon="5.45297">
        <ele>461.4</ele>
        <time>2021-10-23T12:07:35Z</time>
      </trkpt>
      <trkpt lat="46.52969" lon="5.45307">
        <ele>461.8</ele>
        <time>2021-10-23T12:07:37Z</time>
      </trkpt>
      <trkpt lat="46.52968" lon="5.45316">
        <ele>462.4</ele>
        <time>2021-10-23T12:07:39Z</time>
      </trkpt>
      <trkpt lat="46.52962" lon="5.45347">
        <ele>463.6</ele>
        <time>2021-10-23T12:07:45Z</time>
      </trkpt>
      <trkpt lat="46.5296" lon="5.45373">
        <ele>464.8</ele>
        <time>2021-10-23T12:07:50Z</time>
      </trkpt>
      <trkpt lat="46.5296" lon="5.45384">
        <ele>465.8</ele>
        <time>2021-10-23T12:07:52Z</time>
      </trkpt>
      <trkpt lat="46.52961" lon="5.45389">
        <ele>465.8</ele>
        <time>2021-10-23T12:07:53Z</time>
      </trkpt>
      <trkpt lat="46.52962" lon="5.45417">
        <ele>467</ele>
        <time>2021-10-23T12:07:58Z</time>
      </trkpt>
      <trkpt lat="46.52963" lon="5.45434">
        <ele>467.6</ele>
        <time>2021-10-23T12:08:01Z</time>
      </trkpt>
      <trkpt lat="46.52965" lon="5.45445">
        <ele>468</ele>
        <time>2021-10-23T12:08:03Z</time>
      </trkpt>
      <trkpt lat="46.52971" lon="5.45464">
        <ele>468.8</ele>
        <time>2021-10-23T12:08:07Z</time>
      </trkpt>
      <trkpt lat="46.52976" lon="5.45472">
        <ele>469.2</ele>
        <time>2021-10-23T12:08:09Z</time>
      </trkpt>
      <trkpt lat="46.52986" lon="5.4548">
        <ele>470</ele>
        <time>2021-10-23T12:08:12Z</time>
      </trkpt>
      <trkpt lat="46.5299" lon="5.45483">
        <ele>470.2</ele>
        <time>2021-10-23T12:08:13Z</time>
      </trkpt>
      <trkpt lat="46.53011" lon="5.45496">
        <ele>471.4</ele>
        <time>2021-10-23T12:08:19Z</time>
      </trkpt>
      <trkpt lat="46.53018" lon="5.455">
        <ele>471.6</ele>
        <time>2021-10-23T12:08:21Z</time>
      </trkpt>
      <trkpt lat="46.53038" lon="5.45511">
        <ele>472.4</ele>
        <time>2021-10-23T12:08:27Z</time>
      </trkpt>
      <trkpt lat="46.53043" lon="5.45516">
        <ele>473</ele>
        <time>2021-10-23T12:08:29Z</time>
      </trkpt>
      <trkpt lat="46.53046" lon="5.45518">
        <ele>473.6</ele>
        <time>2021-10-23T12:08:30Z</time>
      </trkpt>
      <trkpt lat="46.5305" lon="5.45522">
        <ele>473.8</ele>
        <time>2021-10-23T12:08:32Z</time>
      </trkpt>
      <trkpt lat="46.53054" lon="5.45526">
        <ele>474.2</ele>
        <time>2021-10-23T12:08:34Z</time>
      </trkpt>
      <trkpt lat="46.53057" lon="5.45528">
        <ele>474.6</ele>
        <time>2021-10-23T12:08:35Z</time>
      </trkpt>
      <trkpt lat="46.53066" lon="5.45535">
        <ele>475</ele>
        <time>2021-10-23T12:08:38Z</time>
      </trkpt>
      <trkpt lat="46.53073" lon="5.4554">
        <ele>475.6</ele>
        <time>2021-10-23T12:08:40Z</time>
      </trkpt>
      <trkpt lat="46.53093" lon="5.4555">
        <ele>476.6</ele>
        <time>2021-10-23T12:08:45Z</time>
      </trkpt>
      <trkpt lat="46.53097" lon="5.45551">
        <ele>476.8</ele>
        <time>2021-10-23T12:08:46Z</time>
      </trkpt>
      <trkpt lat="46.53118" lon="5.45553">
        <ele>477.4</ele>
        <time>2021-10-23T12:08:51Z</time>
      </trkpt>
      <trkpt lat="46.53126" lon="5.45551">
        <ele>477.8</ele>
        <time>2021-10-23T12:08:53Z</time>
      </trkpt>
      <trkpt lat="46.53133" lon="5.45548">
        <ele>478.2</ele>
        <time>2021-10-23T12:08:55Z</time>
      </trkpt>
      <trkpt lat="46.53137" lon="5.45547">
        <ele>478.4</ele>
        <time>2021-10-23T12:08:56Z</time>
      </trkpt>
      <trkpt lat="46.53145" lon="5.45543">
        <ele>479.2</ele>
        <time>2021-10-23T12:08:58Z</time>
      </trkpt>
      <trkpt lat="46.5316" lon="5.45536">
        <ele>479.8</ele>
        <time>2021-10-23T12:09:02Z</time>
      </trkpt>
      <trkpt lat="46.5317" lon="5.45531">
        <ele>480.4</ele>
        <time>2021-10-23T12:09:05Z</time>
      </trkpt>
      <trkpt lat="46.53174" lon="5.4553">
        <ele>480.6</ele>
        <time>2021-10-23T12:09:06Z</time>
      </trkpt>
      <trkpt lat="46.532" lon="5.45525">
        <ele>481.6</ele>
        <time>2021-10-23T12:09:13Z</time>
      </trkpt>
      <trkpt lat="46.53211" lon="5.45523">
        <ele>482.6</ele>
        <time>2021-10-23T12:09:16Z</time>
      </trkpt>
      <trkpt lat="46.53226" lon="5.4552">
        <ele>483.2</ele>
        <time>2021-10-23T12:09:20Z</time>
      </trkpt>
      <trkpt lat="46.53236" lon="5.45517">
        <ele>483.8</ele>
        <time>2021-10-23T12:09:23Z</time>
      </trkpt>
      <trkpt lat="46.53254" lon="5.45513">
        <ele>485</ele>
        <time>2021-10-23T12:09:28Z</time>
      </trkpt>
      <trkpt lat="46.53256" lon="5.45512">
        <ele>485.2</ele>
        <time>2021-10-23T12:09:29Z</time>
      </trkpt>
      <trkpt lat="46.53267" lon="5.45511">
        <ele>486.2</ele>
        <time>2021-10-23T12:09:32Z</time>
      </trkpt>
      <trkpt lat="46.53281" lon="5.45511">
        <ele>487.4</ele>
        <time>2021-10-23T12:09:36Z</time>
      </trkpt>
      <trkpt lat="46.53293" lon="5.45513">
        <ele>488</ele>
        <time>2021-10-23T12:09:39Z</time>
      </trkpt>
      <trkpt lat="46.533" lon="5.45515">
        <ele>488.4</ele>
        <time>2021-10-23T12:09:41Z</time>
      </trkpt>
      <trkpt lat="46.53318" lon="5.45526">
        <ele>489.6</ele>
        <time>2021-10-23T12:09:46Z</time>
      </trkpt>
      <trkpt lat="46.53321" lon="5.45527">
        <ele>489.6</ele>
        <time>2021-10-23T12:09:47Z</time>
      </trkpt>
      <trkpt lat="46.53335" lon="5.45536">
        <ele>490.6</ele>
        <time>2021-10-23T12:09:51Z</time>
      </trkpt>
      <trkpt lat="46.53344" lon="5.45543">
        <ele>491.2</ele>
        <time>2021-10-23T12:09:54Z</time>
      </trkpt>
      <trkpt lat="46.53354" lon="5.45551">
        <ele>491.8</ele>
        <time>2021-10-23T12:09:57Z</time>
      </trkpt>
      <trkpt lat="46.5337" lon="5.45563">
        <ele>492.8</ele>
        <time>2021-10-23T12:10:02Z</time>
      </trkpt>
      <trkpt lat="46.53384" lon="5.45574">
        <ele>494</ele>
        <time>2021-10-23T12:10:06Z</time>
      </trkpt>
      <trkpt lat="46.53388" lon="5.45577">
        <ele>494.2</ele>
        <time>2021-10-23T12:10:07Z</time>
      </trkpt>
      <trkpt lat="46.53397" lon="5.45584">
        <ele>495</ele>
        <time>2021-10-23T12:10:10Z</time>
      </trkpt>
      <trkpt lat="46.53417" lon="5.45601">
        <ele>496.4</ele>
        <time>2021-10-23T12:10:16Z</time>
      </trkpt>
      <trkpt lat="46.53437" lon="5.45619">
        <ele>497.4</ele>
        <time>2021-10-23T12:10:22Z</time>
      </trkpt>
      <trkpt lat="46.53446" lon="5.45627">
        <ele>498.4</ele>
        <time>2021-10-23T12:10:25Z</time>
      </trkpt>
      <trkpt lat="46.5345" lon="5.4563">
        <ele>498.6</ele>
        <time>2021-10-23T12:10:26Z</time>
      </trkpt>
      <trkpt lat="46.53473" lon="5.45652">
        <ele>499.6</ele>
        <time>2021-10-23T12:10:33Z</time>
      </trkpt>
      <trkpt lat="46.53477" lon="5.45656">
        <ele>500</ele>
        <time>2021-10-23T12:10:34Z</time>
      </trkpt>
      <trkpt lat="46.53491" lon="5.45669">
        <ele>501</ele>
        <time>2021-10-23T12:10:38Z</time>
      </trkpt>
      <trkpt lat="46.53507" lon="5.45684">
        <ele>501.8</ele>
        <time>2021-10-23T12:10:43Z</time>
      </trkpt>
      <trkpt lat="46.53522" lon="5.45698">
        <ele>502</ele>
        <time>2021-10-23T12:10:47Z</time>
      </trkpt>
      <trkpt lat="46.53539" lon="5.45714">
        <ele>502.8</ele>
        <time>2021-10-23T12:10:52Z</time>
      </trkpt>
      <trkpt lat="46.53547" lon="5.45721">
        <ele>503</ele>
        <time>2021-10-23T12:10:54Z</time>
      </trkpt>
      <trkpt lat="46.53557" lon="5.45731">
        <ele>503.6</ele>
        <time>2021-10-23T12:10:57Z</time>
      </trkpt>
      <trkpt lat="46.53563" lon="5.45737">
        <ele>503.6</ele>
        <time>2021-10-23T12:10:59Z</time>
      </trkpt>
      <trkpt lat="46.53567" lon="5.45741">
        <ele>503.6</ele>
        <time>2021-10-23T12:11:00Z</time>
      </trkpt>
      <trkpt lat="46.53572" lon="5.45749">
        <ele>504.2</ele>
        <time>2021-10-23T12:11:02Z</time>
      </trkpt>
      <trkpt lat="46.53575" lon="5.45759">
        <ele>504.6</ele>
        <time>2021-10-23T12:11:04Z</time>
      </trkpt>
      <trkpt lat="46.53574" lon="5.45765">
        <ele>504.6</ele>
        <time>2021-10-23T12:11:05Z</time>
      </trkpt>
      <trkpt lat="46.5357" lon="5.45773">
        <ele>505</ele>
        <time>2021-10-23T12:11:07Z</time>
      </trkpt>
      <trkpt lat="46.53564" lon="5.45777">
        <ele>505.2</ele>
        <time>2021-10-23T12:11:09Z</time>
      </trkpt>
      <trkpt lat="46.53556" lon="5.45775">
        <ele>505.8</ele>
        <time>2021-10-23T12:11:11Z</time>
      </trkpt>
      <trkpt lat="46.53549" lon="5.45772">
        <ele>506.4</ele>
        <time>2021-10-23T12:11:13Z</time>
      </trkpt>
      <trkpt lat="46.53529" lon="5.45758">
        <ele>507.4</ele>
        <time>2021-10-23T12:11:18Z</time>
      </trkpt>
      <trkpt lat="46.53525" lon="5.45756">
        <ele>507.6</ele>
        <time>2021-10-23T12:11:19Z</time>
      </trkpt>
      <trkpt lat="46.53506" lon="5.45744">
        <ele>508.8</ele>
        <time>2021-10-23T12:11:24Z</time>
      </trkpt>
      <trkpt lat="46.53502" lon="5.45742">
        <ele>509</ele>
        <time>2021-10-23T12:11:25Z</time>
      </trkpt>
      <trkpt lat="46.53487" lon="5.45731">
        <ele>510.2</ele>
        <time>2021-10-23T12:11:29Z</time>
      </trkpt>
      <trkpt lat="46.53468" lon="5.45718">
        <ele>511</ele>
        <time>2021-10-23T12:11:34Z</time>
      </trkpt>
      <trkpt lat="46.53464" lon="5.45716">
        <ele>511.2</ele>
        <time>2021-10-23T12:11:35Z</time>
      </trkpt>
      <trkpt lat="46.53444" lon="5.45709">
        <ele>512.2</ele>
        <time>2021-10-23T12:11:40Z</time>
      </trkpt>
      <trkpt lat="46.53435" lon="5.45707">
        <ele>512.8</ele>
        <time>2021-10-23T12:11:42Z</time>
      </trkpt>
      <trkpt lat="46.53431" lon="5.45707">
        <ele>513</ele>
        <time>2021-10-23T12:11:43Z</time>
      </trkpt>
      <trkpt lat="46.53422" lon="5.45706">
        <ele>513.6</ele>
        <time>2021-10-23T12:11:45Z</time>
      </trkpt>
      <trkpt lat="46.53405" lon="5.45706">
        <ele>514.2</ele>
        <time>2021-10-23T12:11:49Z</time>
      </trkpt>
      <trkpt lat="46.53397" lon="5.45705">
        <ele>515</ele>
        <time>2021-10-23T12:11:51Z</time>
      </trkpt>
      <trkpt lat="46.53372" lon="5.45705">
        <ele>516</ele>
        <time>2021-10-23T12:11:57Z</time>
      </trkpt>
      <trkpt lat="46.53367" lon="5.45705">
        <ele>516.2</ele>
        <time>2021-10-23T12:11:58Z</time>
      </trkpt>
      <trkpt lat="46.53355" lon="5.45705">
        <ele>517</ele>
        <time>2021-10-23T12:12:01Z</time>
      </trkpt>
      <trkpt lat="46.53331" lon="5.45707">
        <ele>518.2</ele>
        <time>2021-10-23T12:12:07Z</time>
      </trkpt>
      <trkpt lat="46.53315" lon="5.4571">
        <ele>519.4</ele>
        <time>2021-10-23T12:12:11Z</time>
      </trkpt>
      <trkpt lat="46.53299" lon="5.45714">
        <ele>520.2</ele>
        <time>2021-10-23T12:12:15Z</time>
      </trkpt>
      <trkpt lat="46.53279" lon="5.4572">
        <ele>521.2</ele>
        <time>2021-10-23T12:12:20Z</time>
      </trkpt>
      <trkpt lat="46.53263" lon="5.45725">
        <ele>522</ele>
        <time>2021-10-23T12:12:24Z</time>
      </trkpt>
      <trkpt lat="46.53255" lon="5.45727">
        <ele>522.4</ele>
        <time>2021-10-23T12:12:26Z</time>
      </trkpt>
      <trkpt lat="46.53231" lon="5.45732">
        <ele>523.8</ele>
        <time>2021-10-23T12:12:32Z</time>
      </trkpt>
      <trkpt lat="46.53218" lon="5.45734">
        <ele>524.8</ele>
        <time>2021-10-23T12:12:36Z</time>
      </trkpt>
      <trkpt lat="46.53215" lon="5.45735">
        <ele>525</ele>
        <time>2021-10-23T12:12:37Z</time>
      </trkpt>
      <trkpt lat="46.53204" lon="5.45737">
        <ele>526</ele>
        <time>2021-10-23T12:12:40Z</time>
      </trkpt>
      <trkpt lat="46.532" lon="5.45738">
        <ele>526.2</ele>
        <time>2021-10-23T12:12:41Z</time>
      </trkpt>
      <trkpt lat="46.53177" lon="5.45743">
        <ele>527.2</ele>
        <time>2021-10-23T12:12:46Z</time>
      </trkpt>
      <trkpt lat="46.5317" lon="5.45744">
        <ele>527.6</ele>
        <time>2021-10-23T12:12:48Z</time>
      </trkpt>
      <trkpt lat="46.53159" lon="5.45745">
        <ele>528.4</ele>
        <time>2021-10-23T12:12:51Z</time>
      </trkpt>
      <trkpt lat="46.53147" lon="5.45744">
        <ele>529</ele>
        <time>2021-10-23T12:12:54Z</time>
      </trkpt>
      <trkpt lat="46.53142" lon="5.45744">
        <ele>529.4</ele>
        <time>2021-10-23T12:12:55Z</time>
      </trkpt>
      <trkpt lat="46.53127" lon="5.45747">
        <ele>530.4</ele>
        <time>2021-10-23T12:12:59Z</time>
      </trkpt>
      <trkpt lat="46.53098" lon="5.45748">
        <ele>531.6</ele>
        <time>2021-10-23T12:13:05Z</time>
      </trkpt>
      <trkpt lat="46.5309" lon="5.45749">
        <ele>531.8</ele>
        <time>2021-10-23T12:13:07Z</time>
      </trkpt>
      <trkpt lat="46.5307" lon="5.45749">
        <ele>533</ele>
        <time>2021-10-23T12:13:12Z</time>
      </trkpt>
      <trkpt lat="46.53066" lon="5.45748">
        <ele>533</ele>
        <time>2021-10-23T12:13:13Z</time>
      </trkpt>
      <trkpt lat="46.53047" lon="5.45749">
        <ele>534.2</ele>
        <time>2021-10-23T12:13:18Z</time>
      </trkpt>
      <trkpt lat="46.53036" lon="5.45749">
        <ele>535.4</ele>
        <time>2021-10-23T12:13:21Z</time>
      </trkpt>
      <trkpt lat="46.53024" lon="5.45749">
        <ele>536.4</ele>
        <time>2021-10-23T12:13:24Z</time>
      </trkpt>
      <trkpt lat="46.53001" lon="5.4575">
        <ele>537.4</ele>
        <time>2021-10-23T12:13:30Z</time>
      </trkpt>
      <trkpt lat="46.52998" lon="5.4575">
        <ele>537.6</ele>
        <time>2021-10-23T12:13:31Z</time>
      </trkpt>
      <trkpt lat="46.52986" lon="5.4575">
        <ele>538.6</ele>
        <time>2021-10-23T12:13:34Z</time>
      </trkpt>
      <trkpt lat="46.52975" lon="5.45751">
        <ele>539.4</ele>
        <time>2021-10-23T12:13:37Z</time>
      </trkpt>
      <trkpt lat="46.52967" lon="5.4575">
        <ele>539.8</ele>
        <time>2021-10-23T12:13:39Z</time>
      </trkpt>
      <trkpt lat="46.52952" lon="5.45744">
        <ele>540.8</ele>
        <time>2021-10-23T12:13:43Z</time>
      </trkpt>
      <trkpt lat="46.52949" lon="5.45743">
        <ele>541.2</ele>
        <time>2021-10-23T12:13:44Z</time>
      </trkpt>
      <trkpt lat="46.52941" lon="5.45743">
        <ele>541.8</ele>
        <time>2021-10-23T12:13:46Z</time>
      </trkpt>
      <trkpt lat="46.52927" lon="5.45744">
        <ele>542.4</ele>
        <time>2021-10-23T12:13:50Z</time>
      </trkpt>
      <trkpt lat="46.52916" lon="5.45742">
        <ele>543</ele>
        <time>2021-10-23T12:13:53Z</time>
      </trkpt>
      <trkpt lat="46.52897" lon="5.45739">
        <ele>543.8</ele>
        <time>2021-10-23T12:13:58Z</time>
      </trkpt>
      <trkpt lat="46.5289" lon="5.45738">
        <ele>544.2</ele>
        <time>2021-10-23T12:14:00Z</time>
      </trkpt>
      <trkpt lat="46.52878" lon="5.45737">
        <ele>545</ele>
        <time>2021-10-23T12:14:03Z</time>
      </trkpt>
      <trkpt lat="46.52875" lon="5.45736">
        <ele>545.4</ele>
        <time>2021-10-23T12:14:04Z</time>
      </trkpt>
      <trkpt lat="46.52859" lon="5.45734">
        <ele>546.4</ele>
        <time>2021-10-23T12:14:08Z</time>
      </trkpt>
      <trkpt lat="46.52855" lon="5.45736">
        <ele>546.6</ele>
        <time>2021-10-23T12:14:09Z</time>
      </trkpt>
      <trkpt lat="46.52841" lon="5.45742">
        <ele>547.4</ele>
        <time>2021-10-23T12:14:13Z</time>
      </trkpt>
      <trkpt lat="46.52837" lon="5.45745">
        <ele>547.6</ele>
        <time>2021-10-23T12:14:14Z</time>
      </trkpt>
      <trkpt lat="46.52826" lon="5.45759">
        <ele>548.4</ele>
        <time>2021-10-23T12:14:18Z</time>
      </trkpt>
      <trkpt lat="46.52823" lon="5.45766">
        <ele>548.6</ele>
        <time>2021-10-23T12:14:20Z</time>
      </trkpt>
      <trkpt lat="46.52818" lon="5.45775">
        <ele>549</ele>
        <time>2021-10-23T12:14:23Z</time>
      </trkpt>
      <trkpt lat="46.52805" lon="5.458">
        <ele>548.8</ele>
        <time>2021-10-23T12:14:28Z</time>
      </trkpt>
      <trkpt lat="46.52792" lon="5.45837">
        <ele>548</ele>
        <time>2021-10-23T12:14:34Z</time>
      </trkpt>
      <trkpt lat="46.52789" lon="5.45859">
        <ele>547.6</ele>
        <time>2021-10-23T12:14:36Z</time>
      </trkpt>
      <trkpt lat="46.52786" lon="5.45887">
        <ele>546.6</ele>
        <time>2021-10-23T12:14:38Z</time>
      </trkpt>
      <trkpt lat="46.52785" lon="5.45906">
        <ele>545.6</ele>
        <time>2021-10-23T12:14:40Z</time>
      </trkpt>
      <trkpt lat="46.52787" lon="5.45916">
        <ele>545.2</ele>
        <time>2021-10-23T12:14:41Z</time>
      </trkpt>
      <trkpt lat="46.52788" lon="5.45925">
        <ele>545</ele>
        <time>2021-10-23T12:14:42Z</time>
      </trkpt>
      <trkpt lat="46.5279" lon="5.45933">
        <ele>544.6</ele>
        <time>2021-10-23T12:14:43Z</time>
      </trkpt>
      <trkpt lat="46.52796" lon="5.45949">
        <ele>543.4</ele>
        <time>2021-10-23T12:14:45Z</time>
      </trkpt>
      <trkpt lat="46.528" lon="5.45957">
        <ele>543.2</ele>
        <time>2021-10-23T12:14:46Z</time>
      </trkpt>
      <trkpt lat="46.52811" lon="5.45974">
        <ele>541.8</ele>
        <time>2021-10-23T12:14:48Z</time>
      </trkpt>
      <trkpt lat="46.5282" lon="5.45988">
        <ele>540.2</ele>
        <time>2021-10-23T12:14:50Z</time>
      </trkpt>
      <trkpt lat="46.52824" lon="5.45995">
        <ele>539.8</ele>
        <time>2021-10-23T12:14:51Z</time>
      </trkpt>
      <trkpt lat="46.52831" lon="5.46002">
        <ele>538.8</ele>
        <time>2021-10-23T12:14:52Z</time>
      </trkpt>
      <trkpt lat="46.52848" lon="5.46017">
        <ele>537.2</ele>
        <time>2021-10-23T12:14:55Z</time>
      </trkpt>
      <trkpt lat="46.52855" lon="5.46021">
        <ele>536.8</ele>
        <time>2021-10-23T12:14:56Z</time>
      </trkpt>
      <trkpt lat="46.52867" lon="5.46027">
        <ele>535.8</ele>
        <time>2021-10-23T12:14:58Z</time>
      </trkpt>
      <trkpt lat="46.52874" lon="5.46031">
        <ele>534.8</ele>
        <time>2021-10-23T12:14:59Z</time>
      </trkpt>
      <trkpt lat="46.52894" lon="5.46042">
        <ele>533.6</ele>
        <time>2021-10-23T12:15:02Z</time>
      </trkpt>
      <trkpt lat="46.52901" lon="5.46046">
        <ele>533.2</ele>
        <time>2021-10-23T12:15:03Z</time>
      </trkpt>
      <trkpt lat="46.52908" lon="5.4605">
        <ele>532.4</ele>
        <time>2021-10-23T12:15:04Z</time>
      </trkpt>
      <trkpt lat="46.52922" lon="5.46058">
        <ele>531</ele>
        <time>2021-10-23T12:15:06Z</time>
      </trkpt>
      <trkpt lat="46.52942" lon="5.46073">
        <ele>529.6</ele>
        <time>2021-10-23T12:15:09Z</time>
      </trkpt>
      <trkpt lat="46.52955" lon="5.46082">
        <ele>528.2</ele>
        <time>2021-10-23T12:15:11Z</time>
      </trkpt>
      <trkpt lat="46.52969" lon="5.46092">
        <ele>527</ele>
        <time>2021-10-23T12:15:13Z</time>
      </trkpt>
      <trkpt lat="46.52982" lon="5.46103">
        <ele>525.6</ele>
        <time>2021-10-23T12:15:15Z</time>
      </trkpt>
      <trkpt lat="46.53005" lon="5.46121">
        <ele>524.2</ele>
        <time>2021-10-23T12:15:18Z</time>
      </trkpt>
      <trkpt lat="46.53018" lon="5.46132">
        <ele>523</ele>
        <time>2021-10-23T12:15:20Z</time>
      </trkpt>
      <trkpt lat="46.53046" lon="5.4615">
        <ele>522</ele>
        <time>2021-10-23T12:15:23Z</time>
      </trkpt>
      <trkpt lat="46.53064" lon="5.4616">
        <ele>520.6</ele>
        <time>2021-10-23T12:15:25Z</time>
      </trkpt>
      <trkpt lat="46.53085" lon="5.46168">
        <ele>519.2</ele>
        <time>2021-10-23T12:15:27Z</time>
      </trkpt>
      <trkpt lat="46.53109" lon="5.46178">
        <ele>517.8</ele>
        <time>2021-10-23T12:15:29Z</time>
      </trkpt>
      <trkpt lat="46.53118" lon="5.46182">
        <ele>517.6</ele>
        <time>2021-10-23T12:15:30Z</time>
      </trkpt>
      <trkpt lat="46.53141" lon="5.46193">
        <ele>516.8</ele>
        <time>2021-10-23T12:15:32Z</time>
      </trkpt>
      <trkpt lat="46.53154" lon="5.46202">
        <ele>515.2</ele>
        <time>2021-10-23T12:15:33Z</time>
      </trkpt>
      <trkpt lat="46.53176" lon="5.4622">
        <ele>513.4</ele>
        <time>2021-10-23T12:15:35Z</time>
      </trkpt>
      <trkpt lat="46.53184" lon="5.46228">
        <ele>512.4</ele>
        <time>2021-10-23T12:15:36Z</time>
      </trkpt>
      <trkpt lat="46.53207" lon="5.46252">
        <ele>510.8</ele>
        <time>2021-10-23T12:15:38Z</time>
      </trkpt>
      <trkpt lat="46.53217" lon="5.46263">
        <ele>509.2</ele>
        <time>2021-10-23T12:15:39Z</time>
      </trkpt>
      <trkpt lat="46.53226" lon="5.46271">
        <ele>507.6</ele>
        <time>2021-10-23T12:15:40Z</time>
      </trkpt>
      <trkpt lat="46.53247" lon="5.46291">
        <ele>505.8</ele>
        <time>2021-10-23T12:15:42Z</time>
      </trkpt>
      <trkpt lat="46.53272" lon="5.46312">
        <ele>504.4</ele>
        <time>2021-10-23T12:15:44Z</time>
      </trkpt>
      <trkpt lat="46.53281" lon="5.46319">
        <ele>502.4</ele>
        <time>2021-10-23T12:15:45Z</time>
      </trkpt>
      <trkpt lat="46.53303" lon="5.46334">
        <ele>500.6</ele>
        <time>2021-10-23T12:15:47Z</time>
      </trkpt>
      <trkpt lat="46.53326" lon="5.46348">
        <ele>499</ele>
        <time>2021-10-23T12:15:49Z</time>
      </trkpt>
      <trkpt lat="46.53341" lon="5.46357">
        <ele>497.4</ele>
        <time>2021-10-23T12:15:51Z</time>
      </trkpt>
      <trkpt lat="46.53348" lon="5.46361">
        <ele>496.8</ele>
        <time>2021-10-23T12:15:52Z</time>
      </trkpt>
      <trkpt lat="46.53353" lon="5.46367">
        <ele>496.4</ele>
        <time>2021-10-23T12:15:53Z</time>
      </trkpt>
      <trkpt lat="46.53357" lon="5.46374">
        <ele>495.8</ele>
        <time>2021-10-23T12:15:54Z</time>
      </trkpt>
      <trkpt lat="46.53355" lon="5.46379">
        <ele>495.4</ele>
        <time>2021-10-23T12:15:55Z</time>
      </trkpt>
      <trkpt lat="46.5335" lon="5.46381">
        <ele>494.8</ele>
        <time>2021-10-23T12:15:56Z</time>
      </trkpt>
      <trkpt lat="46.53343" lon="5.4638">
        <ele>494.6</ele>
        <time>2021-10-23T12:15:57Z</time>
      </trkpt>
      <trkpt lat="46.53335" lon="5.46375">
        <ele>493.8</ele>
        <time>2021-10-23T12:15:58Z</time>
      </trkpt>
      <trkpt lat="46.53329" lon="5.4637">
        <ele>493.2</ele>
        <time>2021-10-23T12:15:59Z</time>
      </trkpt>
      <trkpt lat="46.53323" lon="5.46366">
        <ele>492.8</ele>
        <time>2021-10-23T12:16:00Z</time>
      </trkpt>
      <trkpt lat="46.53317" lon="5.46364">
        <ele>492</ele>
        <time>2021-10-23T12:16:01Z</time>
      </trkpt>
      <trkpt lat="46.5331" lon="5.46362">
        <ele>491.8</ele>
        <time>2021-10-23T12:16:02Z</time>
      </trkpt>
      <trkpt lat="46.53301" lon="5.4636">
        <ele>491.4</ele>
        <time>2021-10-23T12:16:03Z</time>
      </trkpt>
      <trkpt lat="46.53287" lon="5.46361">
        <ele>491</ele>
        <time>2021-10-23T12:16:05Z</time>
      </trkpt>
      <trkpt lat="46.53261" lon="5.46365">
        <ele>490</ele>
        <time>2021-10-23T12:16:08Z</time>
      </trkpt>
      <trkpt lat="46.53252" lon="5.46366">
        <ele>489.8</ele>
        <time>2021-10-23T12:16:09Z</time>
      </trkpt>
      <trkpt lat="46.53227" lon="5.4637">
        <ele>488.6</ele>
        <time>2021-10-23T12:16:12Z</time>
      </trkpt>
      <trkpt lat="46.53205" lon="5.46373">
        <ele>487.6</ele>
        <time>2021-10-23T12:16:14Z</time>
      </trkpt>
      <trkpt lat="46.53194" lon="5.46375">
        <ele>486.8</ele>
        <time>2021-10-23T12:16:15Z</time>
      </trkpt>
      <trkpt lat="46.53175" lon="5.46378">
        <ele>485.4</ele>
        <time>2021-10-23T12:16:17Z</time>
      </trkpt>
      <trkpt lat="46.53151" lon="5.46382">
        <ele>484</ele>
        <time>2021-10-23T12:16:19Z</time>
      </trkpt>
      <trkpt lat="46.5314" lon="5.46384">
        <ele>483.8</ele>
        <time>2021-10-23T12:16:20Z</time>
      </trkpt>
      <trkpt lat="46.5313" lon="5.46385">
        <ele>482.8</ele>
        <time>2021-10-23T12:16:21Z</time>
      </trkpt>
      <trkpt lat="46.53107" lon="5.46388">
        <ele>481.6</ele>
        <time>2021-10-23T12:16:23Z</time>
      </trkpt>
      <trkpt lat="46.53079" lon="5.4639">
        <ele>480.2</ele>
        <time>2021-10-23T12:16:25Z</time>
      </trkpt>
      <trkpt lat="46.53066" lon="5.46392">
        <ele>479.4</ele>
        <time>2021-10-23T12:16:26Z</time>
      </trkpt>
      <trkpt lat="46.53054" lon="5.46394">
        <ele>478.6</ele>
        <time>2021-10-23T12:16:27Z</time>
      </trkpt>
      <trkpt lat="46.53042" lon="5.46396">
        <ele>477</ele>
        <time>2021-10-23T12:16:28Z</time>
      </trkpt>
      <trkpt lat="46.53017" lon="5.46399">
        <ele>475</ele>
        <time>2021-10-23T12:16:30Z</time>
      </trkpt>
      <trkpt lat="46.52993" lon="5.464">
        <ele>473.8</ele>
        <time>2021-10-23T12:16:32Z</time>
      </trkpt>
      <trkpt lat="46.5298" lon="5.46399">
        <ele>473</ele>
        <time>2021-10-23T12:16:33Z</time>
      </trkpt>
      <trkpt lat="46.52968" lon="5.46398">
        <ele>472.4</ele>
        <time>2021-10-23T12:16:34Z</time>
      </trkpt>
      <trkpt lat="46.52955" lon="5.46397">
        <ele>471</ele>
        <time>2021-10-23T12:16:35Z</time>
      </trkpt>
      <trkpt lat="46.52932" lon="5.46393">
        <ele>469.2</ele>
        <time>2021-10-23T12:16:37Z</time>
      </trkpt>
      <trkpt lat="46.52911" lon="5.46392">
        <ele>467</ele>
        <time>2021-10-23T12:16:39Z</time>
      </trkpt>
      <trkpt lat="46.52901" lon="5.46394">
        <ele>465.6</ele>
        <time>2021-10-23T12:16:40Z</time>
      </trkpt>
      <trkpt lat="46.52893" lon="5.46401">
        <ele>465.2</ele>
        <time>2021-10-23T12:16:41Z</time>
      </trkpt>
      <trkpt lat="46.52888" lon="5.46412">
        <ele>464.4</ele>
        <time>2021-10-23T12:16:42Z</time>
      </trkpt>
      <trkpt lat="46.52885" lon="5.46428">
        <ele>464</ele>
        <time>2021-10-23T12:16:43Z</time>
      </trkpt>
      <trkpt lat="46.52884" lon="5.46445">
        <ele>462.8</ele>
        <time>2021-10-23T12:16:44Z</time>
      </trkpt>
      <trkpt lat="46.52883" lon="5.4648">
        <ele>461.6</ele>
        <time>2021-10-23T12:16:46Z</time>
      </trkpt>
      <trkpt lat="46.52882" lon="5.46514">
        <ele>459.8</ele>
        <time>2021-10-23T12:16:48Z</time>
      </trkpt>
      <trkpt lat="46.52881" lon="5.46529">
        <ele>458.8</ele>
        <time>2021-10-23T12:16:49Z</time>
      </trkpt>
      <trkpt lat="46.5288" lon="5.46545">
        <ele>458.4</ele>
        <time>2021-10-23T12:16:50Z</time>
      </trkpt>
      <trkpt lat="46.52877" lon="5.46571">
        <ele>457.8</ele>
        <time>2021-10-23T12:16:52Z</time>
      </trkpt>
      <trkpt lat="46.52874" lon="5.46583">
        <ele>457.6</ele>
        <time>2021-10-23T12:16:53Z</time>
      </trkpt>
      <trkpt lat="46.5287" lon="5.46592">
        <ele>457.6</ele>
        <time>2021-10-23T12:16:54Z</time>
      </trkpt>
      <trkpt lat="46.52859" lon="5.46606">
        <ele>457.6</ele>
        <time>2021-10-23T12:16:56Z</time>
      </trkpt>
      <trkpt lat="46.52838" lon="5.4662">
        <ele>458.2</ele>
        <time>2021-10-23T12:17:00Z</time>
      </trkpt>
      <trkpt lat="46.52829" lon="5.46624">
        <ele>458.8</ele>
        <time>2021-10-23T12:17:02Z</time>
      </trkpt>
      <trkpt lat="46.5282" lon="5.46628">
        <ele>460.4</ele>
        <time>2021-10-23T12:17:04Z</time>
      </trkpt>
      <trkpt lat="46.52811" lon="5.4663">
        <ele>461.4</ele>
        <time>2021-10-23T12:17:06Z</time>
      </trkpt>
      <trkpt lat="46.52807" lon="5.46632">
        <ele>462</ele>
        <time>2021-10-23T12:17:07Z</time>
      </trkpt>
      <trkpt lat="46.52792" lon="5.46636">
        <ele>463.2</ele>
        <time>2021-10-23T12:17:11Z</time>
      </trkpt>
      <trkpt lat="46.52789" lon="5.46637">
        <ele>463.6</ele>
        <time>2021-10-23T12:17:12Z</time>
      </trkpt>
      <trkpt lat="46.52783" lon="5.4664">
        <ele>464.2</ele>
        <time>2021-10-23T12:17:14Z</time>
      </trkpt>
      <trkpt lat="46.52777" lon="5.46649">
        <ele>464.8</ele>
        <time>2021-10-23T12:17:17Z</time>
      </trkpt>
      <trkpt lat="46.52776" lon="5.46652">
        <ele>465.4</ele>
        <time>2021-10-23T12:17:18Z</time>
      </trkpt>
      <trkpt lat="46.52778" lon="5.4666">
        <ele>466</ele>
        <time>2021-10-23T12:17:20Z</time>
      </trkpt>
      <trkpt lat="46.52785" lon="5.46668">
        <ele>466.8</ele>
        <time>2021-10-23T12:17:23Z</time>
      </trkpt>
      <trkpt lat="46.52788" lon="5.4667">
        <ele>467</ele>
        <time>2021-10-23T12:17:24Z</time>
      </trkpt>
      <trkpt lat="46.52798" lon="5.46673">
        <ele>467.8</ele>
        <time>2021-10-23T12:17:27Z</time>
      </trkpt>
      <trkpt lat="46.52812" lon="5.4668">
        <ele>468.4</ele>
        <time>2021-10-23T12:17:31Z</time>
      </trkpt>
      <trkpt lat="46.52822" lon="5.46686">
        <ele>469</ele>
        <time>2021-10-23T12:17:34Z</time>
      </trkpt>
      <trkpt lat="46.52834" lon="5.46694">
        <ele>469.8</ele>
        <time>2021-10-23T12:17:38Z</time>
      </trkpt>
      <trkpt lat="46.52837" lon="5.46696">
        <ele>470.4</ele>
        <time>2021-10-23T12:17:39Z</time>
      </trkpt>
      <trkpt lat="46.52852" lon="5.46705">
        <ele>471.8</ele>
        <time>2021-10-23T12:17:44Z</time>
      </trkpt>
      <trkpt lat="46.52856" lon="5.46707">
        <ele>472</ele>
        <time>2021-10-23T12:17:45Z</time>
      </trkpt>
      <trkpt lat="46.52869" lon="5.46713">
        <ele>472.8</ele>
        <time>2021-10-23T12:17:49Z</time>
      </trkpt>
      <trkpt lat="46.52881" lon="5.46722">
        <ele>473.8</ele>
        <time>2021-10-23T12:17:53Z</time>
      </trkpt>
      <trkpt lat="46.52893" lon="5.46731">
        <ele>475</ele>
        <time>2021-10-23T12:17:57Z</time>
      </trkpt>
      <trkpt lat="46.52898" lon="5.46735">
        <ele>475.4</ele>
        <time>2021-10-23T12:17:59Z</time>
      </trkpt>
      <trkpt lat="46.52914" lon="5.46754">
        <ele>476.2</ele>
        <time>2021-10-23T12:18:05Z</time>
      </trkpt>
      <trkpt lat="46.52917" lon="5.46757">
        <ele>476.8</ele>
        <time>2021-10-23T12:18:06Z</time>
      </trkpt>
      <trkpt lat="46.52922" lon="5.46763">
        <ele>477.4</ele>
        <time>2021-10-23T12:18:08Z</time>
      </trkpt>
      <trkpt lat="46.52934" lon="5.46778">
        <ele>478.6</ele>
        <time>2021-10-23T12:18:13Z</time>
      </trkpt>
      <trkpt lat="46.52939" lon="5.46784">
        <ele>479.2</ele>
        <time>2021-10-23T12:18:15Z</time>
      </trkpt>
      <trkpt lat="46.52944" lon="5.4679">
        <ele>479.6</ele>
        <time>2021-10-23T12:18:17Z</time>
      </trkpt>
      <trkpt lat="46.52956" lon="5.46803">
        <ele>480.8</ele>
        <time>2021-10-23T12:18:22Z</time>
      </trkpt>
      <trkpt lat="46.52958" lon="5.46806">
        <ele>481</ele>
        <time>2021-10-23T12:18:23Z</time>
      </trkpt>
      <trkpt lat="46.52968" lon="5.46816">
        <ele>482</ele>
        <time>2021-10-23T12:18:27Z</time>
      </trkpt>
      <trkpt lat="46.52983" lon="5.46829">
        <ele>483</ele>
        <time>2021-10-23T12:18:32Z</time>
      </trkpt>
      <trkpt lat="46.52986" lon="5.46832">
        <ele>483.4</ele>
        <time>2021-10-23T12:18:33Z</time>
      </trkpt>
      <trkpt lat="46.52998" lon="5.46843">
        <ele>484.4</ele>
        <time>2021-10-23T12:18:37Z</time>
      </trkpt>
      <trkpt lat="46.53009" lon="5.46855">
        <ele>485.6</ele>
        <time>2021-10-23T12:18:41Z</time>
      </trkpt>
      <trkpt lat="46.53011" lon="5.46859">
        <ele>485.8</ele>
        <time>2021-10-23T12:18:42Z</time>
      </trkpt>
      <trkpt lat="46.53016" lon="5.46873">
        <ele>486.8</ele>
        <time>2021-10-23T12:18:45Z</time>
      </trkpt>
      <trkpt lat="46.53018" lon="5.46886">
        <ele>487.2</ele>
        <time>2021-10-23T12:18:48Z</time>
      </trkpt>
      <trkpt lat="46.53017" lon="5.46896">
        <ele>488</ele>
        <time>2021-10-23T12:18:50Z</time>
      </trkpt>
      <trkpt lat="46.53014" lon="5.46913">
        <ele>488.8</ele>
        <time>2021-10-23T12:18:53Z</time>
      </trkpt>
      <trkpt lat="46.53005" lon="5.46951">
        <ele>489</ele>
        <time>2021-10-23T12:18:58Z</time>
      </trkpt>
      <trkpt lat="46.53002" lon="5.46969">
        <ele>488.8</ele>
        <time>2021-10-23T12:19:00Z</time>
      </trkpt>
      <trkpt lat="46.52998" lon="5.46989">
        <ele>488.4</ele>
        <time>2021-10-23T12:19:02Z</time>
      </trkpt>
      <trkpt lat="46.52984" lon="5.47058">
        <ele>486.8</ele>
        <time>2021-10-23T12:19:08Z</time>
      </trkpt>
      <trkpt lat="46.5298" lon="5.47083">
        <ele>485.4</ele>
        <time>2021-10-23T12:19:10Z</time>
      </trkpt>
      <trkpt lat="46.52972" lon="5.47123">
        <ele>484</ele>
        <time>2021-10-23T12:19:13Z</time>
      </trkpt>
      <trkpt lat="46.52966" lon="5.47151">
        <ele>482.4</ele>
        <time>2021-10-23T12:19:15Z</time>
      </trkpt>
      <trkpt lat="46.52964" lon="5.47166">
        <ele>481.8</ele>
        <time>2021-10-23T12:19:16Z</time>
      </trkpt>
      <trkpt lat="46.52964" lon="5.47181">
        <ele>480.8</ele>
        <time>2021-10-23T12:19:17Z</time>
      </trkpt>
      <trkpt lat="46.52968" lon="5.47195">
        <ele>480.6</ele>
        <time>2021-10-23T12:19:18Z</time>
      </trkpt>
      <trkpt lat="46.52982" lon="5.47211">
        <ele>479.6</ele>
        <time>2021-10-23T12:19:20Z</time>
      </trkpt>
      <trkpt lat="46.52992" lon="5.47215">
        <ele>478.2</ele>
        <time>2021-10-23T12:19:21Z</time>
      </trkpt>
      <trkpt lat="46.53014" lon="5.47223">
        <ele>476.8</ele>
        <time>2021-10-23T12:19:23Z</time>
      </trkpt>
      <trkpt lat="46.53025" lon="5.47227">
        <ele>476.2</ele>
        <time>2021-10-23T12:19:24Z</time>
      </trkpt>
      <trkpt lat="46.53047" lon="5.47235">
        <ele>475</ele>
        <time>2021-10-23T12:19:26Z</time>
      </trkpt>
      <trkpt lat="46.53068" lon="5.47244">
        <ele>473.8</ele>
        <time>2021-10-23T12:19:28Z</time>
      </trkpt>
      <trkpt lat="46.53101" lon="5.47261">
        <ele>472.2</ele>
        <time>2021-10-23T12:19:31Z</time>
      </trkpt>
      <trkpt lat="46.53131" lon="5.47285">
        <ele>471</ele>
        <time>2021-10-23T12:19:34Z</time>
      </trkpt>
      <trkpt lat="46.53152" lon="5.47296">
        <ele>469.6</ele>
        <time>2021-10-23T12:19:36Z</time>
      </trkpt>
      <trkpt lat="46.53162" lon="5.473">
        <ele>468.2</ele>
        <time>2021-10-23T12:19:37Z</time>
      </trkpt>
      <trkpt lat="46.53183" lon="5.47303">
        <ele>467.2</ele>
        <time>2021-10-23T12:19:39Z</time>
      </trkpt>
      <trkpt lat="46.53196" lon="5.47314">
        <ele>466.2</ele>
        <time>2021-10-23T12:19:41Z</time>
      </trkpt>
      <trkpt lat="46.53198" lon="5.47321">
        <ele>465.8</ele>
        <time>2021-10-23T12:19:42Z</time>
      </trkpt>
      <trkpt lat="46.53195" lon="5.47328">
        <ele>465.4</ele>
        <time>2021-10-23T12:19:43Z</time>
      </trkpt>
      <trkpt lat="46.53181" lon="5.47334">
        <ele>464.8</ele>
        <time>2021-10-23T12:19:45Z</time>
      </trkpt>
      <trkpt lat="46.53166" lon="5.47327">
        <ele>464.2</ele>
        <time>2021-10-23T12:19:47Z</time>
      </trkpt>
      <trkpt lat="46.53158" lon="5.47326">
        <ele>464.2</ele>
        <time>2021-10-23T12:19:48Z</time>
      </trkpt>
      <trkpt lat="46.53134" lon="5.47325">
        <ele>463.2</ele>
        <time>2021-10-23T12:19:51Z</time>
      </trkpt>
      <trkpt lat="46.53116" lon="5.47326">
        <ele>462.4</ele>
        <time>2021-10-23T12:19:53Z</time>
      </trkpt>
      <trkpt lat="46.53107" lon="5.47329">
        <ele>462.2</ele>
        <time>2021-10-23T12:19:54Z</time>
      </trkpt>
      <trkpt lat="46.53098" lon="5.47333">
        <ele>461.8</ele>
        <time>2021-10-23T12:19:55Z</time>
      </trkpt>
      <trkpt lat="46.53089" lon="5.47338">
        <ele>461.4</ele>
        <time>2021-10-23T12:19:56Z</time>
      </trkpt>
      <trkpt lat="46.53071" lon="5.4735">
        <ele>460.4</ele>
        <time>2021-10-23T12:19:58Z</time>
      </trkpt>
      <trkpt lat="46.53053" lon="5.47364">
        <ele>458.8</ele>
        <time>2021-10-23T12:20:00Z</time>
      </trkpt>
      <trkpt lat="46.53044" lon="5.47371">
        <ele>458.2</ele>
        <time>2021-10-23T12:20:01Z</time>
      </trkpt>
      <trkpt lat="46.53034" lon="5.47378">
        <ele>457.6</ele>
        <time>2021-10-23T12:20:02Z</time>
      </trkpt>
      <trkpt lat="46.53014" lon="5.47389">
        <ele>456.4</ele>
        <time>2021-10-23T12:20:04Z</time>
      </trkpt>
      <trkpt lat="46.53004" lon="5.47395">
        <ele>455.2</ele>
        <time>2021-10-23T12:20:05Z</time>
      </trkpt>
      <trkpt lat="46.52994" lon="5.47401">
        <ele>454.4</ele>
        <time>2021-10-23T12:20:06Z</time>
      </trkpt>
      <trkpt lat="46.52984" lon="5.47408">
        <ele>453.4</ele>
        <time>2021-10-23T12:20:07Z</time>
      </trkpt>
      <trkpt lat="46.52955" lon="5.4743">
        <ele>451.6</ele>
        <time>2021-10-23T12:20:10Z</time>
      </trkpt>
      <trkpt lat="46.52947" lon="5.47441">
        <ele>451.2</ele>
        <time>2021-10-23T12:20:11Z</time>
      </trkpt>
      <trkpt lat="46.52941" lon="5.47454">
        <ele>450.4</ele>
        <time>2021-10-23T12:20:12Z</time>
      </trkpt>
      <trkpt lat="46.52938" lon="5.4747">
        <ele>450.2</ele>
        <time>2021-10-23T12:20:13Z</time>
      </trkpt>
      <trkpt lat="46.52936" lon="5.47487">
        <ele>449.8</ele>
        <time>2021-10-23T12:20:14Z</time>
      </trkpt>
      <trkpt lat="46.52936" lon="5.4752">
        <ele>448.8</ele>
        <time>2021-10-23T12:20:16Z</time>
      </trkpt>
      <trkpt lat="46.52936" lon="5.47535">
        <ele>447.6</ele>
        <time>2021-10-23T12:20:17Z</time>
      </trkpt>
      <trkpt lat="46.52936" lon="5.4758">
        <ele>446.6</ele>
        <time>2021-10-23T12:20:20Z</time>
      </trkpt>
      <trkpt lat="46.52937" lon="5.47607">
        <ele>446.2</ele>
        <time>2021-10-23T12:20:22Z</time>
      </trkpt>
      <trkpt lat="46.52937" lon="5.4768">
        <ele>445.8</ele>
        <time>2021-10-23T12:20:28Z</time>
      </trkpt>
      <trkpt lat="46.52931" lon="5.47721">
        <ele>446.2</ele>
        <time>2021-10-23T12:20:32Z</time>
      </trkpt>
      <trkpt lat="46.52914" lon="5.47783">
        <ele>447.4</ele>
        <time>2021-10-23T12:20:39Z</time>
      </trkpt>
      <trkpt lat="46.52911" lon="5.478">
        <ele>448</ele>
        <time>2021-10-23T12:20:41Z</time>
      </trkpt>
      <trkpt lat="46.52908" lon="5.47815">
        <ele>448.2</ele>
        <time>2021-10-23T12:20:43Z</time>
      </trkpt>
      <trkpt lat="46.52902" lon="5.47845">
        <ele>449</ele>
        <time>2021-10-23T12:20:47Z</time>
      </trkpt>
      <trkpt lat="46.52899" lon="5.4786">
        <ele>449.8</ele>
        <time>2021-10-23T12:20:49Z</time>
      </trkpt>
      <trkpt lat="46.52897" lon="5.47874">
        <ele>450.2</ele>
        <time>2021-10-23T12:20:51Z</time>
      </trkpt>
      <trkpt lat="46.52891" lon="5.479">
        <ele>451.4</ele>
        <time>2021-10-23T12:20:55Z</time>
      </trkpt>
      <trkpt lat="46.52887" lon="5.47912">
        <ele>452</ele>
        <time>2021-10-23T12:20:57Z</time>
      </trkpt>
      <trkpt lat="46.52885" lon="5.47919">
        <ele>452.4</ele>
        <time>2021-10-23T12:20:58Z</time>
      </trkpt>
      <trkpt lat="46.52882" lon="5.47932">
        <ele>453.4</ele>
        <time>2021-10-23T12:21:01Z</time>
      </trkpt>
      <trkpt lat="46.52881" lon="5.47934">
        <ele>453.6</ele>
        <time>2021-10-23T12:21:02Z</time>
      </trkpt>
      <trkpt lat="46.52877" lon="5.47939">
        <ele>454.6</ele>
        <time>2021-10-23T12:21:05Z</time>
      </trkpt>
      <trkpt lat="46.52876" lon="5.4794">
        <ele>454.8</ele>
        <time>2021-10-23T12:21:06Z</time>
      </trkpt>
      <trkpt lat="46.52871" lon="5.47946">
        <ele>455.6</ele>
        <time>2021-10-23T12:21:09Z</time>
      </trkpt>
      <trkpt lat="46.5287" lon="5.47949">
        <ele>455.8</ele>
        <time>2021-10-23T12:21:10Z</time>
      </trkpt>
      <trkpt lat="46.5287" lon="5.4795">
        <ele>455.8</ele>
        <time>2021-10-23T12:21:11Z</time>
      </trkpt>
      <trkpt lat="46.52865" lon="5.47971">
        <ele>456.2</ele>
        <time>2021-10-23T12:21:18Z</time>
      </trkpt>
      <trkpt lat="46.52859" lon="5.47991">
        <ele>456.4</ele>
        <time>2021-10-23T12:21:24Z</time>
      </trkpt>
      <trkpt lat="46.52852" lon="5.48015">
        <ele>456.8</ele>
        <time>2021-10-23T12:21:30Z</time>
      </trkpt>
      <trkpt lat="46.52851" lon="5.4802">
        <ele>457</ele>
        <time>2021-10-23T12:21:31Z</time>
      </trkpt>
      <trkpt lat="46.52841" lon="5.48053">
        <ele>457.8</ele>
        <time>2021-10-23T12:21:38Z</time>
      </trkpt>
      <trkpt lat="46.52826" lon="5.48102">
        <ele>459</ele>
        <time>2021-10-23T12:21:48Z</time>
      </trkpt>
      <trkpt lat="46.52819" lon="5.48118">
        <ele>460.2</ele>
        <time>2021-10-23T12:21:52Z</time>
      </trkpt>
      <trkpt lat="46.5281" lon="5.48133">
        <ele>461.2</ele>
        <time>2021-10-23T12:21:56Z</time>
      </trkpt>
      <trkpt lat="46.52808" lon="5.48136">
        <ele>461.2</ele>
        <time>2021-10-23T12:21:57Z</time>
      </trkpt>
      <trkpt lat="46.52793" lon="5.48147">
        <ele>462.4</ele>
        <time>2021-10-23T12:22:02Z</time>
      </trkpt>
      <trkpt lat="46.52766" lon="5.48144">
        <ele>463.6</ele>
        <time>2021-10-23T12:22:09Z</time>
      </trkpt>
      <trkpt lat="46.52729" lon="5.48138">
        <ele>464.4</ele>
        <time>2021-10-23T12:22:17Z</time>
      </trkpt>
      <trkpt lat="46.52719" lon="5.48136">
        <ele>464.6</ele>
        <time>2021-10-23T12:22:19Z</time>
      </trkpt>
      <trkpt lat="46.52687" lon="5.4813">
        <ele>464.8</ele>
        <time>2021-10-23T12:22:25Z</time>
      </trkpt>
      <trkpt lat="46.52657" lon="5.48123">
        <ele>465.2</ele>
        <time>2021-10-23T12:22:32Z</time>
      </trkpt>
      <trkpt lat="46.52644" lon="5.4812">
        <ele>465.6</ele>
        <time>2021-10-23T12:22:35Z</time>
      </trkpt>
      <trkpt lat="46.52632" lon="5.48116">
        <ele>466.6</ele>
        <time>2021-10-23T12:22:38Z</time>
      </trkpt>
      <trkpt lat="46.52625" lon="5.48116">
        <ele>467</ele>
        <time>2021-10-23T12:22:40Z</time>
      </trkpt>
      <trkpt lat="46.52621" lon="5.48115">
        <ele>467.2</ele>
        <time>2021-10-23T12:22:41Z</time>
      </trkpt>
      <trkpt lat="46.52609" lon="5.48113">
        <ele>468</ele>
        <time>2021-10-23T12:22:44Z</time>
      </trkpt>
      <trkpt lat="46.52594" lon="5.48108">
        <ele>469</ele>
        <time>2021-10-23T12:22:48Z</time>
      </trkpt>
      <trkpt lat="46.5258" lon="5.48106">
        <ele>470.2</ele>
        <time>2021-10-23T12:22:52Z</time>
      </trkpt>
      <trkpt lat="46.52566" lon="5.48105">
        <ele>471.4</ele>
        <time>2021-10-23T12:22:56Z</time>
      </trkpt>
      <trkpt lat="46.52563" lon="5.48105">
        <ele>471.6</ele>
        <time>2021-10-23T12:22:57Z</time>
      </trkpt>
      <trkpt lat="46.52553" lon="5.48102">
        <ele>472.6</ele>
        <time>2021-10-23T12:23:00Z</time>
      </trkpt>
      <trkpt lat="46.5254" lon="5.48101">
        <ele>473.4</ele>
        <time>2021-10-23T12:23:04Z</time>
      </trkpt>
      <trkpt lat="46.52533" lon="5.48101">
        <ele>473.6</ele>
        <time>2021-10-23T12:23:06Z</time>
      </trkpt>
      <trkpt lat="46.52513" lon="5.48103">
        <ele>474.8</ele>
        <time>2021-10-23T12:23:12Z</time>
      </trkpt>
      <trkpt lat="46.52509" lon="5.48104">
        <ele>475</ele>
        <time>2021-10-23T12:23:13Z</time>
      </trkpt>
      <trkpt lat="46.52492" lon="5.48109">
        <ele>475.8</ele>
        <time>2021-10-23T12:23:18Z</time>
      </trkpt>
      <trkpt lat="46.52479" lon="5.48113">
        <ele>477</ele>
        <time>2021-10-23T12:23:22Z</time>
      </trkpt>
      <trkpt lat="46.52475" lon="5.48113">
        <ele>477.2</ele>
        <time>2021-10-23T12:23:23Z</time>
      </trkpt>
      <trkpt lat="46.52454" lon="5.4812">
        <ele>478.2</ele>
        <time>2021-10-23T12:23:29Z</time>
      </trkpt>
      <trkpt lat="46.52437" lon="5.48125">
        <ele>479</ele>
        <time>2021-10-23T12:23:34Z</time>
      </trkpt>
      <trkpt lat="46.52433" lon="5.48126">
        <ele>479.2</ele>
        <time>2021-10-23T12:23:35Z</time>
      </trkpt>
      <trkpt lat="46.5241" lon="5.48133">
        <ele>480.8</ele>
        <time>2021-10-23T12:23:42Z</time>
      </trkpt>
      <trkpt lat="46.524" lon="5.48136">
        <ele>481.4</ele>
        <time>2021-10-23T12:23:45Z</time>
      </trkpt>
      <trkpt lat="46.52393" lon="5.48138">
        <ele>481.8</ele>
        <time>2021-10-23T12:23:47Z</time>
      </trkpt>
      <trkpt lat="46.52386" lon="5.4814">
        <ele>482.4</ele>
        <time>2021-10-23T12:23:49Z</time>
      </trkpt>
      <trkpt lat="46.52376" lon="5.48142">
        <ele>482.8</ele>
        <time>2021-10-23T12:23:52Z</time>
      </trkpt>
      <trkpt lat="46.52366" lon="5.48144">
        <ele>483.2</ele>
        <time>2021-10-23T12:23:55Z</time>
      </trkpt>
      <trkpt lat="46.52356" lon="5.48147">
        <ele>484.2</ele>
        <time>2021-10-23T12:23:58Z</time>
      </trkpt>
      <trkpt lat="46.52347" lon="5.48158">
        <ele>485.2</ele>
        <time>2021-10-23T12:24:02Z</time>
      </trkpt>
      <trkpt lat="46.52347" lon="5.48163">
        <ele>485.6</ele>
        <time>2021-10-23T12:24:03Z</time>
      </trkpt>
      <trkpt lat="46.5235" lon="5.48171">
        <ele>486.2</ele>
        <time>2021-10-23T12:24:05Z</time>
      </trkpt>
      <trkpt lat="46.52355" lon="5.48176">
        <ele>486.8</ele>
        <time>2021-10-23T12:24:07Z</time>
      </trkpt>
      <trkpt lat="46.52362" lon="5.48176">
        <ele>487.2</ele>
        <time>2021-10-23T12:24:09Z</time>
      </trkpt>
      <trkpt lat="46.52372" lon="5.48176">
        <ele>487.8</ele>
        <time>2021-10-23T12:24:12Z</time>
      </trkpt>
      <trkpt lat="46.52376" lon="5.48175">
        <ele>487.8</ele>
        <time>2021-10-23T12:24:13Z</time>
      </trkpt>
      <trkpt lat="46.52389" lon="5.48174">
        <ele>488.6</ele>
        <time>2021-10-23T12:24:17Z</time>
      </trkpt>
      <trkpt lat="46.52407" lon="5.48173">
        <ele>488.8</ele>
        <time>2021-10-23T12:24:22Z</time>
      </trkpt>
      <trkpt lat="46.52428" lon="5.48173">
        <ele>490</ele>
        <time>2021-10-23T12:24:28Z</time>
      </trkpt>
      <trkpt lat="46.52446" lon="5.48176">
        <ele>491</ele>
        <time>2021-10-23T12:24:33Z</time>
      </trkpt>
      <trkpt lat="46.5245" lon="5.48177">
        <ele>491.2</ele>
        <time>2021-10-23T12:24:34Z</time>
      </trkpt>
      <trkpt lat="46.5246" lon="5.48181">
        <ele>492.2</ele>
        <time>2021-10-23T12:24:37Z</time>
      </trkpt>
      <trkpt lat="46.52479" lon="5.48189">
        <ele>493</ele>
        <time>2021-10-23T12:24:42Z</time>
      </trkpt>
      <trkpt lat="46.52486" lon="5.48192">
        <ele>493.4</ele>
        <time>2021-10-23T12:24:44Z</time>
      </trkpt>
      <trkpt lat="46.52503" lon="5.48201">
        <ele>494.6</ele>
        <time>2021-10-23T12:24:49Z</time>
      </trkpt>
      <trkpt lat="46.5251" lon="5.48205">
        <ele>495.2</ele>
        <time>2021-10-23T12:24:51Z</time>
      </trkpt>
      <trkpt lat="46.52524" lon="5.48213">
        <ele>495.8</ele>
        <time>2021-10-23T12:24:55Z</time>
      </trkpt>
      <trkpt lat="46.52539" lon="5.48225">
        <ele>496.8</ele>
        <time>2021-10-23T12:25:00Z</time>
      </trkpt>
      <trkpt lat="46.52555" lon="5.48239">
        <ele>498</ele>
        <time>2021-10-23T12:25:05Z</time>
      </trkpt>
      <trkpt lat="46.52557" lon="5.48242">
        <ele>498.2</ele>
        <time>2021-10-23T12:25:06Z</time>
      </trkpt>
      <trkpt lat="46.5257" lon="5.48259">
        <ele>499</ele>
        <time>2021-10-23T12:25:11Z</time>
      </trkpt>
      <trkpt lat="46.52572" lon="5.48263">
        <ele>499.2</ele>
        <time>2021-10-23T12:25:12Z</time>
      </trkpt>
      <trkpt lat="46.52578" lon="5.48274">
        <ele>500</ele>
        <time>2021-10-23T12:25:15Z</time>
      </trkpt>
      <trkpt lat="46.5258" lon="5.48279">
        <ele>500.2</ele>
        <time>2021-10-23T12:25:16Z</time>
      </trkpt>
      <trkpt lat="46.52587" lon="5.48297">
        <ele>501.4</ele>
        <time>2021-10-23T12:25:20Z</time>
      </trkpt>
      <trkpt lat="46.52589" lon="5.48302">
        <ele>501.4</ele>
        <time>2021-10-23T12:25:21Z</time>
      </trkpt>
      <trkpt lat="46.52594" lon="5.48322">
        <ele>502</ele>
        <time>2021-10-23T12:25:25Z</time>
      </trkpt>
      <trkpt lat="46.52594" lon="5.48327">
        <ele>502.2</ele>
        <time>2021-10-23T12:25:26Z</time>
      </trkpt>
      <trkpt lat="46.52595" lon="5.48333">
        <ele>502.6</ele>
        <time>2021-10-23T12:25:27Z</time>
      </trkpt>
      <trkpt lat="46.52597" lon="5.48356">
        <ele>503.8</ele>
        <time>2021-10-23T12:25:31Z</time>
      </trkpt>
      <trkpt lat="46.52598" lon="5.48367">
        <ele>503.8</ele>
        <time>2021-10-23T12:25:33Z</time>
      </trkpt>
      <trkpt lat="46.52599" lon="5.48382">
        <ele>504.6</ele>
        <time>2021-10-23T12:25:36Z</time>
      </trkpt>
      <trkpt lat="46.526" lon="5.48401">
        <ele>505.4</ele>
        <time>2021-10-23T12:25:39Z</time>
      </trkpt>
      <trkpt lat="46.52601" lon="5.48414">
        <ele>505.8</ele>
        <time>2021-10-23T12:25:41Z</time>
      </trkpt>
      <trkpt lat="46.52604" lon="5.48436">
        <ele>506.6</ele>
        <time>2021-10-23T12:25:45Z</time>
      </trkpt>
      <trkpt lat="46.52606" lon="5.48441">
        <ele>506.8</ele>
        <time>2021-10-23T12:25:46Z</time>
      </trkpt>
      <trkpt lat="46.52617" lon="5.48464">
        <ele>507.6</ele>
        <time>2021-10-23T12:25:51Z</time>
      </trkpt>
      <trkpt lat="46.5262" lon="5.48468">
        <ele>508.2</ele>
        <time>2021-10-23T12:25:52Z</time>
      </trkpt>
      <trkpt lat="46.52631" lon="5.4849">
        <ele>509.6</ele>
        <time>2021-10-23T12:25:57Z</time>
      </trkpt>
      <trkpt lat="46.52633" lon="5.48495">
        <ele>509.6</ele>
        <time>2021-10-23T12:25:58Z</time>
      </trkpt>
      <trkpt lat="46.52636" lon="5.4852">
        <ele>510.6</ele>
        <time>2021-10-23T12:26:03Z</time>
      </trkpt>
      <trkpt lat="46.52635" lon="5.48525">
        <ele>510.8</ele>
        <time>2021-10-23T12:26:04Z</time>
      </trkpt>
      <trkpt lat="46.52626" lon="5.48546">
        <ele>511.6</ele>
        <time>2021-10-23T12:26:09Z</time>
      </trkpt>
      <trkpt lat="46.52623" lon="5.48549">
        <ele>511.6</ele>
        <time>2021-10-23T12:26:10Z</time>
      </trkpt>
      <trkpt lat="46.5261" lon="5.4857">
        <ele>512.6</ele>
        <time>2021-10-23T12:26:15Z</time>
      </trkpt>
      <trkpt lat="46.52607" lon="5.48575">
        <ele>512.6</ele>
        <time>2021-10-23T12:26:16Z</time>
      </trkpt>
      <trkpt lat="46.52605" lon="5.48581">
        <ele>512.8</ele>
        <time>2021-10-23T12:26:17Z</time>
      </trkpt>
      <trkpt lat="46.52602" lon="5.48592">
        <ele>512.8</ele>
        <time>2021-10-23T12:26:19Z</time>
      </trkpt>
      <trkpt lat="46.52598" lon="5.48618">
        <ele>512.8</ele>
        <time>2021-10-23T12:26:23Z</time>
      </trkpt>
      <trkpt lat="46.5259" lon="5.48677">
        <ele>513</ele>
        <time>2021-10-23T12:26:32Z</time>
      </trkpt>
      <trkpt lat="46.52589" lon="5.48683">
        <ele>513</ele>
        <time>2021-10-23T12:26:33Z</time>
      </trkpt>
      <trkpt lat="46.52586" lon="5.48695">
        <ele>513.4</ele>
        <time>2021-10-23T12:26:35Z</time>
      </trkpt>
      <trkpt lat="46.52583" lon="5.48708">
        <ele>513.6</ele>
        <time>2021-10-23T12:26:37Z</time>
      </trkpt>
      <trkpt lat="46.5258" lon="5.48722">
        <ele>513.8</ele>
        <time>2021-10-23T12:26:39Z</time>
      </trkpt>
      <trkpt lat="46.52572" lon="5.48756">
        <ele>513.8</ele>
        <time>2021-10-23T12:26:44Z</time>
      </trkpt>
      <trkpt lat="46.52559" lon="5.48825">
        <ele>513.4</ele>
        <time>2021-10-23T12:26:53Z</time>
      </trkpt>
      <trkpt lat="46.52559" lon="5.48833">
        <ele>513.4</ele>
        <time>2021-10-23T12:26:54Z</time>
      </trkpt>
      <trkpt lat="46.52561" lon="5.48864">
        <ele>513</ele>
        <time>2021-10-23T12:26:58Z</time>
      </trkpt>
      <trkpt lat="46.52575" lon="5.48942">
        <ele>513.2</ele>
        <time>2021-10-23T12:27:08Z</time>
      </trkpt>
      <trkpt lat="46.52577" lon="5.48949">
        <ele>513.4</ele>
        <time>2021-10-23T12:27:09Z</time>
      </trkpt>
      <trkpt lat="46.52586" lon="5.49002">
        <ele>514</ele>
        <time>2021-10-23T12:27:16Z</time>
      </trkpt>
      <trkpt lat="46.52602" lon="5.49053">
        <ele>514.2</ele>
        <time>2021-10-23T12:27:23Z</time>
      </trkpt>
      <trkpt lat="46.52613" lon="5.49073">
        <ele>514.4</ele>
        <time>2021-10-23T12:27:26Z</time>
      </trkpt>
      <trkpt lat="46.5263" lon="5.49099">
        <ele>514.2</ele>
        <time>2021-10-23T12:27:30Z</time>
      </trkpt>
      <trkpt lat="46.52669" lon="5.49154">
        <ele>512.4</ele>
        <time>2021-10-23T12:27:38Z</time>
      </trkpt>
      <trkpt lat="46.52674" lon="5.49161">
        <ele>512</ele>
        <time>2021-10-23T12:27:39Z</time>
      </trkpt>
      <trkpt lat="46.52684" lon="5.49176">
        <ele>511.4</ele>
        <time>2021-10-23T12:27:41Z</time>
      </trkpt>
      <trkpt lat="46.52704" lon="5.49207">
        <ele>510.2</ele>
        <time>2021-10-23T12:27:45Z</time>
      </trkpt>
      <trkpt lat="46.5272" lon="5.4923">
        <ele>509.4</ele>
        <time>2021-10-23T12:27:48Z</time>
      </trkpt>
      <trkpt lat="46.52725" lon="5.49237">
        <ele>509.2</ele>
        <time>2021-10-23T12:27:49Z</time>
      </trkpt>
      <trkpt lat="46.52761" lon="5.4929">
        <ele>508.4</ele>
        <time>2021-10-23T12:27:56Z</time>
      </trkpt>
      <trkpt lat="46.52775" lon="5.49312">
        <ele>508</ele>
        <time>2021-10-23T12:27:59Z</time>
      </trkpt>
      <trkpt lat="46.52803" lon="5.49353">
        <ele>507.2</ele>
        <time>2021-10-23T12:28:05Z</time>
      </trkpt>
      <trkpt lat="46.52821" lon="5.4938">
        <ele>507</ele>
        <time>2021-10-23T12:28:09Z</time>
      </trkpt>
      <trkpt lat="46.52863" lon="5.49442">
        <ele>508</ele>
        <time>2021-10-23T12:28:18Z</time>
      </trkpt>
      <trkpt lat="46.52877" lon="5.49462">
        <ele>508.2</ele>
        <time>2021-10-23T12:28:21Z</time>
      </trkpt>
      <trkpt lat="46.52882" lon="5.49468">
        <ele>508.2</ele>
        <time>2021-10-23T12:28:22Z</time>
      </trkpt>
      <trkpt lat="46.52909" lon="5.49507">
        <ele>508.4</ele>
        <time>2021-10-23T12:28:28Z</time>
      </trkpt>
      <trkpt lat="46.52913" lon="5.49513">
        <ele>508.4</ele>
        <time>2021-10-23T12:28:29Z</time>
      </trkpt>
      <trkpt lat="46.52938" lon="5.49542">
        <ele>508.4</ele>
        <time>2021-10-23T12:28:34Z</time>
      </trkpt>
      <trkpt lat="46.52984" lon="5.49594">
        <ele>507.4</ele>
        <time>2021-10-23T12:28:42Z</time>
      </trkpt>
      <trkpt lat="46.52989" lon="5.49602">
        <ele>507.4</ele>
        <time>2021-10-23T12:28:43Z</time>
      </trkpt>
      <trkpt lat="46.52995" lon="5.49609">
        <ele>507.2</ele>
        <time>2021-10-23T12:28:44Z</time>
      </trkpt>
      <trkpt lat="46.53018" lon="5.49642">
        <ele>505.8</ele>
        <time>2021-10-23T12:28:48Z</time>
      </trkpt>
      <trkpt lat="46.53028" lon="5.49661">
        <ele>504.8</ele>
        <time>2021-10-23T12:28:50Z</time>
      </trkpt>
      <trkpt lat="46.53043" lon="5.4969">
        <ele>503.4</ele>
        <time>2021-10-23T12:28:53Z</time>
      </trkpt>
      <trkpt lat="46.53066" lon="5.49737">
        <ele>502</ele>
        <time>2021-10-23T12:28:58Z</time>
      </trkpt>
      <trkpt lat="46.53075" lon="5.49755">
        <ele>501.4</ele>
        <time>2021-10-23T12:29:00Z</time>
      </trkpt>
      <trkpt lat="46.53104" lon="5.49813">
        <ele>501</ele>
        <time>2021-10-23T12:29:07Z</time>
      </trkpt>
      <trkpt lat="46.53138" lon="5.49884">
        <ele>502</ele>
        <time>2021-10-23T12:29:16Z</time>
      </trkpt>
      <trkpt lat="46.53142" lon="5.49891">
        <ele>502</ele>
        <time>2021-10-23T12:29:17Z</time>
      </trkpt>
      <trkpt lat="46.53149" lon="5.49905">
        <ele>502.2</ele>
        <time>2021-10-23T12:29:19Z</time>
      </trkpt>
      <trkpt lat="46.53165" lon="5.49936">
        <ele>503</ele>
        <time>2021-10-23T12:29:24Z</time>
      </trkpt>
      <trkpt lat="46.53173" lon="5.49952">
        <ele>503.4</ele>
        <time>2021-10-23T12:29:27Z</time>
      </trkpt>
      <trkpt lat="46.53185" lon="5.49978">
        <ele>504.4</ele>
        <time>2021-10-23T12:29:32Z</time>
      </trkpt>
      <trkpt lat="46.53188" lon="5.49984">
        <ele>504.4</ele>
        <time>2021-10-23T12:29:33Z</time>
      </trkpt>
      <trkpt lat="46.53195" lon="5.49998">
        <ele>505.6</ele>
        <time>2021-10-23T12:29:36Z</time>
      </trkpt>
      <trkpt lat="46.53202" lon="5.50013">
        <ele>506.6</ele>
        <time>2021-10-23T12:29:39Z</time>
      </trkpt>
      <trkpt lat="46.53205" lon="5.50018">
        <ele>507</ele>
        <time>2021-10-23T12:29:40Z</time>
      </trkpt>
      <trkpt lat="46.53209" lon="5.50028">
        <ele>507.6</ele>
        <time>2021-10-23T12:29:42Z</time>
      </trkpt>
      <trkpt lat="46.53212" lon="5.50033">
        <ele>507.8</ele>
        <time>2021-10-23T12:29:43Z</time>
      </trkpt>
      <trkpt lat="46.53218" lon="5.50047">
        <ele>509</ele>
        <time>2021-10-23T12:29:46Z</time>
      </trkpt>
      <trkpt lat="46.5323" lon="5.50069">
        <ele>510</ele>
        <time>2021-10-23T12:29:51Z</time>
      </trkpt>
      <trkpt lat="46.53239" lon="5.50086">
        <ele>511</ele>
        <time>2021-10-23T12:29:55Z</time>
      </trkpt>
      <trkpt lat="46.53253" lon="5.50113">
        <ele>512</ele>
        <time>2021-10-23T12:30:01Z</time>
      </trkpt>
      <trkpt lat="46.53255" lon="5.50118">
        <ele>512.8</ele>
        <time>2021-10-23T12:30:02Z</time>
      </trkpt>
      <trkpt lat="46.5326" lon="5.50127">
        <ele>513.4</ele>
        <time>2021-10-23T12:30:04Z</time>
      </trkpt>
      <trkpt lat="46.53271" lon="5.5015">
        <ele>514.6</ele>
        <time>2021-10-23T12:30:09Z</time>
      </trkpt>
      <trkpt lat="46.53279" lon="5.50168">
        <ele>515.2</ele>
        <time>2021-10-23T12:30:13Z</time>
      </trkpt>
      <trkpt lat="46.53282" lon="5.50172">
        <ele>515.6</ele>
        <time>2021-10-23T12:30:14Z</time>
      </trkpt>
      <trkpt lat="46.53286" lon="5.50181">
        <ele>516.8</ele>
        <time>2021-10-23T12:30:16Z</time>
      </trkpt>
      <trkpt lat="46.53298" lon="5.50206">
        <ele>517.8</ele>
        <time>2021-10-23T12:30:21Z</time>
      </trkpt>
      <trkpt lat="46.53306" lon="5.50222">
        <ele>519</ele>
        <time>2021-10-23T12:30:24Z</time>
      </trkpt>
      <trkpt lat="46.53315" lon="5.50242">
        <ele>519.6</ele>
        <time>2021-10-23T12:30:28Z</time>
      </trkpt>
      <trkpt lat="46.5332" lon="5.50252">
        <ele>520</ele>
        <time>2021-10-23T12:30:30Z</time>
      </trkpt>
      <trkpt lat="46.53332" lon="5.50276">
        <ele>521</ele>
        <time>2021-10-23T12:30:35Z</time>
      </trkpt>
      <trkpt lat="46.53338" lon="5.50289">
        <ele>521.6</ele>
        <time>2021-10-23T12:30:38Z</time>
      </trkpt>
      <trkpt lat="46.53348" lon="5.50308">
        <ele>522.4</ele>
        <time>2021-10-23T12:30:42Z</time>
      </trkpt>
      <trkpt lat="46.53356" lon="5.50323">
        <ele>523.4</ele>
        <time>2021-10-23T12:30:45Z</time>
      </trkpt>
      <trkpt lat="46.53369" lon="5.5035">
        <ele>524.2</ele>
        <time>2021-10-23T12:30:50Z</time>
      </trkpt>
      <trkpt lat="46.53375" lon="5.5036">
        <ele>524.6</ele>
        <time>2021-10-23T12:30:52Z</time>
      </trkpt>
      <trkpt lat="46.53393" lon="5.50397">
        <ele>524.8</ele>
        <time>2021-10-23T12:30:58Z</time>
      </trkpt>
      <trkpt lat="46.53426" lon="5.50465">
        <ele>523.2</ele>
        <time>2021-10-23T12:31:08Z</time>
      </trkpt>
      <trkpt lat="46.53458" lon="5.5053">
        <ele>522.6</ele>
        <time>2021-10-23T12:31:17Z</time>
      </trkpt>
      <trkpt lat="46.53462" lon="5.50537">
        <ele>522.6</ele>
        <time>2021-10-23T12:31:18Z</time>
      </trkpt>
      <trkpt lat="46.53496" lon="5.50607">
        <ele>522.6</ele>
        <time>2021-10-23T12:31:28Z</time>
      </trkpt>
      <trkpt lat="46.53503" lon="5.50621">
        <ele>522.8</ele>
        <time>2021-10-23T12:31:30Z</time>
      </trkpt>
      <trkpt lat="46.53537" lon="5.5069">
        <ele>523.6</ele>
        <time>2021-10-23T12:31:41Z</time>
      </trkpt>
      <trkpt lat="46.5354" lon="5.50696">
        <ele>524</ele>
        <time>2021-10-23T12:31:42Z</time>
      </trkpt>
      <trkpt lat="46.53549" lon="5.50714">
        <ele>524.6</ele>
        <time>2021-10-23T12:31:45Z</time>
      </trkpt>
      <trkpt lat="46.53564" lon="5.50743">
        <ele>525.2</ele>
        <time>2021-10-23T12:31:50Z</time>
      </trkpt>
      <trkpt lat="46.53569" lon="5.50755">
        <ele>525.8</ele>
        <time>2021-10-23T12:31:52Z</time>
      </trkpt>
      <trkpt lat="46.53589" lon="5.50797">
        <ele>526.8</ele>
        <time>2021-10-23T12:31:59Z</time>
      </trkpt>
      <trkpt lat="46.53601" lon="5.5082">
        <ele>527.4</ele>
        <time>2021-10-23T12:32:03Z</time>
      </trkpt>
      <trkpt lat="46.53618" lon="5.50854">
        <ele>528</ele>
        <time>2021-10-23T12:32:09Z</time>
      </trkpt>
      <trkpt lat="46.53633" lon="5.50883">
        <ele>528.8</ele>
        <time>2021-10-23T12:32:14Z</time>
      </trkpt>
      <trkpt lat="46.53636" lon="5.50889">
        <ele>529</ele>
        <time>2021-10-23T12:32:15Z</time>
      </trkpt>
      <trkpt lat="46.53658" lon="5.50934">
        <ele>530</ele>
        <time>2021-10-23T12:32:23Z</time>
      </trkpt>
      <trkpt lat="46.53661" lon="5.5094">
        <ele>530.2</ele>
        <time>2021-10-23T12:32:24Z</time>
      </trkpt>
      <trkpt lat="46.53672" lon="5.50961">
        <ele>531.2</ele>
        <time>2021-10-23T12:32:28Z</time>
      </trkpt>
      <trkpt lat="46.53685" lon="5.50988">
        <ele>532.4</ele>
        <time>2021-10-23T12:32:33Z</time>
      </trkpt>
      <trkpt lat="46.53693" lon="5.51004">
        <ele>532.8</ele>
        <time>2021-10-23T12:32:36Z</time>
      </trkpt>
      <trkpt lat="46.53707" lon="5.51034">
        <ele>533.4</ele>
        <time>2021-10-23T12:32:42Z</time>
      </trkpt>
      <trkpt lat="46.53717" lon="5.51056">
        <ele>534.2</ele>
        <time>2021-10-23T12:32:46Z</time>
      </trkpt>
      <trkpt lat="46.5372" lon="5.51061">
        <ele>534.8</ele>
        <time>2021-10-23T12:32:47Z</time>
      </trkpt>
      <trkpt lat="46.5373" lon="5.51083">
        <ele>536</ele>
        <time>2021-10-23T12:32:51Z</time>
      </trkpt>
      <trkpt lat="46.53743" lon="5.5111">
        <ele>537.4</ele>
        <time>2021-10-23T12:32:56Z</time>
      </trkpt>
      <trkpt lat="46.53762" lon="5.51147">
        <ele>538.6</ele>
        <time>2021-10-23T12:33:03Z</time>
      </trkpt>
      <trkpt lat="46.53772" lon="5.51167">
        <ele>539.4</ele>
        <time>2021-10-23T12:33:07Z</time>
      </trkpt>
      <trkpt lat="46.53778" lon="5.51177">
        <ele>539.8</ele>
        <time>2021-10-23T12:33:09Z</time>
      </trkpt>
      <trkpt lat="46.53796" lon="5.51212">
        <ele>541</ele>
        <time>2021-10-23T12:33:16Z</time>
      </trkpt>
      <trkpt lat="46.53803" lon="5.51226">
        <ele>541.8</ele>
        <time>2021-10-23T12:33:19Z</time>
      </trkpt>
      <trkpt lat="46.53811" lon="5.5124">
        <ele>542.2</ele>
        <time>2021-10-23T12:33:22Z</time>
      </trkpt>
      <trkpt lat="46.53833" lon="5.51272">
        <ele>543.4</ele>
        <time>2021-10-23T12:33:29Z</time>
      </trkpt>
      <trkpt lat="46.53842" lon="5.51282">
        <ele>543.4</ele>
        <time>2021-10-23T12:33:31Z</time>
      </trkpt>
      <trkpt lat="46.53866" lon="5.51308">
        <ele>543.4</ele>
        <time>2021-10-23T12:33:36Z</time>
      </trkpt>
      <trkpt lat="46.53891" lon="5.51336">
        <ele>542.4</ele>
        <time>2021-10-23T12:33:41Z</time>
      </trkpt>
      <trkpt lat="46.53902" lon="5.51347">
        <ele>542</ele>
        <time>2021-10-23T12:33:43Z</time>
      </trkpt>
      <trkpt lat="46.53923" lon="5.51371">
        <ele>541.2</ele>
        <time>2021-10-23T12:33:47Z</time>
      </trkpt>
      <trkpt lat="46.53946" lon="5.51396">
        <ele>540</ele>
        <time>2021-10-23T12:33:51Z</time>
      </trkpt>
      <trkpt lat="46.53958" lon="5.5141">
        <ele>539.2</ele>
        <time>2021-10-23T12:33:53Z</time>
      </trkpt>
      <trkpt lat="46.53971" lon="5.51423">
        <ele>538.6</ele>
        <time>2021-10-23T12:33:55Z</time>
      </trkpt>
      <trkpt lat="46.54003" lon="5.51461">
        <ele>537.2</ele>
        <time>2021-10-23T12:34:00Z</time>
      </trkpt>
      <trkpt lat="46.54023" lon="5.51485">
        <ele>535.8</ele>
        <time>2021-10-23T12:34:03Z</time>
      </trkpt>
      <trkpt lat="46.54037" lon="5.51502">
        <ele>534.4</ele>
        <time>2021-10-23T12:34:05Z</time>
      </trkpt>
      <trkpt lat="46.5405" lon="5.51518">
        <ele>533.8</ele>
        <time>2021-10-23T12:34:07Z</time>
      </trkpt>
      <trkpt lat="46.54062" lon="5.51532">
        <ele>533.2</ele>
        <time>2021-10-23T12:34:09Z</time>
      </trkpt>
      <trkpt lat="46.54084" lon="5.5156">
        <ele>532.6</ele>
        <time>2021-10-23T12:34:13Z</time>
      </trkpt>
      <trkpt lat="46.54109" lon="5.51591">
        <ele>532.8</ele>
        <time>2021-10-23T12:34:18Z</time>
      </trkpt>
      <trkpt lat="46.54141" lon="5.51631">
        <ele>533.4</ele>
        <time>2021-10-23T12:34:25Z</time>
      </trkpt>
      <trkpt lat="46.54186" lon="5.51685">
        <ele>534</ele>
        <time>2021-10-23T12:34:34Z</time>
      </trkpt>
      <trkpt lat="46.54225" lon="5.51731">
        <ele>534</ele>
        <time>2021-10-23T12:34:42Z</time>
      </trkpt>
      <trkpt lat="46.54259" lon="5.51758">
        <ele>533.8</ele>
        <time>2021-10-23T12:34:48Z</time>
      </trkpt>
      <trkpt lat="46.54307" lon="5.51776">
        <ele>533</ele>
        <time>2021-10-23T12:34:55Z</time>
      </trkpt>
      <trkpt lat="46.54337" lon="5.51791">
        <ele>532.2</ele>
        <time>2021-10-23T12:34:59Z</time>
      </trkpt>
      <trkpt lat="46.54345" lon="5.51797">
        <ele>532.2</ele>
        <time>2021-10-23T12:35:00Z</time>
      </trkpt>
      <trkpt lat="46.54374" lon="5.51825">
        <ele>530.8</ele>
        <time>2021-10-23T12:35:04Z</time>
      </trkpt>
      <trkpt lat="46.54396" lon="5.51849">
        <ele>529.8</ele>
        <time>2021-10-23T12:35:07Z</time>
      </trkpt>
      <trkpt lat="46.5441" lon="5.51865">
        <ele>528.4</ele>
        <time>2021-10-23T12:35:09Z</time>
      </trkpt>
      <trkpt lat="46.54425" lon="5.5188">
        <ele>527.8</ele>
        <time>2021-10-23T12:35:11Z</time>
      </trkpt>
      <trkpt lat="46.54439" lon="5.51897">
        <ele>527</ele>
        <time>2021-10-23T12:35:13Z</time>
      </trkpt>
      <trkpt lat="46.54486" lon="5.51949">
        <ele>526</ele>
        <time>2021-10-23T12:35:20Z</time>
      </trkpt>
      <trkpt lat="46.54492" lon="5.51956">
        <ele>526</ele>
        <time>2021-10-23T12:35:21Z</time>
      </trkpt>
      <trkpt lat="46.54516" lon="5.51983">
        <ele>526</ele>
        <time>2021-10-23T12:35:25Z</time>
      </trkpt>
      <trkpt lat="46.54521" lon="5.51989">
        <ele>526.2</ele>
        <time>2021-10-23T12:35:26Z</time>
      </trkpt>
      <trkpt lat="46.5457" lon="5.52043">
        <ele>527</ele>
        <time>2021-10-23T12:35:34Z</time>
      </trkpt>
      <trkpt lat="46.54588" lon="5.52063">
        <ele>527</ele>
        <time>2021-10-23T12:35:37Z</time>
      </trkpt>
      <trkpt lat="46.54637" lon="5.52112">
        <ele>526</ele>
        <time>2021-10-23T12:35:45Z</time>
      </trkpt>
      <trkpt lat="46.54644" lon="5.52118">
        <ele>526</ele>
        <time>2021-10-23T12:35:46Z</time>
      </trkpt>
      <trkpt lat="46.54669" lon="5.52133">
        <ele>525</ele>
        <time>2021-10-23T12:35:49Z</time>
      </trkpt>
      <trkpt lat="46.54688" lon="5.52141">
        <ele>524.4</ele>
        <time>2021-10-23T12:35:51Z</time>
      </trkpt>
      <trkpt lat="46.54697" lon="5.52144">
        <ele>523.8</ele>
        <time>2021-10-23T12:35:52Z</time>
      </trkpt>
      <trkpt lat="46.54718" lon="5.52151">
        <ele>522.8</ele>
        <time>2021-10-23T12:35:54Z</time>
      </trkpt>
      <trkpt lat="46.54746" lon="5.52163">
        <ele>521.2</ele>
        <time>2021-10-23T12:35:57Z</time>
      </trkpt>
      <trkpt lat="46.54756" lon="5.52169">
        <ele>520.8</ele>
        <time>2021-10-23T12:35:58Z</time>
      </trkpt>
      <trkpt lat="46.54768" lon="5.52177">
        <ele>520</ele>
        <time>2021-10-23T12:35:59Z</time>
      </trkpt>
      <trkpt lat="46.54787" lon="5.52192">
        <ele>518.4</ele>
        <time>2021-10-23T12:36:01Z</time>
      </trkpt>
      <trkpt lat="46.54807" lon="5.52208">
        <ele>516.8</ele>
        <time>2021-10-23T12:36:03Z</time>
      </trkpt>
      <trkpt lat="46.54827" lon="5.52222">
        <ele>515.6</ele>
        <time>2021-10-23T12:36:05Z</time>
      </trkpt>
      <trkpt lat="46.54848" lon="5.52234">
        <ele>514</ele>
        <time>2021-10-23T12:36:07Z</time>
      </trkpt>
      <trkpt lat="46.54859" lon="5.52238">
        <ele>513.2</ele>
        <time>2021-10-23T12:36:08Z</time>
      </trkpt>
      <trkpt lat="46.54869" lon="5.52243">
        <ele>512.8</ele>
        <time>2021-10-23T12:36:09Z</time>
      </trkpt>
      <trkpt lat="46.5488" lon="5.52247">
        <ele>511.4</ele>
        <time>2021-10-23T12:36:10Z</time>
      </trkpt>
      <trkpt lat="46.54902" lon="5.52255">
        <ele>510</ele>
        <time>2021-10-23T12:36:12Z</time>
      </trkpt>
      <trkpt lat="46.54923" lon="5.52263">
        <ele>509</ele>
        <time>2021-10-23T12:36:14Z</time>
      </trkpt>
      <trkpt lat="46.54933" lon="5.52267">
        <ele>508.2</ele>
        <time>2021-10-23T12:36:15Z</time>
      </trkpt>
      <trkpt lat="46.54954" lon="5.52278">
        <ele>507</ele>
        <time>2021-10-23T12:36:17Z</time>
      </trkpt>
      <trkpt lat="46.54964" lon="5.52285">
        <ele>506.8</ele>
        <time>2021-10-23T12:36:18Z</time>
      </trkpt>
      <trkpt lat="46.54974" lon="5.52293">
        <ele>506</ele>
        <time>2021-10-23T12:36:19Z</time>
      </trkpt>
      <trkpt lat="46.54983" lon="5.52303">
        <ele>505.8</ele>
        <time>2021-10-23T12:36:20Z</time>
      </trkpt>
      <trkpt lat="46.54992" lon="5.52313">
        <ele>504</ele>
        <time>2021-10-23T12:36:21Z</time>
      </trkpt>
      <trkpt lat="46.54999" lon="5.52325">
        <ele>503</ele>
        <time>2021-10-23T12:36:22Z</time>
      </trkpt>
      <trkpt lat="46.55011" lon="5.52352">
        <ele>501.4</ele>
        <time>2021-10-23T12:36:24Z</time>
      </trkpt>
      <trkpt lat="46.55021" lon="5.5238">
        <ele>500.4</ele>
        <time>2021-10-23T12:36:26Z</time>
      </trkpt>
      <trkpt lat="46.55025" lon="5.52391">
        <ele>500</ele>
        <time>2021-10-23T12:36:27Z</time>
      </trkpt>
      <trkpt lat="46.55035" lon="5.52422">
        <ele>498.8</ele>
        <time>2021-10-23T12:36:29Z</time>
      </trkpt>
      <trkpt lat="46.55048" lon="5.52463">
        <ele>497.4</ele>
        <time>2021-10-23T12:36:32Z</time>
      </trkpt>
      <trkpt lat="46.55053" lon="5.52477">
        <ele>496.2</ele>
        <time>2021-10-23T12:36:33Z</time>
      </trkpt>
      <trkpt lat="46.55061" lon="5.52504">
        <ele>495.2</ele>
        <time>2021-10-23T12:36:35Z</time>
      </trkpt>
      <trkpt lat="46.55075" lon="5.52545">
        <ele>493.4</ele>
        <time>2021-10-23T12:36:38Z</time>
      </trkpt>
      <trkpt lat="46.55089" lon="5.52587">
        <ele>492.2</ele>
        <time>2021-10-23T12:36:41Z</time>
      </trkpt>
      <trkpt lat="46.55092" lon="5.52602">
        <ele>491.4</ele>
        <time>2021-10-23T12:36:42Z</time>
      </trkpt>
      <trkpt lat="46.55095" lon="5.52617">
        <ele>491</ele>
        <time>2021-10-23T12:36:43Z</time>
      </trkpt>
      <trkpt lat="46.55095" lon="5.52632">
        <ele>490.6</ele>
        <time>2021-10-23T12:36:44Z</time>
      </trkpt>
      <trkpt lat="46.55092" lon="5.52647">
        <ele>489.8</ele>
        <time>2021-10-23T12:36:45Z</time>
      </trkpt>
      <trkpt lat="46.55088" lon="5.52661">
        <ele>489.4</ele>
        <time>2021-10-23T12:36:46Z</time>
      </trkpt>
      <trkpt lat="46.55082" lon="5.52674">
        <ele>488.8</ele>
        <time>2021-10-23T12:36:47Z</time>
      </trkpt>
      <trkpt lat="46.55072" lon="5.52698">
        <ele>488.2</ele>
        <time>2021-10-23T12:36:49Z</time>
      </trkpt>
      <trkpt lat="46.55063" lon="5.52721">
        <ele>487.2</ele>
        <time>2021-10-23T12:36:51Z</time>
      </trkpt>
      <trkpt lat="46.55049" lon="5.52753">
        <ele>487</ele>
        <time>2021-10-23T12:36:54Z</time>
      </trkpt>
      <trkpt lat="46.55018" lon="5.52806">
        <ele>487</ele>
        <time>2021-10-23T12:37:00Z</time>
      </trkpt>
      <trkpt lat="46.54979" lon="5.5286">
        <ele>487.4</ele>
        <time>2021-10-23T12:37:07Z</time>
      </trkpt>
      <trkpt lat="46.54957" lon="5.52917">
        <ele>488</ele>
        <time>2021-10-23T12:37:13Z</time>
      </trkpt>
      <trkpt lat="46.54949" lon="5.52953">
        <ele>488.4</ele>
        <time>2021-10-23T12:37:17Z</time>
      </trkpt>
      <trkpt lat="46.54945" lon="5.5297">
        <ele>489.2</ele>
        <time>2021-10-23T12:37:19Z</time>
      </trkpt>
      <trkpt lat="46.54941" lon="5.52987">
        <ele>489.6</ele>
        <time>2021-10-23T12:37:21Z</time>
      </trkpt>
      <trkpt lat="46.54931" lon="5.53016">
        <ele>490</ele>
        <time>2021-10-23T12:37:25Z</time>
      </trkpt>
      <trkpt lat="46.54922" lon="5.53035">
        <ele>490.6</ele>
        <time>2021-10-23T12:37:28Z</time>
      </trkpt>
      <trkpt lat="46.54909" lon="5.53066">
        <ele>491.6</ele>
        <time>2021-10-23T12:37:33Z</time>
      </trkpt>
      <trkpt lat="46.54906" lon="5.53072">
        <ele>491.8</ele>
        <time>2021-10-23T12:37:34Z</time>
      </trkpt>
      <trkpt lat="46.54893" lon="5.53102">
        <ele>492.8</ele>
        <time>2021-10-23T12:37:39Z</time>
      </trkpt>
      <trkpt lat="46.54885" lon="5.53118">
        <ele>494</ele>
        <time>2021-10-23T12:37:42Z</time>
      </trkpt>
      <trkpt lat="46.54882" lon="5.53123">
        <ele>494.2</ele>
        <time>2021-10-23T12:37:43Z</time>
      </trkpt>
      <trkpt lat="46.54861" lon="5.53146">
        <ele>495</ele>
        <time>2021-10-23T12:37:48Z</time>
      </trkpt>
      <trkpt lat="46.54856" lon="5.53149">
        <ele>495.2</ele>
        <time>2021-10-23T12:37:49Z</time>
      </trkpt>
      <trkpt lat="46.54835" lon="5.53161">
        <ele>496.4</ele>
        <time>2021-10-23T12:37:53Z</time>
      </trkpt>
      <trkpt lat="46.54819" lon="5.53169">
        <ele>497</ele>
        <time>2021-10-23T12:37:56Z</time>
      </trkpt>
      <trkpt lat="46.54799" lon="5.53179">
        <ele>497.4</ele>
        <time>2021-10-23T12:38:00Z</time>
      </trkpt>
      <trkpt lat="46.54774" lon="5.53191">
        <ele>498</ele>
        <time>2021-10-23T12:38:05Z</time>
      </trkpt>
      <trkpt lat="46.54759" lon="5.53196">
        <ele>498.6</ele>
        <time>2021-10-23T12:38:09Z</time>
      </trkpt>
      <trkpt lat="46.5474" lon="5.53198">
        <ele>499</ele>
        <time>2021-10-23T12:38:12Z</time>
      </trkpt>
      <trkpt lat="46.5473" lon="5.53198">
        <ele>499.6</ele>
        <time>2021-10-23T12:38:14Z</time>
      </trkpt>
      <trkpt lat="46.54703" lon="5.53195">
        <ele>501</ele>
        <time>2021-10-23T12:38:20Z</time>
      </trkpt>
      <trkpt lat="46.54694" lon="5.53193">
        <ele>501.6</ele>
        <time>2021-10-23T12:38:22Z</time>
      </trkpt>
      <trkpt lat="46.54686" lon="5.53192">
        <ele>502</ele>
        <time>2021-10-23T12:38:24Z</time>
      </trkpt>
      <trkpt lat="46.54666" lon="5.53192">
        <ele>503.4</ele>
        <time>2021-10-23T12:38:30Z</time>
      </trkpt>
      <trkpt lat="46.54658" lon="5.53192">
        <ele>504.2</ele>
        <time>2021-10-23T12:38:32Z</time>
      </trkpt>
      <trkpt lat="46.54653" lon="5.53193">
        <ele>504.6</ele>
        <time>2021-10-23T12:38:33Z</time>
      </trkpt>
      <trkpt lat="46.54633" lon="5.53199">
        <ele>505.6</ele>
        <time>2021-10-23T12:38:38Z</time>
      </trkpt>
      <trkpt lat="46.54621" lon="5.53203">
        <ele>506.2</ele>
        <time>2021-10-23T12:38:41Z</time>
      </trkpt>
      <trkpt lat="46.54609" lon="5.53208">
        <ele>506.6</ele>
        <time>2021-10-23T12:38:44Z</time>
      </trkpt>
      <trkpt lat="46.54593" lon="5.53215">
        <ele>507.8</ele>
        <time>2021-10-23T12:38:48Z</time>
      </trkpt>
      <trkpt lat="46.5458" lon="5.5322">
        <ele>508.8</ele>
        <time>2021-10-23T12:38:51Z</time>
      </trkpt>
      <trkpt lat="46.54576" lon="5.53222">
        <ele>508.8</ele>
        <time>2021-10-23T12:38:52Z</time>
      </trkpt>
      <trkpt lat="46.54555" lon="5.53229">
        <ele>510</ele>
        <time>2021-10-23T12:38:57Z</time>
      </trkpt>
      <trkpt lat="46.54534" lon="5.53235">
        <ele>511.2</ele>
        <time>2021-10-23T12:39:02Z</time>
      </trkpt>
      <trkpt lat="46.5453" lon="5.53236">
        <ele>511.4</ele>
        <time>2021-10-23T12:39:03Z</time>
      </trkpt>
      <trkpt lat="46.54509" lon="5.5324">
        <ele>512.4</ele>
        <time>2021-10-23T12:39:08Z</time>
      </trkpt>
      <trkpt lat="46.54489" lon="5.53244">
        <ele>513.4</ele>
        <time>2021-10-23T12:39:13Z</time>
      </trkpt>
      <trkpt lat="46.54485" lon="5.53245">
        <ele>513.8</ele>
        <time>2021-10-23T12:39:14Z</time>
      </trkpt>
      <trkpt lat="46.54473" lon="5.53248">
        <ele>514.6</ele>
        <time>2021-10-23T12:39:17Z</time>
      </trkpt>
      <trkpt lat="46.54453" lon="5.53252">
        <ele>515.6</ele>
        <time>2021-10-23T12:39:22Z</time>
      </trkpt>
      <trkpt lat="46.5445" lon="5.53253">
        <ele>516</ele>
        <time>2021-10-23T12:39:23Z</time>
      </trkpt>
      <trkpt lat="46.54433" lon="5.53257">
        <ele>517</ele>
        <time>2021-10-23T12:39:27Z</time>
      </trkpt>
      <trkpt lat="46.54425" lon="5.53258">
        <ele>518</ele>
        <time>2021-10-23T12:39:29Z</time>
      </trkpt>
      <trkpt lat="46.54413" lon="5.53261">
        <ele>519</ele>
        <time>2021-10-23T12:39:32Z</time>
      </trkpt>
      <trkpt lat="46.54393" lon="5.53271">
        <ele>520.8</ele>
        <time>2021-10-23T12:39:37Z</time>
      </trkpt>
      <trkpt lat="46.54385" lon="5.53278">
        <ele>521.4</ele>
        <time>2021-10-23T12:39:39Z</time>
      </trkpt>
      <trkpt lat="46.54375" lon="5.53291">
        <ele>521.8</ele>
        <time>2021-10-23T12:39:42Z</time>
      </trkpt>
      <trkpt lat="46.54372" lon="5.53296">
        <ele>521.8</ele>
        <time>2021-10-23T12:39:43Z</time>
      </trkpt>
      <trkpt lat="46.54368" lon="5.53305">
        <ele>522.4</ele>
        <time>2021-10-23T12:39:45Z</time>
      </trkpt>
      <trkpt lat="46.54366" lon="5.5331">
        <ele>522.6</ele>
        <time>2021-10-23T12:39:46Z</time>
      </trkpt>
      <trkpt lat="46.5436" lon="5.53325">
        <ele>522.8</ele>
        <time>2021-10-23T12:39:49Z</time>
      </trkpt>
      <trkpt lat="46.54359" lon="5.5333">
        <ele>523.2</ele>
        <time>2021-10-23T12:39:50Z</time>
      </trkpt>
      <trkpt lat="46.54355" lon="5.53354">
        <ele>524</ele>
        <time>2021-10-23T12:39:54Z</time>
      </trkpt>
      <trkpt lat="46.54354" lon="5.53359">
        <ele>524.4</ele>
        <time>2021-10-23T12:39:55Z</time>
      </trkpt>
      <trkpt lat="46.54348" lon="5.53388">
        <ele>525</ele>
        <time>2021-10-23T12:40:00Z</time>
      </trkpt>
      <trkpt lat="46.54346" lon="5.53394">
        <ele>525.2</ele>
        <time>2021-10-23T12:40:01Z</time>
      </trkpt>
      <trkpt lat="46.5434" lon="5.5341">
        <ele>525.2</ele>
        <time>2021-10-23T12:40:04Z</time>
      </trkpt>
      <trkpt lat="46.54332" lon="5.53423">
        <ele>525.8</ele>
        <time>2021-10-23T12:40:07Z</time>
      </trkpt>
      <trkpt lat="46.54323" lon="5.53434">
        <ele>526</ele>
        <time>2021-10-23T12:40:10Z</time>
      </trkpt>
      <trkpt lat="46.54305" lon="5.53456">
        <ele>527</ele>
        <time>2021-10-23T12:40:16Z</time>
      </trkpt>
      <trkpt lat="46.54303" lon="5.5346">
        <ele>527.2</ele>
        <time>2021-10-23T12:40:17Z</time>
      </trkpt>
      <trkpt lat="46.54289" lon="5.53486">
        <ele>528.4</ele>
        <time>2021-10-23T12:40:22Z</time>
      </trkpt>
      <trkpt lat="46.54287" lon="5.53491">
        <ele>528.4</ele>
        <time>2021-10-23T12:40:23Z</time>
      </trkpt>
      <trkpt lat="46.54271" lon="5.53538">
        <ele>529.2</ele>
        <time>2021-10-23T12:40:30Z</time>
      </trkpt>
      <trkpt lat="46.54263" lon="5.53557">
        <ele>529.2</ele>
        <time>2021-10-23T12:40:33Z</time>
      </trkpt>
      <trkpt lat="46.54248" lon="5.53589">
        <ele>529.6</ele>
        <time>2021-10-23T12:40:38Z</time>
      </trkpt>
      <trkpt lat="46.54219" lon="5.53645">
        <ele>530.2</ele>
        <time>2021-10-23T12:40:47Z</time>
      </trkpt>
      <trkpt lat="46.54216" lon="5.53651">
        <ele>530.4</ele>
        <time>2021-10-23T12:40:48Z</time>
      </trkpt>
      <trkpt lat="46.54213" lon="5.53658">
        <ele>530.4</ele>
        <time>2021-10-23T12:40:49Z</time>
      </trkpt>
      <trkpt lat="46.54207" lon="5.53678">
        <ele>530.6</ele>
        <time>2021-10-23T12:40:52Z</time>
      </trkpt>
      <trkpt lat="46.54205" lon="5.53685">
        <ele>530.6</ele>
        <time>2021-10-23T12:40:53Z</time>
      </trkpt>
      <trkpt lat="46.54201" lon="5.53742">
        <ele>531.2</ele>
        <time>2021-10-23T12:41:00Z</time>
      </trkpt>
      <trkpt lat="46.54198" lon="5.53798">
        <ele>532</ele>
        <time>2021-10-23T12:41:07Z</time>
      </trkpt>
      <trkpt lat="46.54197" lon="5.53806">
        <ele>532</ele>
        <time>2021-10-23T12:41:08Z</time>
      </trkpt>
      <trkpt lat="46.54197" lon="5.53839">
        <ele>532.2</ele>
        <time>2021-10-23T12:41:12Z</time>
      </trkpt>
      <trkpt lat="46.54197" lon="5.53847">
        <ele>532.4</ele>
        <time>2021-10-23T12:41:13Z</time>
      </trkpt>
      <trkpt lat="46.54196" lon="5.53863">
        <ele>532.6</ele>
        <time>2021-10-23T12:41:15Z</time>
      </trkpt>
      <trkpt lat="46.54196" lon="5.53897">
        <ele>533</ele>
        <time>2021-10-23T12:41:19Z</time>
      </trkpt>
      <trkpt lat="46.54195" lon="5.53927">
        <ele>533.4</ele>
        <time>2021-10-23T12:41:22Z</time>
      </trkpt>
      <trkpt lat="46.54193" lon="5.53943">
        <ele>533.4</ele>
        <time>2021-10-23T12:41:24Z</time>
      </trkpt>
      <trkpt lat="46.54191" lon="5.53961">
        <ele>533.4</ele>
        <time>2021-10-23T12:41:26Z</time>
      </trkpt>
      <trkpt lat="46.54189" lon="5.53969">
        <ele>533.4</ele>
        <time>2021-10-23T12:41:27Z</time>
      </trkpt>
      <trkpt lat="46.54178" lon="5.54011">
        <ele>533.2</ele>
        <time>2021-10-23T12:41:32Z</time>
      </trkpt>
      <trkpt lat="46.54158" lon="5.54086">
        <ele>533.8</ele>
        <time>2021-10-23T12:41:41Z</time>
      </trkpt>
      <trkpt lat="46.54155" lon="5.54094">
        <ele>534</ele>
        <time>2021-10-23T12:41:42Z</time>
      </trkpt>
      <trkpt lat="46.54144" lon="5.54134">
        <ele>534.6</ele>
        <time>2021-10-23T12:41:47Z</time>
      </trkpt>
      <trkpt lat="46.5414" lon="5.54149">
        <ele>534.8</ele>
        <time>2021-10-23T12:41:49Z</time>
      </trkpt>
      <trkpt lat="46.54132" lon="5.54176">
        <ele>535.8</ele>
        <time>2021-10-23T12:41:53Z</time>
      </trkpt>
      <trkpt lat="46.54127" lon="5.5419">
        <ele>536.2</ele>
        <time>2021-10-23T12:41:55Z</time>
      </trkpt>
      <trkpt lat="46.54117" lon="5.54224">
        <ele>536.8</ele>
        <time>2021-10-23T12:42:00Z</time>
      </trkpt>
      <trkpt lat="46.54114" lon="5.54237">
        <ele>537.2</ele>
        <time>2021-10-23T12:42:02Z</time>
      </trkpt>
      <trkpt lat="46.54105" lon="5.54275">
        <ele>538.2</ele>
        <time>2021-10-23T12:42:08Z</time>
      </trkpt>
      <trkpt lat="46.54103" lon="5.54281">
        <ele>538.4</ele>
        <time>2021-10-23T12:42:09Z</time>
      </trkpt>
      <trkpt lat="46.54102" lon="5.54286">
        <ele>539.2</ele>
        <time>2021-10-23T12:42:10Z</time>
      </trkpt>
      <trkpt lat="46.54098" lon="5.54299">
        <ele>540.2</ele>
        <time>2021-10-23T12:42:12Z</time>
      </trkpt>
      <trkpt lat="46.54097" lon="5.54307">
        <ele>540.6</ele>
        <time>2021-10-23T12:42:13Z</time>
      </trkpt>
      <trkpt lat="46.54092" lon="5.54328">
        <ele>541</ele>
        <time>2021-10-23T12:42:16Z</time>
      </trkpt>
      <trkpt lat="46.54088" lon="5.54341">
        <ele>541.4</ele>
        <time>2021-10-23T12:42:18Z</time>
      </trkpt>
      <trkpt lat="46.54086" lon="5.54348">
        <ele>541.8</ele>
        <time>2021-10-23T12:42:19Z</time>
      </trkpt>
      <trkpt lat="46.54084" lon="5.54355">
        <ele>541.8</ele>
        <time>2021-10-23T12:42:20Z</time>
      </trkpt>
      <trkpt lat="46.54079" lon="5.54371">
        <ele>542.6</ele>
        <time>2021-10-23T12:42:22Z</time>
      </trkpt>
      <trkpt lat="46.54077" lon="5.54378">
        <ele>543</ele>
        <time>2021-10-23T12:42:23Z</time>
      </trkpt>
      <trkpt lat="46.54075" lon="5.5439">
        <ele>543.4</ele>
        <time>2021-10-23T12:42:25Z</time>
      </trkpt>
      <trkpt lat="46.54072" lon="5.54397">
        <ele>543.8</ele>
        <time>2021-10-23T12:42:26Z</time>
      </trkpt>
      <trkpt lat="46.54064" lon="5.54425">
        <ele>544.8</ele>
        <time>2021-10-23T12:42:30Z</time>
      </trkpt>
      <trkpt lat="46.54059" lon="5.54445">
        <ele>545.6</ele>
        <time>2021-10-23T12:42:33Z</time>
      </trkpt>
      <trkpt lat="46.54055" lon="5.54459">
        <ele>545.8</ele>
        <time>2021-10-23T12:42:35Z</time>
      </trkpt>
      <trkpt lat="46.54039" lon="5.54514">
        <ele>546.4</ele>
        <time>2021-10-23T12:42:43Z</time>
      </trkpt>
      <trkpt lat="46.54033" lon="5.54537">
        <ele>547</ele>
        <time>2021-10-23T12:42:47Z</time>
      </trkpt>
      <trkpt lat="46.54021" lon="5.54582">
        <ele>547.6</ele>
        <time>2021-10-23T12:42:52Z</time>
      </trkpt>
      <trkpt lat="46.54005" lon="5.54642">
        <ele>548</ele>
        <time>2021-10-23T12:43:00Z</time>
      </trkpt>
      <trkpt lat="46.54003" lon="5.54649">
        <ele>548</ele>
        <time>2021-10-23T12:43:01Z</time>
      </trkpt>
      <trkpt lat="46.53986" lon="5.54699">
        <ele>549</ele>
        <time>2021-10-23T12:43:08Z</time>
      </trkpt>
      <trkpt lat="46.53983" lon="5.54706">
        <ele>549</ele>
        <time>2021-10-23T12:43:09Z</time>
      </trkpt>
      <trkpt lat="46.53959" lon="5.54742">
        <ele>549.6</ele>
        <time>2021-10-23T12:43:15Z</time>
      </trkpt>
      <trkpt lat="46.53917" lon="5.5478">
        <ele>549.4</ele>
        <time>2021-10-23T12:43:23Z</time>
      </trkpt>
      <trkpt lat="46.53879" lon="5.54796">
        <ele>548.8</ele>
        <time>2021-10-23T12:43:29Z</time>
      </trkpt>
      <trkpt lat="46.5382" lon="5.54809">
        <ele>548.2</ele>
        <time>2021-10-23T12:43:38Z</time>
      </trkpt>
      <trkpt lat="46.53814" lon="5.5481">
        <ele>548</ele>
        <time>2021-10-23T12:43:39Z</time>
      </trkpt>
      <trkpt lat="46.53763" lon="5.54815">
        <ele>546.8</ele>
        <time>2021-10-23T12:43:46Z</time>
      </trkpt>
      <trkpt lat="46.53726" lon="5.54804">
        <ele>545.6</ele>
        <time>2021-10-23T12:43:51Z</time>
      </trkpt>
      <trkpt lat="46.53718" lon="5.54802">
        <ele>545.4</ele>
        <time>2021-10-23T12:43:52Z</time>
      </trkpt>
      <trkpt lat="46.53681" lon="5.54788">
        <ele>544.4</ele>
        <time>2021-10-23T12:43:57Z</time>
      </trkpt>
      <trkpt lat="46.53655" lon="5.54779">
        <ele>543.6</ele>
        <time>2021-10-23T12:44:00Z</time>
      </trkpt>
      <trkpt lat="46.53649" lon="5.54777">
        <ele>543.2</ele>
        <time>2021-10-23T12:44:01Z</time>
      </trkpt>
      <trkpt lat="46.53625" lon="5.54769">
        <ele>542</ele>
        <time>2021-10-23T12:44:04Z</time>
      </trkpt>
      <trkpt lat="46.53592" lon="5.54758">
        <ele>541</ele>
        <time>2021-10-23T12:44:08Z</time>
      </trkpt>
      <trkpt lat="46.53582" lon="5.54754">
        <ele>540.6</ele>
        <time>2021-10-23T12:44:09Z</time>
      </trkpt>
      <trkpt lat="46.53558" lon="5.54746">
        <ele>540</ele>
        <time>2021-10-23T12:44:12Z</time>
      </trkpt>
      <trkpt lat="46.53539" lon="5.5474">
        <ele>539</ele>
        <time>2021-10-23T12:44:14Z</time>
      </trkpt>
      <trkpt lat="46.53514" lon="5.54732">
        <ele>538</ele>
        <time>2021-10-23T12:44:17Z</time>
      </trkpt>
      <trkpt lat="46.53505" lon="5.54729">
        <ele>537.6</ele>
        <time>2021-10-23T12:44:18Z</time>
      </trkpt>
      <trkpt lat="46.5347" lon="5.54716">
        <ele>536.2</ele>
        <time>2021-10-23T12:44:22Z</time>
      </trkpt>
      <trkpt lat="46.53443" lon="5.54706">
        <ele>535.2</ele>
        <time>2021-10-23T12:44:25Z</time>
      </trkpt>
      <trkpt lat="46.53434" lon="5.54704">
        <ele>535</ele>
        <time>2021-10-23T12:44:26Z</time>
      </trkpt>
      <trkpt lat="46.53407" lon="5.54695">
        <ele>534</ele>
        <time>2021-10-23T12:44:29Z</time>
      </trkpt>
      <trkpt lat="46.53354" lon="5.54678">
        <ele>532.8</ele>
        <time>2021-10-23T12:44:35Z</time>
      </trkpt>
      <trkpt lat="46.53311" lon="5.54664">
        <ele>531.8</ele>
        <time>2021-10-23T12:44:40Z</time>
      </trkpt>
      <trkpt lat="46.53287" lon="5.54657">
        <ele>531.2</ele>
        <time>2021-10-23T12:44:43Z</time>
      </trkpt>
      <trkpt lat="46.53268" lon="5.54652">
        <ele>530.6</ele>
        <time>2021-10-23T12:44:45Z</time>
      </trkpt>
      <trkpt lat="46.53244" lon="5.54646">
        <ele>529.4</ele>
        <time>2021-10-23T12:44:48Z</time>
      </trkpt>
      <trkpt lat="46.53225" lon="5.54643">
        <ele>529</ele>
        <time>2021-10-23T12:44:50Z</time>
      </trkpt>
      <trkpt lat="46.532" lon="5.54641">
        <ele>528.4</ele>
        <time>2021-10-23T12:44:53Z</time>
      </trkpt>
      <trkpt lat="46.5316" lon="5.54636">
        <ele>527.2</ele>
        <time>2021-10-23T12:44:57Z</time>
      </trkpt>
      <trkpt lat="46.53153" lon="5.54634">
        <ele>527</ele>
        <time>2021-10-23T12:44:58Z</time>
      </trkpt>
      <trkpt lat="46.53131" lon="5.5463">
        <ele>526</ele>
        <time>2021-10-23T12:45:00Z</time>
      </trkpt>
      <trkpt lat="46.53101" lon="5.54626">
        <ele>524.8</ele>
        <time>2021-10-23T12:45:03Z</time>
      </trkpt>
      <trkpt lat="46.53081" lon="5.54625">
        <ele>523.6</ele>
        <time>2021-10-23T12:45:05Z</time>
      </trkpt>
      <trkpt lat="46.53062" lon="5.54624">
        <ele>522.6</ele>
        <time>2021-10-23T12:45:07Z</time>
      </trkpt>
      <trkpt lat="46.53024" lon="5.54621">
        <ele>521.4</ele>
        <time>2021-10-23T12:45:11Z</time>
      </trkpt>
      <trkpt lat="46.53015" lon="5.5462">
        <ele>521.2</ele>
        <time>2021-10-23T12:45:12Z</time>
      </trkpt>
      <trkpt lat="46.52978" lon="5.54615">
        <ele>520.2</ele>
        <time>2021-10-23T12:45:16Z</time>
      </trkpt>
      <trkpt lat="46.5295" lon="5.54613">
        <ele>518.8</ele>
        <time>2021-10-23T12:45:19Z</time>
      </trkpt>
      <trkpt lat="46.52941" lon="5.54613">
        <ele>518.4</ele>
        <time>2021-10-23T12:45:20Z</time>
      </trkpt>
      <trkpt lat="46.52905" lon="5.54611">
        <ele>517.4</ele>
        <time>2021-10-23T12:45:24Z</time>
      </trkpt>
      <trkpt lat="46.52878" lon="5.54608">
        <ele>517</ele>
        <time>2021-10-23T12:45:27Z</time>
      </trkpt>
      <trkpt lat="46.5286" lon="5.54606">
        <ele>516.4</ele>
        <time>2021-10-23T12:45:29Z</time>
      </trkpt>
      <trkpt lat="46.52824" lon="5.54604">
        <ele>515.2</ele>
        <time>2021-10-23T12:45:33Z</time>
      </trkpt>
      <trkpt lat="46.52794" lon="5.54603">
        <ele>513.8</ele>
        <time>2021-10-23T12:45:36Z</time>
      </trkpt>
      <trkpt lat="46.52773" lon="5.54603">
        <ele>513.2</ele>
        <time>2021-10-23T12:45:38Z</time>
      </trkpt>
      <trkpt lat="46.52752" lon="5.54604">
        <ele>512.4</ele>
        <time>2021-10-23T12:45:40Z</time>
      </trkpt>
      <trkpt lat="46.52732" lon="5.54616">
        <ele>510.6</ele>
        <time>2021-10-23T12:45:42Z</time>
      </trkpt>
      <trkpt lat="46.52721" lon="5.54642">
        <ele>509.6</ele>
        <time>2021-10-23T12:45:44Z</time>
      </trkpt>
      <trkpt lat="46.52719" lon="5.54658">
        <ele>509.2</ele>
        <time>2021-10-23T12:45:45Z</time>
      </trkpt>
      <trkpt lat="46.52717" lon="5.54689">
        <ele>508.4</ele>
        <time>2021-10-23T12:45:47Z</time>
      </trkpt>
      <trkpt lat="46.52716" lon="5.54702">
        <ele>507.8</ele>
        <time>2021-10-23T12:45:48Z</time>
      </trkpt>
      <trkpt lat="46.52715" lon="5.54721">
        <ele>506.4</ele>
        <time>2021-10-23T12:45:49Z</time>
      </trkpt>
      <trkpt lat="46.52713" lon="5.54751">
        <ele>504.8</ele>
        <time>2021-10-23T12:45:51Z</time>
      </trkpt>
      <trkpt lat="46.52711" lon="5.54806">
        <ele>503.8</ele>
        <time>2021-10-23T12:45:55Z</time>
      </trkpt>
      <trkpt lat="46.52706" lon="5.54882">
        <ele>502.6</ele>
        <time>2021-10-23T12:46:00Z</time>
      </trkpt>
      <trkpt lat="46.52701" lon="5.54942">
        <ele>501.6</ele>
        <time>2021-10-23T12:46:04Z</time>
      </trkpt>
      <trkpt lat="46.52699" lon="5.54973">
        <ele>501.2</ele>
        <time>2021-10-23T12:46:06Z</time>
      </trkpt>
      <trkpt lat="46.52697" lon="5.55004">
        <ele>500.2</ele>
        <time>2021-10-23T12:46:08Z</time>
      </trkpt>
      <trkpt lat="46.52693" lon="5.5505">
        <ele>499.2</ele>
        <time>2021-10-23T12:46:11Z</time>
      </trkpt>
      <trkpt lat="46.52691" lon="5.55077">
        <ele>498</ele>
        <time>2021-10-23T12:46:13Z</time>
      </trkpt>
      <trkpt lat="46.52688" lon="5.55123">
        <ele>497</ele>
        <time>2021-10-23T12:46:16Z</time>
      </trkpt>
      <trkpt lat="46.52682" lon="5.55205">
        <ele>496.8</ele>
        <time>2021-10-23T12:46:22Z</time>
      </trkpt>
      <trkpt lat="46.52681" lon="5.55218">
        <ele>496.6</ele>
        <time>2021-10-23T12:46:23Z</time>
      </trkpt>
      <trkpt lat="46.52675" lon="5.55294">
        <ele>496.2</ele>
        <time>2021-10-23T12:46:29Z</time>
      </trkpt>
      <trkpt lat="46.52674" lon="5.55306">
        <ele>496</ele>
        <time>2021-10-23T12:46:30Z</time>
      </trkpt>
      <trkpt lat="46.52667" lon="5.55396">
        <ele>495.8</ele>
        <time>2021-10-23T12:46:37Z</time>
      </trkpt>
      <trkpt lat="46.52664" lon="5.55435">
        <ele>495</ele>
        <time>2021-10-23T12:46:40Z</time>
      </trkpt>
      <trkpt lat="46.52658" lon="5.55513">
        <ele>494.2</ele>
        <time>2021-10-23T12:46:46Z</time>
      </trkpt>
      <trkpt lat="46.52657" lon="5.55526">
        <ele>494</ele>
        <time>2021-10-23T12:46:47Z</time>
      </trkpt>
      <trkpt lat="46.52656" lon="5.55538">
        <ele>493.8</ele>
        <time>2021-10-23T12:46:48Z</time>
      </trkpt>
      <trkpt lat="46.52649" lon="5.55626">
        <ele>493.6</ele>
        <time>2021-10-23T12:46:55Z</time>
      </trkpt>
      <trkpt lat="46.52647" lon="5.55651">
        <ele>493.6</ele>
        <time>2021-10-23T12:46:57Z</time>
      </trkpt>
      <trkpt lat="46.5264" lon="5.55734">
        <ele>493.4</ele>
        <time>2021-10-23T12:47:04Z</time>
      </trkpt>
      <trkpt lat="46.52639" lon="5.55746">
        <ele>493.4</ele>
        <time>2021-10-23T12:47:05Z</time>
      </trkpt>
      <trkpt lat="46.52633" lon="5.55827">
        <ele>493.6</ele>
        <time>2021-10-23T12:47:12Z</time>
      </trkpt>
      <trkpt lat="46.5263" lon="5.55862">
        <ele>493.6</ele>
        <time>2021-10-23T12:47:15Z</time>
      </trkpt>
      <trkpt lat="46.52624" lon="5.55945">
        <ele>493.8</ele>
        <time>2021-10-23T12:47:22Z</time>
      </trkpt>
      <trkpt lat="46.52622" lon="5.55969">
        <ele>493.6</ele>
        <time>2021-10-23T12:47:24Z</time>
      </trkpt>
      <trkpt lat="46.52617" lon="5.5605">
        <ele>493.6</ele>
        <time>2021-10-23T12:47:31Z</time>
      </trkpt>
      <trkpt lat="46.52615" lon="5.56072">
        <ele>493.6</ele>
        <time>2021-10-23T12:47:33Z</time>
      </trkpt>
      <trkpt lat="46.52613" lon="5.56113">
        <ele>493.8</ele>
        <time>2021-10-23T12:47:37Z</time>
      </trkpt>
      <trkpt lat="46.5262" lon="5.56126">
        <ele>493.8</ele>
        <time>2021-10-23T12:47:39Z</time>
      </trkpt>
      <trkpt lat="46.52624" lon="5.56129">
        <ele>494</ele>
        <time>2021-10-23T12:47:40Z</time>
      </trkpt>
      <trkpt lat="46.52628" lon="5.56129">
        <ele>494.2</ele>
        <time>2021-10-23T12:47:41Z</time>
      </trkpt>
      <trkpt lat="46.5264" lon="5.56123">
        <ele>494.4</ele>
        <time>2021-10-23T12:47:43Z</time>
      </trkpt>
      <trkpt lat="46.52674" lon="5.56107">
        <ele>494.6</ele>
        <time>2021-10-23T12:47:49Z</time>
      </trkpt>
      <trkpt lat="46.52709" lon="5.5609">
        <ele>495</ele>
        <time>2021-10-23T12:47:55Z</time>
      </trkpt>
      <trkpt lat="46.52714" lon="5.5609">
        <ele>495</ele>
        <time>2021-10-23T12:47:56Z</time>
      </trkpt>
      <trkpt lat="46.52719" lon="5.56093">
        <ele>495</ele>
        <time>2021-10-23T12:47:57Z</time>
      </trkpt>
      <trkpt lat="46.52723" lon="5.56098">
        <ele>495</ele>
        <time>2021-10-23T12:47:58Z</time>
      </trkpt>
      <trkpt lat="46.52726" lon="5.56105">
        <ele>495</ele>
        <time>2021-10-23T12:47:59Z</time>
      </trkpt>
      <trkpt lat="46.5273" lon="5.56119">
        <ele>495.2</ele>
        <time>2021-10-23T12:48:01Z</time>
      </trkpt>
      <trkpt lat="46.52732" lon="5.56126">
        <ele>495.2</ele>
        <time>2021-10-23T12:48:02Z</time>
      </trkpt>
      <trkpt lat="46.52745" lon="5.56173">
        <ele>495.6</ele>
        <time>2021-10-23T12:48:08Z</time>
      </trkpt>
      <trkpt lat="46.52761" lon="5.56233">
        <ele>495.6</ele>
        <time>2021-10-23T12:48:15Z</time>
      </trkpt>
      <trkpt lat="46.52781" lon="5.56313">
        <ele>495.2</ele>
        <time>2021-10-23T12:48:24Z</time>
      </trkpt>
      <trkpt lat="46.52785" lon="5.5633">
        <ele>495.2</ele>
        <time>2021-10-23T12:48:26Z</time>
      </trkpt>
      <trkpt lat="46.52804" lon="5.56411">
        <ele>495.6</ele>
        <time>2021-10-23T12:48:35Z</time>
      </trkpt>
      <trkpt lat="46.52809" lon="5.56429">
        <ele>495.8</ele>
        <time>2021-10-23T12:48:37Z</time>
      </trkpt>
      <trkpt lat="46.52829" lon="5.5651">
        <ele>496.2</ele>
        <time>2021-10-23T12:48:46Z</time>
      </trkpt>
      <trkpt lat="46.52831" lon="5.56518">
        <ele>496.6</ele>
        <time>2021-10-23T12:48:47Z</time>
      </trkpt>
      <trkpt lat="46.52838" lon="5.56541">
        <ele>497</ele>
        <time>2021-10-23T12:48:50Z</time>
      </trkpt>
      <trkpt lat="46.52843" lon="5.56565">
        <ele>497.2</ele>
        <time>2021-10-23T12:48:53Z</time>
      </trkpt>
      <trkpt lat="46.52852" lon="5.56598">
        <ele>497.8</ele>
        <time>2021-10-23T12:48:57Z</time>
      </trkpt>
      <trkpt lat="46.52862" lon="5.56642">
        <ele>498.4</ele>
        <time>2021-10-23T12:49:02Z</time>
      </trkpt>
      <trkpt lat="46.52869" lon="5.56677">
        <ele>498.8</ele>
        <time>2021-10-23T12:49:06Z</time>
      </trkpt>
      <trkpt lat="46.5288" lon="5.56729">
        <ele>499.8</ele>
        <time>2021-10-23T12:49:12Z</time>
      </trkpt>
      <trkpt lat="46.52882" lon="5.56737">
        <ele>500</ele>
        <time>2021-10-23T12:49:13Z</time>
      </trkpt>
      <trkpt lat="46.52899" lon="5.56817">
        <ele>500.8</ele>
        <time>2021-10-23T12:49:22Z</time>
      </trkpt>
      <trkpt lat="46.52901" lon="5.56826">
        <ele>500.8</ele>
        <time>2021-10-23T12:49:23Z</time>
      </trkpt>
      <trkpt lat="46.52919" lon="5.56903">
        <ele>500.4</ele>
        <time>2021-10-23T12:49:31Z</time>
      </trkpt>
      <trkpt lat="46.52931" lon="5.56951">
        <ele>500.2</ele>
        <time>2021-10-23T12:49:36Z</time>
      </trkpt>
      <trkpt lat="46.52953" lon="5.57006">
        <ele>500.4</ele>
        <time>2021-10-23T12:49:42Z</time>
      </trkpt>
      <trkpt lat="46.52984" lon="5.57052">
        <ele>499.8</ele>
        <time>2021-10-23T12:49:48Z</time>
      </trkpt>
      <trkpt lat="46.52987" lon="5.57059">
        <ele>499.6</ele>
        <time>2021-10-23T12:49:49Z</time>
      </trkpt>
      <trkpt lat="46.52993" lon="5.5707">
        <ele>499.6</ele>
        <time>2021-10-23T12:49:50Z</time>
      </trkpt>
      <trkpt lat="46.53008" lon="5.57107">
        <ele>499.2</ele>
        <time>2021-10-23T12:49:54Z</time>
      </trkpt>
      <trkpt lat="46.53023" lon="5.57145">
        <ele>498.6</ele>
        <time>2021-10-23T12:49:58Z</time>
      </trkpt>
      <trkpt lat="46.53044" lon="5.57197">
        <ele>498.4</ele>
        <time>2021-10-23T12:50:04Z</time>
      </trkpt>
      <trkpt lat="46.53056" lon="5.57229">
        <ele>498.6</ele>
        <time>2021-10-23T12:50:08Z</time>
      </trkpt>
      <trkpt lat="46.53058" lon="5.57236">
        <ele>498.8</ele>
        <time>2021-10-23T12:50:09Z</time>
      </trkpt>
      <trkpt lat="46.53068" lon="5.57259">
        <ele>499.6</ele>
        <time>2021-10-23T12:50:12Z</time>
      </trkpt>
      <trkpt lat="46.53081" lon="5.57292">
        <ele>500.6</ele>
        <time>2021-10-23T12:50:16Z</time>
      </trkpt>
      <trkpt lat="46.53084" lon="5.57298">
        <ele>500.8</ele>
        <time>2021-10-23T12:50:17Z</time>
      </trkpt>
      <trkpt lat="46.53092" lon="5.57313">
        <ele>500.8</ele>
        <time>2021-10-23T12:50:19Z</time>
      </trkpt>
      <trkpt lat="46.53101" lon="5.57326">
        <ele>501</ele>
        <time>2021-10-23T12:50:21Z</time>
      </trkpt>
      <trkpt lat="46.53106" lon="5.57331">
        <ele>501</ele>
        <time>2021-10-23T12:50:22Z</time>
      </trkpt>
      <trkpt lat="46.53138" lon="5.57355">
        <ele>501.8</ele>
        <time>2021-10-23T12:50:28Z</time>
      </trkpt>
      <trkpt lat="46.5315" lon="5.57362">
        <ele>502.4</ele>
        <time>2021-10-23T12:50:30Z</time>
      </trkpt>
      <trkpt lat="46.5316" lon="5.57371">
        <ele>503.2</ele>
        <time>2021-10-23T12:50:32Z</time>
      </trkpt>
      <trkpt lat="46.5317" lon="5.57378">
        <ele>503.4</ele>
        <time>2021-10-23T12:50:34Z</time>
      </trkpt>
      <trkpt lat="46.5321" lon="5.57409">
        <ele>503.8</ele>
        <time>2021-10-23T12:50:41Z</time>
      </trkpt>
      <trkpt lat="46.53239" lon="5.57446">
        <ele>504</ele>
        <time>2021-10-23T12:50:47Z</time>
      </trkpt>
      <trkpt lat="46.53249" lon="5.57461">
        <ele>504.2</ele>
        <time>2021-10-23T12:50:49Z</time>
      </trkpt>
      <trkpt lat="46.53262" lon="5.57484">
        <ele>504.6</ele>
        <time>2021-10-23T12:50:52Z</time>
      </trkpt>
      <trkpt lat="46.53276" lon="5.57533">
        <ele>504.8</ele>
        <time>2021-10-23T12:50:57Z</time>
      </trkpt>
      <trkpt lat="46.53285" lon="5.57603">
        <ele>504.8</ele>
        <time>2021-10-23T12:51:04Z</time>
      </trkpt>
      <trkpt lat="46.53283" lon="5.5765">
        <ele>504.8</ele>
        <time>2021-10-23T12:51:09Z</time>
      </trkpt>
      <trkpt lat="46.53284" lon="5.57667">
        <ele>504.6</ele>
        <time>2021-10-23T12:51:11Z</time>
      </trkpt>
      <trkpt lat="46.53286" lon="5.57682">
        <ele>504.8</ele>
        <time>2021-10-23T12:51:13Z</time>
      </trkpt>
      <trkpt lat="46.53288" lon="5.57688">
        <ele>504.8</ele>
        <time>2021-10-23T12:51:14Z</time>
      </trkpt>
      <trkpt lat="46.53291" lon="5.57695">
        <ele>504.8</ele>
        <time>2021-10-23T12:51:15Z</time>
      </trkpt>
      <trkpt lat="46.53302" lon="5.57715">
        <ele>505.4</ele>
        <time>2021-10-23T12:51:18Z</time>
      </trkpt>
      <trkpt lat="46.53307" lon="5.57721">
        <ele>505.4</ele>
        <time>2021-10-23T12:51:19Z</time>
      </trkpt>
      <trkpt lat="46.53318" lon="5.57731">
        <ele>505.6</ele>
        <time>2021-10-23T12:51:21Z</time>
      </trkpt>
      <trkpt lat="46.5333" lon="5.57737">
        <ele>505.4</ele>
        <time>2021-10-23T12:51:23Z</time>
      </trkpt>
      <trkpt lat="46.53363" lon="5.57749">
        <ele>504.4</ele>
        <time>2021-10-23T12:51:28Z</time>
      </trkpt>
      <trkpt lat="46.5337" lon="5.57751">
        <ele>503.8</ele>
        <time>2021-10-23T12:51:29Z</time>
      </trkpt>
      <trkpt lat="46.53395" lon="5.57757">
        <ele>502.6</ele>
        <time>2021-10-23T12:51:32Z</time>
      </trkpt>
      <trkpt lat="46.53409" lon="5.57762">
        <ele>502.4</ele>
        <time>2021-10-23T12:51:34Z</time>
      </trkpt>
      <trkpt lat="46.53417" lon="5.57765">
        <ele>502.2</ele>
        <time>2021-10-23T12:51:35Z</time>
      </trkpt>
      <trkpt lat="46.53456" lon="5.57792">
        <ele>502.6</ele>
        <time>2021-10-23T12:51:40Z</time>
      </trkpt>
      <trkpt lat="46.53462" lon="5.57797">
        <ele>502.6</ele>
        <time>2021-10-23T12:51:41Z</time>
      </trkpt>
      <trkpt lat="46.53501" lon="5.57837">
        <ele>502.2</ele>
        <time>2021-10-23T12:51:46Z</time>
      </trkpt>
      <trkpt lat="46.53536" lon="5.57863">
        <ele>500.8</ele>
        <time>2021-10-23T12:51:50Z</time>
      </trkpt>
      <trkpt lat="46.53545" lon="5.57869">
        <ele>500.4</ele>
        <time>2021-10-23T12:51:51Z</time>
      </trkpt>
      <trkpt lat="46.53556" lon="5.57875">
        <ele>499</ele>
        <time>2021-10-23T12:51:52Z</time>
      </trkpt>
      <trkpt lat="46.53574" lon="5.57883">
        <ele>497.8</ele>
        <time>2021-10-23T12:51:54Z</time>
      </trkpt>
      <trkpt lat="46.5359" lon="5.57889">
        <ele>496.8</ele>
        <time>2021-10-23T12:51:56Z</time>
      </trkpt>
      <trkpt lat="46.53599" lon="5.57893">
        <ele>496.6</ele>
        <time>2021-10-23T12:51:57Z</time>
      </trkpt>
      <trkpt lat="46.5363" lon="5.57905">
        <ele>496.2</ele>
        <time>2021-10-23T12:52:01Z</time>
      </trkpt>
      <trkpt lat="46.53679" lon="5.57921">
        <ele>497</ele>
        <time>2021-10-23T12:52:08Z</time>
      </trkpt>
      <trkpt lat="46.53698" lon="5.57927">
        <ele>497.6</ele>
        <time>2021-10-23T12:52:11Z</time>
      </trkpt>
      <trkpt lat="46.53727" lon="5.57935">
        <ele>498.6</ele>
        <time>2021-10-23T12:52:16Z</time>
      </trkpt>
      <trkpt lat="46.53732" lon="5.57937">
        <ele>498.8</ele>
        <time>2021-10-23T12:52:17Z</time>
      </trkpt>
      <trkpt lat="46.53759" lon="5.57945">
        <ele>500</ele>
        <time>2021-10-23T12:52:22Z</time>
      </trkpt>
      <trkpt lat="46.53764" lon="5.57946">
        <ele>500.2</ele>
        <time>2021-10-23T12:52:23Z</time>
      </trkpt>
      <trkpt lat="46.53785" lon="5.57953">
        <ele>500.6</ele>
        <time>2021-10-23T12:52:27Z</time>
      </trkpt>
      <trkpt lat="46.53805" lon="5.5796">
        <ele>501.4</ele>
        <time>2021-10-23T12:52:31Z</time>
      </trkpt>
      <trkpt lat="46.53815" lon="5.57963">
        <ele>501.8</ele>
        <time>2021-10-23T12:52:33Z</time>
      </trkpt>
      <trkpt lat="46.53824" lon="5.57967">
        <ele>502.4</ele>
        <time>2021-10-23T12:52:35Z</time>
      </trkpt>
      <trkpt lat="46.53849" lon="5.57974">
        <ele>503.6</ele>
        <time>2021-10-23T12:52:40Z</time>
      </trkpt>
      <trkpt lat="46.53874" lon="5.57983">
        <ele>504.2</ele>
        <time>2021-10-23T12:52:45Z</time>
      </trkpt>
      <trkpt lat="46.53884" lon="5.57986">
        <ele>504.8</ele>
        <time>2021-10-23T12:52:47Z</time>
      </trkpt>
      <trkpt lat="46.53898" lon="5.5799">
        <ele>506</ele>
        <time>2021-10-23T12:52:50Z</time>
      </trkpt>
      <trkpt lat="46.53906" lon="5.57991">
        <ele>506.4</ele>
        <time>2021-10-23T12:52:52Z</time>
      </trkpt>
      <trkpt lat="46.53918" lon="5.57992">
        <ele>507.2</ele>
        <time>2021-10-23T12:52:55Z</time>
      </trkpt>
      <trkpt lat="46.5393" lon="5.57994">
        <ele>508.4</ele>
        <time>2021-10-23T12:52:58Z</time>
      </trkpt>
      <trkpt lat="46.53934" lon="5.57994">
        <ele>508.8</ele>
        <time>2021-10-23T12:52:59Z</time>
      </trkpt>
      <trkpt lat="46.53941" lon="5.57995">
        <ele>509.8</ele>
        <time>2021-10-23T12:53:01Z</time>
      </trkpt>
      <trkpt lat="46.53953" lon="5.57995">
        <ele>511.2</ele>
        <time>2021-10-23T12:53:04Z</time>
      </trkpt>
      <trkpt lat="46.53965" lon="5.57997">
        <ele>512.4</ele>
        <time>2021-10-23T12:53:07Z</time>
      </trkpt>
      <trkpt lat="46.53969" lon="5.57998">
        <ele>513</ele>
        <time>2021-10-23T12:53:08Z</time>
      </trkpt>
      <trkpt lat="46.5398" lon="5.58001">
        <ele>513.8</ele>
        <time>2021-10-23T12:53:11Z</time>
      </trkpt>
      <trkpt lat="46.53989" lon="5.58005">
        <ele>515</ele>
        <time>2021-10-23T12:53:13Z</time>
      </trkpt>
      <trkpt lat="46.54001" lon="5.5801">
        <ele>516</ele>
        <time>2021-10-23T12:53:16Z</time>
      </trkpt>
      <trkpt lat="46.54005" lon="5.58011">
        <ele>516.4</ele>
        <time>2021-10-23T12:53:17Z</time>
      </trkpt>
      <trkpt lat="46.5402" lon="5.58021">
        <ele>517.6</ele>
        <time>2021-10-23T12:53:21Z</time>
      </trkpt>
      <trkpt lat="46.54028" lon="5.58025">
        <ele>518.2</ele>
        <time>2021-10-23T12:53:23Z</time>
      </trkpt>
      <trkpt lat="46.54032" lon="5.58027">
        <ele>518.6</ele>
        <time>2021-10-23T12:53:24Z</time>
      </trkpt>
      <trkpt lat="46.54056" lon="5.58049">
        <ele>519.4</ele>
        <time>2021-10-23T12:53:31Z</time>
      </trkpt>
      <trkpt lat="46.54059" lon="5.58053">
        <ele>519.6</ele>
        <time>2021-10-23T12:53:32Z</time>
      </trkpt>
      <trkpt lat="46.54081" lon="5.58079">
        <ele>519.6</ele>
        <time>2021-10-23T12:53:38Z</time>
      </trkpt>
      <trkpt lat="46.54104" lon="5.58107">
        <ele>518.6</ele>
        <time>2021-10-23T12:53:43Z</time>
      </trkpt>
      <trkpt lat="46.5411" lon="5.58113">
        <ele>518.2</ele>
        <time>2021-10-23T12:53:44Z</time>
      </trkpt>
      <trkpt lat="46.54128" lon="5.5813">
        <ele>517.2</ele>
        <time>2021-10-23T12:53:47Z</time>
      </trkpt>
      <trkpt lat="46.54139" lon="5.58142">
        <ele>516</ele>
        <time>2021-10-23T12:53:49Z</time>
      </trkpt>
      <trkpt lat="46.54144" lon="5.58149">
        <ele>515.8</ele>
        <time>2021-10-23T12:53:50Z</time>
      </trkpt>
      <trkpt lat="46.54163" lon="5.5818">
        <ele>515</ele>
        <time>2021-10-23T12:53:54Z</time>
      </trkpt>
      <trkpt lat="46.54167" lon="5.58189">
        <ele>514.8</ele>
        <time>2021-10-23T12:53:55Z</time>
      </trkpt>
      <trkpt lat="46.54172" lon="5.5821">
        <ele>514.4</ele>
        <time>2021-10-23T12:53:57Z</time>
      </trkpt>
      <trkpt lat="46.54176" lon="5.58234">
        <ele>514</ele>
        <time>2021-10-23T12:53:59Z</time>
      </trkpt>
      <trkpt lat="46.54179" lon="5.58246">
        <ele>513.4</ele>
        <time>2021-10-23T12:54:00Z</time>
      </trkpt>
      <trkpt lat="46.54182" lon="5.58257">
        <ele>512.8</ele>
        <time>2021-10-23T12:54:01Z</time>
      </trkpt>
      <trkpt lat="46.54186" lon="5.58268">
        <ele>512.6</ele>
        <time>2021-10-23T12:54:02Z</time>
      </trkpt>
      <trkpt lat="46.54192" lon="5.58277">
        <ele>511.8</ele>
        <time>2021-10-23T12:54:03Z</time>
      </trkpt>
      <trkpt lat="46.54198" lon="5.58285">
        <ele>511.6</ele>
        <time>2021-10-23T12:54:04Z</time>
      </trkpt>
      <trkpt lat="46.54213" lon="5.58296">
        <ele>510.6</ele>
        <time>2021-10-23T12:54:06Z</time>
      </trkpt>
      <trkpt lat="46.54221" lon="5.583">
        <ele>510.2</ele>
        <time>2021-10-23T12:54:07Z</time>
      </trkpt>
      <trkpt lat="46.54242" lon="5.5831">
        <ele>509</ele>
        <time>2021-10-23T12:54:10Z</time>
      </trkpt>
      <trkpt lat="46.54249" lon="5.58314">
        <ele>508.8</ele>
        <time>2021-10-23T12:54:11Z</time>
      </trkpt>
      <trkpt lat="46.54292" lon="5.58335">
        <ele>508.2</ele>
        <time>2021-10-23T12:54:18Z</time>
      </trkpt>
      <trkpt lat="46.54316" lon="5.58347">
        <ele>508.4</ele>
        <time>2021-10-23T12:54:22Z</time>
      </trkpt>
      <trkpt lat="46.54329" lon="5.58354">
        <ele>508.6</ele>
        <time>2021-10-23T12:54:24Z</time>
      </trkpt>
      <trkpt lat="46.54364" lon="5.58371">
        <ele>510.4</ele>
        <time>2021-10-23T12:54:30Z</time>
      </trkpt>
      <trkpt lat="46.5437" lon="5.58374">
        <ele>510.6</ele>
        <time>2021-10-23T12:54:31Z</time>
      </trkpt>
      <trkpt lat="46.54401" lon="5.5839">
        <ele>511.6</ele>
        <time>2021-10-23T12:54:37Z</time>
      </trkpt>
      <trkpt lat="46.54412" lon="5.58395">
        <ele>511.8</ele>
        <time>2021-10-23T12:54:39Z</time>
      </trkpt>
      <trkpt lat="46.54443" lon="5.58409">
        <ele>512.8</ele>
        <time>2021-10-23T12:54:46Z</time>
      </trkpt>
      <trkpt lat="46.54463" lon="5.58416">
        <ele>513.4</ele>
        <time>2021-10-23T12:54:52Z</time>
      </trkpt>
      <trkpt lat="46.54477" lon="5.58421">
        <ele>513.8</ele>
        <time>2021-10-23T12:54:57Z</time>
      </trkpt>
      <trkpt lat="46.54484" lon="5.58423">
        <ele>514</ele>
        <time>2021-10-23T12:54:59Z</time>
      </trkpt>
      <trkpt lat="46.54506" lon="5.58428">
        <ele>515</ele>
        <time>2021-10-23T12:55:06Z</time>
      </trkpt>
      <trkpt lat="46.54527" lon="5.58431">
        <ele>516</ele>
        <time>2021-10-23T12:55:12Z</time>
      </trkpt>
      <trkpt lat="46.54536" lon="5.58431">
        <ele>516</ele>
        <time>2021-10-23T12:55:14Z</time>
      </trkpt>
      <trkpt lat="46.54546" lon="5.58434">
        <ele>516.2</ele>
        <time>2021-10-23T12:55:16Z</time>
      </trkpt>
      <trkpt lat="46.5458" lon="5.58443">
        <ele>516.2</ele>
        <time>2021-10-23T12:55:22Z</time>
      </trkpt>
      <trkpt lat="46.54622" lon="5.58452">
        <ele>516.2</ele>
        <time>2021-10-23T12:55:29Z</time>
      </trkpt>
      <trkpt lat="46.54677" lon="5.58463">
        <ele>515.6</ele>
        <time>2021-10-23T12:55:38Z</time>
      </trkpt>
      <trkpt lat="46.54684" lon="5.58464">
        <ele>515.6</ele>
        <time>2021-10-23T12:55:39Z</time>
      </trkpt>
      <trkpt lat="46.54742" lon="5.58475">
        <ele>515.6</ele>
        <time>2021-10-23T12:55:48Z</time>
      </trkpt>
      <trkpt lat="46.54797" lon="5.58486">
        <ele>515.6</ele>
        <time>2021-10-23T12:55:57Z</time>
      </trkpt>
      <trkpt lat="46.54803" lon="5.58487">
        <ele>515.6</ele>
        <time>2021-10-23T12:55:58Z</time>
      </trkpt>
      <trkpt lat="46.54854" lon="5.58498">
        <ele>515.8</ele>
        <time>2021-10-23T12:56:06Z</time>
      </trkpt>
      <trkpt lat="46.54887" lon="5.58511">
        <ele>515</ele>
        <time>2021-10-23T12:56:11Z</time>
      </trkpt>
      <trkpt lat="46.54894" lon="5.58515">
        <ele>515</ele>
        <time>2021-10-23T12:56:12Z</time>
      </trkpt>
      <trkpt lat="46.54922" lon="5.58529">
        <ele>513.8</ele>
        <time>2021-10-23T12:56:16Z</time>
      </trkpt>
      <trkpt lat="46.54942" lon="5.58541">
        <ele>513.8</ele>
        <time>2021-10-23T12:56:19Z</time>
      </trkpt>
      <trkpt lat="46.54971" lon="5.58557">
        <ele>513.6</ele>
        <time>2021-10-23T12:56:24Z</time>
      </trkpt>
      <trkpt lat="46.55002" lon="5.58574">
        <ele>513.4</ele>
        <time>2021-10-23T12:56:30Z</time>
      </trkpt>
      <trkpt lat="46.55043" lon="5.58595">
        <ele>513.4</ele>
        <time>2021-10-23T12:56:38Z</time>
      </trkpt>
      <trkpt lat="46.55093" lon="5.58622">
        <ele>514.2</ele>
        <time>2021-10-23T12:56:48Z</time>
      </trkpt>
      <trkpt lat="46.55127" lon="5.58642">
        <ele>515</ele>
        <time>2021-10-23T12:56:55Z</time>
      </trkpt>
      <trkpt lat="46.55142" lon="5.5865">
        <ele>515.4</ele>
        <time>2021-10-23T12:56:58Z</time>
      </trkpt>
      <trkpt lat="46.55165" lon="5.58663">
        <ele>516.4</ele>
        <time>2021-10-23T12:57:03Z</time>
      </trkpt>
      <trkpt lat="46.55179" lon="5.5867">
        <ele>517.6</ele>
        <time>2021-10-23T12:57:06Z</time>
      </trkpt>
      <trkpt lat="46.55189" lon="5.58675">
        <ele>518</ele>
        <time>2021-10-23T12:57:08Z</time>
      </trkpt>
      <trkpt lat="46.55198" lon="5.58679">
        <ele>518.6</ele>
        <time>2021-10-23T12:57:10Z</time>
      </trkpt>
      <trkpt lat="46.55253" lon="5.58699">
        <ele>519.2</ele>
        <time>2021-10-23T12:57:20Z</time>
      </trkpt>
      <trkpt lat="46.55295" lon="5.58713">
        <ele>518.8</ele>
        <time>2021-10-23T12:57:27Z</time>
      </trkpt>
      <trkpt lat="46.55337" lon="5.58724">
        <ele>518.6</ele>
        <time>2021-10-23T12:57:34Z</time>
      </trkpt>
      <trkpt lat="46.55366" lon="5.58723">
        <ele>518.8</ele>
        <time>2021-10-23T12:57:39Z</time>
      </trkpt>
      <trkpt lat="46.55377" lon="5.58718">
        <ele>519</ele>
        <time>2021-10-23T12:57:41Z</time>
      </trkpt>
      <trkpt lat="46.55387" lon="5.58709">
        <ele>519.2</ele>
        <time>2021-10-23T12:57:43Z</time>
      </trkpt>
      <trkpt lat="46.55404" lon="5.58689">
        <ele>520</ele>
        <time>2021-10-23T12:57:47Z</time>
      </trkpt>
      <trkpt lat="46.55425" lon="5.5866">
        <ele>520.6</ele>
        <time>2021-10-23T12:57:52Z</time>
      </trkpt>
      <trkpt lat="46.55447" lon="5.58621">
        <ele>521.2</ele>
        <time>2021-10-23T12:57:58Z</time>
      </trkpt>
      <trkpt lat="46.5545" lon="5.58613">
        <ele>521.2</ele>
        <time>2021-10-23T12:57:59Z</time>
      </trkpt>
      <trkpt lat="46.55467" lon="5.58569">
        <ele>522.2</ele>
        <time>2021-10-23T12:58:05Z</time>
      </trkpt>
      <trkpt lat="46.55471" lon="5.58562">
        <ele>522.4</ele>
        <time>2021-10-23T12:58:06Z</time>
      </trkpt>
      <trkpt lat="46.55479" lon="5.58554">
        <ele>522.6</ele>
        <time>2021-10-23T12:58:08Z</time>
      </trkpt>
      <trkpt lat="46.55484" lon="5.58553">
        <ele>522.6</ele>
        <time>2021-10-23T12:58:09Z</time>
      </trkpt>
      <trkpt lat="46.55508" lon="5.58551">
        <ele>523.2</ele>
        <time>2021-10-23T12:58:13Z</time>
      </trkpt>
      <trkpt lat="46.55519" lon="5.58552">
        <ele>523.4</ele>
        <time>2021-10-23T12:58:15Z</time>
      </trkpt>
      <trkpt lat="46.55571" lon="5.58564">
        <ele>524</ele>
        <time>2021-10-23T12:58:24Z</time>
      </trkpt>
      <trkpt lat="46.55588" lon="5.58565">
        <ele>524.2</ele>
        <time>2021-10-23T12:58:27Z</time>
      </trkpt>
      <trkpt lat="46.5561" lon="5.58562">
        <ele>524.8</ele>
        <time>2021-10-23T12:58:31Z</time>
      </trkpt>
      <trkpt lat="46.55626" lon="5.58562">
        <ele>525.2</ele>
        <time>2021-10-23T12:58:34Z</time>
      </trkpt>
      <trkpt lat="46.55635" lon="5.58567">
        <ele>525.4</ele>
        <time>2021-10-23T12:58:36Z</time>
      </trkpt>
      <trkpt lat="46.55642" lon="5.58576">
        <ele>525.6</ele>
        <time>2021-10-23T12:58:38Z</time>
      </trkpt>
      <trkpt lat="46.55642" lon="5.58585">
        <ele>525.6</ele>
        <time>2021-10-23T12:58:39Z</time>
      </trkpt>
      <trkpt lat="46.5564" lon="5.58625">
        <ele>525.4</ele>
        <time>2021-10-23T12:58:43Z</time>
      </trkpt>
      <trkpt lat="46.55642" lon="5.58645">
        <ele>525.2</ele>
        <time>2021-10-23T12:58:45Z</time>
      </trkpt>
      <trkpt lat="46.55645" lon="5.58655">
        <ele>524.8</ele>
        <time>2021-10-23T12:58:46Z</time>
      </trkpt>
      <trkpt lat="46.5565" lon="5.58663">
        <ele>524.8</ele>
        <time>2021-10-23T12:58:47Z</time>
      </trkpt>
      <trkpt lat="46.55662" lon="5.58675">
        <ele>524.4</ele>
        <time>2021-10-23T12:58:49Z</time>
      </trkpt>
      <trkpt lat="46.5568" lon="5.5869">
        <ele>524.4</ele>
        <time>2021-10-23T12:58:52Z</time>
      </trkpt>
      <trkpt lat="46.55702" lon="5.58711">
        <ele>524.2</ele>
        <time>2021-10-23T12:58:56Z</time>
      </trkpt>
      <trkpt lat="46.55721" lon="5.58732">
        <ele>524.6</ele>
        <time>2021-10-23T12:59:00Z</time>
      </trkpt>
      <trkpt lat="46.55725" lon="5.58738">
        <ele>524.6</ele>
        <time>2021-10-23T12:59:01Z</time>
      </trkpt>
      <trkpt lat="46.55728" lon="5.58746">
        <ele>524.8</ele>
        <time>2021-10-23T12:59:02Z</time>
      </trkpt>
      <trkpt lat="46.5573" lon="5.58761">
        <ele>524.8</ele>
        <time>2021-10-23T12:59:04Z</time>
      </trkpt>
      <trkpt lat="46.55731" lon="5.58774">
        <ele>525.4</ele>
        <time>2021-10-23T12:59:06Z</time>
      </trkpt>
      <trkpt lat="46.55731" lon="5.5878">
        <ele>525.6</ele>
        <time>2021-10-23T12:59:07Z</time>
      </trkpt>
      <trkpt lat="46.5573" lon="5.5882">
        <ele>526.8</ele>
        <time>2021-10-23T12:59:12Z</time>
      </trkpt>
      <trkpt lat="46.55729" lon="5.58846">
        <ele>527.2</ele>
        <time>2021-10-23T12:59:15Z</time>
      </trkpt>
      <trkpt lat="46.55726" lon="5.58888">
        <ele>527.8</ele>
        <time>2021-10-23T12:59:20Z</time>
      </trkpt>
      <trkpt lat="46.55724" lon="5.58918">
        <ele>528.4</ele>
        <time>2021-10-23T12:59:23Z</time>
      </trkpt>
      <trkpt lat="46.55721" lon="5.58976">
        <ele>529</ele>
        <time>2021-10-23T12:59:29Z</time>
      </trkpt>
      <trkpt lat="46.55724" lon="5.59014">
        <ele>529</ele>
        <time>2021-10-23T12:59:33Z</time>
      </trkpt>
      <trkpt lat="46.55728" lon="5.5903">
        <ele>528.8</ele>
        <time>2021-10-23T12:59:35Z</time>
      </trkpt>
      <trkpt lat="46.55745" lon="5.59075">
        <ele>528.6</ele>
        <time>2021-10-23T12:59:40Z</time>
      </trkpt>
      <trkpt lat="46.55762" lon="5.59117">
        <ele>527.8</ele>
        <time>2021-10-23T12:59:44Z</time>
      </trkpt>
      <trkpt lat="46.55768" lon="5.59139">
        <ele>527.2</ele>
        <time>2021-10-23T12:59:46Z</time>
      </trkpt>
      <trkpt lat="46.55781" lon="5.59199">
        <ele>527</ele>
        <time>2021-10-23T12:59:52Z</time>
      </trkpt>
      <trkpt lat="46.55792" lon="5.59254">
        <ele>528.6</ele>
        <time>2021-10-23T12:59:59Z</time>
      </trkpt>
      <trkpt lat="46.55793" lon="5.59262">
        <ele>528.8</ele>
        <time>2021-10-23T13:00:00Z</time>
      </trkpt>
      <trkpt lat="46.55798" lon="5.5929">
        <ele>530</ele>
        <time>2021-10-23T13:00:04Z</time>
      </trkpt>
      <trkpt lat="46.55804" lon="5.59319">
        <ele>531.2</ele>
        <time>2021-10-23T13:00:08Z</time>
      </trkpt>
      <trkpt lat="46.55807" lon="5.59333">
        <ele>531.8</ele>
        <time>2021-10-23T13:00:10Z</time>
      </trkpt>
      <trkpt lat="46.55814" lon="5.59353">
        <ele>532.6</ele>
        <time>2021-10-23T13:00:13Z</time>
      </trkpt>
      <trkpt lat="46.55818" lon="5.59366">
        <ele>533</ele>
        <time>2021-10-23T13:00:15Z</time>
      </trkpt>
      <trkpt lat="46.55824" lon="5.59382">
        <ele>533.6</ele>
        <time>2021-10-23T13:00:18Z</time>
      </trkpt>
      <trkpt lat="46.55827" lon="5.59389">
        <ele>534.2</ele>
        <time>2021-10-23T13:00:20Z</time>
      </trkpt>
      <trkpt lat="46.55827" lon="5.59392">
        <ele>534.8</ele>
        <time>2021-10-23T13:00:23Z</time>
      </trkpt>
      <trkpt lat="46.55827" lon="5.59392">
        <ele>535</ele>
        <time>2021-10-23T13:00:24Z</time>
      </trkpt>
      <trkpt lat="46.55829" lon="5.59398">
        <ele>535.2</ele>
        <time>2021-10-23T13:01:21Z</time>
      </trkpt>
      <trkpt lat="46.55833" lon="5.59405">
        <ele>535.2</ele>
        <time>2021-10-23T13:01:23Z</time>
      </trkpt>
      <trkpt lat="46.55842" lon="5.59426">
        <ele>535.2</ele>
        <time>2021-10-23T13:01:29Z</time>
      </trkpt>
      <trkpt lat="46.55844" lon="5.5943">
        <ele>535.4</ele>
        <time>2021-10-23T13:01:33Z</time>
      </trkpt>
      <trkpt lat="46.55844" lon="5.5943">
        <ele>535.4</ele>
        <time>2021-10-23T13:01:34Z</time>
      </trkpt>
      <trkpt lat="46.55845" lon="5.59437">
        <ele>536</ele>
        <time>2021-10-23T13:05:41Z</time>
      </trkpt>
      <trkpt lat="46.55847" lon="5.59445">
        <ele>536</ele>
        <time>2021-10-23T13:05:43Z</time>
      </trkpt>
      <trkpt lat="46.55855" lon="5.59469">
        <ele>536</ele>
        <time>2021-10-23T13:05:48Z</time>
      </trkpt>
      <trkpt lat="46.55858" lon="5.59479">
        <ele>536</ele>
        <time>2021-10-23T13:05:50Z</time>
      </trkpt>
      <trkpt lat="46.55866" lon="5.59503">
        <ele>536</ele>
        <time>2021-10-23T13:05:54Z</time>
      </trkpt>
      <trkpt lat="46.55875" lon="5.59531">
        <ele>536.4</ele>
        <time>2021-10-23T13:05:59Z</time>
      </trkpt>
      <trkpt lat="46.55877" lon="5.59536">
        <ele>536.6</ele>
        <time>2021-10-23T13:06:00Z</time>
      </trkpt>
      <trkpt lat="46.55879" lon="5.59543">
        <ele>536.8</ele>
        <time>2021-10-23T13:06:01Z</time>
      </trkpt>
      <trkpt lat="46.55881" lon="5.59548">
        <ele>537</ele>
        <time>2021-10-23T13:06:02Z</time>
      </trkpt>
      <trkpt lat="46.55884" lon="5.59556">
        <ele>537.8</ele>
        <time>2021-10-23T13:06:04Z</time>
      </trkpt>
      <trkpt lat="46.55884" lon="5.59567">
        <ele>538.4</ele>
        <time>2021-10-23T13:06:06Z</time>
      </trkpt>
      <trkpt lat="46.55882" lon="5.59581">
        <ele>539.4</ele>
        <time>2021-10-23T13:06:09Z</time>
      </trkpt>
      <trkpt lat="46.55882" lon="5.59586">
        <ele>539.6</ele>
        <time>2021-10-23T13:06:10Z</time>
      </trkpt>
      <trkpt lat="46.55883" lon="5.596">
        <ele>540.2</ele>
        <time>2021-10-23T13:06:12Z</time>
      </trkpt>
      <trkpt lat="46.55886" lon="5.59611">
        <ele>540.6</ele>
        <time>2021-10-23T13:06:14Z</time>
      </trkpt>
      <trkpt lat="46.55897" lon="5.59628">
        <ele>541</ele>
        <time>2021-10-23T13:06:19Z</time>
      </trkpt>
      <trkpt lat="46.55909" lon="5.59639">
        <ele>541.6</ele>
        <time>2021-10-23T13:06:25Z</time>
      </trkpt>
      <trkpt lat="46.55912" lon="5.59641">
        <ele>541.6</ele>
        <time>2021-10-23T13:06:26Z</time>
      </trkpt>
      <trkpt lat="46.55921" lon="5.59654">
        <ele>542</ele>
        <time>2021-10-23T13:06:32Z</time>
      </trkpt>
      <trkpt lat="46.55928" lon="5.59675">
        <ele>542.8</ele>
        <time>2021-10-23T13:06:39Z</time>
      </trkpt>
      <trkpt lat="46.55929" lon="5.59679">
        <ele>542.8</ele>
        <time>2021-10-23T13:06:40Z</time>
      </trkpt>
      <trkpt lat="46.55936" lon="5.59705">
        <ele>543.6</ele>
        <time>2021-10-23T13:06:48Z</time>
      </trkpt>
      <trkpt lat="46.55938" lon="5.59714">
        <ele>543.8</ele>
        <time>2021-10-23T13:06:50Z</time>
      </trkpt>
      <trkpt lat="46.5594" lon="5.59728">
        <ele>544</ele>
        <time>2021-10-23T13:06:53Z</time>
      </trkpt>
      <trkpt lat="46.55946" lon="5.59765">
        <ele>544.2</ele>
        <time>2021-10-23T13:07:00Z</time>
      </trkpt>
      <trkpt lat="46.55949" lon="5.59799">
        <ele>544.2</ele>
        <time>2021-10-23T13:07:07Z</time>
      </trkpt>
      <trkpt lat="46.55951" lon="5.59857">
        <ele>544.4</ele>
        <time>2021-10-23T13:07:17Z</time>
      </trkpt>
      <trkpt lat="46.55957" lon="5.59903">
        <ele>544.4</ele>
        <time>2021-10-23T13:07:24Z</time>
      </trkpt>
      <trkpt lat="46.55958" lon="5.59917">
        <ele>544.2</ele>
        <time>2021-10-23T13:07:26Z</time>
      </trkpt>
      <trkpt lat="46.55958" lon="5.59949">
        <ele>544.4</ele>
        <time>2021-10-23T13:07:31Z</time>
      </trkpt>
      <trkpt lat="46.55956" lon="5.59972">
        <ele>544.6</ele>
        <time>2021-10-23T13:07:35Z</time>
      </trkpt>
      <trkpt lat="46.55954" lon="5.5999">
        <ele>544.8</ele>
        <time>2021-10-23T13:07:38Z</time>
      </trkpt>
      <trkpt lat="46.55953" lon="5.59996">
        <ele>545</ele>
        <time>2021-10-23T13:07:39Z</time>
      </trkpt>
      <trkpt lat="46.55947" lon="5.60044">
        <ele>545.8</ele>
        <time>2021-10-23T13:07:47Z</time>
      </trkpt>
      <trkpt lat="46.55942" lon="5.60078">
        <ele>545.8</ele>
        <time>2021-10-23T13:07:52Z</time>
      </trkpt>
      <trkpt lat="46.55939" lon="5.60093">
        <ele>545.8</ele>
        <time>2021-10-23T13:07:54Z</time>
      </trkpt>
      <trkpt lat="46.55926" lon="5.6015">
        <ele>544.8</ele>
        <time>2021-10-23T13:08:01Z</time>
      </trkpt>
      <trkpt lat="46.55922" lon="5.60186">
        <ele>544.2</ele>
        <time>2021-10-23T13:08:05Z</time>
      </trkpt>
      <trkpt lat="46.55922" lon="5.60194">
        <ele>544.2</ele>
        <time>2021-10-23T13:08:06Z</time>
      </trkpt>
      <trkpt lat="46.55924" lon="5.60224">
        <ele>544</ele>
        <time>2021-10-23T13:08:10Z</time>
      </trkpt>
      <trkpt lat="46.55924" lon="5.60234">
        <ele>544</ele>
        <time>2021-10-23T13:08:11Z</time>
      </trkpt>
      <trkpt lat="46.55925" lon="5.60284">
        <ele>543.4</ele>
        <time>2021-10-23T13:08:16Z</time>
      </trkpt>
      <trkpt lat="46.55924" lon="5.60307">
        <ele>543</ele>
        <time>2021-10-23T13:08:18Z</time>
      </trkpt>
      <trkpt lat="46.55926" lon="5.60328">
        <ele>542.4</ele>
        <time>2021-10-23T13:08:20Z</time>
      </trkpt>
      <trkpt lat="46.55928" lon="5.60343">
        <ele>542.2</ele>
        <time>2021-10-23T13:08:21Z</time>
      </trkpt>
      <trkpt lat="46.55932" lon="5.60357">
        <ele>541.8</ele>
        <time>2021-10-23T13:08:22Z</time>
      </trkpt>
      <trkpt lat="46.55936" lon="5.60386">
        <ele>540</ele>
        <time>2021-10-23T13:08:24Z</time>
      </trkpt>
      <trkpt lat="46.55936" lon="5.60399">
        <ele>539.4</ele>
        <time>2021-10-23T13:08:25Z</time>
      </trkpt>
      <trkpt lat="46.55933" lon="5.60419">
        <ele>538.6</ele>
        <time>2021-10-23T13:08:26Z</time>
      </trkpt>
      <trkpt lat="46.55926" lon="5.60452">
        <ele>538</ele>
        <time>2021-10-23T13:08:28Z</time>
      </trkpt>
      <trkpt lat="46.55922" lon="5.60469">
        <ele>536.6</ele>
        <time>2021-10-23T13:08:29Z</time>
      </trkpt>
      <trkpt lat="46.55917" lon="5.60504">
        <ele>533.6</ele>
        <time>2021-10-23T13:08:31Z</time>
      </trkpt>
      <trkpt lat="46.55912" lon="5.60533">
        <ele>531.6</ele>
        <time>2021-10-23T13:08:33Z</time>
      </trkpt>
      <trkpt lat="46.55908" lon="5.60546">
        <ele>530.2</ele>
        <time>2021-10-23T13:08:34Z</time>
      </trkpt>
      <trkpt lat="46.55904" lon="5.60557">
        <ele>529.4</ele>
        <time>2021-10-23T13:08:35Z</time>
      </trkpt>
      <trkpt lat="46.55898" lon="5.60567">
        <ele>528.8</ele>
        <time>2021-10-23T13:08:36Z</time>
      </trkpt>
      <trkpt lat="46.55886" lon="5.60584">
        <ele>528</ele>
        <time>2021-10-23T13:08:39Z</time>
      </trkpt>
      <trkpt lat="46.55884" lon="5.60601">
        <ele>527.8</ele>
        <time>2021-10-23T13:08:41Z</time>
      </trkpt>
      <trkpt lat="46.55889" lon="5.60615">
        <ele>527.6</ele>
        <time>2021-10-23T13:08:43Z</time>
      </trkpt>
      <trkpt lat="46.55892" lon="5.60631">
        <ele>527.6</ele>
        <time>2021-10-23T13:08:45Z</time>
      </trkpt>
      <trkpt lat="46.55909" lon="5.60705">
        <ele>528</ele>
        <time>2021-10-23T13:08:54Z</time>
      </trkpt>
      <trkpt lat="46.55924" lon="5.60777">
        <ele>528.6</ele>
        <time>2021-10-23T13:09:02Z</time>
      </trkpt>
      <trkpt lat="46.55925" lon="5.60786">
        <ele>528.8</ele>
        <time>2021-10-23T13:09:03Z</time>
      </trkpt>
      <trkpt lat="46.55929" lon="5.60839">
        <ele>529.8</ele>
        <time>2021-10-23T13:09:09Z</time>
      </trkpt>
      <trkpt lat="46.5593" lon="5.60855">
        <ele>530</ele>
        <time>2021-10-23T13:09:11Z</time>
      </trkpt>
      <trkpt lat="46.5594" lon="5.60928">
        <ele>530</ele>
        <time>2021-10-23T13:09:19Z</time>
      </trkpt>
      <trkpt lat="46.55958" lon="5.60999">
        <ele>529.4</ele>
        <time>2021-10-23T13:09:27Z</time>
      </trkpt>
      <trkpt lat="46.55978" lon="5.61075">
        <ele>528.8</ele>
        <time>2021-10-23T13:09:35Z</time>
      </trkpt>
      <trkpt lat="46.55981" lon="5.61085">
        <ele>528.6</ele>
        <time>2021-10-23T13:09:36Z</time>
      </trkpt>
      <trkpt lat="46.56006" lon="5.61139">
        <ele>528.4</ele>
        <time>2021-10-23T13:09:42Z</time>
      </trkpt>
      <trkpt lat="46.56037" lon="5.61204">
        <ele>527.4</ele>
        <time>2021-10-23T13:09:49Z</time>
      </trkpt>
      <trkpt lat="46.56047" lon="5.61223">
        <ele>526.8</ele>
        <time>2021-10-23T13:09:51Z</time>
      </trkpt>
      <trkpt lat="46.56062" lon="5.61252">
        <ele>526.4</ele>
        <time>2021-10-23T13:09:54Z</time>
      </trkpt>
      <trkpt lat="46.56091" lon="5.61312">
        <ele>525.6</ele>
        <time>2021-10-23T13:10:00Z</time>
      </trkpt>
      <trkpt lat="46.56096" lon="5.61322">
        <ele>525.2</ele>
        <time>2021-10-23T13:10:01Z</time>
      </trkpt>
      <trkpt lat="46.5612" lon="5.61372">
        <ele>524.2</ele>
        <time>2021-10-23T13:10:06Z</time>
      </trkpt>
      <trkpt lat="46.56138" lon="5.61409">
        <ele>523.8</ele>
        <time>2021-10-23T13:10:10Z</time>
      </trkpt>
      <trkpt lat="46.56172" lon="5.61478">
        <ele>524.6</ele>
        <time>2021-10-23T13:10:17Z</time>
      </trkpt>
      <trkpt lat="46.56175" lon="5.61485">
        <ele>524.6</ele>
        <time>2021-10-23T13:10:18Z</time>
      </trkpt>
      <trkpt lat="46.56208" lon="5.61552">
        <ele>524.6</ele>
        <time>2021-10-23T13:10:25Z</time>
      </trkpt>
      <trkpt lat="46.56231" lon="5.61596">
        <ele>524</ele>
        <time>2021-10-23T13:10:30Z</time>
      </trkpt>
      <trkpt lat="46.56274" lon="5.61661">
        <ele>523.6</ele>
        <time>2021-10-23T13:10:38Z</time>
      </trkpt>
      <trkpt lat="46.5628" lon="5.61669">
        <ele>523.6</ele>
        <time>2021-10-23T13:10:39Z</time>
      </trkpt>
      <trkpt lat="46.56325" lon="5.61725">
        <ele>524</ele>
        <time>2021-10-23T13:10:46Z</time>
      </trkpt>
      <trkpt lat="46.56331" lon="5.61733">
        <ele>524</ele>
        <time>2021-10-23T13:10:47Z</time>
      </trkpt>
      <trkpt lat="46.56354" lon="5.61764">
        <ele>524.2</ele>
        <time>2021-10-23T13:10:51Z</time>
      </trkpt>
      <trkpt lat="46.56362" lon="5.61784">
        <ele>524</ele>
        <time>2021-10-23T13:10:53Z</time>
      </trkpt>
      <trkpt lat="46.56364" lon="5.61808">
        <ele>524</ele>
        <time>2021-10-23T13:10:55Z</time>
      </trkpt>
      <trkpt lat="46.56364" lon="5.61821">
        <ele>523.8</ele>
        <time>2021-10-23T13:10:56Z</time>
      </trkpt>
      <trkpt lat="46.5636" lon="5.61859">
        <ele>523.4</ele>
        <time>2021-10-23T13:10:59Z</time>
      </trkpt>
      <trkpt lat="46.56358" lon="5.61873">
        <ele>522.4</ele>
        <time>2021-10-23T13:11:00Z</time>
      </trkpt>
      <trkpt lat="46.56357" lon="5.61886">
        <ele>522</ele>
        <time>2021-10-23T13:11:01Z</time>
      </trkpt>
      <trkpt lat="46.56357" lon="5.61913">
        <ele>520.8</ele>
        <time>2021-10-23T13:11:03Z</time>
      </trkpt>
      <trkpt lat="46.56357" lon="5.61941">
        <ele>520</ele>
        <time>2021-10-23T13:11:05Z</time>
      </trkpt>
      <trkpt lat="46.56358" lon="5.61954">
        <ele>519.6</ele>
        <time>2021-10-23T13:11:06Z</time>
      </trkpt>
      <trkpt lat="46.56362" lon="5.61994">
        <ele>518.4</ele>
        <time>2021-10-23T13:11:09Z</time>
      </trkpt>
      <trkpt lat="46.56364" lon="5.62007">
        <ele>518.2</ele>
        <time>2021-10-23T13:11:10Z</time>
      </trkpt>
      <trkpt lat="46.56369" lon="5.6203">
        <ele>517.4</ele>
        <time>2021-10-23T13:11:12Z</time>
      </trkpt>
      <trkpt lat="46.56379" lon="5.62072">
        <ele>516.2</ele>
        <time>2021-10-23T13:11:16Z</time>
      </trkpt>
      <trkpt lat="46.56394" lon="5.62135">
        <ele>515.6</ele>
        <time>2021-10-23T13:11:22Z</time>
      </trkpt>
      <trkpt lat="46.56409" lon="5.62194">
        <ele>515.4</ele>
        <time>2021-10-23T13:11:28Z</time>
      </trkpt>
      <trkpt lat="46.56425" lon="5.62255">
        <ele>515</ele>
        <time>2021-10-23T13:11:34Z</time>
      </trkpt>
      <trkpt lat="46.56432" lon="5.62284">
        <ele>514.8</ele>
        <time>2021-10-23T13:11:37Z</time>
      </trkpt>
      <trkpt lat="46.56438" lon="5.62312">
        <ele>515</ele>
        <time>2021-10-23T13:11:40Z</time>
      </trkpt>
      <trkpt lat="46.56444" lon="5.62338">
        <ele>515.2</ele>
        <time>2021-10-23T13:11:43Z</time>
      </trkpt>
      <trkpt lat="46.56447" lon="5.62354">
        <ele>515.4</ele>
        <time>2021-10-23T13:11:45Z</time>
      </trkpt>
      <trkpt lat="46.5645" lon="5.62378">
        <ele>516.2</ele>
        <time>2021-10-23T13:11:48Z</time>
      </trkpt>
      <trkpt lat="46.56451" lon="5.62389">
        <ele>516.2</ele>
        <time>2021-10-23T13:11:49Z</time>
      </trkpt>
      <trkpt lat="46.5645" lon="5.62406">
        <ele>516.4</ele>
        <time>2021-10-23T13:11:51Z</time>
      </trkpt>
      <trkpt lat="46.56447" lon="5.62432">
        <ele>516.6</ele>
        <time>2021-10-23T13:11:54Z</time>
      </trkpt>
      <trkpt lat="46.56442" lon="5.62459">
        <ele>517.2</ele>
        <time>2021-10-23T13:11:57Z</time>
      </trkpt>
      <trkpt lat="46.56435" lon="5.62493">
        <ele>517.6</ele>
        <time>2021-10-23T13:12:01Z</time>
      </trkpt>
      <trkpt lat="46.5643" lon="5.62517">
        <ele>518.4</ele>
        <time>2021-10-23T13:12:04Z</time>
      </trkpt>
      <trkpt lat="46.56415" lon="5.62594">
        <ele>519</ele>
        <time>2021-10-23T13:12:13Z</time>
      </trkpt>
      <trkpt lat="46.56415" lon="5.62638">
        <ele>519.4</ele>
        <time>2021-10-23T13:12:18Z</time>
      </trkpt>
      <trkpt lat="46.56418" lon="5.62654">
        <ele>519.6</ele>
        <time>2021-10-23T13:12:20Z</time>
      </trkpt>
      <trkpt lat="46.56422" lon="5.6267">
        <ele>519.6</ele>
        <time>2021-10-23T13:12:22Z</time>
      </trkpt>
      <trkpt lat="46.56425" lon="5.62676">
        <ele>519.6</ele>
        <time>2021-10-23T13:12:23Z</time>
      </trkpt>
      <trkpt lat="46.56434" lon="5.62693">
        <ele>520.2</ele>
        <time>2021-10-23T13:12:26Z</time>
      </trkpt>
      <trkpt lat="46.56436" lon="5.62697">
        <ele>520.6</ele>
        <time>2021-10-23T13:12:27Z</time>
      </trkpt>
      <trkpt lat="46.56454" lon="5.62722">
        <ele>521.6</ele>
        <time>2021-10-23T13:12:32Z</time>
      </trkpt>
      <trkpt lat="46.56458" lon="5.62727">
        <ele>521.8</ele>
        <time>2021-10-23T13:12:33Z</time>
      </trkpt>
      <trkpt lat="46.56481" lon="5.62753">
        <ele>522.4</ele>
        <time>2021-10-23T13:12:38Z</time>
      </trkpt>
      <trkpt lat="46.56491" lon="5.62763">
        <ele>522.8</ele>
        <time>2021-10-23T13:12:40Z</time>
      </trkpt>
      <trkpt lat="46.56507" lon="5.62778">
        <ele>523.2</ele>
        <time>2021-10-23T13:12:43Z</time>
      </trkpt>
      <trkpt lat="46.56518" lon="5.62791">
        <ele>523.2</ele>
        <time>2021-10-23T13:12:45Z</time>
      </trkpt>
      <trkpt lat="46.56555" lon="5.62827">
        <ele>524</ele>
        <time>2021-10-23T13:12:52Z</time>
      </trkpt>
      <trkpt lat="46.5656" lon="5.62832">
        <ele>524</ele>
        <time>2021-10-23T13:12:53Z</time>
      </trkpt>
      <trkpt lat="46.56573" lon="5.62846">
        <ele>525.2</ele>
        <time>2021-10-23T13:12:56Z</time>
      </trkpt>
      <trkpt lat="46.56582" lon="5.62855">
        <ele>525.4</ele>
        <time>2021-10-23T13:12:58Z</time>
      </trkpt>
      <trkpt lat="46.56592" lon="5.62865">
        <ele>525.8</ele>
        <time>2021-10-23T13:13:00Z</time>
      </trkpt>
      <trkpt lat="46.56597" lon="5.62871">
        <ele>526</ele>
        <time>2021-10-23T13:13:01Z</time>
      </trkpt>
      <trkpt lat="46.56602" lon="5.62877">
        <ele>526.2</ele>
        <time>2021-10-23T13:13:02Z</time>
      </trkpt>
      <trkpt lat="46.56616" lon="5.62893">
        <ele>527</ele>
        <time>2021-10-23T13:13:05Z</time>
      </trkpt>
      <trkpt lat="46.56619" lon="5.62898">
        <ele>527</ele>
        <time>2021-10-23T13:13:06Z</time>
      </trkpt>
      <trkpt lat="46.56631" lon="5.6292">
        <ele>527</ele>
        <time>2021-10-23T13:13:09Z</time>
      </trkpt>
      <trkpt lat="46.56643" lon="5.6294">
        <ele>527</ele>
        <time>2021-10-23T13:13:12Z</time>
      </trkpt>
      <trkpt lat="46.56647" lon="5.62946">
        <ele>527</ele>
        <time>2021-10-23T13:13:13Z</time>
      </trkpt>
      <trkpt lat="46.56651" lon="5.62955">
        <ele>527</ele>
        <time>2021-10-23T13:13:14Z</time>
      </trkpt>
      <trkpt lat="46.56656" lon="5.62969">
        <ele>527</ele>
        <time>2021-10-23T13:13:16Z</time>
      </trkpt>
      <trkpt lat="46.56657" lon="5.62975">
        <ele>526.8</ele>
        <time>2021-10-23T13:13:17Z</time>
      </trkpt>
      <trkpt lat="46.56659" lon="5.62982">
        <ele>526.8</ele>
        <time>2021-10-23T13:13:18Z</time>
      </trkpt>
      <trkpt lat="46.56666" lon="5.63008">
        <ele>526.6</ele>
        <time>2021-10-23T13:13:22Z</time>
      </trkpt>
      <trkpt lat="46.56678" lon="5.63076">
        <ele>528</ele>
        <time>2021-10-23T13:13:31Z</time>
      </trkpt>
      <trkpt lat="46.56679" lon="5.63084">
        <ele>528.2</ele>
        <time>2021-10-23T13:13:32Z</time>
      </trkpt>
      <trkpt lat="46.56678" lon="5.63126">
        <ele>529.2</ele>
        <time>2021-10-23T13:13:38Z</time>
      </trkpt>
      <trkpt lat="46.56674" lon="5.63145">
        <ele>530.2</ele>
        <time>2021-10-23T13:13:41Z</time>
      </trkpt>
      <trkpt lat="46.56673" lon="5.63151">
        <ele>530.6</ele>
        <time>2021-10-23T13:13:42Z</time>
      </trkpt>
      <trkpt lat="46.56671" lon="5.63165">
        <ele>531.2</ele>
        <time>2021-10-23T13:13:44Z</time>
      </trkpt>
      <trkpt lat="46.56668" lon="5.63198">
        <ele>532.4</ele>
        <time>2021-10-23T13:13:49Z</time>
      </trkpt>
      <trkpt lat="46.56668" lon="5.63226">
        <ele>533</ele>
        <time>2021-10-23T13:13:53Z</time>
      </trkpt>
      <trkpt lat="46.56671" lon="5.63239">
        <ele>533.2</ele>
        <time>2021-10-23T13:13:55Z</time>
      </trkpt>
      <trkpt lat="46.56674" lon="5.63246">
        <ele>533.6</ele>
        <time>2021-10-23T13:13:56Z</time>
      </trkpt>
      <trkpt lat="46.56677" lon="5.63252">
        <ele>534</ele>
        <time>2021-10-23T13:13:57Z</time>
      </trkpt>
      <trkpt lat="46.56685" lon="5.6326">
        <ele>534.6</ele>
        <time>2021-10-23T13:13:59Z</time>
      </trkpt>
      <trkpt lat="46.56695" lon="5.63267">
        <ele>535</ele>
        <time>2021-10-23T13:14:01Z</time>
      </trkpt>
      <trkpt lat="46.567" lon="5.63269">
        <ele>535</ele>
        <time>2021-10-23T13:14:02Z</time>
      </trkpt>
      <trkpt lat="46.56727" lon="5.63279">
        <ele>535.4</ele>
        <time>2021-10-23T13:14:07Z</time>
      </trkpt>
      <trkpt lat="46.56774" lon="5.63299">
        <ele>535.6</ele>
        <time>2021-10-23T13:14:15Z</time>
      </trkpt>
      <trkpt lat="46.56816" lon="5.63319">
        <ele>535.6</ele>
        <time>2021-10-23T13:14:22Z</time>
      </trkpt>
      <trkpt lat="46.56827" lon="5.63327">
        <ele>535.4</ele>
        <time>2021-10-23T13:14:24Z</time>
      </trkpt>
      <trkpt lat="46.56857" lon="5.6336">
        <ele>535.8</ele>
        <time>2021-10-23T13:14:30Z</time>
      </trkpt>
      <trkpt lat="46.56861" lon="5.63366">
        <ele>535.6</ele>
        <time>2021-10-23T13:14:31Z</time>
      </trkpt>
      <trkpt lat="46.56906" lon="5.63419">
        <ele>536</ele>
        <time>2021-10-23T13:14:40Z</time>
      </trkpt>
      <trkpt lat="46.5691" lon="5.63425">
        <ele>536</ele>
        <time>2021-10-23T13:14:41Z</time>
      </trkpt>
      <trkpt lat="46.56927" lon="5.63444">
        <ele>536.8</ele>
        <time>2021-10-23T13:14:45Z</time>
      </trkpt>
      <trkpt lat="46.5693" lon="5.63447">
        <ele>537</ele>
        <time>2021-10-23T13:14:46Z</time>
      </trkpt>
      <trkpt lat="46.5695" lon="5.63464">
        <ele>537.8</ele>
        <time>2021-10-23T13:14:52Z</time>
      </trkpt>
      <trkpt lat="46.56972" lon="5.63479">
        <ele>537.4</ele>
        <time>2021-10-23T13:14:57Z</time>
      </trkpt>
      <trkpt lat="46.57004" lon="5.63499">
        <ele>536.8</ele>
        <time>2021-10-23T13:15:03Z</time>
      </trkpt>
      <trkpt lat="46.57044" lon="5.6353">
        <ele>536.4</ele>
        <time>2021-10-23T13:15:11Z</time>
      </trkpt>
      <trkpt lat="46.57083" lon="5.63562">
        <ele>536.2</ele>
        <time>2021-10-23T13:15:19Z</time>
      </trkpt>
      <trkpt lat="46.57122" lon="5.6358">
        <ele>536.2</ele>
        <time>2021-10-23T13:15:27Z</time>
      </trkpt>
      <trkpt lat="46.57152" lon="5.63588">
        <ele>535.8</ele>
        <time>2021-10-23T13:15:32Z</time>
      </trkpt>
      <trkpt lat="46.57157" lon="5.63588">
        <ele>535.8</ele>
        <time>2021-10-23T13:15:33Z</time>
      </trkpt>
      <trkpt lat="46.57202" lon="5.63585">
        <ele>535</ele>
        <time>2021-10-23T13:15:40Z</time>
      </trkpt>
      <trkpt lat="46.5721" lon="5.63585">
        <ele>534.6</ele>
        <time>2021-10-23T13:15:41Z</time>
      </trkpt>
      <trkpt lat="46.57234" lon="5.63592">
        <ele>534.2</ele>
        <time>2021-10-23T13:15:45Z</time>
      </trkpt>
      <trkpt lat="46.57269" lon="5.63606">
        <ele>534.2</ele>
        <time>2021-10-23T13:15:51Z</time>
      </trkpt>
      <trkpt lat="46.57312" lon="5.63617">
        <ele>534.4</ele>
        <time>2021-10-23T13:15:59Z</time>
      </trkpt>
      <trkpt lat="46.57328" lon="5.63621">
        <ele>534.6</ele>
        <time>2021-10-23T13:16:02Z</time>
      </trkpt>
      <trkpt lat="46.57338" lon="5.63627">
        <ele>535</ele>
        <time>2021-10-23T13:16:04Z</time>
      </trkpt>
      <trkpt lat="46.57343" lon="5.63633">
        <ele>535</ele>
        <time>2021-10-23T13:16:05Z</time>
      </trkpt>
      <trkpt lat="46.57346" lon="5.63639">
        <ele>535.2</ele>
        <time>2021-10-23T13:16:06Z</time>
      </trkpt>
      <trkpt lat="46.57353" lon="5.63664">
        <ele>535.4</ele>
        <time>2021-10-23T13:16:09Z</time>
      </trkpt>
      <trkpt lat="46.57377" lon="5.63742">
        <ele>535.8</ele>
        <time>2021-10-23T13:16:18Z</time>
      </trkpt>
      <trkpt lat="46.57383" lon="5.63765">
        <ele>535.8</ele>
        <time>2021-10-23T13:16:21Z</time>
      </trkpt>
      <trkpt lat="46.57392" lon="5.63797">
        <ele>536</ele>
        <time>2021-10-23T13:16:25Z</time>
      </trkpt>
      <trkpt lat="46.57414" lon="5.63863">
        <ele>536.4</ele>
        <time>2021-10-23T13:16:33Z</time>
      </trkpt>
      <trkpt lat="46.57436" lon="5.63893">
        <ele>536.6</ele>
        <time>2021-10-23T13:16:38Z</time>
      </trkpt>
      <trkpt lat="46.57444" lon="5.63904">
        <ele>536.8</ele>
        <time>2021-10-23T13:16:40Z</time>
      </trkpt>
      <trkpt lat="46.57464" lon="5.63928">
        <ele>537.2</ele>
        <time>2021-10-23T13:16:44Z</time>
      </trkpt>
      <trkpt lat="46.5749" lon="5.63958">
        <ele>538</ele>
        <time>2021-10-23T13:16:50Z</time>
      </trkpt>
      <trkpt lat="46.57492" lon="5.63961">
        <ele>538.2</ele>
        <time>2021-10-23T13:16:51Z</time>
      </trkpt>
      <trkpt lat="46.57495" lon="5.63965">
        <ele>538.2</ele>
        <time>2021-10-23T13:16:52Z</time>
      </trkpt>
      <trkpt lat="46.57497" lon="5.63971">
        <ele>538.4</ele>
        <time>2021-10-23T13:16:53Z</time>
      </trkpt>
      <trkpt lat="46.57495" lon="5.63983">
        <ele>538.6</ele>
        <time>2021-10-23T13:16:55Z</time>
      </trkpt>
      <trkpt lat="46.57491" lon="5.63993">
        <ele>538.6</ele>
        <time>2021-10-23T13:16:57Z</time>
      </trkpt>
      <trkpt lat="46.5749" lon="5.64007">
        <ele>538.6</ele>
        <time>2021-10-23T13:16:59Z</time>
      </trkpt>
      <trkpt lat="46.57498" lon="5.64024">
        <ele>538.6</ele>
        <time>2021-10-23T13:17:02Z</time>
      </trkpt>
      <trkpt lat="46.57509" lon="5.64043">
        <ele>538.4</ele>
        <time>2021-10-23T13:17:05Z</time>
      </trkpt>
      <trkpt lat="46.57511" lon="5.64048">
        <ele>538.2</ele>
        <time>2021-10-23T13:17:06Z</time>
      </trkpt>
      <trkpt lat="46.57524" lon="5.64073">
        <ele>538.6</ele>
        <time>2021-10-23T13:17:10Z</time>
      </trkpt>
      <trkpt lat="46.57531" lon="5.6408">
        <ele>538.8</ele>
        <time>2021-10-23T13:17:12Z</time>
      </trkpt>
      <trkpt lat="46.57541" lon="5.64085">
        <ele>538.8</ele>
        <time>2021-10-23T13:17:14Z</time>
      </trkpt>
      <trkpt lat="46.57552" lon="5.64087">
        <ele>539.2</ele>
        <time>2021-10-23T13:17:16Z</time>
      </trkpt>
      <trkpt lat="46.57574" lon="5.64089">
        <ele>539.2</ele>
        <time>2021-10-23T13:17:20Z</time>
      </trkpt>
      <trkpt lat="46.57583" lon="5.64093">
        <ele>539</ele>
        <time>2021-10-23T13:17:22Z</time>
      </trkpt>
      <trkpt lat="46.576" lon="5.64104">
        <ele>538.6</ele>
        <time>2021-10-23T13:17:25Z</time>
      </trkpt>
      <trkpt lat="46.57618" lon="5.64119">
        <ele>538.6</ele>
        <time>2021-10-23T13:17:29Z</time>
      </trkpt>
      <trkpt lat="46.57652" lon="5.64142">
        <ele>539</ele>
        <time>2021-10-23T13:17:36Z</time>
      </trkpt>
      <trkpt lat="46.57691" lon="5.64168">
        <ele>539.4</ele>
        <time>2021-10-23T13:17:44Z</time>
      </trkpt>
      <trkpt lat="46.57702" lon="5.64174">
        <ele>539.4</ele>
        <time>2021-10-23T13:17:46Z</time>
      </trkpt>
      <trkpt lat="46.57715" lon="5.64183">
        <ele>539.4</ele>
        <time>2021-10-23T13:17:49Z</time>
      </trkpt>
      <trkpt lat="46.57757" lon="5.64204">
        <ele>539.2</ele>
        <time>2021-10-23T13:17:57Z</time>
      </trkpt>
      <trkpt lat="46.57766" lon="5.64208">
        <ele>539.4</ele>
        <time>2021-10-23T13:17:59Z</time>
      </trkpt>
      <trkpt lat="46.57791" lon="5.64221">
        <ele>540</ele>
        <time>2021-10-23T13:18:04Z</time>
      </trkpt>
      <trkpt lat="46.57802" lon="5.64228">
        <ele>540.2</ele>
        <time>2021-10-23T13:18:06Z</time>
      </trkpt>
      <trkpt lat="46.57827" lon="5.64242">
        <ele>541.2</ele>
        <time>2021-10-23T13:18:11Z</time>
      </trkpt>
      <trkpt lat="46.57831" lon="5.64244">
        <ele>541.4</ele>
        <time>2021-10-23T13:18:12Z</time>
      </trkpt>
      <trkpt lat="46.57865" lon="5.64261">
        <ele>542.6</ele>
        <time>2021-10-23T13:18:19Z</time>
      </trkpt>
      <trkpt lat="46.57884" lon="5.64272">
        <ele>543.6</ele>
        <time>2021-10-23T13:18:23Z</time>
      </trkpt>
      <trkpt lat="46.57937" lon="5.64303">
        <ele>544.4</ele>
        <time>2021-10-23T13:18:34Z</time>
      </trkpt>
      <trkpt lat="46.57942" lon="5.64306">
        <ele>545</ele>
        <time>2021-10-23T13:18:35Z</time>
      </trkpt>
      <trkpt lat="46.57971" lon="5.64323">
        <ele>546.2</ele>
        <time>2021-10-23T13:18:41Z</time>
      </trkpt>
      <trkpt lat="46.58001" lon="5.64341">
        <ele>546.6</ele>
        <time>2021-10-23T13:18:47Z</time>
      </trkpt>
      <trkpt lat="46.58031" lon="5.64358">
        <ele>547.4</ele>
        <time>2021-10-23T13:18:53Z</time>
      </trkpt>
      <trkpt lat="46.5804" lon="5.64364">
        <ele>547.8</ele>
        <time>2021-10-23T13:18:55Z</time>
      </trkpt>
      <trkpt lat="46.58081" lon="5.6439">
        <ele>548.4</ele>
        <time>2021-10-23T13:19:03Z</time>
      </trkpt>
      <trkpt lat="46.58089" lon="5.64396">
        <ele>548.8</ele>
        <time>2021-10-23T13:19:05Z</time>
      </trkpt>
      <trkpt lat="46.58104" lon="5.64405">
        <ele>549.6</ele>
        <time>2021-10-23T13:19:08Z</time>
      </trkpt>
      <trkpt lat="46.58137" lon="5.64425">
        <ele>550.6</ele>
        <time>2021-10-23T13:19:15Z</time>
      </trkpt>
      <trkpt lat="46.5818" lon="5.6445">
        <ele>551.8</ele>
        <time>2021-10-23T13:19:24Z</time>
      </trkpt>
      <trkpt lat="46.58195" lon="5.64462">
        <ele>552.2</ele>
        <time>2021-10-23T13:19:27Z</time>
      </trkpt>
      <trkpt lat="46.58203" lon="5.64469">
        <ele>552.6</ele>
        <time>2021-10-23T13:19:29Z</time>
      </trkpt>
      <trkpt lat="46.58211" lon="5.64479">
        <ele>552.6</ele>
        <time>2021-10-23T13:19:31Z</time>
      </trkpt>
      <trkpt lat="46.58215" lon="5.64486">
        <ele>553</ele>
        <time>2021-10-23T13:19:32Z</time>
      </trkpt>
      <trkpt lat="46.58242" lon="5.64529">
        <ele>554.2</ele>
        <time>2021-10-23T13:19:39Z</time>
      </trkpt>
      <trkpt lat="46.58249" lon="5.64539">
        <ele>554.6</ele>
        <time>2021-10-23T13:19:41Z</time>
      </trkpt>
      <trkpt lat="46.58265" lon="5.64557">
        <ele>555.2</ele>
        <time>2021-10-23T13:19:44Z</time>
      </trkpt>
      <trkpt lat="46.58273" lon="5.64567">
        <ele>555.6</ele>
        <time>2021-10-23T13:19:46Z</time>
      </trkpt>
      <trkpt lat="46.58313" lon="5.64606">
        <ele>556.2</ele>
        <time>2021-10-23T13:19:54Z</time>
      </trkpt>
      <trkpt lat="46.58331" lon="5.64623">
        <ele>556.4</ele>
        <time>2021-10-23T13:19:58Z</time>
      </trkpt>
      <trkpt lat="46.58354" lon="5.64644">
        <ele>557.4</ele>
        <time>2021-10-23T13:20:03Z</time>
      </trkpt>
      <trkpt lat="46.58359" lon="5.64649">
        <ele>557.8</ele>
        <time>2021-10-23T13:20:04Z</time>
      </trkpt>
      <trkpt lat="46.58394" lon="5.64677">
        <ele>558.4</ele>
        <time>2021-10-23T13:20:12Z</time>
      </trkpt>
      <trkpt lat="46.58424" lon="5.64696">
        <ele>559.6</ele>
        <time>2021-10-23T13:20:18Z</time>
      </trkpt>
      <trkpt lat="46.58433" lon="5.64702">
        <ele>560.6</ele>
        <time>2021-10-23T13:20:20Z</time>
      </trkpt>
      <trkpt lat="46.58437" lon="5.64705">
        <ele>560.8</ele>
        <time>2021-10-23T13:20:21Z</time>
      </trkpt>
      <trkpt lat="46.58449" lon="5.64712">
        <ele>561.2</ele>
        <time>2021-10-23T13:20:23Z</time>
      </trkpt>
      <trkpt lat="46.58471" lon="5.64726">
        <ele>561.2</ele>
        <time>2021-10-23T13:20:27Z</time>
      </trkpt>
      <trkpt lat="46.58507" lon="5.64758">
        <ele>560.6</ele>
        <time>2021-10-23T13:20:33Z</time>
      </trkpt>
      <trkpt lat="46.5852" lon="5.64764">
        <ele>560.2</ele>
        <time>2021-10-23T13:20:35Z</time>
      </trkpt>
      <trkpt lat="46.58533" lon="5.64764">
        <ele>560.2</ele>
        <time>2021-10-23T13:20:37Z</time>
      </trkpt>
      <trkpt lat="46.58566" lon="5.64757">
        <ele>559.8</ele>
        <time>2021-10-23T13:20:42Z</time>
      </trkpt>
      <trkpt lat="46.58573" lon="5.64756">
        <ele>559.8</ele>
        <time>2021-10-23T13:20:43Z</time>
      </trkpt>
      <trkpt lat="46.58581" lon="5.64757">
        <ele>559.8</ele>
        <time>2021-10-23T13:20:44Z</time>
      </trkpt>
      <trkpt lat="46.58607" lon="5.64763">
        <ele>560</ele>
        <time>2021-10-23T13:20:48Z</time>
      </trkpt>
      <trkpt lat="46.58621" lon="5.64764">
        <ele>560.2</ele>
        <time>2021-10-23T13:20:50Z</time>
      </trkpt>
      <trkpt lat="46.58639" lon="5.64762">
        <ele>560.8</ele>
        <time>2021-10-23T13:20:53Z</time>
      </trkpt>
      <trkpt lat="46.58652" lon="5.64761">
        <ele>561.2</ele>
        <time>2021-10-23T13:20:55Z</time>
      </trkpt>
      <trkpt lat="46.58664" lon="5.64764">
        <ele>561.4</ele>
        <time>2021-10-23T13:20:57Z</time>
      </trkpt>
      <trkpt lat="46.58671" lon="5.64767">
        <ele>561.6</ele>
        <time>2021-10-23T13:20:58Z</time>
      </trkpt>
      <trkpt lat="46.58685" lon="5.64775">
        <ele>561.6</ele>
        <time>2021-10-23T13:21:00Z</time>
      </trkpt>
      <trkpt lat="46.58707" lon="5.64789">
        <ele>561.6</ele>
        <time>2021-10-23T13:21:03Z</time>
      </trkpt>
      <trkpt lat="46.58722" lon="5.64798">
        <ele>561</ele>
        <time>2021-10-23T13:21:05Z</time>
      </trkpt>
      <trkpt lat="46.58735" lon="5.64802">
        <ele>560.6</ele>
        <time>2021-10-23T13:21:07Z</time>
      </trkpt>
      <trkpt lat="46.58743" lon="5.64802">
        <ele>560.6</ele>
        <time>2021-10-23T13:21:08Z</time>
      </trkpt>
      <trkpt lat="46.58749" lon="5.64801">
        <ele>560.4</ele>
        <time>2021-10-23T13:21:09Z</time>
      </trkpt>
      <trkpt lat="46.58761" lon="5.64798">
        <ele>560.4</ele>
        <time>2021-10-23T13:21:11Z</time>
      </trkpt>
      <trkpt lat="46.58767" lon="5.64795">
        <ele>560.4</ele>
        <time>2021-10-23T13:21:12Z</time>
      </trkpt>
      <trkpt lat="46.58811" lon="5.64772">
        <ele>560.2</ele>
        <time>2021-10-23T13:21:18Z</time>
      </trkpt>
      <trkpt lat="46.58848" lon="5.64752">
        <ele>559.2</ele>
        <time>2021-10-23T13:21:23Z</time>
      </trkpt>
      <trkpt lat="46.58855" lon="5.64747">
        <ele>559.2</ele>
        <time>2021-10-23T13:21:24Z</time>
      </trkpt>
      <trkpt lat="46.5887" lon="5.64738">
        <ele>558.6</ele>
        <time>2021-10-23T13:21:26Z</time>
      </trkpt>
      <trkpt lat="46.58885" lon="5.64736">
        <ele>558</ele>
        <time>2021-10-23T13:21:28Z</time>
      </trkpt>
      <trkpt lat="46.58901" lon="5.64743">
        <ele>557.6</ele>
        <time>2021-10-23T13:21:30Z</time>
      </trkpt>
      <trkpt lat="46.58906" lon="5.64747">
        <ele>557.4</ele>
        <time>2021-10-23T13:21:31Z</time>
      </trkpt>
      <trkpt lat="46.58914" lon="5.64752">
        <ele>557.2</ele>
        <time>2021-10-23T13:21:32Z</time>
      </trkpt>
      <trkpt lat="46.58929" lon="5.64759">
        <ele>557.2</ele>
        <time>2021-10-23T13:21:34Z</time>
      </trkpt>
      <trkpt lat="46.58938" lon="5.64762">
        <ele>556.8</ele>
        <time>2021-10-23T13:21:35Z</time>
      </trkpt>
      <trkpt lat="46.58951" lon="5.64763">
        <ele>556.4</ele>
        <time>2021-10-23T13:21:37Z</time>
      </trkpt>
      <trkpt lat="46.58966" lon="5.64759">
        <ele>556</ele>
        <time>2021-10-23T13:21:39Z</time>
      </trkpt>
      <trkpt lat="46.58983" lon="5.64748">
        <ele>555.6</ele>
        <time>2021-10-23T13:21:42Z</time>
      </trkpt>
      <trkpt lat="46.58996" lon="5.64738">
        <ele>555.4</ele>
        <time>2021-10-23T13:21:44Z</time>
      </trkpt>
      <trkpt lat="46.59043" lon="5.64695">
        <ele>555.2</ele>
        <time>2021-10-23T13:21:53Z</time>
      </trkpt>
      <trkpt lat="46.59093" lon="5.64663">
        <ele>556.6</ele>
        <time>2021-10-23T13:22:02Z</time>
      </trkpt>
      <trkpt lat="46.59098" lon="5.6466">
        <ele>556.6</ele>
        <time>2021-10-23T13:22:03Z</time>
      </trkpt>
      <trkpt lat="46.59103" lon="5.64657">
        <ele>556.8</ele>
        <time>2021-10-23T13:22:04Z</time>
      </trkpt>
      <trkpt lat="46.59127" lon="5.64642">
        <ele>558</ele>
        <time>2021-10-23T13:22:09Z</time>
      </trkpt>
      <trkpt lat="46.59137" lon="5.64637">
        <ele>558.4</ele>
        <time>2021-10-23T13:22:11Z</time>
      </trkpt>
      <trkpt lat="46.59151" lon="5.64627">
        <ele>559</ele>
        <time>2021-10-23T13:22:14Z</time>
      </trkpt>
      <trkpt lat="46.59155" lon="5.64624">
        <ele>559.2</ele>
        <time>2021-10-23T13:22:15Z</time>
      </trkpt>
      <trkpt lat="46.59163" lon="5.64618">
        <ele>559.4</ele>
        <time>2021-10-23T13:22:17Z</time>
      </trkpt>
      <trkpt lat="46.59171" lon="5.64612">
        <ele>559.6</ele>
        <time>2021-10-23T13:22:19Z</time>
      </trkpt>
      <trkpt lat="46.5918" lon="5.64604">
        <ele>560.2</ele>
        <time>2021-10-23T13:22:21Z</time>
      </trkpt>
      <trkpt lat="46.59185" lon="5.64601">
        <ele>560.4</ele>
        <time>2021-10-23T13:22:22Z</time>
      </trkpt>
      <trkpt lat="46.5919" lon="5.64598">
        <ele>560.6</ele>
        <time>2021-10-23T13:22:23Z</time>
      </trkpt>
      <trkpt lat="46.59201" lon="5.64594">
        <ele>561</ele>
        <time>2021-10-23T13:22:25Z</time>
      </trkpt>
      <trkpt lat="46.5921" lon="5.64593">
        <ele>561.4</ele>
        <time>2021-10-23T13:22:27Z</time>
      </trkpt>
      <trkpt lat="46.59216" lon="5.64594">
        <ele>561.4</ele>
        <time>2021-10-23T13:22:28Z</time>
      </trkpt>
      <trkpt lat="46.59238" lon="5.64593">
        <ele>562.2</ele>
        <time>2021-10-23T13:22:32Z</time>
      </trkpt>
      <trkpt lat="46.5925" lon="5.6459">
        <ele>562.6</ele>
        <time>2021-10-23T13:22:34Z</time>
      </trkpt>
      <trkpt lat="46.59277" lon="5.64581">
        <ele>563.8</ele>
        <time>2021-10-23T13:22:39Z</time>
      </trkpt>
      <trkpt lat="46.59286" lon="5.64577">
        <ele>563.8</ele>
        <time>2021-10-23T13:22:41Z</time>
      </trkpt>
      <trkpt lat="46.59332" lon="5.64564">
        <ele>564.8</ele>
        <time>2021-10-23T13:22:49Z</time>
      </trkpt>
      <trkpt lat="46.59364" lon="5.64569">
        <ele>566</ele>
        <time>2021-10-23T13:22:55Z</time>
      </trkpt>
      <trkpt lat="46.59368" lon="5.6457">
        <ele>566.2</ele>
        <time>2021-10-23T13:22:56Z</time>
      </trkpt>
      <trkpt lat="46.59409" lon="5.64584">
        <ele>567</ele>
        <time>2021-10-23T13:23:04Z</time>
      </trkpt>
      <trkpt lat="46.59416" lon="5.64586">
        <ele>567</ele>
        <time>2021-10-23T13:23:05Z</time>
      </trkpt>
      <trkpt lat="46.5942" lon="5.64587">
        <ele>567.2</ele>
        <time>2021-10-23T13:23:06Z</time>
      </trkpt>
      <trkpt lat="46.59448" lon="5.64595">
        <ele>568</ele>
        <time>2021-10-23T13:23:11Z</time>
      </trkpt>
      <trkpt lat="46.59459" lon="5.64598">
        <ele>568.2</ele>
        <time>2021-10-23T13:23:13Z</time>
      </trkpt>
      <trkpt lat="46.59503" lon="5.64609">
        <ele>569</ele>
        <time>2021-10-23T13:23:20Z</time>
      </trkpt>
      <trkpt lat="46.59546" lon="5.6462">
        <ele>569</ele>
        <time>2021-10-23T13:23:27Z</time>
      </trkpt>
      <trkpt lat="46.59595" lon="5.64637">
        <ele>569.2</ele>
        <time>2021-10-23T13:23:35Z</time>
      </trkpt>
      <trkpt lat="46.59601" lon="5.64639">
        <ele>569.2</ele>
        <time>2021-10-23T13:23:36Z</time>
      </trkpt>
      <trkpt lat="46.5963" lon="5.64646">
        <ele>570</ele>
        <time>2021-10-23T13:23:41Z</time>
      </trkpt>
      <trkpt lat="46.59636" lon="5.64645">
        <ele>570.2</ele>
        <time>2021-10-23T13:23:42Z</time>
      </trkpt>
      <trkpt lat="46.59642" lon="5.64643">
        <ele>570.4</ele>
        <time>2021-10-23T13:23:43Z</time>
      </trkpt>
      <trkpt lat="46.59664" lon="5.64631">
        <ele>571.4</ele>
        <time>2021-10-23T13:23:47Z</time>
      </trkpt>
      <trkpt lat="46.59688" lon="5.6461">
        <ele>572.6</ele>
        <time>2021-10-23T13:23:52Z</time>
      </trkpt>
      <trkpt lat="46.59701" lon="5.64598">
        <ele>573</ele>
        <time>2021-10-23T13:23:55Z</time>
      </trkpt>
      <trkpt lat="46.59713" lon="5.64588">
        <ele>573.6</ele>
        <time>2021-10-23T13:23:58Z</time>
      </trkpt>
      <trkpt lat="46.59717" lon="5.64586">
        <ele>573.8</ele>
        <time>2021-10-23T13:23:59Z</time>
      </trkpt>
      <trkpt lat="46.59727" lon="5.64581">
        <ele>574.8</ele>
        <time>2021-10-23T13:24:02Z</time>
      </trkpt>
      <trkpt lat="46.59731" lon="5.64578">
        <ele>575</ele>
        <time>2021-10-23T13:24:03Z</time>
      </trkpt>
      <trkpt lat="46.59733" lon="5.64573">
        <ele>575</ele>
        <time>2021-10-23T13:24:04Z</time>
      </trkpt>
      <trkpt lat="46.59735" lon="5.64567">
        <ele>575</ele>
        <time>2021-10-23T13:24:05Z</time>
      </trkpt>
      <trkpt lat="46.59741" lon="5.6454">
        <ele>575</ele>
        <time>2021-10-23T13:24:09Z</time>
      </trkpt>
      <trkpt lat="46.59758" lon="5.64494">
        <ele>573.6</ele>
        <time>2021-10-23T13:24:15Z</time>
      </trkpt>
      <trkpt lat="46.59787" lon="5.64437">
        <ele>572.4</ele>
        <time>2021-10-23T13:24:22Z</time>
      </trkpt>
      <trkpt lat="46.59792" lon="5.64428">
        <ele>572</ele>
        <time>2021-10-23T13:24:23Z</time>
      </trkpt>
      <trkpt lat="46.59807" lon="5.64401">
        <ele>571.2</ele>
        <time>2021-10-23T13:24:26Z</time>
      </trkpt>
      <trkpt lat="46.59816" lon="5.64382">
        <ele>570.2</ele>
        <time>2021-10-23T13:24:28Z</time>
      </trkpt>
      <trkpt lat="46.59825" lon="5.64363">
        <ele>569.4</ele>
        <time>2021-10-23T13:24:30Z</time>
      </trkpt>
      <trkpt lat="46.59835" lon="5.64344">
        <ele>569.2</ele>
        <time>2021-10-23T13:24:32Z</time>
      </trkpt>
      <trkpt lat="46.59849" lon="5.64316">
        <ele>567.8</ele>
        <time>2021-10-23T13:24:35Z</time>
      </trkpt>
      <trkpt lat="46.59868" lon="5.64278">
        <ele>566.6</ele>
        <time>2021-10-23T13:24:39Z</time>
      </trkpt>
      <trkpt lat="46.59891" lon="5.64233">
        <ele>565.6</ele>
        <time>2021-10-23T13:24:44Z</time>
      </trkpt>
      <trkpt lat="46.59896" lon="5.64224">
        <ele>565.4</ele>
        <time>2021-10-23T13:24:45Z</time>
      </trkpt>
      <trkpt lat="46.59921" lon="5.64174">
        <ele>564.4</ele>
        <time>2021-10-23T13:24:51Z</time>
      </trkpt>
      <trkpt lat="46.5993" lon="5.64158">
        <ele>564.4</ele>
        <time>2021-10-23T13:24:53Z</time>
      </trkpt>
      <trkpt lat="46.59958" lon="5.64108">
        <ele>564.8</ele>
        <time>2021-10-23T13:25:00Z</time>
      </trkpt>
      <trkpt lat="46.59968" lon="5.64103">
        <ele>565.2</ele>
        <time>2021-10-23T13:25:02Z</time>
      </trkpt>
      <trkpt lat="46.59973" lon="5.64103">
        <ele>565.4</ele>
        <time>2021-10-23T13:25:03Z</time>
      </trkpt>
      <trkpt lat="46.59978" lon="5.64103">
        <ele>565.6</ele>
        <time>2021-10-23T13:25:04Z</time>
      </trkpt>
      <trkpt lat="46.59983" lon="5.64104">
        <ele>565.6</ele>
        <time>2021-10-23T13:25:05Z</time>
      </trkpt>
      <trkpt lat="46.59993" lon="5.64102">
        <ele>566.2</ele>
        <time>2021-10-23T13:25:07Z</time>
      </trkpt>
      <trkpt lat="46.59998" lon="5.64101">
        <ele>566.4</ele>
        <time>2021-10-23T13:25:08Z</time>
      </trkpt>
      <trkpt lat="46.60003" lon="5.641">
        <ele>566.6</ele>
        <time>2021-10-23T13:25:09Z</time>
      </trkpt>
      <trkpt lat="46.60046" lon="5.64091">
        <ele>567.4</ele>
        <time>2021-10-23T13:25:17Z</time>
      </trkpt>
      <trkpt lat="46.60064" lon="5.64086">
        <ele>567.8</ele>
        <time>2021-10-23T13:25:20Z</time>
      </trkpt>
      <trkpt lat="46.6007" lon="5.64084">
        <ele>567.6</ele>
        <time>2021-10-23T13:25:21Z</time>
      </trkpt>
      <trkpt lat="46.60082" lon="5.64081">
        <ele>567.6</ele>
        <time>2021-10-23T13:25:23Z</time>
      </trkpt>
      <trkpt lat="46.60125" lon="5.64075">
        <ele>567.8</ele>
        <time>2021-10-23T13:25:30Z</time>
      </trkpt>
      <trkpt lat="46.60165" lon="5.64083">
        <ele>567.4</ele>
        <time>2021-10-23T13:25:36Z</time>
      </trkpt>
      <trkpt lat="46.60208" lon="5.64086">
        <ele>566.8</ele>
        <time>2021-10-23T13:25:42Z</time>
      </trkpt>
      <trkpt lat="46.60222" lon="5.64086">
        <ele>565.8</ele>
        <time>2021-10-23T13:25:44Z</time>
      </trkpt>
      <trkpt lat="46.60229" lon="5.64086">
        <ele>565.6</ele>
        <time>2021-10-23T13:25:45Z</time>
      </trkpt>
      <trkpt lat="46.60248" lon="5.64086">
        <ele>565.8</ele>
        <time>2021-10-23T13:25:48Z</time>
      </trkpt>
      <trkpt lat="46.60255" lon="5.64087">
        <ele>565.6</ele>
        <time>2021-10-23T13:25:49Z</time>
      </trkpt>
      <trkpt lat="46.60301" lon="5.64097">
        <ele>565.6</ele>
        <time>2021-10-23T13:25:56Z</time>
      </trkpt>
      <trkpt lat="46.60358" lon="5.64114">
        <ele>565.8</ele>
        <time>2021-10-23T13:26:05Z</time>
      </trkpt>
      <trkpt lat="46.60372" lon="5.64117">
        <ele>565.8</ele>
        <time>2021-10-23T13:26:07Z</time>
      </trkpt>
      <trkpt lat="46.60427" lon="5.64134">
        <ele>566.4</ele>
        <time>2021-10-23T13:26:16Z</time>
      </trkpt>
      <trkpt lat="46.60445" lon="5.6414">
        <ele>566.8</ele>
        <time>2021-10-23T13:26:19Z</time>
      </trkpt>
      <trkpt lat="46.60487" lon="5.64151">
        <ele>567.4</ele>
        <time>2021-10-23T13:26:26Z</time>
      </trkpt>
      <trkpt lat="46.60525" lon="5.64154">
        <ele>567.8</ele>
        <time>2021-10-23T13:26:32Z</time>
      </trkpt>
      <trkpt lat="46.60556" lon="5.64153">
        <ele>568.2</ele>
        <time>2021-10-23T13:26:37Z</time>
      </trkpt>
      <trkpt lat="46.60589" lon="5.64146">
        <ele>569</ele>
        <time>2021-10-23T13:26:43Z</time>
      </trkpt>
      <trkpt lat="46.60594" lon="5.64144">
        <ele>569</ele>
        <time>2021-10-23T13:26:44Z</time>
      </trkpt>
      <trkpt lat="46.60622" lon="5.64139">
        <ele>570.4</ele>
        <time>2021-10-23T13:26:49Z</time>
      </trkpt>
      <trkpt lat="46.60633" lon="5.6414">
        <ele>570.6</ele>
        <time>2021-10-23T13:26:51Z</time>
      </trkpt>
      <trkpt lat="46.60656" lon="5.64145">
        <ele>571.6</ele>
        <time>2021-10-23T13:26:55Z</time>
      </trkpt>
      <trkpt lat="46.6068" lon="5.64154">
        <ele>572.8</ele>
        <time>2021-10-23T13:26:59Z</time>
      </trkpt>
      <trkpt lat="46.60724" lon="5.64167">
        <ele>572.8</ele>
        <time>2021-10-23T13:27:06Z</time>
      </trkpt>
      <trkpt lat="46.60765" lon="5.64166">
        <ele>572.4</ele>
        <time>2021-10-23T13:27:12Z</time>
      </trkpt>
      <trkpt lat="46.60824" lon="5.64157">
        <ele>572</ele>
        <time>2021-10-23T13:27:20Z</time>
      </trkpt>
      <trkpt lat="46.60852" lon="5.64155">
        <ele>571.6</ele>
        <time>2021-10-23T13:27:24Z</time>
      </trkpt>
      <trkpt lat="46.60886" lon="5.64157">
        <ele>572</ele>
        <time>2021-10-23T13:27:29Z</time>
      </trkpt>
      <trkpt lat="46.60913" lon="5.64159">
        <ele>572.8</ele>
        <time>2021-10-23T13:27:33Z</time>
      </trkpt>
      <trkpt lat="46.60925" lon="5.6416">
        <ele>573.2</ele>
        <time>2021-10-23T13:27:35Z</time>
      </trkpt>
      <trkpt lat="46.60945" lon="5.64162">
        <ele>574</ele>
        <time>2021-10-23T13:27:38Z</time>
      </trkpt>
      <trkpt lat="46.6099" lon="5.64162">
        <ele>575</ele>
        <time>2021-10-23T13:27:45Z</time>
      </trkpt>
      <trkpt lat="46.61028" lon="5.64157">
        <ele>576.2</ele>
        <time>2021-10-23T13:27:51Z</time>
      </trkpt>
      <trkpt lat="46.6106" lon="5.64153">
        <ele>577.2</ele>
        <time>2021-10-23T13:27:56Z</time>
      </trkpt>
      <trkpt lat="46.61107" lon="5.64155">
        <ele>578</ele>
        <time>2021-10-23T13:28:03Z</time>
      </trkpt>
      <trkpt lat="46.6112" lon="5.64161">
        <ele>578</ele>
        <time>2021-10-23T13:28:05Z</time>
      </trkpt>
      <trkpt lat="46.61132" lon="5.64171">
        <ele>578</ele>
        <time>2021-10-23T13:28:07Z</time>
      </trkpt>
      <trkpt lat="46.61165" lon="5.64207">
        <ele>577.6</ele>
        <time>2021-10-23T13:28:12Z</time>
      </trkpt>
      <trkpt lat="46.61171" lon="5.64215">
        <ele>577.6</ele>
        <time>2021-10-23T13:28:13Z</time>
      </trkpt>
      <trkpt lat="46.61177" lon="5.64239">
        <ele>576.6</ele>
        <time>2021-10-23T13:28:15Z</time>
      </trkpt>
      <trkpt lat="46.61177" lon="5.64253">
        <ele>575.8</ele>
        <time>2021-10-23T13:28:16Z</time>
      </trkpt>
      <trkpt lat="46.61175" lon="5.64266">
        <ele>574.8</ele>
        <time>2021-10-23T13:28:17Z</time>
      </trkpt>
      <trkpt lat="46.61172" lon="5.6428">
        <ele>574.2</ele>
        <time>2021-10-23T13:28:18Z</time>
      </trkpt>
      <trkpt lat="46.61169" lon="5.6431">
        <ele>573.2</ele>
        <time>2021-10-23T13:28:20Z</time>
      </trkpt>
      <trkpt lat="46.61168" lon="5.6434">
        <ele>572</ele>
        <time>2021-10-23T13:28:22Z</time>
      </trkpt>
      <trkpt lat="46.61173" lon="5.6437">
        <ele>570.8</ele>
        <time>2021-10-23T13:28:24Z</time>
      </trkpt>
      <trkpt lat="46.61179" lon="5.64382">
        <ele>569.8</ele>
        <time>2021-10-23T13:28:25Z</time>
      </trkpt>
      <trkpt lat="46.61187" lon="5.64393">
        <ele>568.8</ele>
        <time>2021-10-23T13:28:26Z</time>
      </trkpt>
      <trkpt lat="46.61203" lon="5.64411">
        <ele>567.8</ele>
        <time>2021-10-23T13:28:28Z</time>
      </trkpt>
      <trkpt lat="46.6122" lon="5.64428">
        <ele>566.2</ele>
        <time>2021-10-23T13:28:30Z</time>
      </trkpt>
      <trkpt lat="46.61229" lon="5.64435">
        <ele>566</ele>
        <time>2021-10-23T13:28:31Z</time>
      </trkpt>
      <trkpt lat="46.61248" lon="5.64445">
        <ele>565</ele>
        <time>2021-10-23T13:28:33Z</time>
      </trkpt>
      <trkpt lat="46.61301" lon="5.64456">
        <ele>563.6</ele>
        <time>2021-10-23T13:28:38Z</time>
      </trkpt>
      <trkpt lat="46.61311" lon="5.64457">
        <ele>562.8</ele>
        <time>2021-10-23T13:28:39Z</time>
      </trkpt>
      <trkpt lat="46.61322" lon="5.64456">
        <ele>562</ele>
        <time>2021-10-23T13:28:40Z</time>
      </trkpt>
      <trkpt lat="46.61342" lon="5.64454">
        <ele>560.8</ele>
        <time>2021-10-23T13:28:42Z</time>
      </trkpt>
      <trkpt lat="46.61362" lon="5.6445">
        <ele>559.8</ele>
        <time>2021-10-23T13:28:44Z</time>
      </trkpt>
      <trkpt lat="46.61373" lon="5.64448">
        <ele>559.6</ele>
        <time>2021-10-23T13:28:45Z</time>
      </trkpt>
      <trkpt lat="46.61421" lon="5.64437">
        <ele>558.6</ele>
        <time>2021-10-23T13:28:50Z</time>
      </trkpt>
      <trkpt lat="46.61474" lon="5.6442">
        <ele>559</ele>
        <time>2021-10-23T13:28:56Z</time>
      </trkpt>
      <trkpt lat="46.61508" lon="5.64392">
        <ele>559.8</ele>
        <time>2021-10-23T13:29:01Z</time>
      </trkpt>
      <trkpt lat="46.61539" lon="5.64355">
        <ele>560.6</ele>
        <time>2021-10-23T13:29:07Z</time>
      </trkpt>
      <trkpt lat="46.61545" lon="5.64349">
        <ele>560.6</ele>
        <time>2021-10-23T13:29:08Z</time>
      </trkpt>
      <trkpt lat="46.61555" lon="5.64337">
        <ele>560.8</ele>
        <time>2021-10-23T13:29:10Z</time>
      </trkpt>
      <trkpt lat="46.61574" lon="5.64325">
        <ele>561</ele>
        <time>2021-10-23T13:29:13Z</time>
      </trkpt>
      <trkpt lat="46.61593" lon="5.64318">
        <ele>561.6</ele>
        <time>2021-10-23T13:29:16Z</time>
      </trkpt>
      <trkpt lat="46.61606" lon="5.64316">
        <ele>562</ele>
        <time>2021-10-23T13:29:18Z</time>
      </trkpt>
      <trkpt lat="46.61613" lon="5.64314">
        <ele>562.2</ele>
        <time>2021-10-23T13:29:19Z</time>
      </trkpt>
      <trkpt lat="46.61626" lon="5.64308">
        <ele>562.8</ele>
        <time>2021-10-23T13:29:21Z</time>
      </trkpt>
      <trkpt lat="46.61633" lon="5.64304">
        <ele>563</ele>
        <time>2021-10-23T13:29:22Z</time>
      </trkpt>
      <trkpt lat="46.61654" lon="5.64284">
        <ele>563.6</ele>
        <time>2021-10-23T13:29:25Z</time>
      </trkpt>
      <trkpt lat="46.61665" lon="5.64268">
        <ele>563.6</ele>
        <time>2021-10-23T13:29:27Z</time>
      </trkpt>
      <trkpt lat="46.61692" lon="5.64224">
        <ele>563.4</ele>
        <time>2021-10-23T13:29:32Z</time>
      </trkpt>
      <trkpt lat="46.61722" lon="5.64172">
        <ele>562.8</ele>
        <time>2021-10-23T13:29:38Z</time>
      </trkpt>
      <trkpt lat="46.61728" lon="5.64167">
        <ele>562.6</ele>
        <time>2021-10-23T13:29:39Z</time>
      </trkpt>
      <trkpt lat="46.61735" lon="5.64162">
        <ele>562.6</ele>
        <time>2021-10-23T13:29:40Z</time>
      </trkpt>
      <trkpt lat="46.61749" lon="5.64156">
        <ele>562.6</ele>
        <time>2021-10-23T13:29:42Z</time>
      </trkpt>
      <trkpt lat="46.61789" lon="5.64153">
        <ele>562.6</ele>
        <time>2021-10-23T13:29:47Z</time>
      </trkpt>
      <trkpt lat="46.61831" lon="5.64151">
        <ele>562.4</ele>
        <time>2021-10-23T13:29:52Z</time>
      </trkpt>
      <trkpt lat="46.61876" lon="5.6415">
        <ele>561.4</ele>
        <time>2021-10-23T13:29:57Z</time>
      </trkpt>
      <trkpt lat="46.61904" lon="5.64148">
        <ele>560.6</ele>
        <time>2021-10-23T13:30:00Z</time>
      </trkpt>
      <trkpt lat="46.61913" lon="5.64147">
        <ele>560.4</ele>
        <time>2021-10-23T13:30:01Z</time>
      </trkpt>
      <trkpt lat="46.6194" lon="5.64144">
        <ele>559.4</ele>
        <time>2021-10-23T13:30:04Z</time>
      </trkpt>
      <trkpt lat="46.61984" lon="5.64141">
        <ele>557.6</ele>
        <time>2021-10-23T13:30:09Z</time>
      </trkpt>
      <trkpt lat="46.62021" lon="5.64137">
        <ele>556.4</ele>
        <time>2021-10-23T13:30:13Z</time>
      </trkpt>
      <trkpt lat="46.62031" lon="5.64135">
        <ele>556</ele>
        <time>2021-10-23T13:30:14Z</time>
      </trkpt>
      <trkpt lat="46.62051" lon="5.6413">
        <ele>554.8</ele>
        <time>2021-10-23T13:30:16Z</time>
      </trkpt>
      <trkpt lat="46.62088" lon="5.64116">
        <ele>553.6</ele>
        <time>2021-10-23T13:30:20Z</time>
      </trkpt>
      <trkpt lat="46.62133" lon="5.64107">
        <ele>553</ele>
        <time>2021-10-23T13:30:25Z</time>
      </trkpt>
      <trkpt lat="46.62168" lon="5.64108">
        <ele>552.4</ele>
        <time>2021-10-23T13:30:29Z</time>
      </trkpt>
      <trkpt lat="46.62177" lon="5.64107">
        <ele>552.2</ele>
        <time>2021-10-23T13:30:30Z</time>
      </trkpt>
      <trkpt lat="46.62185" lon="5.64105">
        <ele>552</ele>
        <time>2021-10-23T13:30:31Z</time>
      </trkpt>
      <trkpt lat="46.62193" lon="5.64102">
        <ele>552</ele>
        <time>2021-10-23T13:30:32Z</time>
      </trkpt>
      <trkpt lat="46.62215" lon="5.64087">
        <ele>552</ele>
        <time>2021-10-23T13:30:35Z</time>
      </trkpt>
      <trkpt lat="46.62257" lon="5.64061">
        <ele>552</ele>
        <time>2021-10-23T13:30:41Z</time>
      </trkpt>
      <trkpt lat="46.62297" lon="5.64053">
        <ele>552.2</ele>
        <time>2021-10-23T13:30:46Z</time>
      </trkpt>
      <trkpt lat="46.62331" lon="5.64062">
        <ele>551.2</ele>
        <time>2021-10-23T13:30:50Z</time>
      </trkpt>
      <trkpt lat="46.62382" lon="5.64091">
        <ele>550.8</ele>
        <time>2021-10-23T13:30:57Z</time>
      </trkpt>
      <trkpt lat="46.62421" lon="5.6412">
        <ele>551.8</ele>
        <time>2021-10-23T13:31:03Z</time>
      </trkpt>
      <trkpt lat="46.62468" lon="5.64164">
        <ele>552.2</ele>
        <time>2021-10-23T13:31:10Z</time>
      </trkpt>
      <trkpt lat="46.62475" lon="5.6417">
        <ele>552.2</ele>
        <time>2021-10-23T13:31:11Z</time>
      </trkpt>
      <trkpt lat="46.62519" lon="5.64214">
        <ele>550.2</ele>
        <time>2021-10-23T13:31:17Z</time>
      </trkpt>
      <trkpt lat="46.62527" lon="5.64222">
        <ele>549.8</ele>
        <time>2021-10-23T13:31:18Z</time>
      </trkpt>
      <trkpt lat="46.62543" lon="5.64234">
        <ele>548.8</ele>
        <time>2021-10-23T13:31:20Z</time>
      </trkpt>
      <trkpt lat="46.62563" lon="5.64239">
        <ele>547.6</ele>
        <time>2021-10-23T13:31:22Z</time>
      </trkpt>
      <trkpt lat="46.62593" lon="5.64238">
        <ele>546.2</ele>
        <time>2021-10-23T13:31:25Z</time>
      </trkpt>
      <trkpt lat="46.62612" lon="5.64238">
        <ele>545</ele>
        <time>2021-10-23T13:31:27Z</time>
      </trkpt>
      <trkpt lat="46.62633" lon="5.64238">
        <ele>544</ele>
        <time>2021-10-23T13:31:29Z</time>
      </trkpt>
      <trkpt lat="46.62675" lon="5.6424">
        <ele>542.4</ele>
        <time>2021-10-23T13:31:33Z</time>
      </trkpt>
      <trkpt lat="46.62694" lon="5.64244">
        <ele>542</ele>
        <time>2021-10-23T13:31:34Z</time>
      </trkpt>
      <trkpt lat="46.62703" lon="5.64247">
        <ele>541.4</ele>
        <time>2021-10-23T13:31:36Z</time>
      </trkpt>
      <trkpt lat="46.62736" lon="5.64266">
        <ele>540.8</ele>
        <time>2021-10-23T13:31:39Z</time>
      </trkpt>
      <trkpt lat="46.62787" lon="5.64295">
        <ele>541.8</ele>
        <time>2021-10-23T13:31:46Z</time>
      </trkpt>
      <trkpt lat="46.62806" lon="5.643">
        <ele>542.6</ele>
        <time>2021-10-23T13:31:49Z</time>
      </trkpt>
      <trkpt lat="46.62821" lon="5.64303">
        <ele>543.4</ele>
        <time>2021-10-23T13:31:52Z</time>
      </trkpt>
      <trkpt lat="46.62828" lon="5.64304">
        <ele>543.6</ele>
        <time>2021-10-23T13:31:53Z</time>
      </trkpt>
      <trkpt lat="46.62877" lon="5.64312">
        <ele>544.8</ele>
        <time>2021-10-23T13:32:00Z</time>
      </trkpt>
      <trkpt lat="46.62916" lon="5.64317">
        <ele>545.6</ele>
        <time>2021-10-23T13:32:05Z</time>
      </trkpt>
      <trkpt lat="46.62934" lon="5.64319">
        <ele>545.8</ele>
        <time>2021-10-23T13:32:08Z</time>
      </trkpt>
      <trkpt lat="46.62964" lon="5.64325">
        <ele>547</ele>
        <time>2021-10-23T13:32:14Z</time>
      </trkpt>
      <trkpt lat="46.62968" lon="5.64326">
        <ele>547</ele>
        <time>2021-10-23T13:32:15Z</time>
      </trkpt>
      <trkpt lat="46.62981" lon="5.64328">
        <ele>547.2</ele>
        <time>2021-10-23T13:32:16Z</time>
      </trkpt>
      <trkpt lat="46.62999" lon="5.64329">
        <ele>547.6</ele>
        <time>2021-10-23T13:32:20Z</time>
      </trkpt>
      <trkpt lat="46.6301" lon="5.64331">
        <ele>548</ele>
        <time>2021-10-23T13:32:22Z</time>
      </trkpt>
      <trkpt lat="46.63032" lon="5.64334">
        <ele>549.2</ele>
        <time>2021-10-23T13:32:25Z</time>
      </trkpt>
      <trkpt lat="46.63054" lon="5.64337">
        <ele>550.2</ele>
        <time>2021-10-23T13:32:29Z</time>
      </trkpt>
      <trkpt lat="46.63054" lon="5.64337">
        <ele>550.4</ele>
        <time>2021-10-23T13:32:30Z</time>
      </trkpt>
      <trkpt lat="46.63076" lon="5.64341">
        <ele>551.6</ele>
        <time>2021-10-23T13:32:33Z</time>
      </trkpt>
      <trkpt lat="46.63099" lon="5.64345">
        <ele>552.4</ele>
        <time>2021-10-23T13:32:37Z</time>
      </trkpt>
      <trkpt lat="46.63111" lon="5.64345">
        <ele>552.4</ele>
        <time>2021-10-23T13:32:39Z</time>
      </trkpt>
      <trkpt lat="46.63117" lon="5.64345">
        <ele>552.6</ele>
        <time>2021-10-23T13:32:40Z</time>
      </trkpt>
      <trkpt lat="46.63167" lon="5.64334">
        <ele>552.6</ele>
        <time>2021-10-23T13:32:47Z</time>
      </trkpt>
      <trkpt lat="46.63208" lon="5.64338">
        <ele>551.6</ele>
        <time>2021-10-23T13:32:52Z</time>
      </trkpt>
      <trkpt lat="46.63216" lon="5.64338">
        <ele>551</ele>
        <time>2021-10-23T13:32:53Z</time>
      </trkpt>
      <trkpt lat="46.63239" lon="5.64332">
        <ele>549.8</ele>
        <time>2021-10-23T13:32:56Z</time>
      </trkpt>
      <trkpt lat="46.63246" lon="5.64326">
        <ele>549.2</ele>
        <time>2021-10-23T13:32:57Z</time>
      </trkpt>
      <trkpt lat="46.63252" lon="5.6432">
        <ele>548.8</ele>
        <time>2021-10-23T13:32:58Z</time>
      </trkpt>
      <trkpt lat="46.63263" lon="5.64307">
        <ele>548.6</ele>
        <time>2021-10-23T13:33:00Z</time>
      </trkpt>
      <trkpt lat="46.63268" lon="5.643">
        <ele>548.4</ele>
        <time>2021-10-23T13:33:02Z</time>
      </trkpt>
      <trkpt lat="46.63278" lon="5.64287">
        <ele>548.4</ele>
        <time>2021-10-23T13:33:03Z</time>
      </trkpt>
      <trkpt lat="46.63292" lon="5.64271">
        <ele>548.4</ele>
        <time>2021-10-23T13:33:06Z</time>
      </trkpt>
      <trkpt lat="46.63302" lon="5.64262">
        <ele>548.6</ele>
        <time>2021-10-23T13:33:08Z</time>
      </trkpt>
      <trkpt lat="46.63313" lon="5.64258">
        <ele>548.6</ele>
        <time>2021-10-23T13:33:10Z</time>
      </trkpt>
      <trkpt lat="46.63334" lon="5.64251">
        <ele>549</ele>
        <time>2021-10-23T13:33:14Z</time>
      </trkpt>
      <trkpt lat="46.63339" lon="5.64248">
        <ele>549</ele>
        <time>2021-10-23T13:33:15Z</time>
      </trkpt>
      <trkpt lat="46.63344" lon="5.64244">
        <ele>548.8</ele>
        <time>2021-10-23T13:33:16Z</time>
      </trkpt>
      <trkpt lat="46.63355" lon="5.64228">
        <ele>548.8</ele>
        <time>2021-10-23T13:33:19Z</time>
      </trkpt>
      <trkpt lat="46.63375" lon="5.64195">
        <ele>547.8</ele>
        <time>2021-10-23T13:33:24Z</time>
      </trkpt>
      <trkpt lat="46.63383" lon="5.6418">
        <ele>547.2</ele>
        <time>2021-10-23T13:33:26Z</time>
      </trkpt>
      <trkpt lat="46.63396" lon="5.64161">
        <ele>546.6</ele>
        <time>2021-10-23T13:33:29Z</time>
      </trkpt>
      <trkpt lat="46.63414" lon="5.64132">
        <ele>546.2</ele>
        <time>2021-10-23T13:33:33Z</time>
      </trkpt>
      <trkpt lat="46.63421" lon="5.64114">
        <ele>546.2</ele>
        <time>2021-10-23T13:33:35Z</time>
      </trkpt>
      <trkpt lat="46.63424" lon="5.64096">
        <ele>546.6</ele>
        <time>2021-10-23T13:33:37Z</time>
      </trkpt>
      <trkpt lat="46.63426" lon="5.64009">
        <ele>547.2</ele>
        <time>2021-10-23T13:33:46Z</time>
      </trkpt>
      <trkpt lat="46.63427" lon="5.64">
        <ele>547.2</ele>
        <time>2021-10-23T13:33:47Z</time>
      </trkpt>
      <trkpt lat="46.63424" lon="5.63973">
        <ele>547.2</ele>
        <time>2021-10-23T13:33:50Z</time>
      </trkpt>
      <trkpt lat="46.6342" lon="5.63948">
        <ele>547.2</ele>
        <time>2021-10-23T13:33:53Z</time>
      </trkpt>
      <trkpt lat="46.63419" lon="5.63939">
        <ele>547.2</ele>
        <time>2021-10-23T13:33:54Z</time>
      </trkpt>
      <trkpt lat="46.63419" lon="5.6393">
        <ele>547.2</ele>
        <time>2021-10-23T13:33:55Z</time>
      </trkpt>
      <trkpt lat="46.63423" lon="5.63911">
        <ele>547.2</ele>
        <time>2021-10-23T13:33:58Z</time>
      </trkpt>
      <trkpt lat="46.6343" lon="5.63892">
        <ele>546.6</ele>
        <time>2021-10-23T13:33:59Z</time>
      </trkpt>
      <trkpt lat="46.6344" lon="5.63863">
        <ele>546</ele>
        <time>2021-10-23T13:34:02Z</time>
      </trkpt>
      <trkpt lat="46.63442" lon="5.63852">
        <ele>546</ele>
        <time>2021-10-23T13:34:03Z</time>
      </trkpt>
      <trkpt lat="46.63448" lon="5.63819">
        <ele>545.8</ele>
        <time>2021-10-23T13:34:06Z</time>
      </trkpt>
      <trkpt lat="46.6345" lon="5.63796">
        <ele>544.8</ele>
        <time>2021-10-23T13:34:08Z</time>
      </trkpt>
      <trkpt lat="46.6345" lon="5.63784">
        <ele>544.8</ele>
        <time>2021-10-23T13:34:09Z</time>
      </trkpt>
      <trkpt lat="46.63446" lon="5.63727">
        <ele>544</ele>
        <time>2021-10-23T13:34:14Z</time>
      </trkpt>
      <trkpt lat="46.63443" lon="5.63716">
        <ele>543.4</ele>
        <time>2021-10-23T13:34:15Z</time>
      </trkpt>
      <trkpt lat="46.63429" lon="5.63656">
        <ele>542.8</ele>
        <time>2021-10-23T13:34:21Z</time>
      </trkpt>
      <trkpt lat="46.63426" lon="5.63635">
        <ele>542.6</ele>
        <time>2021-10-23T13:34:23Z</time>
      </trkpt>
      <trkpt lat="46.63421" lon="5.63582">
        <ele>542.2</ele>
        <time>2021-10-23T13:34:28Z</time>
      </trkpt>
      <trkpt lat="46.6342" lon="5.63521">
        <ele>542.6</ele>
        <time>2021-10-23T13:34:34Z</time>
      </trkpt>
      <trkpt lat="46.63432" lon="5.63464">
        <ele>542.6</ele>
        <time>2021-10-23T13:34:40Z</time>
      </trkpt>
      <trkpt lat="46.63444" lon="5.63421">
        <ele>542.8</ele>
        <time>2021-10-23T13:34:45Z</time>
      </trkpt>
      <trkpt lat="46.63463" lon="5.63349">
        <ele>543.2</ele>
        <time>2021-10-23T13:34:53Z</time>
      </trkpt>
      <trkpt lat="46.63483" lon="5.63295">
        <ele>543.2</ele>
        <time>2021-10-23T13:34:59Z</time>
      </trkpt>
      <trkpt lat="46.63511" lon="5.63232">
        <ele>542.8</ele>
        <time>2021-10-23T13:35:07Z</time>
      </trkpt>
      <trkpt lat="46.63533" lon="5.63192">
        <ele>543.4</ele>
        <time>2021-10-23T13:35:13Z</time>
      </trkpt>
      <trkpt lat="46.63542" lon="5.63179">
        <ele>543.4</ele>
        <time>2021-10-23T13:35:15Z</time>
      </trkpt>
      <trkpt lat="46.63554" lon="5.63164">
        <ele>544</ele>
        <time>2021-10-23T13:35:18Z</time>
      </trkpt>
      <trkpt lat="46.63595" lon="5.63113">
        <ele>544.4</ele>
        <time>2021-10-23T13:35:27Z</time>
      </trkpt>
      <trkpt lat="46.63614" lon="5.63088">
        <ele>544.6</ele>
        <time>2021-10-23T13:35:31Z</time>
      </trkpt>
      <trkpt lat="46.63619" lon="5.63083">
        <ele>544.6</ele>
        <time>2021-10-23T13:35:32Z</time>
      </trkpt>
      <trkpt lat="46.63624" lon="5.63078">
        <ele>544.6</ele>
        <time>2021-10-23T13:35:33Z</time>
      </trkpt>
      <trkpt lat="46.63666" lon="5.63029">
        <ele>545.6</ele>
        <time>2021-10-23T13:35:41Z</time>
      </trkpt>
      <trkpt lat="46.63691" lon="5.62993">
        <ele>545.4</ele>
        <time>2021-10-23T13:35:46Z</time>
      </trkpt>
      <trkpt lat="46.63703" lon="5.62967">
        <ele>544.8</ele>
        <time>2021-10-23T13:35:49Z</time>
      </trkpt>
      <trkpt lat="46.63711" lon="5.62944">
        <ele>544.8</ele>
        <time>2021-10-23T13:35:52Z</time>
      </trkpt>
      <trkpt lat="46.63732" lon="5.62881">
        <ele>545</ele>
        <time>2021-10-23T13:35:59Z</time>
      </trkpt>
      <trkpt lat="46.63757" lon="5.62798">
        <ele>545.6</ele>
        <time>2021-10-23T13:36:08Z</time>
      </trkpt>
      <trkpt lat="46.63762" lon="5.62781">
        <ele>545.6</ele>
        <time>2021-10-23T13:36:10Z</time>
      </trkpt>
      <trkpt lat="46.63784" lon="5.62704">
        <ele>545.2</ele>
        <time>2021-10-23T13:36:18Z</time>
      </trkpt>
      <trkpt lat="46.63793" lon="5.62676">
        <ele>545</ele>
        <time>2021-10-23T13:36:21Z</time>
      </trkpt>
      <trkpt lat="46.63816" lon="5.62595">
        <ele>544.8</ele>
        <time>2021-10-23T13:36:29Z</time>
      </trkpt>
      <trkpt lat="46.63821" lon="5.62576">
        <ele>544.8</ele>
        <time>2021-10-23T13:36:31Z</time>
      </trkpt>
      <trkpt lat="46.63844" lon="5.62495">
        <ele>544.8</ele>
        <time>2021-10-23T13:36:39Z</time>
      </trkpt>
      <trkpt lat="46.63846" lon="5.62488">
        <ele>544.8</ele>
        <time>2021-10-23T13:36:40Z</time>
      </trkpt>
      <trkpt lat="46.6387" lon="5.6242">
        <ele>545.2</ele>
        <time>2021-10-23T13:36:47Z</time>
      </trkpt>
      <trkpt lat="46.63896" lon="5.62371">
        <ele>545</ele>
        <time>2021-10-23T13:36:52Z</time>
      </trkpt>
      <trkpt lat="46.63927" lon="5.62309">
        <ele>543.6</ele>
        <time>2021-10-23T13:36:58Z</time>
      </trkpt>
      <trkpt lat="46.63959" lon="5.62246">
        <ele>543.2</ele>
        <time>2021-10-23T13:37:05Z</time>
      </trkpt>
      <trkpt lat="46.63966" lon="5.62226">
        <ele>543</ele>
        <time>2021-10-23T13:37:07Z</time>
      </trkpt>
      <trkpt lat="46.63972" lon="5.62199">
        <ele>543.2</ele>
        <time>2021-10-23T13:37:10Z</time>
      </trkpt>
      <trkpt lat="46.63979" lon="5.62171">
        <ele>543.6</ele>
        <time>2021-10-23T13:37:13Z</time>
      </trkpt>
      <trkpt lat="46.63984" lon="5.62156">
        <ele>544</ele>
        <time>2021-10-23T13:37:15Z</time>
      </trkpt>
      <trkpt lat="46.63998" lon="5.62126">
        <ele>544.8</ele>
        <time>2021-10-23T13:37:19Z</time>
      </trkpt>
      <trkpt lat="46.64015" lon="5.62095">
        <ele>546</ele>
        <time>2021-10-23T13:37:23Z</time>
      </trkpt>
      <trkpt lat="46.64019" lon="5.62089">
        <ele>546.4</ele>
        <time>2021-10-23T13:37:24Z</time>
      </trkpt>
      <trkpt lat="46.6404" lon="5.62055">
        <ele>547</ele>
        <time>2021-10-23T13:37:29Z</time>
      </trkpt>
      <trkpt lat="46.64049" lon="5.62041">
        <ele>547.4</ele>
        <time>2021-10-23T13:37:31Z</time>
      </trkpt>
      <trkpt lat="46.64069" lon="5.6201">
        <ele>548.2</ele>
        <time>2021-10-23T13:37:36Z</time>
      </trkpt>
      <trkpt lat="46.64077" lon="5.61998">
        <ele>548.4</ele>
        <time>2021-10-23T13:37:38Z</time>
      </trkpt>
      <trkpt lat="46.64109" lon="5.6195">
        <ele>549</ele>
        <time>2021-10-23T13:37:45Z</time>
      </trkpt>
      <trkpt lat="46.6413" lon="5.61916">
        <ele>549.2</ele>
        <time>2021-10-23T13:37:49Z</time>
      </trkpt>
      <trkpt lat="46.64142" lon="5.61897">
        <ele>549</ele>
        <time>2021-10-23T13:37:51Z</time>
      </trkpt>
      <trkpt lat="46.64164" lon="5.61863">
        <ele>548</ele>
        <time>2021-10-23T13:37:55Z</time>
      </trkpt>
      <trkpt lat="46.64193" lon="5.61813">
        <ele>547.6</ele>
        <time>2021-10-23T13:38:01Z</time>
      </trkpt>
      <trkpt lat="46.64222" lon="5.61747">
        <ele>547</ele>
        <time>2021-10-23T13:38:08Z</time>
      </trkpt>
      <trkpt lat="46.64226" lon="5.61737">
        <ele>547</ele>
        <time>2021-10-23T13:38:09Z</time>
      </trkpt>
      <trkpt lat="46.64256" lon="5.6167">
        <ele>546.4</ele>
        <time>2021-10-23T13:38:15Z</time>
      </trkpt>
      <trkpt lat="46.6426" lon="5.61659">
        <ele>546.2</ele>
        <time>2021-10-23T13:38:16Z</time>
      </trkpt>
      <trkpt lat="46.64269" lon="5.61639">
        <ele>545.6</ele>
        <time>2021-10-23T13:38:18Z</time>
      </trkpt>
      <trkpt lat="46.64286" lon="5.61596">
        <ele>544.4</ele>
        <time>2021-10-23T13:38:22Z</time>
      </trkpt>
      <trkpt lat="46.64302" lon="5.61551">
        <ele>544</ele>
        <time>2021-10-23T13:38:26Z</time>
      </trkpt>
      <trkpt lat="46.6432" lon="5.6149">
        <ele>543.8</ele>
        <time>2021-10-23T13:38:32Z</time>
      </trkpt>
      <trkpt lat="46.64341" lon="5.6143">
        <ele>544.6</ele>
        <time>2021-10-23T13:38:38Z</time>
      </trkpt>
      <trkpt lat="46.64348" lon="5.61412">
        <ele>545</ele>
        <time>2021-10-23T13:38:40Z</time>
      </trkpt>
      <trkpt lat="46.64358" lon="5.61383">
        <ele>545.4</ele>
        <time>2021-10-23T13:38:43Z</time>
      </trkpt>
      <trkpt lat="46.64374" lon="5.61347">
        <ele>545.8</ele>
        <time>2021-10-23T13:38:47Z</time>
      </trkpt>
      <trkpt lat="46.64383" lon="5.61329">
        <ele>546</ele>
        <time>2021-10-23T13:38:49Z</time>
      </trkpt>
      <trkpt lat="46.64399" lon="5.61303">
        <ele>546.2</ele>
        <time>2021-10-23T13:38:52Z</time>
      </trkpt>
      <trkpt lat="46.64437" lon="5.61264">
        <ele>546</ele>
        <time>2021-10-23T13:38:58Z</time>
      </trkpt>
      <trkpt lat="46.64474" lon="5.6123">
        <ele>545.4</ele>
        <time>2021-10-23T13:39:03Z</time>
      </trkpt>
      <trkpt lat="46.64502" lon="5.61203">
        <ele>544.2</ele>
        <time>2021-10-23T13:39:07Z</time>
      </trkpt>
      <trkpt lat="46.64523" lon="5.61182">
        <ele>543.4</ele>
        <time>2021-10-23T13:39:10Z</time>
      </trkpt>
      <trkpt lat="46.64529" lon="5.61175">
        <ele>543</ele>
        <time>2021-10-23T13:39:11Z</time>
      </trkpt>
      <trkpt lat="46.64569" lon="5.61134">
        <ele>542.6</ele>
        <time>2021-10-23T13:39:17Z</time>
      </trkpt>
      <trkpt lat="46.64613" lon="5.61081">
        <ele>542.8</ele>
        <time>2021-10-23T13:39:24Z</time>
      </trkpt>
      <trkpt lat="46.64626" lon="5.61067">
        <ele>543.2</ele>
        <time>2021-10-23T13:39:26Z</time>
      </trkpt>
      <trkpt lat="46.64645" lon="5.61046">
        <ele>543.4</ele>
        <time>2021-10-23T13:39:29Z</time>
      </trkpt>
      <trkpt lat="46.64666" lon="5.61029">
        <ele>543.8</ele>
        <time>2021-10-23T13:39:32Z</time>
      </trkpt>
      <trkpt lat="46.64673" lon="5.61022">
        <ele>543.8</ele>
        <time>2021-10-23T13:39:33Z</time>
      </trkpt>
      <trkpt lat="46.64685" lon="5.6101">
        <ele>544</ele>
        <time>2021-10-23T13:39:35Z</time>
      </trkpt>
      <trkpt lat="46.64699" lon="5.60999">
        <ele>543.4</ele>
        <time>2021-10-23T13:39:37Z</time>
      </trkpt>
      <trkpt lat="46.64707" lon="5.60996">
        <ele>543.4</ele>
        <time>2021-10-23T13:39:38Z</time>
      </trkpt>
      <trkpt lat="46.64752" lon="5.60973">
        <ele>542.2</ele>
        <time>2021-10-23T13:39:44Z</time>
      </trkpt>
      <trkpt lat="46.64801" lon="5.60935">
        <ele>542.2</ele>
        <time>2021-10-23T13:39:51Z</time>
      </trkpt>
      <trkpt lat="46.64824" lon="5.60916">
        <ele>541.8</ele>
        <time>2021-10-23T13:39:54Z</time>
      </trkpt>
      <trkpt lat="46.64842" lon="5.60902">
        <ele>541.4</ele>
        <time>2021-10-23T13:39:56Z</time>
      </trkpt>
      <trkpt lat="46.6486" lon="5.60887">
        <ele>541.4</ele>
        <time>2021-10-23T13:39:58Z</time>
      </trkpt>
      <trkpt lat="46.64871" lon="5.60879">
        <ele>540.8</ele>
        <time>2021-10-23T13:39:59Z</time>
      </trkpt>
      <trkpt lat="46.6488" lon="5.60871">
        <ele>540.8</ele>
        <time>2021-10-23T13:40:00Z</time>
      </trkpt>
      <trkpt lat="46.6489" lon="5.60863">
        <ele>540.6</ele>
        <time>2021-10-23T13:40:01Z</time>
      </trkpt>
      <trkpt lat="46.6491" lon="5.60846">
        <ele>539.4</ele>
        <time>2021-10-23T13:40:03Z</time>
      </trkpt>
      <trkpt lat="46.64928" lon="5.60832">
        <ele>537.6</ele>
        <time>2021-10-23T13:40:05Z</time>
      </trkpt>
      <trkpt lat="46.64938" lon="5.60823">
        <ele>537.4</ele>
        <time>2021-10-23T13:40:06Z</time>
      </trkpt>
      <trkpt lat="46.64947" lon="5.60817">
        <ele>536.4</ele>
        <time>2021-10-23T13:40:07Z</time>
      </trkpt>
      <trkpt lat="46.64958" lon="5.60807">
        <ele>535.6</ele>
        <time>2021-10-23T13:40:09Z</time>
      </trkpt>
      <trkpt lat="46.64962" lon="5.60802">
        <ele>535.4</ele>
        <time>2021-10-23T13:40:10Z</time>
      </trkpt>
      <trkpt lat="46.64973" lon="5.60794">
        <ele>534.4</ele>
        <time>2021-10-23T13:40:12Z</time>
      </trkpt>
      <trkpt lat="46.64986" lon="5.60786">
        <ele>534.2</ele>
        <time>2021-10-23T13:40:14Z</time>
      </trkpt>
      <trkpt lat="46.64993" lon="5.60778">
        <ele>534.2</ele>
        <time>2021-10-23T13:40:15Z</time>
      </trkpt>
      <trkpt lat="46.64999" lon="5.60769">
        <ele>533.8</ele>
        <time>2021-10-23T13:40:16Z</time>
      </trkpt>
      <trkpt lat="46.65012" lon="5.60752">
        <ele>533.2</ele>
        <time>2021-10-23T13:40:18Z</time>
      </trkpt>
      <trkpt lat="46.6502" lon="5.60743">
        <ele>532.2</ele>
        <time>2021-10-23T13:40:19Z</time>
      </trkpt>
      <trkpt lat="46.6504" lon="5.60726">
        <ele>530.2</ele>
        <time>2021-10-23T13:40:21Z</time>
      </trkpt>
      <trkpt lat="46.65058" lon="5.60712">
        <ele>528.8</ele>
        <time>2021-10-23T13:40:23Z</time>
      </trkpt>
      <trkpt lat="46.65093" lon="5.60691">
        <ele>526.2</ele>
        <time>2021-10-23T13:40:26Z</time>
      </trkpt>
      <trkpt lat="46.65115" lon="5.60676">
        <ele>523.8</ele>
        <time>2021-10-23T13:40:28Z</time>
      </trkpt>
      <trkpt lat="46.65135" lon="5.60664">
        <ele>521.6</ele>
        <time>2021-10-23T13:40:30Z</time>
      </trkpt>
      <trkpt lat="46.65146" lon="5.60658">
        <ele>520.6</ele>
        <time>2021-10-23T13:40:31Z</time>
      </trkpt>
      <trkpt lat="46.6516" lon="5.60652">
        <ele>520.4</ele>
        <time>2021-10-23T13:40:32Z</time>
      </trkpt>
      <trkpt lat="46.65173" lon="5.60648">
        <ele>519.2</ele>
        <time>2021-10-23T13:40:33Z</time>
      </trkpt>
      <trkpt lat="46.65195" lon="5.60638">
        <ele>517.4</ele>
        <time>2021-10-23T13:40:35Z</time>
      </trkpt>
      <trkpt lat="46.65206" lon="5.60632">
        <ele>516.6</ele>
        <time>2021-10-23T13:40:36Z</time>
      </trkpt>
      <trkpt lat="46.65215" lon="5.60626">
        <ele>514.6</ele>
        <time>2021-10-23T13:40:37Z</time>
      </trkpt>
      <trkpt lat="46.65231" lon="5.60617">
        <ele>511.6</ele>
        <time>2021-10-23T13:40:39Z</time>
      </trkpt>
      <trkpt lat="46.65239" lon="5.60617">
        <ele>510.6</ele>
        <time>2021-10-23T13:40:40Z</time>
      </trkpt>
      <trkpt lat="46.65246" lon="5.60619">
        <ele>510.2</ele>
        <time>2021-10-23T13:40:41Z</time>
      </trkpt>
      <trkpt lat="46.65252" lon="5.60624">
        <ele>509.2</ele>
        <time>2021-10-23T13:40:42Z</time>
      </trkpt>
      <trkpt lat="46.65257" lon="5.6063">
        <ele>508.8</ele>
        <time>2021-10-23T13:40:43Z</time>
      </trkpt>
      <trkpt lat="46.65261" lon="5.6064">
        <ele>508.2</ele>
        <time>2021-10-23T13:40:44Z</time>
      </trkpt>
      <trkpt lat="46.65265" lon="5.6065">
        <ele>507.8</ele>
        <time>2021-10-23T13:40:45Z</time>
      </trkpt>
      <trkpt lat="46.6527" lon="5.60662">
        <ele>507</ele>
        <time>2021-10-23T13:40:46Z</time>
      </trkpt>
      <trkpt lat="46.65272" lon="5.60677">
        <ele>506.4</ele>
        <time>2021-10-23T13:40:47Z</time>
      </trkpt>
      <trkpt lat="46.65273" lon="5.60688">
        <ele>506</ele>
        <time>2021-10-23T13:40:48Z</time>
      </trkpt>
      <trkpt lat="46.65275" lon="5.60704">
        <ele>505.4</ele>
        <time>2021-10-23T13:40:49Z</time>
      </trkpt>
      <trkpt lat="46.65277" lon="5.60719">
        <ele>504.6</ele>
        <time>2021-10-23T13:40:50Z</time>
      </trkpt>
      <trkpt lat="46.6528" lon="5.60736">
        <ele>503.8</ele>
        <time>2021-10-23T13:40:51Z</time>
      </trkpt>
      <trkpt lat="46.65284" lon="5.6075">
        <ele>503.2</ele>
        <time>2021-10-23T13:40:52Z</time>
      </trkpt>
      <trkpt lat="46.6529" lon="5.60764">
        <ele>502</ele>
        <time>2021-10-23T13:40:53Z</time>
      </trkpt>
      <trkpt lat="46.65296" lon="5.60781">
        <ele>501.4</ele>
        <time>2021-10-23T13:40:54Z</time>
      </trkpt>
      <trkpt lat="46.65303" lon="5.60795">
        <ele>500.4</ele>
        <time>2021-10-23T13:40:55Z</time>
      </trkpt>
      <trkpt lat="46.6531" lon="5.60811">
        <ele>499.2</ele>
        <time>2021-10-23T13:40:56Z</time>
      </trkpt>
      <trkpt lat="46.65323" lon="5.60845">
        <ele>497</ele>
        <time>2021-10-23T13:40:58Z</time>
      </trkpt>
      <trkpt lat="46.65329" lon="5.60862">
        <ele>496.4</ele>
        <time>2021-10-23T13:40:59Z</time>
      </trkpt>
      <trkpt lat="46.65335" lon="5.60878">
        <ele>495.4</ele>
        <time>2021-10-23T13:41:00Z</time>
      </trkpt>
      <trkpt lat="46.65346" lon="5.60909">
        <ele>493.2</ele>
        <time>2021-10-23T13:41:02Z</time>
      </trkpt>
      <trkpt lat="46.65351" lon="5.60924">
        <ele>491.8</ele>
        <time>2021-10-23T13:41:03Z</time>
      </trkpt>
      <trkpt lat="46.6536" lon="5.60957">
        <ele>489.2</ele>
        <time>2021-10-23T13:41:05Z</time>
      </trkpt>
      <trkpt lat="46.65368" lon="5.60989">
        <ele>488</ele>
        <time>2021-10-23T13:41:07Z</time>
      </trkpt>
      <trkpt lat="46.65381" lon="5.6102">
        <ele>485.2</ele>
        <time>2021-10-23T13:41:09Z</time>
      </trkpt>
      <trkpt lat="46.65392" lon="5.6105">
        <ele>483.2</ele>
        <time>2021-10-23T13:41:11Z</time>
      </trkpt>
      <trkpt lat="46.65397" lon="5.61065">
        <ele>482</ele>
        <time>2021-10-23T13:41:12Z</time>
      </trkpt>
      <trkpt lat="46.65401" lon="5.61081">
        <ele>481.2</ele>
        <time>2021-10-23T13:41:13Z</time>
      </trkpt>
      <trkpt lat="46.65405" lon="5.61098">
        <ele>479.8</ele>
        <time>2021-10-23T13:41:14Z</time>
      </trkpt>
      <trkpt lat="46.65413" lon="5.61132">
        <ele>478.2</ele>
        <time>2021-10-23T13:41:16Z</time>
      </trkpt>
      <trkpt lat="46.65421" lon="5.61166">
        <ele>476.2</ele>
        <time>2021-10-23T13:41:18Z</time>
      </trkpt>
      <trkpt lat="46.65427" lon="5.61183">
        <ele>475.2</ele>
        <time>2021-10-23T13:41:19Z</time>
      </trkpt>
      <trkpt lat="46.65432" lon="5.61199">
        <ele>474</ele>
        <time>2021-10-23T13:41:20Z</time>
      </trkpt>
      <trkpt lat="46.65439" lon="5.61214">
        <ele>472.4</ele>
        <time>2021-10-23T13:41:21Z</time>
      </trkpt>
      <trkpt lat="46.65452" lon="5.61244">
        <ele>470.8</ele>
        <time>2021-10-23T13:41:23Z</time>
      </trkpt>
      <trkpt lat="46.65465" lon="5.61273">
        <ele>469.2</ele>
        <time>2021-10-23T13:41:25Z</time>
      </trkpt>
      <trkpt lat="46.65471" lon="5.61286">
        <ele>468.2</ele>
        <time>2021-10-23T13:41:26Z</time>
      </trkpt>
      <trkpt lat="46.65478" lon="5.61299">
        <ele>466.8</ele>
        <time>2021-10-23T13:41:27Z</time>
      </trkpt>
      <trkpt lat="46.65484" lon="5.6131">
        <ele>465.4</ele>
        <time>2021-10-23T13:41:28Z</time>
      </trkpt>
      <trkpt lat="46.6549" lon="5.6132">
        <ele>464.8</ele>
        <time>2021-10-23T13:41:29Z</time>
      </trkpt>
      <trkpt lat="46.65497" lon="5.61329">
        <ele>463.8</ele>
        <time>2021-10-23T13:41:30Z</time>
      </trkpt>
      <trkpt lat="46.65511" lon="5.61334">
        <ele>462</ele>
        <time>2021-10-23T13:41:32Z</time>
      </trkpt>
      <trkpt lat="46.65521" lon="5.61326">
        <ele>461</ele>
        <time>2021-10-23T13:41:34Z</time>
      </trkpt>
      <trkpt lat="46.65525" lon="5.61321">
        <ele>460</ele>
        <time>2021-10-23T13:41:35Z</time>
      </trkpt>
      <trkpt lat="46.65529" lon="5.61314">
        <ele>459.6</ele>
        <time>2021-10-23T13:41:36Z</time>
      </trkpt>
      <trkpt lat="46.65533" lon="5.61303">
        <ele>459</ele>
        <time>2021-10-23T13:41:37Z</time>
      </trkpt>
      <trkpt lat="46.65543" lon="5.6126">
        <ele>458.2</ele>
        <time>2021-10-23T13:41:40Z</time>
      </trkpt>
      <trkpt lat="46.65547" lon="5.61244">
        <ele>457.2</ele>
        <time>2021-10-23T13:41:41Z</time>
      </trkpt>
      <trkpt lat="46.65563" lon="5.61192">
        <ele>455</ele>
        <time>2021-10-23T13:41:44Z</time>
      </trkpt>
      <trkpt lat="46.6558" lon="5.61161">
        <ele>452.8</ele>
        <time>2021-10-23T13:41:46Z</time>
      </trkpt>
      <trkpt lat="46.6559" lon="5.61146">
        <ele>452</ele>
        <time>2021-10-23T13:41:47Z</time>
      </trkpt>
      <trkpt lat="46.656" lon="5.61129">
        <ele>451</ele>
        <time>2021-10-23T13:41:48Z</time>
      </trkpt>
      <trkpt lat="46.65611" lon="5.61115">
        <ele>449.6</ele>
        <time>2021-10-23T13:41:49Z</time>
      </trkpt>
      <trkpt lat="46.65622" lon="5.61102">
        <ele>447.8</ele>
        <time>2021-10-23T13:41:50Z</time>
      </trkpt>
      <trkpt lat="46.65634" lon="5.6109">
        <ele>446.6</ele>
        <time>2021-10-23T13:41:51Z</time>
      </trkpt>
      <trkpt lat="46.65657" lon="5.61066">
        <ele>444.2</ele>
        <time>2021-10-23T13:41:53Z</time>
      </trkpt>
      <trkpt lat="46.6568" lon="5.61043">
        <ele>441.2</ele>
        <time>2021-10-23T13:41:55Z</time>
      </trkpt>
      <trkpt lat="46.65691" lon="5.61031">
        <ele>440</ele>
        <time>2021-10-23T13:41:56Z</time>
      </trkpt>
      <trkpt lat="46.65702" lon="5.61021">
        <ele>438.2</ele>
        <time>2021-10-23T13:41:57Z</time>
      </trkpt>
      <trkpt lat="46.65713" lon="5.61011">
        <ele>437</ele>
        <time>2021-10-23T13:41:58Z</time>
      </trkpt>
      <trkpt lat="46.65724" lon="5.61003">
        <ele>435.8</ele>
        <time>2021-10-23T13:41:59Z</time>
      </trkpt>
      <trkpt lat="46.65735" lon="5.60998">
        <ele>434</ele>
        <time>2021-10-23T13:42:00Z</time>
      </trkpt>
      <trkpt lat="46.65747" lon="5.60992">
        <ele>433.2</ele>
        <time>2021-10-23T13:42:01Z</time>
      </trkpt>
      <trkpt lat="46.65759" lon="5.60991">
        <ele>431.6</ele>
        <time>2021-10-23T13:42:02Z</time>
      </trkpt>
      <trkpt lat="46.65786" lon="5.60988">
        <ele>428.6</ele>
        <time>2021-10-23T13:42:04Z</time>
      </trkpt>
      <trkpt lat="46.65786" lon="5.60988">
        <ele>427.4</ele>
        <time>2021-10-23T13:42:05Z</time>
      </trkpt>
      <trkpt lat="46.65812" lon="5.6098">
        <ele>426</ele>
        <time>2021-10-23T13:42:06Z</time>
      </trkpt>
      <trkpt lat="46.65825" lon="5.60976">
        <ele>424.6</ele>
        <time>2021-10-23T13:42:07Z</time>
      </trkpt>
      <trkpt lat="46.65837" lon="5.60972">
        <ele>423.4</ele>
        <time>2021-10-23T13:42:08Z</time>
      </trkpt>
      <trkpt lat="46.6585" lon="5.60969">
        <ele>421.8</ele>
        <time>2021-10-23T13:42:09Z</time>
      </trkpt>
      <trkpt lat="46.65862" lon="5.60966">
        <ele>421</ele>
        <time>2021-10-23T13:42:10Z</time>
      </trkpt>
      <trkpt lat="46.65874" lon="5.60963">
        <ele>419.2</ele>
        <time>2021-10-23T13:42:11Z</time>
      </trkpt>
      <trkpt lat="46.65899" lon="5.60963">
        <ele>416.8</ele>
        <time>2021-10-23T13:42:13Z</time>
      </trkpt>
      <trkpt lat="46.65912" lon="5.60962">
        <ele>415</ele>
        <time>2021-10-23T13:42:14Z</time>
      </trkpt>
      <trkpt lat="46.65936" lon="5.60958">
        <ele>413</ele>
        <time>2021-10-23T13:42:16Z</time>
      </trkpt>
      <trkpt lat="46.65959" lon="5.60957">
        <ele>410.8</ele>
        <time>2021-10-23T13:42:18Z</time>
      </trkpt>
      <trkpt lat="46.6598" lon="5.60961">
        <ele>408.2</ele>
        <time>2021-10-23T13:42:20Z</time>
      </trkpt>
      <trkpt lat="46.66007" lon="5.60965">
        <ele>406.4</ele>
        <time>2021-10-23T13:42:22Z</time>
      </trkpt>
      <trkpt lat="46.66019" lon="5.60967">
        <ele>405.6</ele>
        <time>2021-10-23T13:42:23Z</time>
      </trkpt>
      <trkpt lat="46.66028" lon="5.60967">
        <ele>405.4</ele>
        <time>2021-10-23T13:42:24Z</time>
      </trkpt>
      <trkpt lat="46.66039" lon="5.60969">
        <ele>404.2</ele>
        <time>2021-10-23T13:42:25Z</time>
      </trkpt>
      <trkpt lat="46.6605" lon="5.6097">
        <ele>403</ele>
        <time>2021-10-23T13:42:26Z</time>
      </trkpt>
      <trkpt lat="46.66058" lon="5.60969">
        <ele>401.6</ele>
        <time>2021-10-23T13:42:27Z</time>
      </trkpt>
      <trkpt lat="46.6607" lon="5.60961">
        <ele>399.6</ele>
        <time>2021-10-23T13:42:29Z</time>
      </trkpt>
      <trkpt lat="46.6607" lon="5.60954">
        <ele>398.6</ele>
        <time>2021-10-23T13:42:30Z</time>
      </trkpt>
      <trkpt lat="46.66064" lon="5.60945">
        <ele>398.4</ele>
        <time>2021-10-23T13:42:31Z</time>
      </trkpt>
      <trkpt lat="46.66046" lon="5.60933">
        <ele>397.2</ele>
        <time>2021-10-23T13:42:33Z</time>
      </trkpt>
      <trkpt lat="46.66026" lon="5.60922">
        <ele>396</ele>
        <time>2021-10-23T13:42:35Z</time>
      </trkpt>
      <trkpt lat="46.66016" lon="5.60916">
        <ele>394.6</ele>
        <time>2021-10-23T13:42:36Z</time>
      </trkpt>
      <trkpt lat="46.66006" lon="5.60909">
        <ele>393.8</ele>
        <time>2021-10-23T13:42:37Z</time>
      </trkpt>
      <trkpt lat="46.65996" lon="5.60901">
        <ele>392.2</ele>
        <time>2021-10-23T13:42:38Z</time>
      </trkpt>
      <trkpt lat="46.65987" lon="5.60893">
        <ele>391.2</ele>
        <time>2021-10-23T13:42:39Z</time>
      </trkpt>
      <trkpt lat="46.65968" lon="5.60876">
        <ele>389.6</ele>
        <time>2021-10-23T13:42:41Z</time>
      </trkpt>
      <trkpt lat="46.65948" lon="5.60859">
        <ele>387.6</ele>
        <time>2021-10-23T13:42:43Z</time>
      </trkpt>
      <trkpt lat="46.65928" lon="5.60843">
        <ele>386</ele>
        <time>2021-10-23T13:42:45Z</time>
      </trkpt>
      <trkpt lat="46.65917" lon="5.60835">
        <ele>385.4</ele>
        <time>2021-10-23T13:42:46Z</time>
      </trkpt>
      <trkpt lat="46.65896" lon="5.60819">
        <ele>383.6</ele>
        <time>2021-10-23T13:42:48Z</time>
      </trkpt>
      <trkpt lat="46.65876" lon="5.60796">
        <ele>381.8</ele>
        <time>2021-10-23T13:42:50Z</time>
      </trkpt>
      <trkpt lat="46.65856" lon="5.60771">
        <ele>380.4</ele>
        <time>2021-10-23T13:42:52Z</time>
      </trkpt>
      <trkpt lat="46.65846" lon="5.60758">
        <ele>378.8</ele>
        <time>2021-10-23T13:42:53Z</time>
      </trkpt>
      <trkpt lat="46.6583" lon="5.60737">
        <ele>377</ele>
        <time>2021-10-23T13:42:55Z</time>
      </trkpt>
      <trkpt lat="46.65812" lon="5.60717">
        <ele>375</ele>
        <time>2021-10-23T13:42:57Z</time>
      </trkpt>
      <trkpt lat="46.65791" lon="5.607">
        <ele>373.4</ele>
        <time>2021-10-23T13:42:59Z</time>
      </trkpt>
      <trkpt lat="46.65768" lon="5.60687">
        <ele>371.6</ele>
        <time>2021-10-23T13:43:01Z</time>
      </trkpt>
      <trkpt lat="46.65756" lon="5.6068">
        <ele>369.6</ele>
        <time>2021-10-23T13:43:02Z</time>
      </trkpt>
      <trkpt lat="46.65733" lon="5.60668">
        <ele>367.4</ele>
        <time>2021-10-23T13:43:04Z</time>
      </trkpt>
      <trkpt lat="46.65722" lon="5.60663">
        <ele>366.6</ele>
        <time>2021-10-23T13:43:05Z</time>
      </trkpt>
      <trkpt lat="46.65711" lon="5.60658">
        <ele>364.8</ele>
        <time>2021-10-23T13:43:06Z</time>
      </trkpt>
      <trkpt lat="46.65711" lon="5.60658">
        <ele>363.6</ele>
        <time>2021-10-23T13:43:07Z</time>
      </trkpt>
      <trkpt lat="46.65692" lon="5.60645">
        <ele>361.6</ele>
        <time>2021-10-23T13:43:08Z</time>
      </trkpt>
      <trkpt lat="46.65683" lon="5.60637">
        <ele>360.2</ele>
        <time>2021-10-23T13:43:09Z</time>
      </trkpt>
      <trkpt lat="46.65674" lon="5.60628">
        <ele>359.4</ele>
        <time>2021-10-23T13:43:10Z</time>
      </trkpt>
      <trkpt lat="46.65666" lon="5.60619">
        <ele>358</ele>
        <time>2021-10-23T13:43:11Z</time>
      </trkpt>
      <trkpt lat="46.65653" lon="5.60603">
        <ele>356.4</ele>
        <time>2021-10-23T13:43:13Z</time>
      </trkpt>
      <trkpt lat="46.65641" lon="5.60587">
        <ele>354.2</ele>
        <time>2021-10-23T13:43:15Z</time>
      </trkpt>
      <trkpt lat="46.65629" lon="5.60573">
        <ele>352.6</ele>
        <time>2021-10-23T13:43:17Z</time>
      </trkpt>
      <trkpt lat="46.65624" lon="5.60567">
        <ele>352</ele>
        <time>2021-10-23T13:43:18Z</time>
      </trkpt>
      <trkpt lat="46.65616" lon="5.60559">
        <ele>351.4</ele>
        <time>2021-10-23T13:43:20Z</time>
      </trkpt>
      <trkpt lat="46.65613" lon="5.60556">
        <ele>351.4</ele>
        <time>2021-10-23T13:43:21Z</time>
      </trkpt>
      <trkpt lat="46.65603" lon="5.6054">
        <ele>351.4</ele>
        <time>2021-10-23T13:43:25Z</time>
      </trkpt>
      <trkpt lat="46.65599" lon="5.60537">
        <ele>351.4</ele>
        <time>2021-10-23T13:43:26Z</time>
      </trkpt>
      <trkpt lat="46.65595" lon="5.60532">
        <ele>351.4</ele>
        <time>2021-10-23T13:43:27Z</time>
      </trkpt>
      <trkpt lat="46.65587" lon="5.60519">
        <ele>351.2</ele>
        <time>2021-10-23T13:43:29Z</time>
      </trkpt>
      <trkpt lat="46.65579" lon="5.60501">
        <ele>351</ele>
        <time>2021-10-23T13:43:31Z</time>
      </trkpt>
      <trkpt lat="46.65574" lon="5.6048">
        <ele>350.4</ele>
        <time>2021-10-23T13:43:33Z</time>
      </trkpt>
      <trkpt lat="46.65571" lon="5.60468">
        <ele>350.2</ele>
        <time>2021-10-23T13:43:34Z</time>
      </trkpt>
      <trkpt lat="46.65567" lon="5.60447">
        <ele>348.8</ele>
        <time>2021-10-23T13:43:36Z</time>
      </trkpt>
      <trkpt lat="46.65561" lon="5.6042">
        <ele>347.2</ele>
        <time>2021-10-23T13:43:38Z</time>
      </trkpt>
      <trkpt lat="46.65558" lon="5.60407">
        <ele>347</ele>
        <time>2021-10-23T13:43:39Z</time>
      </trkpt>
      <trkpt lat="46.65551" lon="5.60384">
        <ele>346</ele>
        <time>2021-10-23T13:43:41Z</time>
      </trkpt>
      <trkpt lat="46.65543" lon="5.60357">
        <ele>344.8</ele>
        <time>2021-10-23T13:43:43Z</time>
      </trkpt>
      <trkpt lat="46.65541" lon="5.60347">
        <ele>344.4</ele>
        <time>2021-10-23T13:43:44Z</time>
      </trkpt>
      <trkpt lat="46.65539" lon="5.60336">
        <ele>343.8</ele>
        <time>2021-10-23T13:43:45Z</time>
      </trkpt>
      <trkpt lat="46.65537" lon="5.60325">
        <ele>343.6</ele>
        <time>2021-10-23T13:43:46Z</time>
      </trkpt>
      <trkpt lat="46.65536" lon="5.60303">
        <ele>342.4</ele>
        <time>2021-10-23T13:43:48Z</time>
      </trkpt>
      <trkpt lat="46.65536" lon="5.60292">
        <ele>342</ele>
        <time>2021-10-23T13:43:49Z</time>
      </trkpt>
      <trkpt lat="46.65534" lon="5.60259">
        <ele>341</ele>
        <time>2021-10-23T13:43:52Z</time>
      </trkpt>
      <trkpt lat="46.65532" lon="5.60246">
        <ele>340.8</ele>
        <time>2021-10-23T13:43:53Z</time>
      </trkpt>
      <trkpt lat="46.65529" lon="5.60235">
        <ele>340.6</ele>
        <time>2021-10-23T13:43:54Z</time>
      </trkpt>
      <trkpt lat="46.65526" lon="5.60223">
        <ele>340</ele>
        <time>2021-10-23T13:43:55Z</time>
      </trkpt>
      <trkpt lat="46.65516" lon="5.60181">
        <ele>338.6</ele>
        <time>2021-10-23T13:43:59Z</time>
      </trkpt>
      <trkpt lat="46.65514" lon="5.60169">
        <ele>338.4</ele>
        <time>2021-10-23T13:44:00Z</time>
      </trkpt>
      <trkpt lat="46.65513" lon="5.60146">
        <ele>337.6</ele>
        <time>2021-10-23T13:44:02Z</time>
      </trkpt>
      <trkpt lat="46.65513" lon="5.60134">
        <ele>337</ele>
        <time>2021-10-23T13:44:03Z</time>
      </trkpt>
      <trkpt lat="46.65514" lon="5.60108">
        <ele>336.4</ele>
        <time>2021-10-23T13:44:05Z</time>
      </trkpt>
      <trkpt lat="46.65516" lon="5.60062">
        <ele>335.6</ele>
        <time>2021-10-23T13:44:09Z</time>
      </trkpt>
      <trkpt lat="46.65516" lon="5.60047">
        <ele>335.4</ele>
        <time>2021-10-23T13:44:10Z</time>
      </trkpt>
      <trkpt lat="46.65515" lon="5.60035">
        <ele>334.8</ele>
        <time>2021-10-23T13:44:11Z</time>
      </trkpt>
      <trkpt lat="46.65515" lon="5.60022">
        <ele>334.6</ele>
        <time>2021-10-23T13:44:12Z</time>
      </trkpt>
      <trkpt lat="46.65516" lon="5.6001">
        <ele>334.2</ele>
        <time>2021-10-23T13:44:13Z</time>
      </trkpt>
      <trkpt lat="46.65517" lon="5.59985">
        <ele>333.4</ele>
        <time>2021-10-23T13:44:15Z</time>
      </trkpt>
      <trkpt lat="46.65515" lon="5.59975">
        <ele>333.2</ele>
        <time>2021-10-23T13:44:16Z</time>
      </trkpt>
      <trkpt lat="46.65513" lon="5.59963">
        <ele>332.6</ele>
        <time>2021-10-23T13:44:17Z</time>
      </trkpt>
      <trkpt lat="46.65507" lon="5.59936">
        <ele>332</ele>
        <time>2021-10-23T13:44:19Z</time>
      </trkpt>
      <trkpt lat="46.65504" lon="5.59926">
        <ele>331.8</ele>
        <time>2021-10-23T13:44:20Z</time>
      </trkpt>
      <trkpt lat="46.65488" lon="5.59891">
        <ele>331</ele>
        <time>2021-10-23T13:44:24Z</time>
      </trkpt>
      <trkpt lat="46.65484" lon="5.59884">
        <ele>330.8</ele>
        <time>2021-10-23T13:44:25Z</time>
      </trkpt>
      <trkpt lat="46.6548" lon="5.59877">
        <ele>330.4</ele>
        <time>2021-10-23T13:44:26Z</time>
      </trkpt>
      <trkpt lat="46.65472" lon="5.59868">
        <ele>330</ele>
        <time>2021-10-23T13:44:28Z</time>
      </trkpt>
      <trkpt lat="46.65469" lon="5.59865">
        <ele>329.6</ele>
        <time>2021-10-23T13:44:29Z</time>
      </trkpt>
      <trkpt lat="46.65467" lon="5.59861">
        <ele>329.6</ele>
        <time>2021-10-23T13:44:30Z</time>
      </trkpt>
      <trkpt lat="46.65466" lon="5.59856">
        <ele>329.4</ele>
        <time>2021-10-23T13:44:32Z</time>
      </trkpt>
      <trkpt lat="46.65466" lon="5.59855">
        <ele>329.6</ele>
        <time>2021-10-23T13:44:35Z</time>
      </trkpt>
      <trkpt lat="46.65466" lon="5.5985">
        <ele>329.8</ele>
        <time>2021-10-23T13:48:11Z</time>
      </trkpt>
      <trkpt lat="46.65468" lon="5.59839">
        <ele>329.8</ele>
        <time>2021-10-23T13:48:14Z</time>
      </trkpt>
      <trkpt lat="46.65469" lon="5.59833">
        <ele>329.6</ele>
        <time>2021-10-23T13:48:15Z</time>
      </trkpt>
      <trkpt lat="46.65473" lon="5.5982">
        <ele>329.8</ele>
        <time>2021-10-23T13:48:17Z</time>
      </trkpt>
      <trkpt lat="46.6548" lon="5.59795">
        <ele>329</ele>
        <time>2021-10-23T13:48:20Z</time>
      </trkpt>
      <trkpt lat="46.65487" lon="5.59777">
        <ele>328.2</ele>
        <time>2021-10-23T13:48:22Z</time>
      </trkpt>
      <trkpt lat="46.6549" lon="5.59769">
        <ele>327.6</ele>
        <time>2021-10-23T13:48:23Z</time>
      </trkpt>
      <trkpt lat="46.65494" lon="5.59762">
        <ele>327.4</ele>
        <time>2021-10-23T13:48:24Z</time>
      </trkpt>
      <trkpt lat="46.65513" lon="5.59728">
        <ele>326.6</ele>
        <time>2021-10-23T13:48:28Z</time>
      </trkpt>
      <trkpt lat="46.65522" lon="5.59713">
        <ele>326.2</ele>
        <time>2021-10-23T13:48:30Z</time>
      </trkpt>
      <trkpt lat="46.65543" lon="5.59677">
        <ele>325.4</ele>
        <time>2021-10-23T13:48:34Z</time>
      </trkpt>
      <trkpt lat="46.65553" lon="5.59659">
        <ele>324.6</ele>
        <time>2021-10-23T13:48:36Z</time>
      </trkpt>
      <trkpt lat="46.65558" lon="5.59649">
        <ele>324.4</ele>
        <time>2021-10-23T13:48:37Z</time>
      </trkpt>
      <trkpt lat="46.65586" lon="5.59592">
        <ele>323</ele>
        <time>2021-10-23T13:48:43Z</time>
      </trkpt>
      <trkpt lat="46.65606" lon="5.59555">
        <ele>321.8</ele>
        <time>2021-10-23T13:48:47Z</time>
      </trkpt>
      <trkpt lat="46.65617" lon="5.5954">
        <ele>321.4</ele>
        <time>2021-10-23T13:48:49Z</time>
      </trkpt>
      <trkpt lat="46.65629" lon="5.59524">
        <ele>320.8</ele>
        <time>2021-10-23T13:48:51Z</time>
      </trkpt>
      <trkpt lat="46.65654" lon="5.59493">
        <ele>320</ele>
        <time>2021-10-23T13:48:55Z</time>
      </trkpt>
      <trkpt lat="46.65665" lon="5.59478">
        <ele>319.4</ele>
        <time>2021-10-23T13:48:57Z</time>
      </trkpt>
      <trkpt lat="46.65699" lon="5.59433">
        <ele>318.8</ele>
        <time>2021-10-23T13:49:03Z</time>
      </trkpt>
      <trkpt lat="46.6571" lon="5.59418">
        <ele>318.6</ele>
        <time>2021-10-23T13:49:05Z</time>
      </trkpt>
      <trkpt lat="46.65742" lon="5.59374">
        <ele>318</ele>
        <time>2021-10-23T13:49:11Z</time>
      </trkpt>
      <trkpt lat="46.65763" lon="5.59347">
        <ele>317.2</ele>
        <time>2021-10-23T13:49:15Z</time>
      </trkpt>
      <trkpt lat="46.65795" lon="5.59305">
        <ele>316.8</ele>
        <time>2021-10-23T13:49:21Z</time>
      </trkpt>
      <trkpt lat="46.65837" lon="5.59248">
        <ele>316.2</ele>
        <time>2021-10-23T13:49:29Z</time>
      </trkpt>
      <trkpt lat="46.65843" lon="5.59241">
        <ele>316.4</ele>
        <time>2021-10-23T13:49:30Z</time>
      </trkpt>
      <trkpt lat="46.65883" lon="5.59187">
        <ele>316</ele>
        <time>2021-10-23T13:49:37Z</time>
      </trkpt>
      <trkpt lat="46.65901" lon="5.59163">
        <ele>315.6</ele>
        <time>2021-10-23T13:49:40Z</time>
      </trkpt>
      <trkpt lat="46.65913" lon="5.59147">
        <ele>315.2</ele>
        <time>2021-10-23T13:49:42Z</time>
      </trkpt>
      <trkpt lat="46.6595" lon="5.59098">
        <ele>314.2</ele>
        <time>2021-10-23T13:49:48Z</time>
      </trkpt>
      <trkpt lat="46.65986" lon="5.59047">
        <ele>313</ele>
        <time>2021-10-23T13:49:55Z</time>
      </trkpt>
      <trkpt lat="46.6599" lon="5.59033">
        <ele>313</ele>
        <time>2021-10-23T13:49:57Z</time>
      </trkpt>
      <trkpt lat="46.65983" lon="5.5902">
        <ele>312.8</ele>
        <time>2021-10-23T13:49:59Z</time>
      </trkpt>
      <trkpt lat="46.65974" lon="5.59013">
        <ele>312.8</ele>
        <time>2021-10-23T13:50:01Z</time>
      </trkpt>
      <trkpt lat="46.65956" lon="5.59003">
        <ele>312.8</ele>
        <time>2021-10-23T13:50:04Z</time>
      </trkpt>
      <trkpt lat="46.65925" lon="5.58985">
        <ele>312.8</ele>
        <time>2021-10-23T13:50:10Z</time>
      </trkpt>
      <trkpt lat="46.65892" lon="5.58964">
        <ele>313.8</ele>
        <time>2021-10-23T13:50:17Z</time>
      </trkpt>
      <trkpt lat="46.65879" lon="5.58957">
        <ele>314.2</ele>
        <time>2021-10-23T13:50:20Z</time>
      </trkpt>
      <trkpt lat="46.65858" lon="5.58947">
        <ele>315.6</ele>
        <time>2021-10-23T13:50:25Z</time>
      </trkpt>
      <trkpt lat="46.65838" lon="5.58937">
        <ele>316.6</ele>
        <time>2021-10-23T13:50:30Z</time>
      </trkpt>
      <trkpt lat="46.65827" lon="5.58931">
        <ele>317.2</ele>
        <time>2021-10-23T13:50:33Z</time>
      </trkpt>
      <trkpt lat="46.6582" lon="5.58926">
        <ele>317.8</ele>
        <time>2021-10-23T13:50:35Z</time>
      </trkpt>
      <trkpt lat="46.65808" lon="5.58912">
        <ele>318.8</ele>
        <time>2021-10-23T13:50:39Z</time>
      </trkpt>
      <trkpt lat="46.65798" lon="5.58894">
        <ele>319.8</ele>
        <time>2021-10-23T13:50:43Z</time>
      </trkpt>
      <trkpt lat="46.65793" lon="5.58886">
        <ele>320.4</ele>
        <time>2021-10-23T13:50:45Z</time>
      </trkpt>
      <trkpt lat="46.65786" lon="5.58873">
        <ele>321</ele>
        <time>2021-10-23T13:50:48Z</time>
      </trkpt>
      <trkpt lat="46.65777" lon="5.58862">
        <ele>321.4</ele>
        <time>2021-10-23T13:50:51Z</time>
      </trkpt>
      <trkpt lat="46.65766" lon="5.58854">
        <ele>322.6</ele>
        <time>2021-10-23T13:50:54Z</time>
      </trkpt>
      <trkpt lat="46.65757" lon="5.58848">
        <ele>323.8</ele>
        <time>2021-10-23T13:50:57Z</time>
      </trkpt>
      <trkpt lat="46.65753" lon="5.58846">
        <ele>324.2</ele>
        <time>2021-10-23T13:50:58Z</time>
      </trkpt>
      <trkpt lat="46.65739" lon="5.58837">
        <ele>325</ele>
        <time>2021-10-23T13:51:02Z</time>
      </trkpt>
      <trkpt lat="46.65718" lon="5.58825">
        <ele>326</ele>
        <time>2021-10-23T13:51:08Z</time>
      </trkpt>
      <trkpt lat="46.65702" lon="5.58816">
        <ele>327.2</ele>
        <time>2021-10-23T13:51:13Z</time>
      </trkpt>
      <trkpt lat="46.65696" lon="5.58811">
        <ele>327.4</ele>
        <time>2021-10-23T13:51:15Z</time>
      </trkpt>
      <trkpt lat="46.65679" lon="5.58797">
        <ele>328.2</ele>
        <time>2021-10-23T13:51:20Z</time>
      </trkpt>
      <trkpt lat="46.65674" lon="5.58791">
        <ele>328.8</ele>
        <time>2021-10-23T13:51:22Z</time>
      </trkpt>
      <trkpt lat="46.65662" lon="5.5878">
        <ele>329.4</ele>
        <time>2021-10-23T13:51:26Z</time>
      </trkpt>
      <trkpt lat="46.65659" lon="5.58772">
        <ele>330</ele>
        <time>2021-10-23T13:51:28Z</time>
      </trkpt>
      <trkpt lat="46.65658" lon="5.58762">
        <ele>330.4</ele>
        <time>2021-10-23T13:51:30Z</time>
      </trkpt>
      <trkpt lat="46.65659" lon="5.58757">
        <ele>330.8</ele>
        <time>2021-10-23T13:51:31Z</time>
      </trkpt>
      <trkpt lat="46.65661" lon="5.58752">
        <ele>331.2</ele>
        <time>2021-10-23T13:51:32Z</time>
      </trkpt>
      <trkpt lat="46.65665" lon="5.58738">
        <ele>332</ele>
        <time>2021-10-23T13:51:35Z</time>
      </trkpt>
      <trkpt lat="46.6567" lon="5.58719">
        <ele>333</ele>
        <time>2021-10-23T13:51:39Z</time>
      </trkpt>
      <trkpt lat="46.65671" lon="5.58714">
        <ele>333.2</ele>
        <time>2021-10-23T13:51:40Z</time>
      </trkpt>
      <trkpt lat="46.65678" lon="5.58693">
        <ele>334.4</ele>
        <time>2021-10-23T13:51:45Z</time>
      </trkpt>
      <trkpt lat="46.65682" lon="5.58678">
        <ele>335.2</ele>
        <time>2021-10-23T13:51:48Z</time>
      </trkpt>
      <trkpt lat="46.65683" lon="5.58673">
        <ele>335.6</ele>
        <time>2021-10-23T13:51:49Z</time>
      </trkpt>
      <trkpt lat="46.65691" lon="5.58647">
        <ele>336.6</ele>
        <time>2021-10-23T13:51:55Z</time>
      </trkpt>
      <trkpt lat="46.65695" lon="5.58633">
        <ele>337.4</ele>
        <time>2021-10-23T13:51:58Z</time>
      </trkpt>
      <trkpt lat="46.65698" lon="5.58624">
        <ele>337.6</ele>
        <time>2021-10-23T13:52:00Z</time>
      </trkpt>
      <trkpt lat="46.65702" lon="5.58606">
        <ele>338.4</ele>
        <time>2021-10-23T13:52:04Z</time>
      </trkpt>
      <trkpt lat="46.65703" lon="5.58601">
        <ele>338.8</ele>
        <time>2021-10-23T13:52:05Z</time>
      </trkpt>
      <trkpt lat="46.65705" lon="5.58586">
        <ele>340</ele>
        <time>2021-10-23T13:52:08Z</time>
      </trkpt>
      <trkpt lat="46.65705" lon="5.58566">
        <ele>340.6</ele>
        <time>2021-10-23T13:52:12Z</time>
      </trkpt>
      <trkpt lat="46.65705" lon="5.58551">
        <ele>341.2</ele>
        <time>2021-10-23T13:52:15Z</time>
      </trkpt>
      <trkpt lat="46.65703" lon="5.58522">
        <ele>342.4</ele>
        <time>2021-10-23T13:52:21Z</time>
      </trkpt>
      <trkpt lat="46.65702" lon="5.58518">
        <ele>342.6</ele>
        <time>2021-10-23T13:52:22Z</time>
      </trkpt>
      <trkpt lat="46.65701" lon="5.58499">
        <ele>343.4</ele>
        <time>2021-10-23T13:52:26Z</time>
      </trkpt>
      <trkpt lat="46.657" lon="5.58485">
        <ele>343.8</ele>
        <time>2021-10-23T13:52:29Z</time>
      </trkpt>
      <trkpt lat="46.657" lon="5.58475">
        <ele>344.6</ele>
        <time>2021-10-23T13:52:31Z</time>
      </trkpt>
      <trkpt lat="46.65701" lon="5.58456">
        <ele>345.6</ele>
        <time>2021-10-23T13:52:35Z</time>
      </trkpt>
      <trkpt lat="46.65703" lon="5.58446">
        <ele>346.2</ele>
        <time>2021-10-23T13:52:37Z</time>
      </trkpt>
      <trkpt lat="46.65706" lon="5.58438">
        <ele>346.8</ele>
        <time>2021-10-23T13:52:39Z</time>
      </trkpt>
      <trkpt lat="46.65715" lon="5.58419">
        <ele>347.8</ele>
        <time>2021-10-23T13:52:44Z</time>
      </trkpt>
      <trkpt lat="46.65717" lon="5.58414">
        <ele>348.2</ele>
        <time>2021-10-23T13:52:45Z</time>
      </trkpt>
      <trkpt lat="46.6572" lon="5.58391">
        <ele>349.4</ele>
        <time>2021-10-23T13:52:50Z</time>
      </trkpt>
      <trkpt lat="46.65715" lon="5.5837">
        <ele>351</ele>
        <time>2021-10-23T13:52:54Z</time>
      </trkpt>
      <trkpt lat="46.65712" lon="5.58354">
        <ele>351.4</ele>
        <time>2021-10-23T13:52:57Z</time>
      </trkpt>
      <trkpt lat="46.6571" lon="5.58343">
        <ele>351.8</ele>
        <time>2021-10-23T13:52:59Z</time>
      </trkpt>
      <trkpt lat="46.65708" lon="5.58322">
        <ele>352.8</ele>
        <time>2021-10-23T13:53:03Z</time>
      </trkpt>
      <trkpt lat="46.65707" lon="5.58317">
        <ele>352.8</ele>
        <time>2021-10-23T13:53:04Z</time>
      </trkpt>
      <trkpt lat="46.65709" lon="5.58301">
        <ele>354</ele>
        <time>2021-10-23T13:53:08Z</time>
      </trkpt>
      <trkpt lat="46.65716" lon="5.58281">
        <ele>355.2</ele>
        <time>2021-10-23T13:53:12Z</time>
      </trkpt>
      <trkpt lat="46.65721" lon="5.58271">
        <ele>356</ele>
        <time>2021-10-23T13:53:14Z</time>
      </trkpt>
      <trkpt lat="46.65726" lon="5.58262">
        <ele>356.4</ele>
        <time>2021-10-23T13:53:16Z</time>
      </trkpt>
      <trkpt lat="46.65735" lon="5.58245">
        <ele>357.2</ele>
        <time>2021-10-23T13:53:20Z</time>
      </trkpt>
      <trkpt lat="46.65737" lon="5.5824">
        <ele>357.6</ele>
        <time>2021-10-23T13:53:21Z</time>
      </trkpt>
      <trkpt lat="46.65742" lon="5.58221">
        <ele>358.4</ele>
        <time>2021-10-23T13:53:25Z</time>
      </trkpt>
      <trkpt lat="46.65743" lon="5.58215">
        <ele>358.8</ele>
        <time>2021-10-23T13:53:26Z</time>
      </trkpt>
      <trkpt lat="46.65747" lon="5.58191">
        <ele>360</ele>
        <time>2021-10-23T13:53:30Z</time>
      </trkpt>
      <trkpt lat="46.65751" lon="5.58164">
        <ele>361.2</ele>
        <time>2021-10-23T13:53:35Z</time>
      </trkpt>
      <trkpt lat="46.65751" lon="5.58152">
        <ele>361.4</ele>
        <time>2021-10-23T13:53:37Z</time>
      </trkpt>
      <trkpt lat="46.65751" lon="5.58135">
        <ele>362.4</ele>
        <time>2021-10-23T13:53:40Z</time>
      </trkpt>
      <trkpt lat="46.65748" lon="5.58111">
        <ele>363.4</ele>
        <time>2021-10-23T13:53:44Z</time>
      </trkpt>
      <trkpt lat="46.65752" lon="5.58087">
        <ele>364.6</ele>
        <time>2021-10-23T13:53:49Z</time>
      </trkpt>
      <trkpt lat="46.65754" lon="5.58078">
        <ele>364.8</ele>
        <time>2021-10-23T13:53:51Z</time>
      </trkpt>
      <trkpt lat="46.65765" lon="5.58056">
        <ele>365.8</ele>
        <time>2021-10-23T13:53:56Z</time>
      </trkpt>
      <trkpt lat="46.65767" lon="5.58052">
        <ele>366.2</ele>
        <time>2021-10-23T13:53:57Z</time>
      </trkpt>
      <trkpt lat="46.65773" lon="5.58045">
        <ele>367</ele>
        <time>2021-10-23T13:53:59Z</time>
      </trkpt>
      <trkpt lat="46.6578" lon="5.58033">
        <ele>367.8</ele>
        <time>2021-10-23T13:54:02Z</time>
      </trkpt>
      <trkpt lat="46.65782" lon="5.58023">
        <ele>368.2</ele>
        <time>2021-10-23T13:54:04Z</time>
      </trkpt>
      <trkpt lat="46.65783" lon="5.58005">
        <ele>368.4</ele>
        <time>2021-10-23T13:54:07Z</time>
      </trkpt>
      <trkpt lat="46.65782" lon="5.57981">
        <ele>369.2</ele>
        <time>2021-10-23T13:54:11Z</time>
      </trkpt>
      <trkpt lat="46.65781" lon="5.57959">
        <ele>370.4</ele>
        <time>2021-10-23T13:54:15Z</time>
      </trkpt>
      <trkpt lat="46.65781" lon="5.57954">
        <ele>370.6</ele>
        <time>2021-10-23T13:54:16Z</time>
      </trkpt>
      <trkpt lat="46.65781" lon="5.57938">
        <ele>371.4</ele>
        <time>2021-10-23T13:54:19Z</time>
      </trkpt>
      <trkpt lat="46.65779" lon="5.57909">
        <ele>372.4</ele>
        <time>2021-10-23T13:54:24Z</time>
      </trkpt>
      <trkpt lat="46.65779" lon="5.57904">
        <ele>372.6</ele>
        <time>2021-10-23T13:54:25Z</time>
      </trkpt>
      <trkpt lat="46.65785" lon="5.57878">
        <ele>373.8</ele>
        <time>2021-10-23T13:54:30Z</time>
      </trkpt>
      <trkpt lat="46.65788" lon="5.57868">
        <ele>375.2</ele>
        <time>2021-10-23T13:54:32Z</time>
      </trkpt>
      <trkpt lat="46.65794" lon="5.57847">
        <ele>376.2</ele>
        <time>2021-10-23T13:54:36Z</time>
      </trkpt>
      <trkpt lat="46.65795" lon="5.5782">
        <ele>377.4</ele>
        <time>2021-10-23T13:54:41Z</time>
      </trkpt>
      <trkpt lat="46.65796" lon="5.57798">
        <ele>378</ele>
        <time>2021-10-23T13:54:45Z</time>
      </trkpt>
      <trkpt lat="46.65797" lon="5.57792">
        <ele>378.4</ele>
        <time>2021-10-23T13:54:46Z</time>
      </trkpt>
      <trkpt lat="46.65797" lon="5.57778">
        <ele>379.6</ele>
        <time>2021-10-23T13:54:49Z</time>
      </trkpt>
      <trkpt lat="46.65798" lon="5.57772">
        <ele>379.8</ele>
        <time>2021-10-23T13:54:50Z</time>
      </trkpt>
      <trkpt lat="46.65801" lon="5.57755">
        <ele>380.8</ele>
        <time>2021-10-23T13:54:53Z</time>
      </trkpt>
      <trkpt lat="46.65807" lon="5.57735">
        <ele>381.2</ele>
        <time>2021-10-23T13:54:57Z</time>
      </trkpt>
      <trkpt lat="46.6581" lon="5.57714">
        <ele>381.6</ele>
        <time>2021-10-23T13:55:01Z</time>
      </trkpt>
      <trkpt lat="46.65813" lon="5.57697">
        <ele>382.6</ele>
        <time>2021-10-23T13:55:04Z</time>
      </trkpt>
      <trkpt lat="46.65814" lon="5.5768">
        <ele>383.8</ele>
        <time>2021-10-23T13:55:07Z</time>
      </trkpt>
      <trkpt lat="46.65819" lon="5.57647">
        <ele>384.6</ele>
        <time>2021-10-23T13:55:12Z</time>
      </trkpt>
      <trkpt lat="46.6582" lon="5.57635">
        <ele>385.4</ele>
        <time>2021-10-23T13:55:14Z</time>
      </trkpt>
      <trkpt lat="46.65821" lon="5.57611">
        <ele>386.4</ele>
        <time>2021-10-23T13:55:18Z</time>
      </trkpt>
      <trkpt lat="46.65821" lon="5.57605">
        <ele>386.6</ele>
        <time>2021-10-23T13:55:19Z</time>
      </trkpt>
      <trkpt lat="46.65822" lon="5.57588">
        <ele>387.4</ele>
        <time>2021-10-23T13:55:22Z</time>
      </trkpt>
      <trkpt lat="46.65829" lon="5.57568">
        <ele>388.6</ele>
        <time>2021-10-23T13:55:26Z</time>
      </trkpt>
      <trkpt lat="46.65834" lon="5.57554">
        <ele>389</ele>
        <time>2021-10-23T13:55:29Z</time>
      </trkpt>
      <trkpt lat="46.65838" lon="5.57545">
        <ele>389.6</ele>
        <time>2021-10-23T13:55:31Z</time>
      </trkpt>
      <trkpt lat="46.6584" lon="5.57541">
        <ele>390.2</ele>
        <time>2021-10-23T13:55:32Z</time>
      </trkpt>
      <trkpt lat="46.65843" lon="5.5753">
        <ele>390.8</ele>
        <time>2021-10-23T13:55:34Z</time>
      </trkpt>
      <trkpt lat="46.65847" lon="5.57508">
        <ele>391.8</ele>
        <time>2021-10-23T13:55:38Z</time>
      </trkpt>
      <trkpt lat="46.65847" lon="5.57497">
        <ele>392.2</ele>
        <time>2021-10-23T13:55:40Z</time>
      </trkpt>
      <trkpt lat="46.65846" lon="5.57481">
        <ele>393</ele>
        <time>2021-10-23T13:55:43Z</time>
      </trkpt>
      <trkpt lat="46.65843" lon="5.57464">
        <ele>394</ele>
        <time>2021-10-23T13:55:46Z</time>
      </trkpt>
      <trkpt lat="46.65842" lon="5.57459">
        <ele>394.2</ele>
        <time>2021-10-23T13:55:47Z</time>
      </trkpt>
      <trkpt lat="46.65833" lon="5.57429">
        <ele>395.8</ele>
        <time>2021-10-23T13:55:53Z</time>
      </trkpt>
      <trkpt lat="46.65827" lon="5.57408">
        <ele>396.8</ele>
        <time>2021-10-23T13:55:57Z</time>
      </trkpt>
      <trkpt lat="46.65824" lon="5.57386">
        <ele>398.2</ele>
        <time>2021-10-23T13:56:01Z</time>
      </trkpt>
      <trkpt lat="46.65824" lon="5.5738">
        <ele>398.4</ele>
        <time>2021-10-23T13:56:02Z</time>
      </trkpt>
      <trkpt lat="46.65824" lon="5.57369">
        <ele>399.4</ele>
        <time>2021-10-23T13:56:04Z</time>
      </trkpt>
      <trkpt lat="46.65822" lon="5.57348">
        <ele>400.2</ele>
        <time>2021-10-23T13:56:08Z</time>
      </trkpt>
      <trkpt lat="46.65822" lon="5.57343">
        <ele>400.4</ele>
        <time>2021-10-23T13:56:09Z</time>
      </trkpt>
      <trkpt lat="46.65812" lon="5.57318">
        <ele>401.4</ele>
        <time>2021-10-23T13:56:14Z</time>
      </trkpt>
      <trkpt lat="46.6581" lon="5.57313">
        <ele>401.6</ele>
        <time>2021-10-23T13:56:15Z</time>
      </trkpt>
      <trkpt lat="46.65802" lon="5.57283">
        <ele>402.6</ele>
        <time>2021-10-23T13:56:21Z</time>
      </trkpt>
      <trkpt lat="46.65803" lon="5.57268">
        <ele>403.8</ele>
        <time>2021-10-23T13:56:24Z</time>
      </trkpt>
      <trkpt lat="46.65805" lon="5.57264">
        <ele>404.2</ele>
        <time>2021-10-23T13:56:25Z</time>
      </trkpt>
      <trkpt lat="46.65815" lon="5.57249">
        <ele>405.4</ele>
        <time>2021-10-23T13:56:29Z</time>
      </trkpt>
      <trkpt lat="46.65818" lon="5.57239">
        <ele>406.4</ele>
        <time>2021-10-23T13:56:31Z</time>
      </trkpt>
      <trkpt lat="46.65821" lon="5.57235">
        <ele>406.8</ele>
        <time>2021-10-23T13:56:32Z</time>
      </trkpt>
      <trkpt lat="46.65831" lon="5.57218">
        <ele>407.6</ele>
        <time>2021-10-23T13:56:36Z</time>
      </trkpt>
      <trkpt lat="46.65833" lon="5.57213">
        <ele>407.6</ele>
        <time>2021-10-23T13:56:37Z</time>
      </trkpt>
      <trkpt lat="46.6584" lon="5.57201">
        <ele>408.6</ele>
        <time>2021-10-23T13:56:40Z</time>
      </trkpt>
      <trkpt lat="46.65847" lon="5.57199">
        <ele>408.8</ele>
        <time>2021-10-23T13:56:41Z</time>
      </trkpt>
      <trkpt lat="46.65847" lon="5.57189">
        <ele>409.2</ele>
        <time>2021-10-23T13:56:43Z</time>
      </trkpt>
      <trkpt lat="46.65849" lon="5.57177">
        <ele>409.6</ele>
        <time>2021-10-23T13:56:45Z</time>
      </trkpt>
      <trkpt lat="46.65856" lon="5.57166">
        <ele>409.8</ele>
        <time>2021-10-23T13:56:47Z</time>
      </trkpt>
      <trkpt lat="46.6586" lon="5.57162">
        <ele>410</ele>
        <time>2021-10-23T13:56:48Z</time>
      </trkpt>
      <trkpt lat="46.65874" lon="5.57156">
        <ele>410.4</ele>
        <time>2021-10-23T13:56:51Z</time>
      </trkpt>
      <trkpt lat="46.65888" lon="5.5715">
        <ele>410.8</ele>
        <time>2021-10-23T13:56:54Z</time>
      </trkpt>
      <trkpt lat="46.65902" lon="5.57146">
        <ele>411.8</ele>
        <time>2021-10-23T13:56:57Z</time>
      </trkpt>
      <trkpt lat="46.65908" lon="5.57139">
        <ele>412.6</ele>
        <time>2021-10-23T13:57:00Z</time>
      </trkpt>
      <trkpt lat="46.65915" lon="5.57136">
        <ele>412.8</ele>
        <time>2021-10-23T13:57:02Z</time>
      </trkpt>
      <trkpt lat="46.65924" lon="5.57131">
        <ele>414</ele>
        <time>2021-10-23T13:57:04Z</time>
      </trkpt>
      <trkpt lat="46.65946" lon="5.57119">
        <ele>415</ele>
        <time>2021-10-23T13:57:09Z</time>
      </trkpt>
      <trkpt lat="46.65951" lon="5.57116">
        <ele>415.2</ele>
        <time>2021-10-23T13:57:10Z</time>
      </trkpt>
      <trkpt lat="46.65963" lon="5.57109">
        <ele>415.8</ele>
        <time>2021-10-23T13:57:13Z</time>
      </trkpt>
      <trkpt lat="46.65966" lon="5.57107">
        <ele>416</ele>
        <time>2021-10-23T13:57:14Z</time>
      </trkpt>
      <trkpt lat="46.65979" lon="5.57099">
        <ele>417.2</ele>
        <time>2021-10-23T13:57:17Z</time>
      </trkpt>
      <trkpt lat="46.65992" lon="5.57092">
        <ele>418.4</ele>
        <time>2021-10-23T13:57:20Z</time>
      </trkpt>
      <trkpt lat="46.65995" lon="5.57089">
        <ele>418.8</ele>
        <time>2021-10-23T13:57:21Z</time>
      </trkpt>
      <trkpt lat="46.66006" lon="5.57082">
        <ele>419.6</ele>
        <time>2021-10-23T13:57:24Z</time>
      </trkpt>
      <trkpt lat="46.6602" lon="5.57076">
        <ele>420.6</ele>
        <time>2021-10-23T13:57:27Z</time>
      </trkpt>
      <trkpt lat="46.66023" lon="5.57075">
        <ele>420.8</ele>
        <time>2021-10-23T13:57:28Z</time>
      </trkpt>
      <trkpt lat="46.66042" lon="5.57064">
        <ele>421.8</ele>
        <time>2021-10-23T13:57:33Z</time>
      </trkpt>
      <trkpt lat="46.66062" lon="5.57052">
        <ele>423</ele>
        <time>2021-10-23T13:57:38Z</time>
      </trkpt>
      <trkpt lat="46.66066" lon="5.5705">
        <ele>423.4</ele>
        <time>2021-10-23T13:57:39Z</time>
      </trkpt>
      <trkpt lat="46.66074" lon="5.57045">
        <ele>424.2</ele>
        <time>2021-10-23T13:57:41Z</time>
      </trkpt>
      <trkpt lat="46.66081" lon="5.57038">
        <ele>424.8</ele>
        <time>2021-10-23T13:57:43Z</time>
      </trkpt>
      <trkpt lat="46.66083" lon="5.57034">
        <ele>425.2</ele>
        <time>2021-10-23T13:57:45Z</time>
      </trkpt>
      <trkpt lat="46.66086" lon="5.57022">
        <ele>425.2</ele>
        <time>2021-10-23T13:57:46Z</time>
      </trkpt>
      <trkpt lat="46.66085" lon="5.57016">
        <ele>426</ele>
        <time>2021-10-23T13:57:47Z</time>
      </trkpt>
      <trkpt lat="46.66083" lon="5.5701">
        <ele>426.2</ele>
        <time>2021-10-23T13:57:48Z</time>
      </trkpt>
      <trkpt lat="46.66076" lon="5.57002">
        <ele>426.6</ele>
        <time>2021-10-23T13:57:50Z</time>
      </trkpt>
      <trkpt lat="46.66067" lon="5.57">
        <ele>426.8</ele>
        <time>2021-10-23T13:57:52Z</time>
      </trkpt>
      <trkpt lat="46.66058" lon="5.57">
        <ele>427.2</ele>
        <time>2021-10-23T13:57:54Z</time>
      </trkpt>
      <trkpt lat="46.66049" lon="5.57001">
        <ele>427.6</ele>
        <time>2021-10-23T13:57:56Z</time>
      </trkpt>
      <trkpt lat="46.66027" lon="5.56997">
        <ele>428.6</ele>
        <time>2021-10-23T13:58:01Z</time>
      </trkpt>
      <trkpt lat="46.66009" lon="5.5699">
        <ele>429.8</ele>
        <time>2021-10-23T13:58:05Z</time>
      </trkpt>
      <trkpt lat="46.65998" lon="5.5698">
        <ele>430.8</ele>
        <time>2021-10-23T13:58:08Z</time>
      </trkpt>
      <trkpt lat="46.65984" lon="5.56957">
        <ele>431.8</ele>
        <time>2021-10-23T13:58:13Z</time>
      </trkpt>
      <trkpt lat="46.65975" lon="5.56944">
        <ele>432.6</ele>
        <time>2021-10-23T13:58:16Z</time>
      </trkpt>
      <trkpt lat="46.65966" lon="5.56931">
        <ele>433.2</ele>
        <time>2021-10-23T13:58:19Z</time>
      </trkpt>
      <trkpt lat="46.65948" lon="5.56904">
        <ele>434.2</ele>
        <time>2021-10-23T13:58:25Z</time>
      </trkpt>
      <trkpt lat="46.65945" lon="5.56899">
        <ele>434.6</ele>
        <time>2021-10-23T13:58:26Z</time>
      </trkpt>
      <trkpt lat="46.65934" lon="5.5688">
        <ele>435.4</ele>
        <time>2021-10-23T13:58:30Z</time>
      </trkpt>
      <trkpt lat="46.65929" lon="5.56869">
        <ele>436</ele>
        <time>2021-10-23T13:58:32Z</time>
      </trkpt>
      <trkpt lat="46.65927" lon="5.56864">
        <ele>436.6</ele>
        <time>2021-10-23T13:58:33Z</time>
      </trkpt>
      <trkpt lat="46.65915" lon="5.56838">
        <ele>437.6</ele>
        <time>2021-10-23T13:58:38Z</time>
      </trkpt>
      <trkpt lat="46.65911" lon="5.56827">
        <ele>438</ele>
        <time>2021-10-23T13:58:40Z</time>
      </trkpt>
      <trkpt lat="46.65906" lon="5.56809">
        <ele>438.4</ele>
        <time>2021-10-23T13:58:43Z</time>
      </trkpt>
      <trkpt lat="46.65904" lon="5.56798">
        <ele>438.8</ele>
        <time>2021-10-23T13:58:45Z</time>
      </trkpt>
      <trkpt lat="46.65903" lon="5.56794">
        <ele>438.8</ele>
        <time>2021-10-23T13:58:46Z</time>
      </trkpt>
      <trkpt lat="46.65903" lon="5.56789">
        <ele>439.2</ele>
        <time>2021-10-23T13:58:47Z</time>
      </trkpt>
      <trkpt lat="46.659" lon="5.56776">
        <ele>439.4</ele>
        <time>2021-10-23T13:58:50Z</time>
      </trkpt>
      <trkpt lat="46.65898" lon="5.56774">
        <ele>439.6</ele>
        <time>2021-10-23T13:58:51Z</time>
      </trkpt>
      <trkpt lat="46.65896" lon="5.56775">
        <ele>439.8</ele>
        <time>2021-10-23T13:58:53Z</time>
      </trkpt>
      <trkpt lat="46.65897" lon="5.56777">
        <ele>439.8</ele>
        <time>2021-10-23T13:58:54Z</time>
      </trkpt>
      <trkpt lat="46.65899" lon="5.56783">
        <ele>439.8</ele>
        <time>2021-10-23T13:58:56Z</time>
      </trkpt>
      <trkpt lat="46.659" lon="5.56792">
        <ele>439.8</ele>
        <time>2021-10-23T13:58:58Z</time>
      </trkpt>
      <trkpt lat="46.65905" lon="5.56816">
        <ele>439.6</ele>
        <time>2021-10-23T13:59:03Z</time>
      </trkpt>
      <trkpt lat="46.65915" lon="5.56847">
        <ele>439.4</ele>
        <time>2021-10-23T13:59:09Z</time>
      </trkpt>
      <trkpt lat="46.65926" lon="5.5687">
        <ele>439</ele>
        <time>2021-10-23T13:59:15Z</time>
      </trkpt>
      <trkpt lat="46.65929" lon="5.56876">
        <ele>438.8</ele>
        <time>2021-10-23T13:59:17Z</time>
      </trkpt>
      <trkpt lat="46.6593" lon="5.56883">
        <ele>438.6</ele>
        <time>2021-10-23T13:59:19Z</time>
      </trkpt>
      <trkpt lat="46.65931" lon="5.56885">
        <ele>438.6</ele>
        <time>2021-10-23T13:59:20Z</time>
      </trkpt>
      <trkpt lat="46.65935" lon="5.5689">
        <ele>438.2</ele>
        <time>2021-10-23T13:59:23Z</time>
      </trkpt>
      <trkpt lat="46.6594" lon="5.56897">
        <ele>437.8</ele>
        <time>2021-10-23T13:59:27Z</time>
      </trkpt>
      <trkpt lat="46.65943" lon="5.56901">
        <ele>437.6</ele>
        <time>2021-10-23T13:59:30Z</time>
      </trkpt>
      <trkpt lat="46.65941" lon="5.56896">
        <ele>437.2</ele>
        <time>2021-10-23T13:59:33Z</time>
      </trkpt>
      <trkpt lat="46.65933" lon="5.56883">
        <ele>437.2</ele>
        <time>2021-10-23T13:59:37Z</time>
      </trkpt>
      <trkpt lat="46.65922" lon="5.56858">
        <ele>437.8</ele>
        <time>2021-10-23T13:59:43Z</time>
      </trkpt>
      <trkpt lat="46.65908" lon="5.56818">
        <ele>438.6</ele>
        <time>2021-10-23T13:59:51Z</time>
      </trkpt>
      <trkpt lat="46.65905" lon="5.56801">
        <ele>438.8</ele>
        <time>2021-10-23T13:59:54Z</time>
      </trkpt>
      <trkpt lat="46.65899" lon="5.56782">
        <ele>439.6</ele>
        <time>2021-10-23T13:59:58Z</time>
      </trkpt>
      <trkpt lat="46.6589" lon="5.56765">
        <ele>440</ele>
        <time>2021-10-23T14:00:04Z</time>
      </trkpt>
      <trkpt lat="46.65888" lon="5.56759">
        <ele>440</ele>
        <time>2021-10-23T14:00:07Z</time>
      </trkpt>
      <trkpt lat="46.65888" lon="5.56757">
        <ele>440.2</ele>
        <time>2021-10-23T14:00:08Z</time>
      </trkpt>
      <trkpt lat="46.6589" lon="5.56756">
        <ele>440.2</ele>
        <time>2021-10-23T14:00:09Z</time>
      </trkpt>
      <trkpt lat="46.65891" lon="5.56753">
        <ele>440.2</ele>
        <time>2021-10-23T14:00:10Z</time>
      </trkpt>
      <trkpt lat="46.65895" lon="5.56743">
        <ele>440.6</ele>
        <time>2021-10-23T14:00:13Z</time>
      </trkpt>
      <trkpt lat="46.65902" lon="5.56721">
        <ele>440.8</ele>
        <time>2021-10-23T14:00:18Z</time>
      </trkpt>
      <trkpt lat="46.65909" lon="5.56697">
        <ele>441.4</ele>
        <time>2021-10-23T14:00:23Z</time>
      </trkpt>
      <trkpt lat="46.6591" lon="5.56692">
        <ele>441.4</ele>
        <time>2021-10-23T14:00:24Z</time>
      </trkpt>
      <trkpt lat="46.6592" lon="5.56675">
        <ele>441.8</ele>
        <time>2021-10-23T14:00:28Z</time>
      </trkpt>
      <trkpt lat="46.65932" lon="5.56663">
        <ele>442.4</ele>
        <time>2021-10-23T14:00:33Z</time>
      </trkpt>
      <trkpt lat="46.65933" lon="5.56662">
        <ele>442.6</ele>
        <time>2021-10-23T14:00:34Z</time>
      </trkpt>
      <trkpt lat="46.65933" lon="5.56662">
        <ele>442.6</ele>
        <time>2021-10-23T14:00:35Z</time>
      </trkpt>
      <trkpt lat="46.65935" lon="5.56659">
        <ele>441.6</ele>
        <time>2021-10-23T14:02:12Z</time>
      </trkpt>
      <trkpt lat="46.65945" lon="5.56636">
        <ele>441.6</ele>
        <time>2021-10-23T14:02:17Z</time>
      </trkpt>
      <trkpt lat="46.65948" lon="5.56629">
        <ele>441.6</ele>
        <time>2021-10-23T14:02:18Z</time>
      </trkpt>
      <trkpt lat="46.65959" lon="5.56604">
        <ele>441.4</ele>
        <time>2021-10-23T14:02:21Z</time>
      </trkpt>
      <trkpt lat="46.65975" lon="5.56572">
        <ele>440.2</ele>
        <time>2021-10-23T14:02:25Z</time>
      </trkpt>
      <trkpt lat="46.65981" lon="5.56562">
        <ele>439.6</ele>
        <time>2021-10-23T14:02:26Z</time>
      </trkpt>
      <trkpt lat="46.65985" lon="5.56555">
        <ele>439</ele>
        <time>2021-10-23T14:02:27Z</time>
      </trkpt>
      <trkpt lat="46.65999" lon="5.56527">
        <ele>438</ele>
        <time>2021-10-23T14:02:30Z</time>
      </trkpt>
      <trkpt lat="46.66003" lon="5.56518">
        <ele>437.2</ele>
        <time>2021-10-23T14:02:31Z</time>
      </trkpt>
      <trkpt lat="46.66008" lon="5.56499">
        <ele>436.8</ele>
        <time>2021-10-23T14:02:33Z</time>
      </trkpt>
      <trkpt lat="46.66012" lon="5.56477">
        <ele>436.4</ele>
        <time>2021-10-23T14:02:35Z</time>
      </trkpt>
      <trkpt lat="46.66013" lon="5.56465">
        <ele>436</ele>
        <time>2021-10-23T14:02:36Z</time>
      </trkpt>
      <trkpt lat="46.66014" lon="5.56454">
        <ele>436</ele>
        <time>2021-10-23T14:02:37Z</time>
      </trkpt>
      <trkpt lat="46.66013" lon="5.56442">
        <ele>435.8</ele>
        <time>2021-10-23T14:02:38Z</time>
      </trkpt>
      <trkpt lat="46.66014" lon="5.56433">
        <ele>435.6</ele>
        <time>2021-10-23T14:02:39Z</time>
      </trkpt>
      <trkpt lat="46.66015" lon="5.56418">
        <ele>435.4</ele>
        <time>2021-10-23T14:02:40Z</time>
      </trkpt>
      <trkpt lat="46.66017" lon="5.56408">
        <ele>434.8</ele>
        <time>2021-10-23T14:02:41Z</time>
      </trkpt>
      <trkpt lat="46.66021" lon="5.56393">
        <ele>434.6</ele>
        <time>2021-10-23T14:02:42Z</time>
      </trkpt>
      <trkpt lat="46.66024" lon="5.56383">
        <ele>434.2</ele>
        <time>2021-10-23T14:02:43Z</time>
      </trkpt>
      <trkpt lat="46.66029" lon="5.56367">
        <ele>433.6</ele>
        <time>2021-10-23T14:02:44Z</time>
      </trkpt>
      <trkpt lat="46.66032" lon="5.56355">
        <ele>432.4</ele>
        <time>2021-10-23T14:02:45Z</time>
      </trkpt>
      <trkpt lat="46.66037" lon="5.56339">
        <ele>431.6</ele>
        <time>2021-10-23T14:02:46Z</time>
      </trkpt>
      <trkpt lat="46.66041" lon="5.56325">
        <ele>430.4</ele>
        <time>2021-10-23T14:02:47Z</time>
      </trkpt>
      <trkpt lat="46.66044" lon="5.56315">
        <ele>429.4</ele>
        <time>2021-10-23T14:02:48Z</time>
      </trkpt>
      <trkpt lat="46.66052" lon="5.56294">
        <ele>427.2</ele>
        <time>2021-10-23T14:02:50Z</time>
      </trkpt>
      <trkpt lat="46.66056" lon="5.56284">
        <ele>426.2</ele>
        <time>2021-10-23T14:02:51Z</time>
      </trkpt>
      <trkpt lat="46.66061" lon="5.56275">
        <ele>424.4</ele>
        <time>2021-10-23T14:02:52Z</time>
      </trkpt>
      <trkpt lat="46.66065" lon="5.56266">
        <ele>424</ele>
        <time>2021-10-23T14:02:53Z</time>
      </trkpt>
      <trkpt lat="46.66067" lon="5.56257">
        <ele>422.8</ele>
        <time>2021-10-23T14:02:54Z</time>
      </trkpt>
      <trkpt lat="46.66068" lon="5.56249">
        <ele>422.4</ele>
        <time>2021-10-23T14:02:55Z</time>
      </trkpt>
      <trkpt lat="46.66066" lon="5.56243">
        <ele>421.4</ele>
        <time>2021-10-23T14:02:56Z</time>
      </trkpt>
      <trkpt lat="46.66063" lon="5.56239">
        <ele>420.2</ele>
        <time>2021-10-23T14:02:57Z</time>
      </trkpt>
      <trkpt lat="46.66054" lon="5.56233">
        <ele>419.2</ele>
        <time>2021-10-23T14:02:59Z</time>
      </trkpt>
      <trkpt lat="46.66049" lon="5.56229">
        <ele>419</ele>
        <time>2021-10-23T14:03:00Z</time>
      </trkpt>
      <trkpt lat="46.66042" lon="5.56225">
        <ele>418.8</ele>
        <time>2021-10-23T14:03:01Z</time>
      </trkpt>
      <trkpt lat="46.6603" lon="5.56219">
        <ele>418.4</ele>
        <time>2021-10-23T14:03:03Z</time>
      </trkpt>
      <trkpt lat="46.66023" lon="5.56216">
        <ele>418</ele>
        <time>2021-10-23T14:03:04Z</time>
      </trkpt>
      <trkpt lat="46.66005" lon="5.56204">
        <ele>417</ele>
        <time>2021-10-23T14:03:07Z</time>
      </trkpt>
      <trkpt lat="46.65999" lon="5.56199">
        <ele>416.4</ele>
        <time>2021-10-23T14:03:08Z</time>
      </trkpt>
      <trkpt lat="46.65989" lon="5.56184">
        <ele>415.8</ele>
        <time>2021-10-23T14:03:10Z</time>
      </trkpt>
      <trkpt lat="46.65984" lon="5.56175">
        <ele>415.6</ele>
        <time>2021-10-23T14:03:11Z</time>
      </trkpt>
      <trkpt lat="46.65979" lon="5.56166">
        <ele>415.4</ele>
        <time>2021-10-23T14:03:12Z</time>
      </trkpt>
      <trkpt lat="46.65974" lon="5.56154">
        <ele>414.8</ele>
        <time>2021-10-23T14:03:13Z</time>
      </trkpt>
      <trkpt lat="46.6597" lon="5.56142">
        <ele>414.4</ele>
        <time>2021-10-23T14:03:14Z</time>
      </trkpt>
      <trkpt lat="46.65968" lon="5.5613">
        <ele>413.8</ele>
        <time>2021-10-23T14:03:15Z</time>
      </trkpt>
      <trkpt lat="46.65968" lon="5.5612">
        <ele>413.2</ele>
        <time>2021-10-23T14:03:16Z</time>
      </trkpt>
      <trkpt lat="46.65971" lon="5.56092">
        <ele>412.2</ele>
        <time>2021-10-23T14:03:18Z</time>
      </trkpt>
      <trkpt lat="46.65973" lon="5.56079">
        <ele>411.4</ele>
        <time>2021-10-23T14:03:19Z</time>
      </trkpt>
      <trkpt lat="46.65971" lon="5.56058">
        <ele>410.4</ele>
        <time>2021-10-23T14:03:21Z</time>
      </trkpt>
      <trkpt lat="46.65968" lon="5.5605">
        <ele>409.6</ele>
        <time>2021-10-23T14:03:22Z</time>
      </trkpt>
      <trkpt lat="46.65963" lon="5.56046">
        <ele>409.4</ele>
        <time>2021-10-23T14:03:23Z</time>
      </trkpt>
      <trkpt lat="46.6595" lon="5.56049">
        <ele>408.4</ele>
        <time>2021-10-23T14:03:25Z</time>
      </trkpt>
      <trkpt lat="46.65945" lon="5.56055">
        <ele>408</ele>
        <time>2021-10-23T14:03:26Z</time>
      </trkpt>
      <trkpt lat="46.6594" lon="5.56075">
        <ele>407.2</ele>
        <time>2021-10-23T14:03:28Z</time>
      </trkpt>
      <trkpt lat="46.65934" lon="5.56113">
        <ele>405.6</ele>
        <time>2021-10-23T14:03:31Z</time>
      </trkpt>
      <trkpt lat="46.65931" lon="5.56126">
        <ele>405.4</ele>
        <time>2021-10-23T14:03:32Z</time>
      </trkpt>
      <trkpt lat="46.65925" lon="5.56153">
        <ele>404.6</ele>
        <time>2021-10-23T14:03:34Z</time>
      </trkpt>
      <trkpt lat="46.65922" lon="5.56182">
        <ele>404</ele>
        <time>2021-10-23T14:03:36Z</time>
      </trkpt>
      <trkpt lat="46.65921" lon="5.56197">
        <ele>403.2</ele>
        <time>2021-10-23T14:03:37Z</time>
      </trkpt>
      <trkpt lat="46.65919" lon="5.56212">
        <ele>402</ele>
        <time>2021-10-23T14:03:38Z</time>
      </trkpt>
      <trkpt lat="46.65912" lon="5.56244">
        <ele>400.6</ele>
        <time>2021-10-23T14:03:40Z</time>
      </trkpt>
      <trkpt lat="46.65902" lon="5.56275">
        <ele>399.4</ele>
        <time>2021-10-23T14:03:42Z</time>
      </trkpt>
      <trkpt lat="46.65897" lon="5.5629">
        <ele>398.6</ele>
        <time>2021-10-23T14:03:43Z</time>
      </trkpt>
      <trkpt lat="46.6589" lon="5.56303">
        <ele>397.6</ele>
        <time>2021-10-23T14:03:44Z</time>
      </trkpt>
      <trkpt lat="46.65881" lon="5.56316">
        <ele>396.6</ele>
        <time>2021-10-23T14:03:45Z</time>
      </trkpt>
      <trkpt lat="46.65875" lon="5.56324">
        <ele>396</ele>
        <time>2021-10-23T14:03:46Z</time>
      </trkpt>
      <trkpt lat="46.65866" lon="5.56331">
        <ele>395</ele>
        <time>2021-10-23T14:03:47Z</time>
      </trkpt>
      <trkpt lat="46.65846" lon="5.56344">
        <ele>394</ele>
        <time>2021-10-23T14:03:49Z</time>
      </trkpt>
      <trkpt lat="46.65826" lon="5.56356">
        <ele>392.6</ele>
        <time>2021-10-23T14:03:51Z</time>
      </trkpt>
      <trkpt lat="46.65813" lon="5.56363">
        <ele>391.4</ele>
        <time>2021-10-23T14:03:52Z</time>
      </trkpt>
      <trkpt lat="46.65805" lon="5.56367">
        <ele>390.6</ele>
        <time>2021-10-23T14:03:53Z</time>
      </trkpt>
      <trkpt lat="46.65805" lon="5.56367">
        <ele>389.6</ele>
        <time>2021-10-23T14:03:54Z</time>
      </trkpt>
      <trkpt lat="46.65785" lon="5.56379">
        <ele>387.8</ele>
        <time>2021-10-23T14:03:56Z</time>
      </trkpt>
      <trkpt lat="46.65764" lon="5.5639">
        <ele>386.8</ele>
        <time>2021-10-23T14:03:57Z</time>
      </trkpt>
      <trkpt lat="46.65724" lon="5.56418">
        <ele>385.6</ele>
        <time>2021-10-23T14:04:01Z</time>
      </trkpt>
      <trkpt lat="46.65708" lon="5.56431">
        <ele>384.6</ele>
        <time>2021-10-23T14:04:03Z</time>
      </trkpt>
      <trkpt lat="46.657" lon="5.56434">
        <ele>384.2</ele>
        <time>2021-10-23T14:04:04Z</time>
      </trkpt>
      <trkpt lat="46.65692" lon="5.56434">
        <ele>383.6</ele>
        <time>2021-10-23T14:04:05Z</time>
      </trkpt>
      <trkpt lat="46.65688" lon="5.5643">
        <ele>382.8</ele>
        <time>2021-10-23T14:04:06Z</time>
      </trkpt>
      <trkpt lat="46.65683" lon="5.56424">
        <ele>382.4</ele>
        <time>2021-10-23T14:04:07Z</time>
      </trkpt>
      <trkpt lat="46.65678" lon="5.56403">
        <ele>381.6</ele>
        <time>2021-10-23T14:04:09Z</time>
      </trkpt>
      <trkpt lat="46.65675" lon="5.56391">
        <ele>380.6</ele>
        <time>2021-10-23T14:04:10Z</time>
      </trkpt>
      <trkpt lat="46.6567" lon="5.56379">
        <ele>380.4</ele>
        <time>2021-10-23T14:04:11Z</time>
      </trkpt>
      <trkpt lat="46.65665" lon="5.56369">
        <ele>379.8</ele>
        <time>2021-10-23T14:04:12Z</time>
      </trkpt>
      <trkpt lat="46.65658" lon="5.5636">
        <ele>379.2</ele>
        <time>2021-10-23T14:04:13Z</time>
      </trkpt>
      <trkpt lat="46.65641" lon="5.56346">
        <ele>378</ele>
        <time>2021-10-23T14:04:15Z</time>
      </trkpt>
      <trkpt lat="46.65623" lon="5.56335">
        <ele>376.4</ele>
        <time>2021-10-23T14:04:17Z</time>
      </trkpt>
      <trkpt lat="46.65594" lon="5.56318">
        <ele>375</ele>
        <time>2021-10-23T14:04:20Z</time>
      </trkpt>
      <trkpt lat="46.65584" lon="5.56312">
        <ele>374.8</ele>
        <time>2021-10-23T14:04:21Z</time>
      </trkpt>
      <trkpt lat="46.65574" lon="5.56307">
        <ele>373.4</ele>
        <time>2021-10-23T14:04:22Z</time>
      </trkpt>
      <trkpt lat="46.65552" lon="5.56298">
        <ele>372.2</ele>
        <time>2021-10-23T14:04:24Z</time>
      </trkpt>
      <trkpt lat="46.65522" lon="5.56285">
        <ele>371</ele>
        <time>2021-10-23T14:04:27Z</time>
      </trkpt>
      <trkpt lat="46.6548" lon="5.56262">
        <ele>369.6</ele>
        <time>2021-10-23T14:04:31Z</time>
      </trkpt>
      <trkpt lat="46.65469" lon="5.56254">
        <ele>369</ele>
        <time>2021-10-23T14:04:32Z</time>
      </trkpt>
      <trkpt lat="46.65457" lon="5.56246">
        <ele>368.2</ele>
        <time>2021-10-23T14:04:33Z</time>
      </trkpt>
      <trkpt lat="46.65439" lon="5.56232">
        <ele>365.6</ele>
        <time>2021-10-23T14:04:35Z</time>
      </trkpt>
      <trkpt lat="46.65429" lon="5.56224">
        <ele>364.4</ele>
        <time>2021-10-23T14:04:36Z</time>
      </trkpt>
      <trkpt lat="46.6542" lon="5.56217">
        <ele>364</ele>
        <time>2021-10-23T14:04:37Z</time>
      </trkpt>
      <trkpt lat="46.6541" lon="5.56208">
        <ele>363.2</ele>
        <time>2021-10-23T14:04:38Z</time>
      </trkpt>
      <trkpt lat="46.65374" lon="5.56169">
        <ele>361.6</ele>
        <time>2021-10-23T14:04:42Z</time>
      </trkpt>
      <trkpt lat="46.65356" lon="5.56145">
        <ele>360.4</ele>
        <time>2021-10-23T14:04:44Z</time>
      </trkpt>
      <trkpt lat="46.65338" lon="5.56123">
        <ele>359.2</ele>
        <time>2021-10-23T14:04:46Z</time>
      </trkpt>
      <trkpt lat="46.65328" lon="5.56114">
        <ele>358.6</ele>
        <time>2021-10-23T14:04:47Z</time>
      </trkpt>
      <trkpt lat="46.65319" lon="5.56107">
        <ele>357.8</ele>
        <time>2021-10-23T14:04:48Z</time>
      </trkpt>
      <trkpt lat="46.6531" lon="5.56099">
        <ele>356.6</ele>
        <time>2021-10-23T14:04:49Z</time>
      </trkpt>
      <trkpt lat="46.65301" lon="5.56089">
        <ele>355.6</ele>
        <time>2021-10-23T14:04:50Z</time>
      </trkpt>
      <trkpt lat="46.65301" lon="5.56089">
        <ele>354.2</ele>
        <time>2021-10-23T14:04:51Z</time>
      </trkpt>
      <trkpt lat="46.65287" lon="5.56064">
        <ele>353.4</ele>
        <time>2021-10-23T14:04:52Z</time>
      </trkpt>
      <trkpt lat="46.65281" lon="5.5605">
        <ele>353</ele>
        <time>2021-10-23T14:04:53Z</time>
      </trkpt>
      <trkpt lat="46.65274" lon="5.56037">
        <ele>350.8</ele>
        <time>2021-10-23T14:04:54Z</time>
      </trkpt>
      <trkpt lat="46.6526" lon="5.5601">
        <ele>348.4</ele>
        <time>2021-10-23T14:04:56Z</time>
      </trkpt>
      <trkpt lat="46.65246" lon="5.55989">
        <ele>346.4</ele>
        <time>2021-10-23T14:04:58Z</time>
      </trkpt>
      <trkpt lat="46.65239" lon="5.55979">
        <ele>345.8</ele>
        <time>2021-10-23T14:04:59Z</time>
      </trkpt>
      <trkpt lat="46.65222" lon="5.55959">
        <ele>344.8</ele>
        <time>2021-10-23T14:05:01Z</time>
      </trkpt>
      <trkpt lat="46.65197" lon="5.55929">
        <ele>343.6</ele>
        <time>2021-10-23T14:05:04Z</time>
      </trkpt>
      <trkpt lat="46.65188" lon="5.5592">
        <ele>343</ele>
        <time>2021-10-23T14:05:05Z</time>
      </trkpt>
      <trkpt lat="46.6517" lon="5.55905">
        <ele>342</ele>
        <time>2021-10-23T14:05:07Z</time>
      </trkpt>
      <trkpt lat="46.65159" lon="5.55897">
        <ele>341</ele>
        <time>2021-10-23T14:05:08Z</time>
      </trkpt>
      <trkpt lat="46.65137" lon="5.5588">
        <ele>339.2</ele>
        <time>2021-10-23T14:05:10Z</time>
      </trkpt>
      <trkpt lat="46.65114" lon="5.55863">
        <ele>337.8</ele>
        <time>2021-10-23T14:05:12Z</time>
      </trkpt>
      <trkpt lat="46.65089" lon="5.55846">
        <ele>336.6</ele>
        <time>2021-10-23T14:05:14Z</time>
      </trkpt>
      <trkpt lat="46.65076" lon="5.55837">
        <ele>334.8</ele>
        <time>2021-10-23T14:05:15Z</time>
      </trkpt>
      <trkpt lat="46.65065" lon="5.55829">
        <ele>333.6</ele>
        <time>2021-10-23T14:05:16Z</time>
      </trkpt>
      <trkpt lat="46.65053" lon="5.5582">
        <ele>331.6</ele>
        <time>2021-10-23T14:05:17Z</time>
      </trkpt>
      <trkpt lat="46.65043" lon="5.5581">
        <ele>330.4</ele>
        <time>2021-10-23T14:05:18Z</time>
      </trkpt>
      <trkpt lat="46.65033" lon="5.55799">
        <ele>329</ele>
        <time>2021-10-23T14:05:19Z</time>
      </trkpt>
      <trkpt lat="46.65014" lon="5.55774">
        <ele>326.8</ele>
        <time>2021-10-23T14:05:21Z</time>
      </trkpt>
      <trkpt lat="46.64994" lon="5.5575">
        <ele>325.6</ele>
        <time>2021-10-23T14:05:23Z</time>
      </trkpt>
      <trkpt lat="46.64983" lon="5.5574">
        <ele>324.4</ele>
        <time>2021-10-23T14:05:24Z</time>
      </trkpt>
      <trkpt lat="46.64972" lon="5.55732">
        <ele>324</ele>
        <time>2021-10-23T14:05:25Z</time>
      </trkpt>
      <trkpt lat="46.6496" lon="5.55726">
        <ele>322.8</ele>
        <time>2021-10-23T14:05:26Z</time>
      </trkpt>
      <trkpt lat="46.64923" lon="5.55713">
        <ele>321.8</ele>
        <time>2021-10-23T14:05:29Z</time>
      </trkpt>
      <trkpt lat="46.64911" lon="5.55708">
        <ele>320.4</ele>
        <time>2021-10-23T14:05:30Z</time>
      </trkpt>
      <trkpt lat="46.649" lon="5.55703">
        <ele>319</ele>
        <time>2021-10-23T14:05:31Z</time>
      </trkpt>
      <trkpt lat="46.64882" lon="5.55691">
        <ele>316.8</ele>
        <time>2021-10-23T14:05:33Z</time>
      </trkpt>
      <trkpt lat="46.64869" lon="5.55681">
        <ele>315.2</ele>
        <time>2021-10-23T14:05:35Z</time>
      </trkpt>
      <trkpt lat="46.64863" lon="5.55676">
        <ele>314.6</ele>
        <time>2021-10-23T14:05:36Z</time>
      </trkpt>
      <trkpt lat="46.64854" lon="5.55669">
        <ele>314</ele>
        <time>2021-10-23T14:05:37Z</time>
      </trkpt>
      <trkpt lat="46.64842" lon="5.55655">
        <ele>313.2</ele>
        <time>2021-10-23T14:05:39Z</time>
      </trkpt>
      <trkpt lat="46.64835" lon="5.55645">
        <ele>312.4</ele>
        <time>2021-10-23T14:05:40Z</time>
      </trkpt>
      <trkpt lat="46.64829" lon="5.55634">
        <ele>311.8</ele>
        <time>2021-10-23T14:05:41Z</time>
      </trkpt>
      <trkpt lat="46.64824" lon="5.55623">
        <ele>310.8</ele>
        <time>2021-10-23T14:05:42Z</time>
      </trkpt>
      <trkpt lat="46.64814" lon="5.55597">
        <ele>309.2</ele>
        <time>2021-10-23T14:05:44Z</time>
      </trkpt>
      <trkpt lat="46.64805" lon="5.5557">
        <ele>307.6</ele>
        <time>2021-10-23T14:05:46Z</time>
      </trkpt>
      <trkpt lat="46.64795" lon="5.55543">
        <ele>306.2</ele>
        <time>2021-10-23T14:05:48Z</time>
      </trkpt>
      <trkpt lat="46.64787" lon="5.55515">
        <ele>305</ele>
        <time>2021-10-23T14:05:50Z</time>
      </trkpt>
      <trkpt lat="46.64783" lon="5.555">
        <ele>304</ele>
        <time>2021-10-23T14:05:51Z</time>
      </trkpt>
      <trkpt lat="46.64776" lon="5.55471">
        <ele>302.8</ele>
        <time>2021-10-23T14:05:53Z</time>
      </trkpt>
      <trkpt lat="46.6477" lon="5.55441">
        <ele>301.2</ele>
        <time>2021-10-23T14:05:55Z</time>
      </trkpt>
      <trkpt lat="46.64767" lon="5.55425">
        <ele>300.2</ele>
        <time>2021-10-23T14:05:56Z</time>
      </trkpt>
      <trkpt lat="46.64759" lon="5.55376">
        <ele>298.8</ele>
        <time>2021-10-23T14:05:59Z</time>
      </trkpt>
      <trkpt lat="46.64752" lon="5.55335">
        <ele>297.4</ele>
        <time>2021-10-23T14:06:02Z</time>
      </trkpt>
      <trkpt lat="46.64748" lon="5.55306">
        <ele>296.4</ele>
        <time>2021-10-23T14:06:04Z</time>
      </trkpt>
      <trkpt lat="46.64747" lon="5.55292">
        <ele>296.2</ele>
        <time>2021-10-23T14:06:05Z</time>
      </trkpt>
      <trkpt lat="46.64748" lon="5.55263">
        <ele>295.2</ele>
        <time>2021-10-23T14:06:07Z</time>
      </trkpt>
      <trkpt lat="46.6475" lon="5.55249">
        <ele>294.8</ele>
        <time>2021-10-23T14:06:08Z</time>
      </trkpt>
      <trkpt lat="46.64755" lon="5.55221">
        <ele>293.6</ele>
        <time>2021-10-23T14:06:10Z</time>
      </trkpt>
      <trkpt lat="46.6476" lon="5.55194">
        <ele>293.2</ele>
        <time>2021-10-23T14:06:12Z</time>
      </trkpt>
      <trkpt lat="46.64766" lon="5.55168">
        <ele>293</ele>
        <time>2021-10-23T14:06:14Z</time>
      </trkpt>
      <trkpt lat="46.64771" lon="5.5514">
        <ele>292.2</ele>
        <time>2021-10-23T14:06:16Z</time>
      </trkpt>
      <trkpt lat="46.64782" lon="5.55093">
        <ele>291.6</ele>
        <time>2021-10-23T14:06:20Z</time>
      </trkpt>
      <trkpt lat="46.64799" lon="5.55033">
        <ele>291.2</ele>
        <time>2021-10-23T14:06:25Z</time>
      </trkpt>
      <trkpt lat="46.64801" lon="5.55021">
        <ele>291</ele>
        <time>2021-10-23T14:06:26Z</time>
      </trkpt>
      <trkpt lat="46.64805" lon="5.54982">
        <ele>291</ele>
        <time>2021-10-23T14:06:29Z</time>
      </trkpt>
      <trkpt lat="46.6481" lon="5.54902">
        <ele>290.4</ele>
        <time>2021-10-23T14:06:35Z</time>
      </trkpt>
      <trkpt lat="46.64813" lon="5.54876">
        <ele>290.2</ele>
        <time>2021-10-23T14:06:37Z</time>
      </trkpt>
      <trkpt lat="46.64814" lon="5.54863">
        <ele>290.2</ele>
        <time>2021-10-23T14:06:38Z</time>
      </trkpt>
      <trkpt lat="46.64816" lon="5.54838">
        <ele>289.8</ele>
        <time>2021-10-23T14:06:40Z</time>
      </trkpt>
      <trkpt lat="46.64812" lon="5.54811">
        <ele>289.2</ele>
        <time>2021-10-23T14:06:42Z</time>
      </trkpt>
      <trkpt lat="46.64804" lon="5.54791">
        <ele>289</ele>
        <time>2021-10-23T14:06:44Z</time>
      </trkpt>
      <trkpt lat="46.64794" lon="5.54773">
        <ele>288.8</ele>
        <time>2021-10-23T14:06:46Z</time>
      </trkpt>
      <trkpt lat="46.64772" lon="5.54737">
        <ele>288.4</ele>
        <time>2021-10-23T14:06:50Z</time>
      </trkpt>
      <trkpt lat="46.64769" lon="5.54726">
        <ele>288.2</ele>
        <time>2021-10-23T14:06:51Z</time>
      </trkpt>
      <trkpt lat="46.64764" lon="5.54707">
        <ele>288</ele>
        <time>2021-10-23T14:06:53Z</time>
      </trkpt>
      <trkpt lat="46.64756" lon="5.54694">
        <ele>288</ele>
        <time>2021-10-23T14:06:55Z</time>
      </trkpt>
      <trkpt lat="46.64746" lon="5.54692">
        <ele>288.2</ele>
        <time>2021-10-23T14:06:57Z</time>
      </trkpt>
      <trkpt lat="46.64742" lon="5.54685">
        <ele>289</ele>
        <time>2021-10-23T14:06:59Z</time>
      </trkpt>
      <trkpt lat="46.64742" lon="5.54656">
        <ele>290.2</ele>
        <time>2021-10-23T14:07:04Z</time>
      </trkpt>
      <trkpt lat="46.64735" lon="5.54618">
        <ele>290.8</ele>
        <time>2021-10-23T14:07:09Z</time>
      </trkpt>
      <trkpt lat="46.64722" lon="5.54582">
        <ele>291</ele>
        <time>2021-10-23T14:07:14Z</time>
      </trkpt>
      <trkpt lat="46.64714" lon="5.54562">
        <ele>291.4</ele>
        <time>2021-10-23T14:07:17Z</time>
      </trkpt>
      <trkpt lat="46.64697" lon="5.54531">
        <ele>291.8</ele>
        <time>2021-10-23T14:07:22Z</time>
      </trkpt>
      <trkpt lat="46.64681" lon="5.54501">
        <ele>292.4</ele>
        <time>2021-10-23T14:07:27Z</time>
      </trkpt>
      <trkpt lat="46.64676" lon="5.54488">
        <ele>292.8</ele>
        <time>2021-10-23T14:07:29Z</time>
      </trkpt>
      <trkpt lat="46.64671" lon="5.54474">
        <ele>293.2</ele>
        <time>2021-10-23T14:07:31Z</time>
      </trkpt>
      <trkpt lat="46.64669" lon="5.54466">
        <ele>293.4</ele>
        <time>2021-10-23T14:07:32Z</time>
      </trkpt>
      <trkpt lat="46.64658" lon="5.54423">
        <ele>293.6</ele>
        <time>2021-10-23T14:07:37Z</time>
      </trkpt>
      <trkpt lat="46.6464" lon="5.54353">
        <ele>292.2</ele>
        <time>2021-10-23T14:07:44Z</time>
      </trkpt>
      <trkpt lat="46.64621" lon="5.54294">
        <ele>291</ele>
        <time>2021-10-23T14:07:50Z</time>
      </trkpt>
      <trkpt lat="46.64611" lon="5.54264">
        <ele>290</ele>
        <time>2021-10-23T14:07:53Z</time>
      </trkpt>
      <trkpt lat="46.64596" lon="5.54225">
        <ele>289.2</ele>
        <time>2021-10-23T14:07:57Z</time>
      </trkpt>
      <trkpt lat="46.64592" lon="5.54215">
        <ele>288.8</ele>
        <time>2021-10-23T14:07:58Z</time>
      </trkpt>
      <trkpt lat="46.6457" lon="5.54163">
        <ele>288</ele>
        <time>2021-10-23T14:08:04Z</time>
      </trkpt>
      <trkpt lat="46.64568" lon="5.54157">
        <ele>287.8</ele>
        <time>2021-10-23T14:08:05Z</time>
      </trkpt>
      <trkpt lat="46.64566" lon="5.5415">
        <ele>287.4</ele>
        <time>2021-10-23T14:08:07Z</time>
      </trkpt>
      <trkpt lat="46.64565" lon="5.54148">
        <ele>286.8</ele>
        <time>2021-10-23T14:08:10Z</time>
      </trkpt>
      <trkpt lat="46.64565" lon="5.54148">
        <ele>286.6</ele>
        <time>2021-10-23T14:08:11Z</time>
      </trkpt>
      <trkpt lat="46.64561" lon="5.5414">
        <ele>285.6</ele>
        <time>2021-10-23T14:08:56Z</time>
      </trkpt>
      <trkpt lat="46.64562" lon="5.54132">
        <ele>285.4</ele>
        <time>2021-10-23T14:08:58Z</time>
      </trkpt>
      <trkpt lat="46.64567" lon="5.54122">
        <ele>285.4</ele>
        <time>2021-10-23T14:09:00Z</time>
      </trkpt>
      <trkpt lat="46.64571" lon="5.54117">
        <ele>285.2</ele>
        <time>2021-10-23T14:09:01Z</time>
      </trkpt>
      <trkpt lat="46.6458" lon="5.5411">
        <ele>285</ele>
        <time>2021-10-23T14:09:03Z</time>
      </trkpt>
      <trkpt lat="46.64585" lon="5.54107">
        <ele>284.8</ele>
        <time>2021-10-23T14:09:04Z</time>
      </trkpt>
      <trkpt lat="46.64597" lon="5.54097">
        <ele>284.6</ele>
        <time>2021-10-23T14:09:06Z</time>
      </trkpt>
      <trkpt lat="46.64607" lon="5.54089">
        <ele>284.2</ele>
        <time>2021-10-23T14:09:08Z</time>
      </trkpt>
      <trkpt lat="46.6464" lon="5.54064">
        <ele>283.4</ele>
        <time>2021-10-23T14:09:14Z</time>
      </trkpt>
      <trkpt lat="46.64646" lon="5.54062">
        <ele>283.4</ele>
        <time>2021-10-23T14:09:15Z</time>
      </trkpt>
      <trkpt lat="46.64671" lon="5.54055">
        <ele>283.2</ele>
        <time>2021-10-23T14:09:19Z</time>
      </trkpt>
      <trkpt lat="46.64706" lon="5.5404">
        <ele>283.4</ele>
        <time>2021-10-23T14:09:25Z</time>
      </trkpt>
      <trkpt lat="46.6471" lon="5.54034">
        <ele>283.6</ele>
        <time>2021-10-23T14:09:26Z</time>
      </trkpt>
      <trkpt lat="46.64711" lon="5.54026">
        <ele>283.4</ele>
        <time>2021-10-23T14:09:27Z</time>
      </trkpt>
      <trkpt lat="46.64709" lon="5.54015">
        <ele>283.4</ele>
        <time>2021-10-23T14:09:28Z</time>
      </trkpt>
      <trkpt lat="46.64696" lon="5.53968">
        <ele>283</ele>
        <time>2021-10-23T14:09:33Z</time>
      </trkpt>
      <trkpt lat="46.64684" lon="5.53918">
        <ele>282.2</ele>
        <time>2021-10-23T14:09:38Z</time>
      </trkpt>
      <trkpt lat="46.64684" lon="5.5391">
        <ele>282</ele>
        <time>2021-10-23T14:09:39Z</time>
      </trkpt>
      <trkpt lat="46.64687" lon="5.539">
        <ele>282</ele>
        <time>2021-10-23T14:09:40Z</time>
      </trkpt>
      <trkpt lat="46.64691" lon="5.53893">
        <ele>281.8</ele>
        <time>2021-10-23T14:09:41Z</time>
      </trkpt>
      <trkpt lat="46.64698" lon="5.53888">
        <ele>281.6</ele>
        <time>2021-10-23T14:09:42Z</time>
      </trkpt>
      <trkpt lat="46.64713" lon="5.53882">
        <ele>281.2</ele>
        <time>2021-10-23T14:09:44Z</time>
      </trkpt>
      <trkpt lat="46.64719" lon="5.53879">
        <ele>280.8</ele>
        <time>2021-10-23T14:09:45Z</time>
      </trkpt>
      <trkpt lat="46.64747" lon="5.5386">
        <ele>280.2</ele>
        <time>2021-10-23T14:09:49Z</time>
      </trkpt>
      <trkpt lat="46.64753" lon="5.53854">
        <ele>280.2</ele>
        <time>2021-10-23T14:09:50Z</time>
      </trkpt>
      <trkpt lat="46.64763" lon="5.53841">
        <ele>279.8</ele>
        <time>2021-10-23T14:09:52Z</time>
      </trkpt>
      <trkpt lat="46.64774" lon="5.53822">
        <ele>279.6</ele>
        <time>2021-10-23T14:09:54Z</time>
      </trkpt>
      <trkpt lat="46.64778" lon="5.53814">
        <ele>279.4</ele>
        <time>2021-10-23T14:09:55Z</time>
      </trkpt>
      <trkpt lat="46.64805" lon="5.53748">
        <ele>279</ele>
        <time>2021-10-23T14:10:02Z</time>
      </trkpt>
      <trkpt lat="46.64833" lon="5.5367">
        <ele>278.8</ele>
        <time>2021-10-23T14:10:10Z</time>
      </trkpt>
      <trkpt lat="46.64849" lon="5.53629">
        <ele>278.6</ele>
        <time>2021-10-23T14:10:14Z</time>
      </trkpt>
      <trkpt lat="46.6486" lon="5.53597">
        <ele>278</ele>
        <time>2021-10-23T14:10:17Z</time>
      </trkpt>
      <trkpt lat="46.64868" lon="5.53576">
        <ele>277.4</ele>
        <time>2021-10-23T14:10:19Z</time>
      </trkpt>
      <trkpt lat="46.64897" lon="5.53501">
        <ele>276.2</ele>
        <time>2021-10-23T14:10:26Z</time>
      </trkpt>
      <trkpt lat="46.64905" lon="5.5348">
        <ele>275.8</ele>
        <time>2021-10-23T14:10:28Z</time>
      </trkpt>
      <trkpt lat="46.64918" lon="5.5345">
        <ele>275.2</ele>
        <time>2021-10-23T14:10:31Z</time>
      </trkpt>
      <trkpt lat="46.64939" lon="5.53401">
        <ele>274.8</ele>
        <time>2021-10-23T14:10:36Z</time>
      </trkpt>
      <trkpt lat="46.64971" lon="5.53332">
        <ele>274.4</ele>
        <time>2021-10-23T14:10:43Z</time>
      </trkpt>
      <trkpt lat="46.64997" lon="5.53282">
        <ele>274</ele>
        <time>2021-10-23T14:10:48Z</time>
      </trkpt>
      <trkpt lat="46.65007" lon="5.53261">
        <ele>273.2</ele>
        <time>2021-10-23T14:10:50Z</time>
      </trkpt>
      <trkpt lat="46.65012" lon="5.5325">
        <ele>273</ele>
        <time>2021-10-23T14:10:51Z</time>
      </trkpt>
      <trkpt lat="46.65041" lon="5.53177">
        <ele>272</ele>
        <time>2021-10-23T14:10:58Z</time>
      </trkpt>
      <trkpt lat="46.65045" lon="5.53167">
        <ele>271.8</ele>
        <time>2021-10-23T14:10:59Z</time>
      </trkpt>
      <trkpt lat="46.65069" lon="5.5312">
        <ele>271.2</ele>
        <time>2021-10-23T14:11:04Z</time>
      </trkpt>
      <trkpt lat="46.65095" lon="5.5307">
        <ele>271.6</ele>
        <time>2021-10-23T14:11:10Z</time>
      </trkpt>
      <trkpt lat="46.65114" lon="5.53025">
        <ele>271.6</ele>
        <time>2021-10-23T14:11:16Z</time>
      </trkpt>
      <trkpt lat="46.65138" lon="5.52967">
        <ele>271.2</ele>
        <time>2021-10-23T14:11:23Z</time>
      </trkpt>
      <trkpt lat="46.65142" lon="5.52958">
        <ele>271</ele>
        <time>2021-10-23T14:11:24Z</time>
      </trkpt>
      <trkpt lat="46.65151" lon="5.52942">
        <ele>270.8</ele>
        <time>2021-10-23T14:11:26Z</time>
      </trkpt>
      <trkpt lat="46.65156" lon="5.52933">
        <ele>270.8</ele>
        <time>2021-10-23T14:11:27Z</time>
      </trkpt>
      <trkpt lat="46.65174" lon="5.52901">
        <ele>270.4</ele>
        <time>2021-10-23T14:11:32Z</time>
      </trkpt>
      <trkpt lat="46.65182" lon="5.52885">
        <ele>270.4</ele>
        <time>2021-10-23T14:11:35Z</time>
      </trkpt>
      <trkpt lat="46.65192" lon="5.52866">
        <ele>270.6</ele>
        <time>2021-10-23T14:11:38Z</time>
      </trkpt>
      <trkpt lat="46.65195" lon="5.52858">
        <ele>270.6</ele>
        <time>2021-10-23T14:11:39Z</time>
      </trkpt>
      <trkpt lat="46.65198" lon="5.52842">
        <ele>270.8</ele>
        <time>2021-10-23T14:11:41Z</time>
      </trkpt>
      <trkpt lat="46.65206" lon="5.52795">
        <ele>271.2</ele>
        <time>2021-10-23T14:11:47Z</time>
      </trkpt>
      <trkpt lat="46.65221" lon="5.52787">
        <ele>271.2</ele>
        <time>2021-10-23T14:11:50Z</time>
      </trkpt>
      <trkpt lat="46.65244" lon="5.52785">
        <ele>271</ele>
        <time>2021-10-23T14:11:54Z</time>
      </trkpt>
      <trkpt lat="46.65248" lon="5.52782">
        <ele>271</ele>
        <time>2021-10-23T14:11:55Z</time>
      </trkpt>
      <trkpt lat="46.65277" lon="5.52758">
        <ele>270</ele>
        <time>2021-10-23T14:12:00Z</time>
      </trkpt>
      <trkpt lat="46.65283" lon="5.52753">
        <ele>269.6</ele>
        <time>2021-10-23T14:12:01Z</time>
      </trkpt>
      <trkpt lat="46.65311" lon="5.52727">
        <ele>268.6</ele>
        <time>2021-10-23T14:12:06Z</time>
      </trkpt>
      <trkpt lat="46.65332" lon="5.52707">
        <ele>268.4</ele>
        <time>2021-10-23T14:12:10Z</time>
      </trkpt>
      <trkpt lat="46.65336" lon="5.52702">
        <ele>268.2</ele>
        <time>2021-10-23T14:12:11Z</time>
      </trkpt>
      <trkpt lat="46.65352" lon="5.52682">
        <ele>267.6</ele>
        <time>2021-10-23T14:12:14Z</time>
      </trkpt>
      <trkpt lat="46.65366" lon="5.52658">
        <ele>266.6</ele>
        <time>2021-10-23T14:12:17Z</time>
      </trkpt>
      <trkpt lat="46.65375" lon="5.52641">
        <ele>266.4</ele>
        <time>2021-10-23T14:12:19Z</time>
      </trkpt>
      <trkpt lat="46.6539" lon="5.52602">
        <ele>266</ele>
        <time>2021-10-23T14:12:23Z</time>
      </trkpt>
      <trkpt lat="46.65407" lon="5.52549">
        <ele>265.2</ele>
        <time>2021-10-23T14:12:28Z</time>
      </trkpt>
      <trkpt lat="46.65415" lon="5.52528">
        <ele>265</ele>
        <time>2021-10-23T14:12:30Z</time>
      </trkpt>
      <trkpt lat="46.65421" lon="5.52519">
        <ele>264.4</ele>
        <time>2021-10-23T14:12:31Z</time>
      </trkpt>
      <trkpt lat="46.65432" lon="5.52503">
        <ele>264.2</ele>
        <time>2021-10-23T14:12:33Z</time>
      </trkpt>
      <trkpt lat="46.65438" lon="5.52496">
        <ele>264</ele>
        <time>2021-10-23T14:12:34Z</time>
      </trkpt>
      <trkpt lat="46.65464" lon="5.5247">
        <ele>263.2</ele>
        <time>2021-10-23T14:12:38Z</time>
      </trkpt>
      <trkpt lat="46.65484" lon="5.52452">
        <ele>263</ele>
        <time>2021-10-23T14:12:41Z</time>
      </trkpt>
      <trkpt lat="46.65531" lon="5.5241">
        <ele>262.8</ele>
        <time>2021-10-23T14:12:48Z</time>
      </trkpt>
      <trkpt lat="46.65572" lon="5.52377">
        <ele>262.6</ele>
        <time>2021-10-23T14:12:54Z</time>
      </trkpt>
      <trkpt lat="46.65625" lon="5.52338">
        <ele>262.4</ele>
        <time>2021-10-23T14:13:02Z</time>
      </trkpt>
      <trkpt lat="46.65679" lon="5.52305">
        <ele>262.6</ele>
        <time>2021-10-23T14:13:10Z</time>
      </trkpt>
      <trkpt lat="46.65685" lon="5.52301">
        <ele>262.6</ele>
        <time>2021-10-23T14:13:11Z</time>
      </trkpt>
      <trkpt lat="46.65725" lon="5.52268">
        <ele>262.6</ele>
        <time>2021-10-23T14:13:18Z</time>
      </trkpt>
      <trkpt lat="46.65753" lon="5.52241">
        <ele>264.4</ele>
        <time>2021-10-23T14:13:24Z</time>
      </trkpt>
      <trkpt lat="46.65767" lon="5.52217">
        <ele>265.6</ele>
        <time>2021-10-23T14:13:28Z</time>
      </trkpt>
      <trkpt lat="46.65773" lon="5.52204">
        <ele>266.2</ele>
        <time>2021-10-23T14:13:30Z</time>
      </trkpt>
      <trkpt lat="46.65777" lon="5.52197">
        <ele>266.6</ele>
        <time>2021-10-23T14:13:32Z</time>
      </trkpt>
      <trkpt lat="46.65783" lon="5.52184">
        <ele>266.6</ele>
        <time>2021-10-23T14:13:33Z</time>
      </trkpt>
      <trkpt lat="46.65805" lon="5.52147">
        <ele>267.6</ele>
        <time>2021-10-23T14:13:39Z</time>
      </trkpt>
      <trkpt lat="46.65823" lon="5.52122">
        <ele>268.8</ele>
        <time>2021-10-23T14:13:43Z</time>
      </trkpt>
      <trkpt lat="46.65841" lon="5.52097">
        <ele>269</ele>
        <time>2021-10-23T14:13:47Z</time>
      </trkpt>
      <trkpt lat="46.65866" lon="5.52067">
        <ele>269</ele>
        <time>2021-10-23T14:13:52Z</time>
      </trkpt>
      <trkpt lat="46.6587" lon="5.5206">
        <ele>269</ele>
        <time>2021-10-23T14:13:53Z</time>
      </trkpt>
      <trkpt lat="46.65873" lon="5.52053">
        <ele>269</ele>
        <time>2021-10-23T14:13:54Z</time>
      </trkpt>
      <trkpt lat="46.65874" lon="5.52036">
        <ele>269.2</ele>
        <time>2021-10-23T14:13:56Z</time>
      </trkpt>
      <trkpt lat="46.65869" lon="5.52002">
        <ele>269.8</ele>
        <time>2021-10-23T14:14:00Z</time>
      </trkpt>
      <trkpt lat="46.65864" lon="5.51977">
        <ele>270.4</ele>
        <time>2021-10-23T14:14:03Z</time>
      </trkpt>
      <trkpt lat="46.65854" lon="5.51922">
        <ele>270.8</ele>
        <time>2021-10-23T14:14:09Z</time>
      </trkpt>
      <trkpt lat="46.65849" lon="5.51892">
        <ele>270.8</ele>
        <time>2021-10-23T14:14:12Z</time>
      </trkpt>
      <trkpt lat="46.65836" lon="5.5181">
        <ele>270.4</ele>
        <time>2021-10-23T14:14:20Z</time>
      </trkpt>
      <trkpt lat="46.65826" lon="5.51741">
        <ele>269.8</ele>
        <time>2021-10-23T14:14:26Z</time>
      </trkpt>
      <trkpt lat="46.65821" lon="5.51706">
        <ele>269.4</ele>
        <time>2021-10-23T14:14:29Z</time>
      </trkpt>
      <trkpt lat="46.65816" lon="5.51672">
        <ele>268.6</ele>
        <time>2021-10-23T14:14:32Z</time>
      </trkpt>
      <trkpt lat="46.65805" lon="5.51617">
        <ele>268.2</ele>
        <time>2021-10-23T14:14:37Z</time>
      </trkpt>
      <trkpt lat="46.65794" lon="5.51565">
        <ele>267.8</ele>
        <time>2021-10-23T14:14:42Z</time>
      </trkpt>
      <trkpt lat="46.65794" lon="5.51555">
        <ele>267.8</ele>
        <time>2021-10-23T14:14:43Z</time>
      </trkpt>
      <trkpt lat="46.65796" lon="5.51546">
        <ele>267.8</ele>
        <time>2021-10-23T14:14:44Z</time>
      </trkpt>
      <trkpt lat="46.658" lon="5.51537">
        <ele>267.8</ele>
        <time>2021-10-23T14:14:45Z</time>
      </trkpt>
      <trkpt lat="46.65804" lon="5.51532">
        <ele>267.8</ele>
        <time>2021-10-23T14:14:46Z</time>
      </trkpt>
      <trkpt lat="46.65806" lon="5.51514">
        <ele>267.8</ele>
        <time>2021-10-23T14:14:48Z</time>
      </trkpt>
      <trkpt lat="46.65798" lon="5.51498">
        <ele>267.6</ele>
        <time>2021-10-23T14:14:50Z</time>
      </trkpt>
      <trkpt lat="46.65793" lon="5.51491">
        <ele>267.6</ele>
        <time>2021-10-23T14:14:51Z</time>
      </trkpt>
      <trkpt lat="46.65789" lon="5.51482">
        <ele>267.4</ele>
        <time>2021-10-23T14:14:52Z</time>
      </trkpt>
      <trkpt lat="46.65787" lon="5.51461">
        <ele>267.4</ele>
        <time>2021-10-23T14:14:54Z</time>
      </trkpt>
      <trkpt lat="46.65787" lon="5.51415">
        <ele>266.4</ele>
        <time>2021-10-23T14:14:58Z</time>
      </trkpt>
      <trkpt lat="46.65787" lon="5.51391">
        <ele>266.2</ele>
        <time>2021-10-23T14:15:00Z</time>
      </trkpt>
      <trkpt lat="46.65784" lon="5.51305">
        <ele>265.6</ele>
        <time>2021-10-23T14:15:07Z</time>
      </trkpt>
      <trkpt lat="46.65783" lon="5.51269">
        <ele>265.2</ele>
        <time>2021-10-23T14:15:10Z</time>
      </trkpt>
      <trkpt lat="46.65782" lon="5.51199">
        <ele>264.4</ele>
        <time>2021-10-23T14:15:16Z</time>
      </trkpt>
      <trkpt lat="46.65781" lon="5.51176">
        <ele>264</ele>
        <time>2021-10-23T14:15:18Z</time>
      </trkpt>
      <trkpt lat="46.65778" lon="5.51093">
        <ele>263.4</ele>
        <time>2021-10-23T14:15:25Z</time>
      </trkpt>
      <trkpt lat="46.65778" lon="5.51069">
        <ele>263</ele>
        <time>2021-10-23T14:15:27Z</time>
      </trkpt>
      <trkpt lat="46.65778" lon="5.51057">
        <ele>263</ele>
        <time>2021-10-23T14:15:28Z</time>
      </trkpt>
      <trkpt lat="46.65777" lon="5.50991">
        <ele>262</ele>
        <time>2021-10-23T14:15:33Z</time>
      </trkpt>
      <trkpt lat="46.65777" lon="5.50976">
        <ele>261.6</ele>
        <time>2021-10-23T14:15:34Z</time>
      </trkpt>
      <trkpt lat="46.6578" lon="5.50933">
        <ele>260.4</ele>
        <time>2021-10-23T14:15:37Z</time>
      </trkpt>
      <trkpt lat="46.65776" lon="5.50904">
        <ele>259.6</ele>
        <time>2021-10-23T14:15:39Z</time>
      </trkpt>
      <trkpt lat="46.65771" lon="5.50891">
        <ele>259</ele>
        <time>2021-10-23T14:15:40Z</time>
      </trkpt>
      <trkpt lat="46.65764" lon="5.50879">
        <ele>257.8</ele>
        <time>2021-10-23T14:15:41Z</time>
      </trkpt>
      <trkpt lat="46.65755" lon="5.5087">
        <ele>257.6</ele>
        <time>2021-10-23T14:15:42Z</time>
      </trkpt>
      <trkpt lat="46.65745" lon="5.50863">
        <ele>257</ele>
        <time>2021-10-23T14:15:43Z</time>
      </trkpt>
      <trkpt lat="46.65735" lon="5.50856">
        <ele>256.6</ele>
        <time>2021-10-23T14:15:44Z</time>
      </trkpt>
      <trkpt lat="46.65714" lon="5.5084">
        <ele>255.8</ele>
        <time>2021-10-23T14:15:46Z</time>
      </trkpt>
      <trkpt lat="46.65704" lon="5.50828">
        <ele>255.4</ele>
        <time>2021-10-23T14:15:47Z</time>
      </trkpt>
      <trkpt lat="46.65698" lon="5.50812">
        <ele>254.8</ele>
        <time>2021-10-23T14:15:48Z</time>
      </trkpt>
      <trkpt lat="46.65695" lon="5.50795">
        <ele>254.2</ele>
        <time>2021-10-23T14:15:49Z</time>
      </trkpt>
      <trkpt lat="46.65694" lon="5.50777">
        <ele>252.8</ele>
        <time>2021-10-23T14:15:50Z</time>
      </trkpt>
      <trkpt lat="46.65694" lon="5.50763">
        <ele>252</ele>
        <time>2021-10-23T14:15:52Z</time>
      </trkpt>
      <trkpt lat="46.65694" lon="5.50748">
        <ele>251.4</ele>
        <time>2021-10-23T14:15:53Z</time>
      </trkpt>
      <trkpt lat="46.65695" lon="5.50732">
        <ele>249.2</ele>
        <time>2021-10-23T14:15:54Z</time>
      </trkpt>
      <trkpt lat="46.65698" lon="5.50716">
        <ele>248.4</ele>
        <time>2021-10-23T14:15:55Z</time>
      </trkpt>
      <trkpt lat="46.65702" lon="5.507">
        <ele>247</ele>
        <time>2021-10-23T14:15:56Z</time>
      </trkpt>
      <trkpt lat="46.65712" lon="5.50671">
        <ele>245.6</ele>
        <time>2021-10-23T14:15:58Z</time>
      </trkpt>
      <trkpt lat="46.65716" lon="5.50657">
        <ele>245.4</ele>
        <time>2021-10-23T14:15:59Z</time>
      </trkpt>
      <trkpt lat="46.65723" lon="5.50628">
        <ele>245</ele>
        <time>2021-10-23T14:16:01Z</time>
      </trkpt>
      <trkpt lat="46.65725" lon="5.50598">
        <ele>244.8</ele>
        <time>2021-10-23T14:16:03Z</time>
      </trkpt>
      <trkpt lat="46.6572" lon="5.5057">
        <ele>244.8</ele>
        <time>2021-10-23T14:16:05Z</time>
      </trkpt>
      <trkpt lat="46.65716" lon="5.50556">
        <ele>244.8</ele>
        <time>2021-10-23T14:16:06Z</time>
      </trkpt>
      <trkpt lat="46.65705" lon="5.50502">
        <ele>244.6</ele>
        <time>2021-10-23T14:16:10Z</time>
      </trkpt>
      <trkpt lat="46.65703" lon="5.50421">
        <ele>244.6</ele>
        <time>2021-10-23T14:16:16Z</time>
      </trkpt>
      <trkpt lat="46.65703" lon="5.50381">
        <ele>244.2</ele>
        <time>2021-10-23T14:16:19Z</time>
      </trkpt>
      <trkpt lat="46.65701" lon="5.50356">
        <ele>243.8</ele>
        <time>2021-10-23T14:16:21Z</time>
      </trkpt>
      <trkpt lat="46.657" lon="5.5033">
        <ele>243.4</ele>
        <time>2021-10-23T14:16:23Z</time>
      </trkpt>
      <trkpt lat="46.65693" lon="5.50268">
        <ele>243.4</ele>
        <time>2021-10-23T14:16:28Z</time>
      </trkpt>
      <trkpt lat="46.6568" lon="5.502">
        <ele>244</ele>
        <time>2021-10-23T14:16:34Z</time>
      </trkpt>
      <trkpt lat="46.65665" lon="5.50137">
        <ele>244.6</ele>
        <time>2021-10-23T14:16:40Z</time>
      </trkpt>
      <trkpt lat="46.65666" lon="5.50117">
        <ele>244.8</ele>
        <time>2021-10-23T14:16:42Z</time>
      </trkpt>
      <trkpt lat="46.65669" lon="5.50107">
        <ele>245</ele>
        <time>2021-10-23T14:16:43Z</time>
      </trkpt>
      <trkpt lat="46.65678" lon="5.50079">
        <ele>246</ele>
        <time>2021-10-23T14:16:46Z</time>
      </trkpt>
      <trkpt lat="46.65684" lon="5.5006">
        <ele>246.4</ele>
        <time>2021-10-23T14:16:48Z</time>
      </trkpt>
      <trkpt lat="46.65688" lon="5.50051">
        <ele>246.6</ele>
        <time>2021-10-23T14:16:49Z</time>
      </trkpt>
      <trkpt lat="46.65692" lon="5.50044">
        <ele>246.8</ele>
        <time>2021-10-23T14:16:50Z</time>
      </trkpt>
      <trkpt lat="46.65703" lon="5.50033">
        <ele>247</ele>
        <time>2021-10-23T14:16:52Z</time>
      </trkpt>
      <trkpt lat="46.65729" lon="5.50011">
        <ele>248.2</ele>
        <time>2021-10-23T14:16:57Z</time>
      </trkpt>
      <trkpt lat="46.65733" lon="5.50007">
        <ele>248.4</ele>
        <time>2021-10-23T14:16:58Z</time>
      </trkpt>
      <trkpt lat="46.65749" lon="5.49996">
        <ele>249.8</ele>
        <time>2021-10-23T14:17:01Z</time>
      </trkpt>
      <trkpt lat="46.65754" lon="5.49993">
        <ele>250</ele>
        <time>2021-10-23T14:17:02Z</time>
      </trkpt>
      <trkpt lat="46.65764" lon="5.49986">
        <ele>250.4</ele>
        <time>2021-10-23T14:17:04Z</time>
      </trkpt>
      <trkpt lat="46.6577" lon="5.49982">
        <ele>251</ele>
        <time>2021-10-23T14:17:05Z</time>
      </trkpt>
      <trkpt lat="46.65793" lon="5.49969">
        <ele>252.2</ele>
        <time>2021-10-23T14:17:09Z</time>
      </trkpt>
      <trkpt lat="46.65798" lon="5.49965">
        <ele>252.4</ele>
        <time>2021-10-23T14:17:10Z</time>
      </trkpt>
      <trkpt lat="46.6582" lon="5.49954">
        <ele>253.2</ele>
        <time>2021-10-23T14:17:14Z</time>
      </trkpt>
      <trkpt lat="46.65836" lon="5.49945">
        <ele>253.6</ele>
        <time>2021-10-23T14:17:17Z</time>
      </trkpt>
      <trkpt lat="46.65881" lon="5.4992">
        <ele>253.6</ele>
        <time>2021-10-23T14:17:25Z</time>
      </trkpt>
      <trkpt lat="46.65903" lon="5.49907">
        <ele>254</ele>
        <time>2021-10-23T14:17:30Z</time>
      </trkpt>
      <trkpt lat="46.65908" lon="5.49902">
        <ele>254</ele>
        <time>2021-10-23T14:17:32Z</time>
      </trkpt>
      <trkpt lat="46.65908" lon="5.49897">
        <ele>254.2</ele>
        <time>2021-10-23T14:17:33Z</time>
      </trkpt>
      <trkpt lat="46.65906" lon="5.49886">
        <ele>254.2</ele>
        <time>2021-10-23T14:17:35Z</time>
      </trkpt>
      <trkpt lat="46.65904" lon="5.49872">
        <ele>254.2</ele>
        <time>2021-10-23T14:17:37Z</time>
      </trkpt>
      <trkpt lat="46.65893" lon="5.49828">
        <ele>253.8</ele>
        <time>2021-10-23T14:17:42Z</time>
      </trkpt>
      <trkpt lat="46.65883" lon="5.4979">
        <ele>253</ele>
        <time>2021-10-23T14:17:46Z</time>
      </trkpt>
      <trkpt lat="46.65879" lon="5.4977">
        <ele>252.8</ele>
        <time>2021-10-23T14:17:48Z</time>
      </trkpt>
      <trkpt lat="46.65865" lon="5.497">
        <ele>252.2</ele>
        <time>2021-10-23T14:17:55Z</time>
      </trkpt>
      <trkpt lat="46.65861" lon="5.49679">
        <ele>252</ele>
        <time>2021-10-23T14:17:57Z</time>
      </trkpt>
      <trkpt lat="46.65848" lon="5.49616">
        <ele>251.4</ele>
        <time>2021-10-23T14:18:03Z</time>
      </trkpt>
      <trkpt lat="46.65836" lon="5.49552">
        <ele>251</ele>
        <time>2021-10-23T14:18:09Z</time>
      </trkpt>
      <trkpt lat="46.65829" lon="5.49521">
        <ele>250.8</ele>
        <time>2021-10-23T14:18:12Z</time>
      </trkpt>
      <trkpt lat="46.65825" lon="5.49511">
        <ele>250.8</ele>
        <time>2021-10-23T14:18:13Z</time>
      </trkpt>
      <trkpt lat="46.65811" lon="5.49471">
        <ele>250.8</ele>
        <time>2021-10-23T14:18:17Z</time>
      </trkpt>
      <trkpt lat="46.65788" lon="5.49391">
        <ele>250</ele>
        <time>2021-10-23T14:18:24Z</time>
      </trkpt>
      <trkpt lat="46.65765" lon="5.49311">
        <ele>249.4</ele>
        <time>2021-10-23T14:18:31Z</time>
      </trkpt>
      <trkpt lat="46.65758" lon="5.49285">
        <ele>249.2</ele>
        <time>2021-10-23T14:18:33Z</time>
      </trkpt>
      <trkpt lat="46.65737" lon="5.49211">
        <ele>249</ele>
        <time>2021-10-23T14:18:39Z</time>
      </trkpt>
      <trkpt lat="46.65727" lon="5.49175">
        <ele>248.6</ele>
        <time>2021-10-23T14:18:42Z</time>
      </trkpt>
      <trkpt lat="46.65708" lon="5.49091">
        <ele>248</ele>
        <time>2021-10-23T14:18:49Z</time>
      </trkpt>
      <trkpt lat="46.65706" lon="5.49081">
        <ele>248</ele>
        <time>2021-10-23T14:18:50Z</time>
      </trkpt>
      <trkpt lat="46.65691" lon="5.49001">
        <ele>247</ele>
        <time>2021-10-23T14:18:56Z</time>
      </trkpt>
      <trkpt lat="46.65689" lon="5.48987">
        <ele>246.6</ele>
        <time>2021-10-23T14:18:57Z</time>
      </trkpt>
      <trkpt lat="46.65684" lon="5.4893">
        <ele>245.4</ele>
        <time>2021-10-23T14:19:01Z</time>
      </trkpt>
      <trkpt lat="46.65676" lon="5.4887">
        <ele>243.8</ele>
        <time>2021-10-23T14:19:05Z</time>
      </trkpt>
      <trkpt lat="46.65662" lon="5.48825">
        <ele>242.4</ele>
        <time>2021-10-23T14:19:08Z</time>
      </trkpt>
      <trkpt lat="46.65648" lon="5.48797">
        <ele>241.2</ele>
        <time>2021-10-23T14:19:10Z</time>
      </trkpt>
      <trkpt lat="46.6564" lon="5.48785">
        <ele>240.6</ele>
        <time>2021-10-23T14:19:11Z</time>
      </trkpt>
      <trkpt lat="46.65631" lon="5.48773">
        <ele>240</ele>
        <time>2021-10-23T14:19:12Z</time>
      </trkpt>
      <trkpt lat="46.65621" lon="5.48762">
        <ele>239</ele>
        <time>2021-10-23T14:19:13Z</time>
      </trkpt>
      <trkpt lat="46.65612" lon="5.48751">
        <ele>237.8</ele>
        <time>2021-10-23T14:19:14Z</time>
      </trkpt>
      <trkpt lat="46.65594" lon="5.4873">
        <ele>236.2</ele>
        <time>2021-10-23T14:19:16Z</time>
      </trkpt>
      <trkpt lat="46.65576" lon="5.4871">
        <ele>234.8</ele>
        <time>2021-10-23T14:19:18Z</time>
      </trkpt>
      <trkpt lat="46.65566" lon="5.48703">
        <ele>234.6</ele>
        <time>2021-10-23T14:19:19Z</time>
      </trkpt>
      <trkpt lat="46.65556" lon="5.48697">
        <ele>234.2</ele>
        <time>2021-10-23T14:19:20Z</time>
      </trkpt>
      <trkpt lat="46.65546" lon="5.48694">
        <ele>233.6</ele>
        <time>2021-10-23T14:19:21Z</time>
      </trkpt>
      <trkpt lat="46.65525" lon="5.48695">
        <ele>233</ele>
        <time>2021-10-23T14:19:23Z</time>
      </trkpt>
      <trkpt lat="46.6547" lon="5.48702">
        <ele>233</ele>
        <time>2021-10-23T14:19:29Z</time>
      </trkpt>
      <trkpt lat="46.65429" lon="5.487">
        <ele>234.2</ele>
        <time>2021-10-23T14:19:34Z</time>
      </trkpt>
      <trkpt lat="46.65422" lon="5.48698">
        <ele>234.4</ele>
        <time>2021-10-23T14:19:35Z</time>
      </trkpt>
      <trkpt lat="46.65415" lon="5.48695">
        <ele>234.8</ele>
        <time>2021-10-23T14:19:36Z</time>
      </trkpt>
      <trkpt lat="46.65405" lon="5.48688">
        <ele>235.8</ele>
        <time>2021-10-23T14:19:38Z</time>
      </trkpt>
      <trkpt lat="46.65399" lon="5.48684">
        <ele>236.6</ele>
        <time>2021-10-23T14:19:39Z</time>
      </trkpt>
      <trkpt lat="46.65387" lon="5.48674">
        <ele>237.8</ele>
        <time>2021-10-23T14:19:41Z</time>
      </trkpt>
      <trkpt lat="46.65371" lon="5.48665">
        <ele>239</ele>
        <time>2021-10-23T14:19:44Z</time>
      </trkpt>
      <trkpt lat="46.65352" lon="5.48656">
        <ele>240.2</ele>
        <time>2021-10-23T14:19:47Z</time>
      </trkpt>
      <trkpt lat="46.65342" lon="5.48653">
        <ele>241.4</ele>
        <time>2021-10-23T14:19:49Z</time>
      </trkpt>
      <trkpt lat="46.65329" lon="5.48649">
        <ele>243</ele>
        <time>2021-10-23T14:19:51Z</time>
      </trkpt>
      <trkpt lat="46.65306" lon="5.48647">
        <ele>244</ele>
        <time>2021-10-23T14:19:55Z</time>
      </trkpt>
      <trkpt lat="46.6529" lon="5.48643">
        <ele>244.8</ele>
        <time>2021-10-23T14:19:58Z</time>
      </trkpt>
      <trkpt lat="46.65283" lon="5.4864">
        <ele>245.2</ele>
        <time>2021-10-23T14:19:59Z</time>
      </trkpt>
      <trkpt lat="46.65264" lon="5.48628">
        <ele>246.6</ele>
        <time>2021-10-23T14:20:02Z</time>
      </trkpt>
      <trkpt lat="46.6526" lon="5.48625">
        <ele>246.8</ele>
        <time>2021-10-23T14:20:03Z</time>
      </trkpt>
      <trkpt lat="46.65247" lon="5.48617">
        <ele>247</ele>
        <time>2021-10-23T14:20:05Z</time>
      </trkpt>
      <trkpt lat="46.65241" lon="5.48614">
        <ele>247.2</ele>
        <time>2021-10-23T14:20:06Z</time>
      </trkpt>
      <trkpt lat="46.65225" lon="5.48602">
        <ele>247.6</ele>
        <time>2021-10-23T14:20:09Z</time>
      </trkpt>
      <trkpt lat="46.65207" lon="5.4859">
        <ele>247.8</ele>
        <time>2021-10-23T14:20:12Z</time>
      </trkpt>
      <trkpt lat="46.65172" lon="5.48579">
        <ele>248</ele>
        <time>2021-10-23T14:20:17Z</time>
      </trkpt>
      <trkpt lat="46.65165" lon="5.48577">
        <ele>248</ele>
        <time>2021-10-23T14:20:18Z</time>
      </trkpt>
      <trkpt lat="46.65141" lon="5.48566">
        <ele>248</ele>
        <time>2021-10-23T14:20:22Z</time>
      </trkpt>
      <trkpt lat="46.65093" lon="5.48538">
        <ele>248</ele>
        <time>2021-10-23T14:20:30Z</time>
      </trkpt>
      <trkpt lat="46.6505" lon="5.48509">
        <ele>248</ele>
        <time>2021-10-23T14:20:37Z</time>
      </trkpt>
      <trkpt lat="46.64997" lon="5.48472">
        <ele>248.2</ele>
        <time>2021-10-23T14:20:45Z</time>
      </trkpt>
      <trkpt lat="46.64952" lon="5.48436">
        <ele>248.6</ele>
        <time>2021-10-23T14:20:52Z</time>
      </trkpt>
      <trkpt lat="46.64945" lon="5.4843">
        <ele>248.8</ele>
        <time>2021-10-23T14:20:53Z</time>
      </trkpt>
      <trkpt lat="46.64893" lon="5.48381">
        <ele>249</ele>
        <time>2021-10-23T14:21:01Z</time>
      </trkpt>
      <trkpt lat="46.64873" lon="5.48364">
        <ele>249.4</ele>
        <time>2021-10-23T14:21:04Z</time>
      </trkpt>
      <trkpt lat="46.64823" lon="5.48327">
        <ele>249.6</ele>
        <time>2021-10-23T14:21:11Z</time>
      </trkpt>
      <trkpt lat="46.64818" lon="5.48323">
        <ele>249.6</ele>
        <time>2021-10-23T14:21:12Z</time>
      </trkpt>
      <trkpt lat="46.64802" lon="5.48312">
        <ele>249.6</ele>
        <time>2021-10-23T14:21:14Z</time>
      </trkpt>
      <trkpt lat="46.64746" lon="5.4827">
        <ele>249.8</ele>
        <time>2021-10-23T14:21:22Z</time>
      </trkpt>
      <trkpt lat="46.64709" lon="5.48241">
        <ele>249.6</ele>
        <time>2021-10-23T14:21:27Z</time>
      </trkpt>
      <trkpt lat="46.64694" lon="5.48233">
        <ele>249.6</ele>
        <time>2021-10-23T14:21:29Z</time>
      </trkpt>
      <trkpt lat="46.64688" lon="5.48229">
        <ele>249.4</ele>
        <time>2021-10-23T14:21:30Z</time>
      </trkpt>
      <trkpt lat="46.6468" lon="5.48214">
        <ele>249</ele>
        <time>2021-10-23T14:21:32Z</time>
      </trkpt>
      <trkpt lat="46.64674" lon="5.48178">
        <ele>248.4</ele>
        <time>2021-10-23T14:21:35Z</time>
      </trkpt>
      <trkpt lat="46.64673" lon="5.48166">
        <ele>248</ele>
        <time>2021-10-23T14:21:36Z</time>
      </trkpt>
      <trkpt lat="46.64667" lon="5.48127">
        <ele>247.4</ele>
        <time>2021-10-23T14:21:39Z</time>
      </trkpt>
      <trkpt lat="46.64663" lon="5.481">
        <ele>246.8</ele>
        <time>2021-10-23T14:21:41Z</time>
      </trkpt>
      <trkpt lat="46.64657" lon="5.4806">
        <ele>246.2</ele>
        <time>2021-10-23T14:21:44Z</time>
      </trkpt>
      <trkpt lat="46.64649" lon="5.48007">
        <ele>245.4</ele>
        <time>2021-10-23T14:21:48Z</time>
      </trkpt>
      <trkpt lat="46.64645" lon="5.4798">
        <ele>245</ele>
        <time>2021-10-23T14:21:50Z</time>
      </trkpt>
      <trkpt lat="46.64631" lon="5.47889">
        <ele>244.2</ele>
        <time>2021-10-23T14:21:57Z</time>
      </trkpt>
      <trkpt lat="46.64622" lon="5.47851">
        <ele>244</ele>
        <time>2021-10-23T14:22:00Z</time>
      </trkpt>
      <trkpt lat="46.64618" lon="5.47839">
        <ele>243.8</ele>
        <time>2021-10-23T14:22:01Z</time>
      </trkpt>
      <trkpt lat="46.6459" lon="5.47758">
        <ele>243.2</ele>
        <time>2021-10-23T14:22:08Z</time>
      </trkpt>
      <trkpt lat="46.64578" lon="5.47722">
        <ele>243</ele>
        <time>2021-10-23T14:22:11Z</time>
      </trkpt>
      <trkpt lat="46.64554" lon="5.47652">
        <ele>243</ele>
        <time>2021-10-23T14:22:17Z</time>
      </trkpt>
      <trkpt lat="46.64541" lon="5.47613">
        <ele>242.6</ele>
        <time>2021-10-23T14:22:20Z</time>
      </trkpt>
      <trkpt lat="46.64529" lon="5.47578">
        <ele>242</ele>
        <time>2021-10-23T14:22:23Z</time>
      </trkpt>
      <trkpt lat="46.64515" lon="5.47537">
        <ele>241.2</ele>
        <time>2021-10-23T14:22:26Z</time>
      </trkpt>
      <trkpt lat="46.64498" lon="5.47486">
        <ele>240.4</ele>
        <time>2021-10-23T14:22:30Z</time>
      </trkpt>
      <trkpt lat="46.64494" lon="5.47472">
        <ele>240.2</ele>
        <time>2021-10-23T14:22:31Z</time>
      </trkpt>
      <trkpt lat="46.64469" lon="5.47408">
        <ele>239.2</ele>
        <time>2021-10-23T14:22:36Z</time>
      </trkpt>
      <trkpt lat="46.64442" lon="5.4733">
        <ele>238.2</ele>
        <time>2021-10-23T14:22:42Z</time>
      </trkpt>
      <trkpt lat="46.64438" lon="5.47318">
        <ele>238</ele>
        <time>2021-10-23T14:22:43Z</time>
      </trkpt>
      <trkpt lat="46.64429" lon="5.47293">
        <ele>237.8</ele>
        <time>2021-10-23T14:22:45Z</time>
      </trkpt>
      <trkpt lat="46.64405" lon="5.47221">
        <ele>237.8</ele>
        <time>2021-10-23T14:22:51Z</time>
      </trkpt>
      <trkpt lat="46.64401" lon="5.47209">
        <ele>237.8</ele>
        <time>2021-10-23T14:22:52Z</time>
      </trkpt>
      <trkpt lat="46.64379" lon="5.47136">
        <ele>237.8</ele>
        <time>2021-10-23T14:22:58Z</time>
      </trkpt>
      <trkpt lat="46.64375" lon="5.47124">
        <ele>237.8</ele>
        <time>2021-10-23T14:22:59Z</time>
      </trkpt>
      <trkpt lat="46.64361" lon="5.47076">
        <ele>237.2</ele>
        <time>2021-10-23T14:23:03Z</time>
      </trkpt>
      <trkpt lat="46.64359" lon="5.47063">
        <ele>237.2</ele>
        <time>2021-10-23T14:23:04Z</time>
      </trkpt>
      <trkpt lat="46.64359" lon="5.4705">
        <ele>237</ele>
        <time>2021-10-23T14:23:05Z</time>
      </trkpt>
      <trkpt lat="46.64361" lon="5.47021">
        <ele>236.8</ele>
        <time>2021-10-23T14:23:07Z</time>
      </trkpt>
      <trkpt lat="46.64369" lon="5.46985">
        <ele>236.8</ele>
        <time>2021-10-23T14:23:10Z</time>
      </trkpt>
      <trkpt lat="46.64373" lon="5.46972">
        <ele>236.8</ele>
        <time>2021-10-23T14:23:11Z</time>
      </trkpt>
      <trkpt lat="46.64378" lon="5.46961">
        <ele>236.8</ele>
        <time>2021-10-23T14:23:12Z</time>
      </trkpt>
      <trkpt lat="46.64398" lon="5.46929">
        <ele>235.8</ele>
        <time>2021-10-23T14:23:15Z</time>
      </trkpt>
      <trkpt lat="46.64418" lon="5.46896">
        <ele>235</ele>
        <time>2021-10-23T14:23:18Z</time>
      </trkpt>
      <trkpt lat="46.64424" lon="5.46883">
        <ele>234.4</ele>
        <time>2021-10-23T14:23:19Z</time>
      </trkpt>
      <trkpt lat="46.64428" lon="5.4687">
        <ele>233.8</ele>
        <time>2021-10-23T14:23:20Z</time>
      </trkpt>
      <trkpt lat="46.64431" lon="5.46855">
        <ele>233</ele>
        <time>2021-10-23T14:23:21Z</time>
      </trkpt>
      <trkpt lat="46.64432" lon="5.4684">
        <ele>232</ele>
        <time>2021-10-23T14:23:22Z</time>
      </trkpt>
      <trkpt lat="46.64433" lon="5.46824">
        <ele>231.8</ele>
        <time>2021-10-23T14:23:23Z</time>
      </trkpt>
      <trkpt lat="46.64434" lon="5.46777">
        <ele>230.6</ele>
        <time>2021-10-23T14:23:26Z</time>
      </trkpt>
      <trkpt lat="46.64434" lon="5.46745">
        <ele>229.2</ele>
        <time>2021-10-23T14:23:28Z</time>
      </trkpt>
      <trkpt lat="46.64434" lon="5.46714">
        <ele>228.2</ele>
        <time>2021-10-23T14:23:30Z</time>
      </trkpt>
      <trkpt lat="46.64434" lon="5.46699">
        <ele>227.4</ele>
        <time>2021-10-23T14:23:31Z</time>
      </trkpt>
      <trkpt lat="46.64434" lon="5.46671">
        <ele>226.2</ele>
        <time>2021-10-23T14:23:33Z</time>
      </trkpt>
      <trkpt lat="46.64434" lon="5.46645">
        <ele>224.8</ele>
        <time>2021-10-23T14:23:35Z</time>
      </trkpt>
      <trkpt lat="46.64434" lon="5.46623">
        <ele>223.6</ele>
        <time>2021-10-23T14:23:38Z</time>
      </trkpt>
      <trkpt lat="46.64433" lon="5.4661">
        <ele>223</ele>
        <time>2021-10-23T14:23:41Z</time>
      </trkpt>
      <trkpt lat="46.6443" lon="5.46607">
        <ele>223</ele>
        <time>2021-10-23T14:23:42Z</time>
      </trkpt>
      <trkpt lat="46.64425" lon="5.46605">
        <ele>222.8</ele>
        <time>2021-10-23T14:23:44Z</time>
      </trkpt>
      <trkpt lat="46.64418" lon="5.46608">
        <ele>222.8</ele>
        <time>2021-10-23T14:23:46Z</time>
      </trkpt>
      <trkpt lat="46.64397" lon="5.46612">
        <ele>222.8</ele>
        <time>2021-10-23T14:23:50Z</time>
      </trkpt>
      <trkpt lat="46.6436" lon="5.46616">
        <ele>222.8</ele>
        <time>2021-10-23T14:23:56Z</time>
      </trkpt>
      <trkpt lat="46.6434" lon="5.46617">
        <ele>222.8</ele>
        <time>2021-10-23T14:23:59Z</time>
      </trkpt>
      <trkpt lat="46.64321" lon="5.46613">
        <ele>223.4</ele>
        <time>2021-10-23T14:24:02Z</time>
      </trkpt>
      <trkpt lat="46.64287" lon="5.46602">
        <ele>223.6</ele>
        <time>2021-10-23T14:24:07Z</time>
      </trkpt>
      <trkpt lat="46.64233" lon="5.46593">
        <ele>222.4</ele>
        <time>2021-10-23T14:24:14Z</time>
      </trkpt>
      <trkpt lat="46.64209" lon="5.4659">
        <ele>221.8</ele>
        <time>2021-10-23T14:24:17Z</time>
      </trkpt>
      <trkpt lat="46.64195" lon="5.46583">
        <ele>221.4</ele>
        <time>2021-10-23T14:24:19Z</time>
      </trkpt>
      <trkpt lat="46.64189" lon="5.46577">
        <ele>221.2</ele>
        <time>2021-10-23T14:24:20Z</time>
      </trkpt>
      <trkpt lat="46.64177" lon="5.46563">
        <ele>221</ele>
        <time>2021-10-23T14:24:22Z</time>
      </trkpt>
      <trkpt lat="46.64172" lon="5.46555">
        <ele>221</ele>
        <time>2021-10-23T14:24:23Z</time>
      </trkpt>
      <trkpt lat="46.64155" lon="5.46518">
        <ele>221</ele>
        <time>2021-10-23T14:24:27Z</time>
      </trkpt>
      <trkpt lat="46.64148" lon="5.46498">
        <ele>220.8</ele>
        <time>2021-10-23T14:24:29Z</time>
      </trkpt>
      <trkpt lat="46.64138" lon="5.46482">
        <ele>220.6</ele>
        <time>2021-10-23T14:24:31Z</time>
      </trkpt>
      <trkpt lat="46.64125" lon="5.4647">
        <ele>220.6</ele>
        <time>2021-10-23T14:24:33Z</time>
      </trkpt>
      <trkpt lat="46.64117" lon="5.46467">
        <ele>220.6</ele>
        <time>2021-10-23T14:24:34Z</time>
      </trkpt>
      <trkpt lat="46.64064" lon="5.46444">
        <ele>220.4</ele>
        <time>2021-10-23T14:24:41Z</time>
      </trkpt>
      <trkpt lat="46.64041" lon="5.46434">
        <ele>220.4</ele>
        <time>2021-10-23T14:24:44Z</time>
      </trkpt>
      <trkpt lat="46.6399" lon="5.46407">
        <ele>220.8</ele>
        <time>2021-10-23T14:24:51Z</time>
      </trkpt>
      <trkpt lat="46.63984" lon="5.46401">
        <ele>220.8</ele>
        <time>2021-10-23T14:24:52Z</time>
      </trkpt>
      <trkpt lat="46.63942" lon="5.46348">
        <ele>221</ele>
        <time>2021-10-23T14:24:59Z</time>
      </trkpt>
      <trkpt lat="46.63937" lon="5.4634">
        <ele>221</ele>
        <time>2021-10-23T14:25:00Z</time>
      </trkpt>
      <trkpt lat="46.63929" lon="5.46319">
        <ele>221</ele>
        <time>2021-10-23T14:25:02Z</time>
      </trkpt>
      <trkpt lat="46.63927" lon="5.46307">
        <ele>220.8</ele>
        <time>2021-10-23T14:25:03Z</time>
      </trkpt>
      <trkpt lat="46.63925" lon="5.46294">
        <ele>220.8</ele>
        <time>2021-10-23T14:25:04Z</time>
      </trkpt>
      <trkpt lat="46.63921" lon="5.46244">
        <ele>220.6</ele>
        <time>2021-10-23T14:25:08Z</time>
      </trkpt>
      <trkpt lat="46.63913" lon="5.46191">
        <ele>220.2</ele>
        <time>2021-10-23T14:25:12Z</time>
      </trkpt>
      <trkpt lat="46.63912" lon="5.46178">
        <ele>220</ele>
        <time>2021-10-23T14:25:13Z</time>
      </trkpt>
      <trkpt lat="46.63907" lon="5.46138">
        <ele>218.6</ele>
        <time>2021-10-23T14:25:16Z</time>
      </trkpt>
      <trkpt lat="46.63903" lon="5.46111">
        <ele>217.8</ele>
        <time>2021-10-23T14:25:18Z</time>
      </trkpt>
      <trkpt lat="46.63896" lon="5.46086">
        <ele>217.6</ele>
        <time>2021-10-23T14:25:20Z</time>
      </trkpt>
      <trkpt lat="46.63885" lon="5.46033">
        <ele>217.2</ele>
        <time>2021-10-23T14:25:24Z</time>
      </trkpt>
      <trkpt lat="46.6387" lon="5.4595">
        <ele>216.6</ele>
        <time>2021-10-23T14:25:30Z</time>
      </trkpt>
      <trkpt lat="46.63868" lon="5.45937">
        <ele>216.6</ele>
        <time>2021-10-23T14:25:31Z</time>
      </trkpt>
      <trkpt lat="46.63864" lon="5.45895">
        <ele>216</ele>
        <time>2021-10-23T14:25:34Z</time>
      </trkpt>
      <trkpt lat="46.63863" lon="5.45854">
        <ele>215.4</ele>
        <time>2021-10-23T14:25:37Z</time>
      </trkpt>
      <trkpt lat="46.63863" lon="5.45841">
        <ele>215.4</ele>
        <time>2021-10-23T14:25:38Z</time>
      </trkpt>
      <trkpt lat="46.63861" lon="5.45828">
        <ele>215.2</ele>
        <time>2021-10-23T14:25:39Z</time>
      </trkpt>
      <trkpt lat="46.63858" lon="5.45818">
        <ele>215.2</ele>
        <time>2021-10-23T14:25:40Z</time>
      </trkpt>
      <trkpt lat="46.63849" lon="5.45796">
        <ele>215.2</ele>
        <time>2021-10-23T14:25:42Z</time>
      </trkpt>
      <trkpt lat="46.63815" lon="5.45732">
        <ele>215.2</ele>
        <time>2021-10-23T14:25:48Z</time>
      </trkpt>
      <trkpt lat="46.63794" lon="5.45691">
        <ele>215</ele>
        <time>2021-10-23T14:25:52Z</time>
      </trkpt>
      <trkpt lat="46.6376" lon="5.45633">
        <ele>215.2</ele>
        <time>2021-10-23T14:25:58Z</time>
      </trkpt>
      <trkpt lat="46.63743" lon="5.45588">
        <ele>215.2</ele>
        <time>2021-10-23T14:26:02Z</time>
      </trkpt>
      <trkpt lat="46.63723" lon="5.45505">
        <ele>215</ele>
        <time>2021-10-23T14:26:09Z</time>
      </trkpt>
      <trkpt lat="46.63717" lon="5.45481">
        <ele>214.8</ele>
        <time>2021-10-23T14:26:11Z</time>
      </trkpt>
      <trkpt lat="46.63699" lon="5.45397">
        <ele>215</ele>
        <time>2021-10-23T14:26:18Z</time>
      </trkpt>
      <trkpt lat="46.63693" lon="5.45374">
        <ele>215</ele>
        <time>2021-10-23T14:26:20Z</time>
      </trkpt>
      <trkpt lat="46.63675" lon="5.45321">
        <ele>215.4</ele>
        <time>2021-10-23T14:26:25Z</time>
      </trkpt>
      <trkpt lat="46.6367" lon="5.45313">
        <ele>215.4</ele>
        <time>2021-10-23T14:26:26Z</time>
      </trkpt>
      <trkpt lat="46.63642" lon="5.45273">
        <ele>216.2</ele>
        <time>2021-10-23T14:26:31Z</time>
      </trkpt>
      <trkpt lat="46.63633" lon="5.45255">
        <ele>216.6</ele>
        <time>2021-10-23T14:26:33Z</time>
      </trkpt>
      <trkpt lat="46.63619" lon="5.4522">
        <ele>218.2</ele>
        <time>2021-10-23T14:26:37Z</time>
      </trkpt>
      <trkpt lat="46.6361" lon="5.45192">
        <ele>219.2</ele>
        <time>2021-10-23T14:26:40Z</time>
      </trkpt>
      <trkpt lat="46.63604" lon="5.45175">
        <ele>220.8</ele>
        <time>2021-10-23T14:26:42Z</time>
      </trkpt>
      <trkpt lat="46.63597" lon="5.4516">
        <ele>221.6</ele>
        <time>2021-10-23T14:26:44Z</time>
      </trkpt>
      <trkpt lat="46.63593" lon="5.45152">
        <ele>222</ele>
        <time>2021-10-23T14:26:45Z</time>
      </trkpt>
      <trkpt lat="46.63579" lon="5.4513">
        <ele>223</ele>
        <time>2021-10-23T14:26:48Z</time>
      </trkpt>
      <trkpt lat="46.6357" lon="5.45115">
        <ele>223.8</ele>
        <time>2021-10-23T14:26:51Z</time>
      </trkpt>
      <trkpt lat="46.6356" lon="5.45101">
        <ele>224</ele>
        <time>2021-10-23T14:26:52Z</time>
      </trkpt>
      <trkpt lat="46.6354" lon="5.45074">
        <ele>225</ele>
        <time>2021-10-23T14:26:56Z</time>
      </trkpt>
      <trkpt lat="46.63519" lon="5.45045">
        <ele>226</ele>
        <time>2021-10-23T14:27:00Z</time>
      </trkpt>
      <trkpt lat="46.63481" lon="5.45005">
        <ele>226.2</ele>
        <time>2021-10-23T14:27:06Z</time>
      </trkpt>
      <trkpt lat="46.6344" lon="5.4498">
        <ele>225.6</ele>
        <time>2021-10-23T14:27:11Z</time>
      </trkpt>
      <trkpt lat="46.63422" lon="5.44972">
        <ele>225.2</ele>
        <time>2021-10-23T14:27:13Z</time>
      </trkpt>
      <trkpt lat="46.63412" lon="5.4497">
        <ele>225</ele>
        <time>2021-10-23T14:27:14Z</time>
      </trkpt>
      <trkpt lat="46.63403" lon="5.4497">
        <ele>224.4</ele>
        <time>2021-10-23T14:27:15Z</time>
      </trkpt>
      <trkpt lat="46.63393" lon="5.4497">
        <ele>223.4</ele>
        <time>2021-10-23T14:27:16Z</time>
      </trkpt>
      <trkpt lat="46.63373" lon="5.44973">
        <ele>222</ele>
        <time>2021-10-23T14:27:18Z</time>
      </trkpt>
      <trkpt lat="46.63363" lon="5.44972">
        <ele>221.8</ele>
        <time>2021-10-23T14:27:19Z</time>
      </trkpt>
      <trkpt lat="46.63353" lon="5.4497">
        <ele>221.2</ele>
        <time>2021-10-23T14:27:20Z</time>
      </trkpt>
      <trkpt lat="46.63343" lon="5.44966">
        <ele>220.6</ele>
        <time>2021-10-23T14:27:21Z</time>
      </trkpt>
      <trkpt lat="46.63314" lon="5.44949">
        <ele>220.2</ele>
        <time>2021-10-23T14:27:24Z</time>
      </trkpt>
      <trkpt lat="46.63304" lon="5.44942">
        <ele>219.6</ele>
        <time>2021-10-23T14:27:25Z</time>
      </trkpt>
      <trkpt lat="46.63284" lon="5.44929">
        <ele>218.4</ele>
        <time>2021-10-23T14:27:27Z</time>
      </trkpt>
      <trkpt lat="46.63275" lon="5.44922">
        <ele>218.2</ele>
        <time>2021-10-23T14:27:28Z</time>
      </trkpt>
      <trkpt lat="46.63256" lon="5.44903">
        <ele>217.2</ele>
        <time>2021-10-23T14:27:30Z</time>
      </trkpt>
      <trkpt lat="46.6324" lon="5.44883">
        <ele>215.8</ele>
        <time>2021-10-23T14:27:32Z</time>
      </trkpt>
      <trkpt lat="46.63214" lon="5.44856">
        <ele>214.6</ele>
        <time>2021-10-23T14:27:35Z</time>
      </trkpt>
      <trkpt lat="46.63171" lon="5.44821">
        <ele>213.8</ele>
        <time>2021-10-23T14:27:40Z</time>
      </trkpt>
      <trkpt lat="46.63164" lon="5.44811">
        <ele>213.6</ele>
        <time>2021-10-23T14:27:41Z</time>
      </trkpt>
      <trkpt lat="46.63158" lon="5.44798">
        <ele>213.6</ele>
        <time>2021-10-23T14:27:42Z</time>
      </trkpt>
      <trkpt lat="46.63153" lon="5.44789">
        <ele>213.6</ele>
        <time>2021-10-23T14:27:43Z</time>
      </trkpt>
      <trkpt lat="46.63141" lon="5.44768">
        <ele>213.6</ele>
        <time>2021-10-23T14:27:45Z</time>
      </trkpt>
      <trkpt lat="46.63125" lon="5.44751">
        <ele>213.6</ele>
        <time>2021-10-23T14:27:47Z</time>
      </trkpt>
      <trkpt lat="46.63073" lon="5.44722">
        <ele>213.6</ele>
        <time>2021-10-23T14:27:53Z</time>
      </trkpt>
      <trkpt lat="46.6303" lon="5.44707">
        <ele>214</ele>
        <time>2021-10-23T14:27:58Z</time>
      </trkpt>
      <trkpt lat="46.62997" lon="5.44705">
        <ele>213.2</ele>
        <time>2021-10-23T14:28:02Z</time>
      </trkpt>
      <trkpt lat="46.62987" lon="5.44702">
        <ele>213.2</ele>
        <time>2021-10-23T14:28:03Z</time>
      </trkpt>
      <trkpt lat="46.62981" lon="5.44698">
        <ele>213.2</ele>
        <time>2021-10-23T14:28:04Z</time>
      </trkpt>
      <trkpt lat="46.62959" lon="5.4468">
        <ele>213.4</ele>
        <time>2021-10-23T14:28:07Z</time>
      </trkpt>
      <trkpt lat="46.62911" lon="5.44629">
        <ele>214</ele>
        <time>2021-10-23T14:28:14Z</time>
      </trkpt>
      <trkpt lat="46.62905" lon="5.4462">
        <ele>214.4</ele>
        <time>2021-10-23T14:28:15Z</time>
      </trkpt>
      <trkpt lat="46.62905" lon="5.4462">
        <ele>214.6</ele>
        <time>2021-10-23T14:28:16Z</time>
      </trkpt>
      <trkpt lat="46.62893" lon="5.44602">
        <ele>214.6</ele>
        <time>2021-10-23T14:28:17Z</time>
      </trkpt>
      <trkpt lat="46.62879" lon="5.4459">
        <ele>214.8</ele>
        <time>2021-10-23T14:28:19Z</time>
      </trkpt>
      <trkpt lat="46.62846" lon="5.44584">
        <ele>215</ele>
        <time>2021-10-23T14:28:23Z</time>
      </trkpt>
      <trkpt lat="46.62833" lon="5.44574">
        <ele>215.2</ele>
        <time>2021-10-23T14:28:25Z</time>
      </trkpt>
      <trkpt lat="46.62827" lon="5.44567">
        <ele>215.2</ele>
        <time>2021-10-23T14:28:26Z</time>
      </trkpt>
      <trkpt lat="46.62824" lon="5.44561">
        <ele>215.4</ele>
        <time>2021-10-23T14:28:27Z</time>
      </trkpt>
      <trkpt lat="46.6282" lon="5.44547">
        <ele>215.6</ele>
        <time>2021-10-23T14:28:29Z</time>
      </trkpt>
      <trkpt lat="46.62822" lon="5.44533">
        <ele>216</ele>
        <time>2021-10-23T14:28:31Z</time>
      </trkpt>
      <trkpt lat="46.62824" lon="5.44527">
        <ele>216.2</ele>
        <time>2021-10-23T14:28:32Z</time>
      </trkpt>
      <trkpt lat="46.62827" lon="5.44523">
        <ele>216.2</ele>
        <time>2021-10-23T14:28:33Z</time>
      </trkpt>
      <trkpt lat="46.62837" lon="5.44503">
        <ele>216.2</ele>
        <time>2021-10-23T14:28:36Z</time>
      </trkpt>
      <trkpt lat="46.6284" lon="5.44495">
        <ele>216.2</ele>
        <time>2021-10-23T14:28:37Z</time>
      </trkpt>
      <trkpt lat="46.62842" lon="5.44486">
        <ele>216.2</ele>
        <time>2021-10-23T14:28:38Z</time>
      </trkpt>
      <trkpt lat="46.62844" lon="5.44467">
        <ele>216.2</ele>
        <time>2021-10-23T14:28:40Z</time>
      </trkpt>
      <trkpt lat="46.62844" lon="5.44457">
        <ele>216</ele>
        <time>2021-10-23T14:28:41Z</time>
      </trkpt>
      <trkpt lat="46.62843" lon="5.44376">
        <ele>216</ele>
        <time>2021-10-23T14:28:49Z</time>
      </trkpt>
      <trkpt lat="46.62843" lon="5.44314">
        <ele>217</ele>
        <time>2021-10-23T14:28:55Z</time>
      </trkpt>
      <trkpt lat="46.62839" lon="5.44281">
        <ele>216.8</ele>
        <time>2021-10-23T14:28:58Z</time>
      </trkpt>
      <trkpt lat="46.62825" lon="5.44234">
        <ele>216.8</ele>
        <time>2021-10-23T14:29:03Z</time>
      </trkpt>
      <trkpt lat="46.62808" lon="5.44195">
        <ele>216.8</ele>
        <time>2021-10-23T14:29:08Z</time>
      </trkpt>
      <trkpt lat="46.62779" lon="5.44153">
        <ele>218.2</ele>
        <time>2021-10-23T14:29:15Z</time>
      </trkpt>
      <trkpt lat="46.62767" lon="5.44133">
        <ele>219.4</ele>
        <time>2021-10-23T14:29:18Z</time>
      </trkpt>
      <trkpt lat="46.62752" lon="5.44102">
        <ele>220.8</ele>
        <time>2021-10-23T14:29:22Z</time>
      </trkpt>
      <trkpt lat="46.62749" lon="5.44093">
        <ele>220.8</ele>
        <time>2021-10-23T14:29:23Z</time>
      </trkpt>
      <trkpt lat="46.62727" lon="5.4403">
        <ele>220.6</ele>
        <time>2021-10-23T14:29:29Z</time>
      </trkpt>
      <trkpt lat="46.62701" lon="5.43979">
        <ele>219.6</ele>
        <time>2021-10-23T14:29:34Z</time>
      </trkpt>
      <trkpt lat="46.62695" lon="5.4397">
        <ele>219.6</ele>
        <time>2021-10-23T14:29:35Z</time>
      </trkpt>
      <trkpt lat="46.62655" lon="5.43919">
        <ele>218.8</ele>
        <time>2021-10-23T14:29:41Z</time>
      </trkpt>
      <trkpt lat="46.62642" lon="5.43902">
        <ele>218.6</ele>
        <time>2021-10-23T14:29:43Z</time>
      </trkpt>
      <trkpt lat="46.62633" lon="5.4388">
        <ele>218.4</ele>
        <time>2021-10-23T14:29:45Z</time>
      </trkpt>
      <trkpt lat="46.6263" lon="5.43853">
        <ele>218.4</ele>
        <time>2021-10-23T14:29:47Z</time>
      </trkpt>
      <trkpt lat="46.6263" lon="5.4384">
        <ele>218.2</ele>
        <time>2021-10-23T14:29:48Z</time>
      </trkpt>
      <trkpt lat="46.62629" lon="5.43811">
        <ele>217.6</ele>
        <time>2021-10-23T14:29:50Z</time>
      </trkpt>
      <trkpt lat="46.62627" lon="5.43737">
        <ele>216.4</ele>
        <time>2021-10-23T14:29:56Z</time>
      </trkpt>
      <trkpt lat="46.62625" lon="5.43725">
        <ele>216.2</ele>
        <time>2021-10-23T14:29:57Z</time>
      </trkpt>
      <trkpt lat="46.62621" lon="5.437">
        <ele>216.2</ele>
        <time>2021-10-23T14:29:59Z</time>
      </trkpt>
      <trkpt lat="46.62617" lon="5.43689">
        <ele>216</ele>
        <time>2021-10-23T14:30:00Z</time>
      </trkpt>
      <trkpt lat="46.62613" lon="5.43678">
        <ele>216</ele>
        <time>2021-10-23T14:30:01Z</time>
      </trkpt>
      <trkpt lat="46.62601" lon="5.4366">
        <ele>215.8</ele>
        <time>2021-10-23T14:30:03Z</time>
      </trkpt>
      <trkpt lat="46.62553" lon="5.43608">
        <ele>217</ele>
        <time>2021-10-23T14:30:10Z</time>
      </trkpt>
      <trkpt lat="46.62539" lon="5.43594">
        <ele>217.4</ele>
        <time>2021-10-23T14:30:12Z</time>
      </trkpt>
      <trkpt lat="46.62506" lon="5.43556">
        <ele>218.4</ele>
        <time>2021-10-23T14:30:17Z</time>
      </trkpt>
      <trkpt lat="46.62499" lon="5.43549">
        <ele>218.4</ele>
        <time>2021-10-23T14:30:18Z</time>
      </trkpt>
      <trkpt lat="46.62471" lon="5.43519">
        <ele>219.6</ele>
        <time>2021-10-23T14:30:22Z</time>
      </trkpt>
      <trkpt lat="46.6243" lon="5.43474">
        <ele>220.4</ele>
        <time>2021-10-23T14:30:28Z</time>
      </trkpt>
      <trkpt lat="46.62383" lon="5.43421">
        <ele>220.6</ele>
        <time>2021-10-23T14:30:35Z</time>
      </trkpt>
      <trkpt lat="46.62377" lon="5.43414">
        <ele>220.6</ele>
        <time>2021-10-23T14:30:36Z</time>
      </trkpt>
      <trkpt lat="46.62358" lon="5.43394">
        <ele>220.6</ele>
        <time>2021-10-23T14:30:39Z</time>
      </trkpt>
      <trkpt lat="46.62312" lon="5.43342">
        <ele>221.4</ele>
        <time>2021-10-23T14:30:46Z</time>
      </trkpt>
      <trkpt lat="46.62299" lon="5.43327">
        <ele>221.8</ele>
        <time>2021-10-23T14:30:48Z</time>
      </trkpt>
      <trkpt lat="46.62256" lon="5.43279">
        <ele>222.6</ele>
        <time>2021-10-23T14:30:55Z</time>
      </trkpt>
      <trkpt lat="46.6225" lon="5.43272">
        <ele>222.8</ele>
        <time>2021-10-23T14:30:56Z</time>
      </trkpt>
      <trkpt lat="46.62219" lon="5.43223">
        <ele>223.6</ele>
        <time>2021-10-23T14:31:02Z</time>
      </trkpt>
      <trkpt lat="46.62214" lon="5.43214">
        <ele>224</ele>
        <time>2021-10-23T14:31:03Z</time>
      </trkpt>
      <trkpt lat="46.62185" lon="5.43144">
        <ele>224.8</ele>
        <time>2021-10-23T14:31:10Z</time>
      </trkpt>
      <trkpt lat="46.62161" lon="5.4309">
        <ele>224.6</ele>
        <time>2021-10-23T14:31:15Z</time>
      </trkpt>
      <trkpt lat="46.62131" lon="5.43036">
        <ele>223.4</ele>
        <time>2021-10-23T14:31:20Z</time>
      </trkpt>
      <trkpt lat="46.62123" lon="5.43028">
        <ele>222.8</ele>
        <time>2021-10-23T14:31:21Z</time>
      </trkpt>
      <trkpt lat="46.62098" lon="5.43007">
        <ele>222</ele>
        <time>2021-10-23T14:31:24Z</time>
      </trkpt>
      <trkpt lat="46.6209" lon="5.43001">
        <ele>221.8</ele>
        <time>2021-10-23T14:31:25Z</time>
      </trkpt>
      <trkpt lat="46.62053" lon="5.42968">
        <ele>221.2</ele>
        <time>2021-10-23T14:31:30Z</time>
      </trkpt>
      <trkpt lat="46.62006" lon="5.42924">
        <ele>222.8</ele>
        <time>2021-10-23T14:31:37Z</time>
      </trkpt>
      <trkpt lat="46.61998" lon="5.42915">
        <ele>223</ele>
        <time>2021-10-23T14:31:38Z</time>
      </trkpt>
      <trkpt lat="46.61975" lon="5.42883">
        <ele>223.4</ele>
        <time>2021-10-23T14:31:42Z</time>
      </trkpt>
      <trkpt lat="46.61931" lon="5.42817">
        <ele>222.8</ele>
        <time>2021-10-23T14:31:49Z</time>
      </trkpt>
      <trkpt lat="46.61891" lon="5.42767">
        <ele>222.2</ele>
        <time>2021-10-23T14:31:55Z</time>
      </trkpt>
      <trkpt lat="46.61867" lon="5.4275">
        <ele>222</ele>
        <time>2021-10-23T14:31:58Z</time>
      </trkpt>
      <trkpt lat="46.61851" lon="5.42741">
        <ele>221.8</ele>
        <time>2021-10-23T14:32:00Z</time>
      </trkpt>
      <trkpt lat="46.61804" lon="5.42715">
        <ele>221.4</ele>
        <time>2021-10-23T14:32:06Z</time>
      </trkpt>
      <trkpt lat="46.61766" lon="5.42684">
        <ele>221</ele>
        <time>2021-10-23T14:32:11Z</time>
      </trkpt>
      <trkpt lat="46.6176" lon="5.42677">
        <ele>221</ele>
        <time>2021-10-23T14:32:12Z</time>
      </trkpt>
      <trkpt lat="46.61747" lon="5.42659">
        <ele>220.2</ele>
        <time>2021-10-23T14:32:14Z</time>
      </trkpt>
      <trkpt lat="46.61741" lon="5.42649">
        <ele>219.4</ele>
        <time>2021-10-23T14:32:15Z</time>
      </trkpt>
      <trkpt lat="46.61735" lon="5.42635">
        <ele>219</ele>
        <time>2021-10-23T14:32:16Z</time>
      </trkpt>
      <trkpt lat="46.61731" lon="5.42623">
        <ele>218.2</ele>
        <time>2021-10-23T14:32:17Z</time>
      </trkpt>
      <trkpt lat="46.61726" lon="5.42613">
        <ele>217.8</ele>
        <time>2021-10-23T14:32:18Z</time>
      </trkpt>
      <trkpt lat="46.61714" lon="5.42594">
        <ele>217</ele>
        <time>2021-10-23T14:32:20Z</time>
      </trkpt>
      <trkpt lat="46.61707" lon="5.42586">
        <ele>216.4</ele>
        <time>2021-10-23T14:32:21Z</time>
      </trkpt>
      <trkpt lat="46.61678" lon="5.42558">
        <ele>216</ele>
        <time>2021-10-23T14:32:25Z</time>
      </trkpt>
      <trkpt lat="46.61663" lon="5.42545">
        <ele>215.4</ele>
        <time>2021-10-23T14:32:27Z</time>
      </trkpt>
      <trkpt lat="46.6163" lon="5.42522">
        <ele>214</ele>
        <time>2021-10-23T14:32:31Z</time>
      </trkpt>
      <trkpt lat="46.61614" lon="5.42508">
        <ele>213</ele>
        <time>2021-10-23T14:32:33Z</time>
      </trkpt>
      <trkpt lat="46.61607" lon="5.42498">
        <ele>212.6</ele>
        <time>2021-10-23T14:32:34Z</time>
      </trkpt>
      <trkpt lat="46.61601" lon="5.42487">
        <ele>212.2</ele>
        <time>2021-10-23T14:32:35Z</time>
      </trkpt>
      <trkpt lat="46.61593" lon="5.42465">
        <ele>211.8</ele>
        <time>2021-10-23T14:32:37Z</time>
      </trkpt>
      <trkpt lat="46.61573" lon="5.424">
        <ele>210.4</ele>
        <time>2021-10-23T14:32:42Z</time>
      </trkpt>
      <trkpt lat="46.61571" lon="5.42387">
        <ele>210</ele>
        <time>2021-10-23T14:32:43Z</time>
      </trkpt>
      <trkpt lat="46.61569" lon="5.42362">
        <ele>209.4</ele>
        <time>2021-10-23T14:32:45Z</time>
      </trkpt>
      <trkpt lat="46.61565" lon="5.42326">
        <ele>208.8</ele>
        <time>2021-10-23T14:32:48Z</time>
      </trkpt>
      <trkpt lat="46.61554" lon="5.42246">
        <ele>208.6</ele>
        <time>2021-10-23T14:32:55Z</time>
      </trkpt>
      <trkpt lat="46.61549" lon="5.42223">
        <ele>208.6</ele>
        <time>2021-10-23T14:32:57Z</time>
      </trkpt>
      <trkpt lat="46.61544" lon="5.42201">
        <ele>208.6</ele>
        <time>2021-10-23T14:32:59Z</time>
      </trkpt>
      <trkpt lat="46.61525" lon="5.42137">
        <ele>209.2</ele>
        <time>2021-10-23T14:33:05Z</time>
      </trkpt>
      <trkpt lat="46.61506" lon="5.42084">
        <ele>209</ele>
        <time>2021-10-23T14:33:11Z</time>
      </trkpt>
      <trkpt lat="46.61497" lon="5.42069">
        <ele>208.8</ele>
        <time>2021-10-23T14:33:12Z</time>
      </trkpt>
      <trkpt lat="46.61479" lon="5.42045">
        <ele>208.6</ele>
        <time>2021-10-23T14:33:15Z</time>
      </trkpt>
      <trkpt lat="46.61454" lon="5.41997">
        <ele>208.6</ele>
        <time>2021-10-23T14:33:20Z</time>
      </trkpt>
      <trkpt lat="46.61423" lon="5.41928">
        <ele>208.2</ele>
        <time>2021-10-23T14:33:27Z</time>
      </trkpt>
      <trkpt lat="46.61417" lon="5.41917">
        <ele>208.2</ele>
        <time>2021-10-23T14:33:28Z</time>
      </trkpt>
      <trkpt lat="46.61397" lon="5.41882">
        <ele>208.2</ele>
        <time>2021-10-23T14:33:32Z</time>
      </trkpt>
      <trkpt lat="46.61384" lon="5.41868">
        <ele>208.2</ele>
        <time>2021-10-23T14:33:34Z</time>
      </trkpt>
      <trkpt lat="46.61341" lon="5.41815">
        <ele>208</ele>
        <time>2021-10-23T14:33:41Z</time>
      </trkpt>
      <trkpt lat="46.61335" lon="5.41807">
        <ele>208</ele>
        <time>2021-10-23T14:33:42Z</time>
      </trkpt>
      <trkpt lat="46.61291" lon="5.41747">
        <ele>208</ele>
        <time>2021-10-23T14:33:49Z</time>
      </trkpt>
      <trkpt lat="46.6128" lon="5.4173">
        <ele>207.6</ele>
        <time>2021-10-23T14:33:51Z</time>
      </trkpt>
      <trkpt lat="46.61268" lon="5.41712">
        <ele>207.2</ele>
        <time>2021-10-23T14:33:53Z</time>
      </trkpt>
      <trkpt lat="46.61243" lon="5.41665">
        <ele>206.8</ele>
        <time>2021-10-23T14:33:58Z</time>
      </trkpt>
      <trkpt lat="46.61209" lon="5.41596">
        <ele>207.2</ele>
        <time>2021-10-23T14:34:05Z</time>
      </trkpt>
      <trkpt lat="46.61204" lon="5.41586">
        <ele>207.2</ele>
        <time>2021-10-23T14:34:06Z</time>
      </trkpt>
      <trkpt lat="46.6117" lon="5.41534">
        <ele>206.6</ele>
        <time>2021-10-23T14:34:12Z</time>
      </trkpt>
      <trkpt lat="46.61139" lon="5.41477">
        <ele>206.6</ele>
        <time>2021-10-23T14:34:18Z</time>
      </trkpt>
      <trkpt lat="46.61123" lon="5.41422">
        <ele>206.6</ele>
        <time>2021-10-23T14:34:23Z</time>
      </trkpt>
      <trkpt lat="46.61117" lon="5.41364">
        <ele>206.2</ele>
        <time>2021-10-23T14:34:28Z</time>
      </trkpt>
      <trkpt lat="46.61116" lon="5.41352">
        <ele>206.2</ele>
        <time>2021-10-23T14:34:29Z</time>
      </trkpt>
      <trkpt lat="46.61113" lon="5.41329">
        <ele>206.2</ele>
        <time>2021-10-23T14:34:31Z</time>
      </trkpt>
      <trkpt lat="46.61108" lon="5.41307">
        <ele>206.4</ele>
        <time>2021-10-23T14:34:33Z</time>
      </trkpt>
      <trkpt lat="46.61088" lon="5.41269">
        <ele>207</ele>
        <time>2021-10-23T14:34:37Z</time>
      </trkpt>
      <trkpt lat="46.61069" lon="5.41232">
        <ele>207</ele>
        <time>2021-10-23T14:34:41Z</time>
      </trkpt>
      <trkpt lat="46.61066" lon="5.41222">
        <ele>206.8</ele>
        <time>2021-10-23T14:34:42Z</time>
      </trkpt>
      <trkpt lat="46.61052" lon="5.41166">
        <ele>206.8</ele>
        <time>2021-10-23T14:34:48Z</time>
      </trkpt>
      <trkpt lat="46.6105" lon="5.41159">
        <ele>206.8</ele>
        <time>2021-10-23T14:34:49Z</time>
      </trkpt>
      <trkpt lat="46.61042" lon="5.41153">
        <ele>207</ele>
        <time>2021-10-23T14:34:51Z</time>
      </trkpt>
      <trkpt lat="46.61028" lon="5.41152">
        <ele>207.2</ele>
        <time>2021-10-23T14:34:54Z</time>
      </trkpt>
      <trkpt lat="46.61022" lon="5.41153">
        <ele>207.2</ele>
        <time>2021-10-23T14:34:55Z</time>
      </trkpt>
      <trkpt lat="46.61012" lon="5.41157">
        <ele>207.2</ele>
        <time>2021-10-23T14:34:57Z</time>
      </trkpt>
      <trkpt lat="46.61005" lon="5.41161">
        <ele>207.6</ele>
        <time>2021-10-23T14:34:58Z</time>
      </trkpt>
      <trkpt lat="46.60981" lon="5.41181">
        <ele>207.4</ele>
        <time>2021-10-23T14:35:03Z</time>
      </trkpt>
      <trkpt lat="46.60959" lon="5.41202">
        <ele>207.2</ele>
        <time>2021-10-23T14:35:08Z</time>
      </trkpt>
      <trkpt lat="46.6095" lon="5.4121">
        <ele>207.4</ele>
        <time>2021-10-23T14:35:10Z</time>
      </trkpt>
      <trkpt lat="46.60915" lon="5.4125">
        <ele>207.8</ele>
        <time>2021-10-23T14:35:18Z</time>
      </trkpt>
      <trkpt lat="46.60879" lon="5.41294">
        <ele>208</ele>
        <time>2021-10-23T14:35:27Z</time>
      </trkpt>
      <trkpt lat="46.60861" lon="5.41316">
        <ele>208.2</ele>
        <time>2021-10-23T14:35:30Z</time>
      </trkpt>
      <trkpt lat="46.60851" lon="5.41327">
        <ele>208.6</ele>
        <time>2021-10-23T14:35:32Z</time>
      </trkpt>
      <trkpt lat="46.60839" lon="5.41332">
        <ele>208.8</ele>
        <time>2021-10-23T14:35:34Z</time>
      </trkpt>
      <trkpt lat="46.60826" lon="5.41332">
        <ele>209.2</ele>
        <time>2021-10-23T14:35:36Z</time>
      </trkpt>
      <trkpt lat="46.6082" lon="5.41329">
        <ele>209.2</ele>
        <time>2021-10-23T14:35:37Z</time>
      </trkpt>
      <trkpt lat="46.60815" lon="5.41326">
        <ele>209.2</ele>
        <time>2021-10-23T14:35:38Z</time>
      </trkpt>
      <trkpt lat="46.6081" lon="5.41322">
        <ele>209.6</ele>
        <time>2021-10-23T14:35:39Z</time>
      </trkpt>
      <trkpt lat="46.60796" lon="5.41309">
        <ele>210.2</ele>
        <time>2021-10-23T14:35:42Z</time>
      </trkpt>
      <trkpt lat="46.60787" lon="5.413">
        <ele>210.8</ele>
        <time>2021-10-23T14:35:44Z</time>
      </trkpt>
      <trkpt lat="46.6078" lon="5.41291">
        <ele>211.4</ele>
        <time>2021-10-23T14:35:46Z</time>
      </trkpt>
      <trkpt lat="46.60771" lon="5.41283">
        <ele>212</ele>
        <time>2021-10-23T14:35:48Z</time>
      </trkpt>
      <trkpt lat="46.60754" lon="5.41265">
        <ele>213.2</ele>
        <time>2021-10-23T14:35:52Z</time>
      </trkpt>
      <trkpt lat="46.60735" lon="5.41244">
        <ele>213.8</ele>
        <time>2021-10-23T14:35:56Z</time>
      </trkpt>
      <trkpt lat="46.60715" lon="5.41217">
        <ele>214.2</ele>
        <time>2021-10-23T14:36:00Z</time>
      </trkpt>
      <trkpt lat="46.60704" lon="5.41204">
        <ele>214</ele>
        <time>2021-10-23T14:36:02Z</time>
      </trkpt>
      <trkpt lat="46.60681" lon="5.41182">
        <ele>213.8</ele>
        <time>2021-10-23T14:36:06Z</time>
      </trkpt>
      <trkpt lat="46.60674" lon="5.41179">
        <ele>213.8</ele>
        <time>2021-10-23T14:36:07Z</time>
      </trkpt>
      <trkpt lat="46.6062" lon="5.4116">
        <ele>213.8</ele>
        <time>2021-10-23T14:36:15Z</time>
      </trkpt>
      <trkpt lat="46.60613" lon="5.41158">
        <ele>213.8</ele>
        <time>2021-10-23T14:36:16Z</time>
      </trkpt>
      <trkpt lat="46.60555" lon="5.41142">
        <ele>215.4</ele>
        <time>2021-10-23T14:36:25Z</time>
      </trkpt>
      <trkpt lat="46.60515" lon="5.41138">
        <ele>216.4</ele>
        <time>2021-10-23T14:36:31Z</time>
      </trkpt>
      <trkpt lat="46.60483" lon="5.41137">
        <ele>217.6</ele>
        <time>2021-10-23T14:36:36Z</time>
      </trkpt>
      <trkpt lat="46.60483" lon="5.41137">
        <ele>217.8</ele>
        <time>2021-10-23T14:36:37Z</time>
      </trkpt>
      <trkpt lat="46.6047" lon="5.41135">
        <ele>218</ele>
        <time>2021-10-23T14:36:38Z</time>
      </trkpt>
      <trkpt lat="46.60458" lon="5.41132">
        <ele>218.4</ele>
        <time>2021-10-23T14:36:40Z</time>
      </trkpt>
      <trkpt lat="46.60451" lon="5.41128">
        <ele>218.8</ele>
        <time>2021-10-23T14:36:41Z</time>
      </trkpt>
      <trkpt lat="46.6044" lon="5.4112">
        <ele>219.4</ele>
        <time>2021-10-23T14:36:43Z</time>
      </trkpt>
      <trkpt lat="46.6043" lon="5.41106">
        <ele>219.8</ele>
        <time>2021-10-23T14:36:45Z</time>
      </trkpt>
      <trkpt lat="46.60414" lon="5.41065">
        <ele>220.4</ele>
        <time>2021-10-23T14:36:50Z</time>
      </trkpt>
      <trkpt lat="46.60407" lon="5.41048">
        <ele>220.4</ele>
        <time>2021-10-23T14:36:52Z</time>
      </trkpt>
      <trkpt lat="46.60398" lon="5.41033">
        <ele>220.4</ele>
        <time>2021-10-23T14:36:54Z</time>
      </trkpt>
      <trkpt lat="46.60385" lon="5.4102">
        <ele>220.6</ele>
        <time>2021-10-23T14:36:56Z</time>
      </trkpt>
      <trkpt lat="46.60371" lon="5.4101">
        <ele>220.4</ele>
        <time>2021-10-23T14:36:58Z</time>
      </trkpt>
      <trkpt lat="46.60339" lon="5.40986">
        <ele>219.8</ele>
        <time>2021-10-23T14:37:02Z</time>
      </trkpt>
      <trkpt lat="46.60332" lon="5.40977">
        <ele>219.4</ele>
        <time>2021-10-23T14:37:03Z</time>
      </trkpt>
      <trkpt lat="46.60319" lon="5.40954">
        <ele>218.6</ele>
        <time>2021-10-23T14:37:05Z</time>
      </trkpt>
      <trkpt lat="46.60313" lon="5.40942">
        <ele>217.6</ele>
        <time>2021-10-23T14:37:06Z</time>
      </trkpt>
      <trkpt lat="46.60313" lon="5.40942">
        <ele>217</ele>
        <time>2021-10-23T14:37:07Z</time>
      </trkpt>
      <trkpt lat="46.60299" lon="5.40917">
        <ele>216</ele>
        <time>2021-10-23T14:37:08Z</time>
      </trkpt>
      <trkpt lat="46.60292" lon="5.40906">
        <ele>215.8</ele>
        <time>2021-10-23T14:37:09Z</time>
      </trkpt>
      <trkpt lat="46.60283" lon="5.40896">
        <ele>214.4</ele>
        <time>2021-10-23T14:37:10Z</time>
      </trkpt>
      <trkpt lat="46.60264" lon="5.40879">
        <ele>212.4</ele>
        <time>2021-10-23T14:37:12Z</time>
      </trkpt>
      <trkpt lat="46.60245" lon="5.40864">
        <ele>211.4</ele>
        <time>2021-10-23T14:37:14Z</time>
      </trkpt>
      <trkpt lat="46.60235" lon="5.40857">
        <ele>210.6</ele>
        <time>2021-10-23T14:37:15Z</time>
      </trkpt>
      <trkpt lat="46.60225" lon="5.40849">
        <ele>210.2</ele>
        <time>2021-10-23T14:37:16Z</time>
      </trkpt>
      <trkpt lat="46.60198" lon="5.40825">
        <ele>209</ele>
        <time>2021-10-23T14:37:19Z</time>
      </trkpt>
      <trkpt lat="46.6019" lon="5.40816">
        <ele>208.2</ele>
        <time>2021-10-23T14:37:20Z</time>
      </trkpt>
      <trkpt lat="46.60183" lon="5.40805">
        <ele>207.8</ele>
        <time>2021-10-23T14:37:21Z</time>
      </trkpt>
      <trkpt lat="46.60177" lon="5.40792">
        <ele>207.2</ele>
        <time>2021-10-23T14:37:22Z</time>
      </trkpt>
      <trkpt lat="46.60174" lon="5.40778">
        <ele>207.2</ele>
        <time>2021-10-23T14:37:23Z</time>
      </trkpt>
      <trkpt lat="46.60172" lon="5.40764">
        <ele>207</ele>
        <time>2021-10-23T14:37:24Z</time>
      </trkpt>
      <trkpt lat="46.60172" lon="5.40736">
        <ele>206.8</ele>
        <time>2021-10-23T14:37:26Z</time>
      </trkpt>
      <trkpt lat="46.60178" lon="5.4071">
        <ele>206.8</ele>
        <time>2021-10-23T14:37:28Z</time>
      </trkpt>
      <trkpt lat="46.60183" lon="5.40698">
        <ele>206.8</ele>
        <time>2021-10-23T14:37:29Z</time>
      </trkpt>
      <trkpt lat="46.60218" lon="5.40639">
        <ele>207.2</ele>
        <time>2021-10-23T14:37:35Z</time>
      </trkpt>
      <trkpt lat="46.60228" lon="5.40618">
        <ele>207.2</ele>
        <time>2021-10-23T14:37:37Z</time>
      </trkpt>
      <trkpt lat="46.60235" lon="5.40595">
        <ele>207.2</ele>
        <time>2021-10-23T14:37:39Z</time>
      </trkpt>
      <trkpt lat="46.60236" lon="5.4057">
        <ele>207.2</ele>
        <time>2021-10-23T14:37:41Z</time>
      </trkpt>
      <trkpt lat="46.60234" lon="5.40558">
        <ele>207.4</ele>
        <time>2021-10-23T14:37:42Z</time>
      </trkpt>
      <trkpt lat="46.60221" lon="5.40489">
        <ele>208.4</ele>
        <time>2021-10-23T14:37:48Z</time>
      </trkpt>
      <trkpt lat="46.60218" lon="5.40456">
        <ele>209</ele>
        <time>2021-10-23T14:37:51Z</time>
      </trkpt>
      <trkpt lat="46.60218" lon="5.40456">
        <ele>209</ele>
        <time>2021-10-23T14:37:52Z</time>
      </trkpt>
      <trkpt lat="46.60222" lon="5.40396">
        <ele>209.6</ele>
        <time>2021-10-23T14:37:57Z</time>
      </trkpt>
      <trkpt lat="46.60222" lon="5.40377">
        <ele>210.4</ele>
        <time>2021-10-23T14:37:59Z</time>
      </trkpt>
      <trkpt lat="46.6022" lon="5.40357">
        <ele>211.2</ele>
        <time>2021-10-23T14:38:01Z</time>
      </trkpt>
      <trkpt lat="46.60219" lon="5.40348">
        <ele>211.4</ele>
        <time>2021-10-23T14:38:02Z</time>
      </trkpt>
      <trkpt lat="46.60214" lon="5.40327">
        <ele>212.2</ele>
        <time>2021-10-23T14:38:04Z</time>
      </trkpt>
      <trkpt lat="46.6021" lon="5.40317">
        <ele>213</ele>
        <time>2021-10-23T14:38:05Z</time>
      </trkpt>
      <trkpt lat="46.60203" lon="5.40297">
        <ele>213.6</ele>
        <time>2021-10-23T14:38:07Z</time>
      </trkpt>
      <trkpt lat="46.60181" lon="5.40239">
        <ele>213.8</ele>
        <time>2021-10-23T14:38:13Z</time>
      </trkpt>
      <trkpt lat="46.60178" lon="5.40225">
        <ele>213.8</ele>
        <time>2021-10-23T14:38:14Z</time>
      </trkpt>
      <trkpt lat="46.60177" lon="5.40214">
        <ele>213.6</ele>
        <time>2021-10-23T14:38:15Z</time>
      </trkpt>
      <trkpt lat="46.60178" lon="5.40191">
        <ele>213.4</ele>
        <time>2021-10-23T14:38:17Z</time>
      </trkpt>
      <trkpt lat="46.6019" lon="5.40128">
        <ele>213.2</ele>
        <time>2021-10-23T14:38:23Z</time>
      </trkpt>
      <trkpt lat="46.60193" lon="5.40081">
        <ele>213.6</ele>
        <time>2021-10-23T14:38:27Z</time>
      </trkpt>
      <trkpt lat="46.60189" lon="5.40004">
        <ele>212.8</ele>
        <time>2021-10-23T14:38:33Z</time>
      </trkpt>
      <trkpt lat="46.60187" lon="5.39964">
        <ele>212</ele>
        <time>2021-10-23T14:38:36Z</time>
      </trkpt>
      <trkpt lat="46.60183" lon="5.39924">
        <ele>211.2</ele>
        <time>2021-10-23T14:38:39Z</time>
      </trkpt>
      <trkpt lat="46.60175" lon="5.39899">
        <ele>211.2</ele>
        <time>2021-10-23T14:38:41Z</time>
      </trkpt>
      <trkpt lat="46.6017" lon="5.39889">
        <ele>211</ele>
        <time>2021-10-23T14:38:42Z</time>
      </trkpt>
      <trkpt lat="46.60163" lon="5.39881">
        <ele>210.8</ele>
        <time>2021-10-23T14:38:43Z</time>
      </trkpt>
      <trkpt lat="46.60148" lon="5.39866">
        <ele>210</ele>
        <time>2021-10-23T14:38:45Z</time>
      </trkpt>
      <trkpt lat="46.6014" lon="5.3986">
        <ele>209.8</ele>
        <time>2021-10-23T14:38:46Z</time>
      </trkpt>
      <trkpt lat="46.60117" lon="5.3984">
        <ele>208.6</ele>
        <time>2021-10-23T14:38:49Z</time>
      </trkpt>
      <trkpt lat="46.60089" lon="5.3981">
        <ele>208.4</ele>
        <time>2021-10-23T14:38:53Z</time>
      </trkpt>
      <trkpt lat="46.60068" lon="5.39758">
        <ele>208.8</ele>
        <time>2021-10-23T14:38:58Z</time>
      </trkpt>
      <trkpt lat="46.60065" lon="5.39747">
        <ele>208.6</ele>
        <time>2021-10-23T14:38:59Z</time>
      </trkpt>
      <trkpt lat="46.60063" lon="5.39724">
        <ele>209</ele>
        <time>2021-10-23T14:39:01Z</time>
      </trkpt>
      <trkpt lat="46.60068" lon="5.39704">
        <ele>209.2</ele>
        <time>2021-10-23T14:39:03Z</time>
      </trkpt>
      <trkpt lat="46.60072" lon="5.39696">
        <ele>209.2</ele>
        <time>2021-10-23T14:39:04Z</time>
      </trkpt>
      <trkpt lat="46.60086" lon="5.39658">
        <ele>209.4</ele>
        <time>2021-10-23T14:39:08Z</time>
      </trkpt>
      <trkpt lat="46.60088" lon="5.39648">
        <ele>209.6</ele>
        <time>2021-10-23T14:39:09Z</time>
      </trkpt>
      <trkpt lat="46.60089" lon="5.39629">
        <ele>209.8</ele>
        <time>2021-10-23T14:39:11Z</time>
      </trkpt>
      <trkpt lat="46.60089" lon="5.3962">
        <ele>210.4</ele>
        <time>2021-10-23T14:39:12Z</time>
      </trkpt>
      <trkpt lat="46.60086" lon="5.39603">
        <ele>211.2</ele>
        <time>2021-10-23T14:39:14Z</time>
      </trkpt>
      <trkpt lat="46.60082" lon="5.39587">
        <ele>212.2</ele>
        <time>2021-10-23T14:39:16Z</time>
      </trkpt>
      <trkpt lat="46.60079" lon="5.39579">
        <ele>213</ele>
        <time>2021-10-23T14:39:17Z</time>
      </trkpt>
      <trkpt lat="46.60076" lon="5.39571">
        <ele>213.2</ele>
        <time>2021-10-23T14:39:18Z</time>
      </trkpt>
      <trkpt lat="46.60059" lon="5.39536">
        <ele>214</ele>
        <time>2021-10-23T14:39:23Z</time>
      </trkpt>
      <trkpt lat="46.60049" lon="5.39514">
        <ele>215.2</ele>
        <time>2021-10-23T14:39:26Z</time>
      </trkpt>
      <trkpt lat="46.60039" lon="5.39483">
        <ele>215.8</ele>
        <time>2021-10-23T14:39:30Z</time>
      </trkpt>
      <trkpt lat="46.60037" lon="5.39474">
        <ele>216.2</ele>
        <time>2021-10-23T14:39:31Z</time>
      </trkpt>
      <trkpt lat="46.60036" lon="5.39466">
        <ele>216.4</ele>
        <time>2021-10-23T14:39:32Z</time>
      </trkpt>
      <trkpt lat="46.60035" lon="5.39449">
        <ele>216.8</ele>
        <time>2021-10-23T14:39:34Z</time>
      </trkpt>
      <trkpt lat="46.60035" lon="5.3944">
        <ele>217.4</ele>
        <time>2021-10-23T14:39:35Z</time>
      </trkpt>
      <trkpt lat="46.60043" lon="5.39392">
        <ele>217.8</ele>
        <time>2021-10-23T14:39:40Z</time>
      </trkpt>
      <trkpt lat="46.60053" lon="5.3933">
        <ele>217.6</ele>
        <time>2021-10-23T14:39:46Z</time>
      </trkpt>
      <trkpt lat="46.60052" lon="5.39281">
        <ele>217.8</ele>
        <time>2021-10-23T14:39:51Z</time>
      </trkpt>
      <trkpt lat="46.60051" lon="5.39273">
        <ele>218</ele>
        <time>2021-10-23T14:39:52Z</time>
      </trkpt>
      <trkpt lat="46.60047" lon="5.39256">
        <ele>218.4</ele>
        <time>2021-10-23T14:39:54Z</time>
      </trkpt>
      <trkpt lat="46.60042" lon="5.39242">
        <ele>219.2</ele>
        <time>2021-10-23T14:39:56Z</time>
      </trkpt>
      <trkpt lat="46.60039" lon="5.39235">
        <ele>219.4</ele>
        <time>2021-10-23T14:39:57Z</time>
      </trkpt>
      <trkpt lat="46.60029" lon="5.39218">
        <ele>220.6</ele>
        <time>2021-10-23T14:40:00Z</time>
      </trkpt>
      <trkpt lat="46.60025" lon="5.39213">
        <ele>220.8</ele>
        <time>2021-10-23T14:40:01Z</time>
      </trkpt>
      <trkpt lat="46.60016" lon="5.39204">
        <ele>221.8</ele>
        <time>2021-10-23T14:40:03Z</time>
      </trkpt>
      <trkpt lat="46.59995" lon="5.39191">
        <ele>222.8</ele>
        <time>2021-10-23T14:40:07Z</time>
      </trkpt>
      <trkpt lat="46.59966" lon="5.39183">
        <ele>224.2</ele>
        <time>2021-10-23T14:40:12Z</time>
      </trkpt>
      <trkpt lat="46.59936" lon="5.39182">
        <ele>224.6</ele>
        <time>2021-10-23T14:40:17Z</time>
      </trkpt>
      <trkpt lat="46.59931" lon="5.3918">
        <ele>224.6</ele>
        <time>2021-10-23T14:40:18Z</time>
      </trkpt>
      <trkpt lat="46.59917" lon="5.39176">
        <ele>225.4</ele>
        <time>2021-10-23T14:40:22Z</time>
      </trkpt>
      <trkpt lat="46.59913" lon="5.39179">
        <ele>225.6</ele>
        <time>2021-10-23T14:40:23Z</time>
      </trkpt>
      <trkpt lat="46.59899" lon="5.39187">
        <ele>226</ele>
        <time>2021-10-23T14:40:26Z</time>
      </trkpt>
      <trkpt lat="46.59889" lon="5.39191">
        <ele>226.4</ele>
        <time>2021-10-23T14:40:28Z</time>
      </trkpt>
      <trkpt lat="46.59867" lon="5.39195">
        <ele>226.6</ele>
        <time>2021-10-23T14:40:32Z</time>
      </trkpt>
      <trkpt lat="46.59834" lon="5.39193">
        <ele>226.8</ele>
        <time>2021-10-23T14:40:38Z</time>
      </trkpt>
      <trkpt lat="46.59803" lon="5.39189">
        <ele>227.2</ele>
        <time>2021-10-23T14:40:43Z</time>
      </trkpt>
      <trkpt lat="46.59781" lon="5.39194">
        <ele>227.6</ele>
        <time>2021-10-23T14:40:47Z</time>
      </trkpt>
      <trkpt lat="46.5977" lon="5.39199">
        <ele>227.6</ele>
        <time>2021-10-23T14:40:49Z</time>
      </trkpt>
      <trkpt lat="46.59759" lon="5.39203">
        <ele>227.6</ele>
        <time>2021-10-23T14:40:51Z</time>
      </trkpt>
      <trkpt lat="46.59749" lon="5.3921">
        <ele>227.6</ele>
        <time>2021-10-23T14:40:53Z</time>
      </trkpt>
      <trkpt lat="46.59743" lon="5.39212">
        <ele>227.6</ele>
        <time>2021-10-23T14:40:54Z</time>
      </trkpt>
      <trkpt lat="46.59738" lon="5.39211">
        <ele>228</ele>
        <time>2021-10-23T14:40:55Z</time>
      </trkpt>
      <trkpt lat="46.59721" lon="5.39203">
        <ele>228.6</ele>
        <time>2021-10-23T14:40:58Z</time>
      </trkpt>
      <trkpt lat="46.59715" lon="5.39201">
        <ele>228.6</ele>
        <time>2021-10-23T14:40:59Z</time>
      </trkpt>
      <trkpt lat="46.5968" lon="5.39193">
        <ele>228.8</ele>
        <time>2021-10-23T14:41:05Z</time>
      </trkpt>
      <trkpt lat="46.59638" lon="5.39186">
        <ele>228.6</ele>
        <time>2021-10-23T14:41:11Z</time>
      </trkpt>
      <trkpt lat="46.59616" lon="5.39185">
        <ele>228.4</ele>
        <time>2021-10-23T14:41:14Z</time>
      </trkpt>
      <trkpt lat="46.59603" lon="5.3919">
        <ele>228.2</ele>
        <time>2021-10-23T14:41:16Z</time>
      </trkpt>
      <trkpt lat="46.59564" lon="5.39206">
        <ele>227.6</ele>
        <time>2021-10-23T14:41:22Z</time>
      </trkpt>
      <trkpt lat="46.59558" lon="5.39208">
        <ele>227.4</ele>
        <time>2021-10-23T14:41:23Z</time>
      </trkpt>
      <trkpt lat="46.59531" lon="5.39206">
        <ele>227.2</ele>
        <time>2021-10-23T14:41:27Z</time>
      </trkpt>
      <trkpt lat="46.59519" lon="5.39199">
        <ele>227.2</ele>
        <time>2021-10-23T14:41:29Z</time>
      </trkpt>
      <trkpt lat="46.59513" lon="5.39193">
        <ele>227</ele>
        <time>2021-10-23T14:41:30Z</time>
      </trkpt>
      <trkpt lat="46.59508" lon="5.39185">
        <ele>227</ele>
        <time>2021-10-23T14:41:31Z</time>
      </trkpt>
      <trkpt lat="46.59502" lon="5.39168">
        <ele>226.8</ele>
        <time>2021-10-23T14:41:33Z</time>
      </trkpt>
      <trkpt lat="46.59494" lon="5.39108">
        <ele>226.6</ele>
        <time>2021-10-23T14:41:39Z</time>
      </trkpt>
      <trkpt lat="46.59488" lon="5.39066">
        <ele>226.4</ele>
        <time>2021-10-23T14:41:43Z</time>
      </trkpt>
      <trkpt lat="46.59481" lon="5.39003">
        <ele>226</ele>
        <time>2021-10-23T14:41:49Z</time>
      </trkpt>
      <trkpt lat="46.59472" lon="5.38951">
        <ele>226</ele>
        <time>2021-10-23T14:41:54Z</time>
      </trkpt>
      <trkpt lat="46.59469" lon="5.38941">
        <ele>226</ele>
        <time>2021-10-23T14:41:55Z</time>
      </trkpt>
      <trkpt lat="46.59455" lon="5.38904">
        <ele>226</ele>
        <time>2021-10-23T14:41:59Z</time>
      </trkpt>
      <trkpt lat="46.59452" lon="5.38894">
        <ele>226</ele>
        <time>2021-10-23T14:42:00Z</time>
      </trkpt>
      <trkpt lat="46.5945" lon="5.38884">
        <ele>226</ele>
        <time>2021-10-23T14:42:01Z</time>
      </trkpt>
      <trkpt lat="46.59447" lon="5.38844">
        <ele>226</ele>
        <time>2021-10-23T14:42:05Z</time>
      </trkpt>
      <trkpt lat="46.5944" lon="5.38803">
        <ele>225.8</ele>
        <time>2021-10-23T14:42:09Z</time>
      </trkpt>
      <trkpt lat="46.59437" lon="5.38794">
        <ele>225.8</ele>
        <time>2021-10-23T14:42:10Z</time>
      </trkpt>
      <trkpt lat="46.59433" lon="5.38785">
        <ele>226</ele>
        <time>2021-10-23T14:42:11Z</time>
      </trkpt>
      <trkpt lat="46.59422" lon="5.3877">
        <ele>226</ele>
        <time>2021-10-23T14:42:13Z</time>
      </trkpt>
      <trkpt lat="46.59374" lon="5.38719">
        <ele>226</ele>
        <time>2021-10-23T14:42:21Z</time>
      </trkpt>
      <trkpt lat="46.59336" lon="5.38679">
        <ele>225.4</ele>
        <time>2021-10-23T14:42:27Z</time>
      </trkpt>
      <trkpt lat="46.59318" lon="5.38659">
        <ele>225</ele>
        <time>2021-10-23T14:42:30Z</time>
      </trkpt>
      <trkpt lat="46.59274" lon="5.38612">
        <ele>224.6</ele>
        <time>2021-10-23T14:42:37Z</time>
      </trkpt>
      <trkpt lat="46.59244" lon="5.38579">
        <ele>224.6</ele>
        <time>2021-10-23T14:42:42Z</time>
      </trkpt>
      <trkpt lat="46.59204" lon="5.38536">
        <ele>225.6</ele>
        <time>2021-10-23T14:42:49Z</time>
      </trkpt>
      <trkpt lat="46.59167" lon="5.3849">
        <ele>225.2</ele>
        <time>2021-10-23T14:42:55Z</time>
      </trkpt>
      <trkpt lat="46.5914" lon="5.38444">
        <ele>224</ele>
        <time>2021-10-23T14:43:00Z</time>
      </trkpt>
      <trkpt lat="46.59133" lon="5.38432">
        <ele>224</ele>
        <time>2021-10-23T14:43:01Z</time>
      </trkpt>
      <trkpt lat="46.59111" lon="5.38407">
        <ele>223</ele>
        <time>2021-10-23T14:43:04Z</time>
      </trkpt>
      <trkpt lat="46.59103" lon="5.38399">
        <ele>223</ele>
        <time>2021-10-23T14:43:05Z</time>
      </trkpt>
      <trkpt lat="46.59086" lon="5.38385">
        <ele>221.8</ele>
        <time>2021-10-23T14:43:07Z</time>
      </trkpt>
      <trkpt lat="46.5906" lon="5.38363">
        <ele>220.4</ele>
        <time>2021-10-23T14:43:10Z</time>
      </trkpt>
      <trkpt lat="46.59033" lon="5.38342">
        <ele>219</ele>
        <time>2021-10-23T14:43:13Z</time>
      </trkpt>
      <trkpt lat="46.59025" lon="5.38334">
        <ele>218.8</ele>
        <time>2021-10-23T14:43:14Z</time>
      </trkpt>
      <trkpt lat="46.58982" lon="5.38299">
        <ele>217.8</ele>
        <time>2021-10-23T14:43:19Z</time>
      </trkpt>
      <trkpt lat="46.5895" lon="5.38272">
        <ele>217.4</ele>
        <time>2021-10-23T14:43:23Z</time>
      </trkpt>
      <trkpt lat="46.58911" lon="5.3823">
        <ele>217.6</ele>
        <time>2021-10-23T14:43:29Z</time>
      </trkpt>
      <trkpt lat="46.58876" lon="5.38184">
        <ele>218.8</ele>
        <time>2021-10-23T14:43:35Z</time>
      </trkpt>
      <trkpt lat="46.58852" lon="5.38156">
        <ele>220</ele>
        <time>2021-10-23T14:43:39Z</time>
      </trkpt>
      <trkpt lat="46.58816" lon="5.38111">
        <ele>221</ele>
        <time>2021-10-23T14:43:45Z</time>
      </trkpt>
      <trkpt lat="46.58793" lon="5.38082">
        <ele>221.4</ele>
        <time>2021-10-23T14:43:49Z</time>
      </trkpt>
      <trkpt lat="46.58786" lon="5.38076">
        <ele>221.6</ele>
        <time>2021-10-23T14:43:50Z</time>
      </trkpt>
      <trkpt lat="46.58772" lon="5.38065">
        <ele>221.8</ele>
        <time>2021-10-23T14:43:52Z</time>
      </trkpt>
      <trkpt lat="46.58764" lon="5.38062">
        <ele>221.8</ele>
        <time>2021-10-23T14:43:53Z</time>
      </trkpt>
      <trkpt lat="46.58723" lon="5.38056">
        <ele>221.6</ele>
        <time>2021-10-23T14:43:58Z</time>
      </trkpt>
      <trkpt lat="46.58665" lon="5.38052">
        <ele>221</ele>
        <time>2021-10-23T14:44:05Z</time>
      </trkpt>
      <trkpt lat="46.58648" lon="5.38051">
        <ele>220.8</ele>
        <time>2021-10-23T14:44:07Z</time>
      </trkpt>
      <trkpt lat="46.58615" lon="5.38039">
        <ele>220.4</ele>
        <time>2021-10-23T14:44:11Z</time>
      </trkpt>
      <trkpt lat="46.58587" lon="5.38014">
        <ele>219.8</ele>
        <time>2021-10-23T14:44:15Z</time>
      </trkpt>
      <trkpt lat="46.5858" lon="5.38007">
        <ele>219.8</ele>
        <time>2021-10-23T14:44:16Z</time>
      </trkpt>
      <trkpt lat="46.58562" lon="5.38">
        <ele>219.4</ele>
        <time>2021-10-23T14:44:18Z</time>
      </trkpt>
      <trkpt lat="46.58556" lon="5.38001">
        <ele>219.4</ele>
        <time>2021-10-23T14:44:19Z</time>
      </trkpt>
      <trkpt lat="46.58516" lon="5.38022">
        <ele>218.8</ele>
        <time>2021-10-23T14:44:24Z</time>
      </trkpt>
      <trkpt lat="46.58509" lon="5.38026">
        <ele>218.8</ele>
        <time>2021-10-23T14:44:25Z</time>
      </trkpt>
      <trkpt lat="46.58501" lon="5.38028">
        <ele>218.8</ele>
        <time>2021-10-23T14:44:26Z</time>
      </trkpt>
      <trkpt lat="46.58492" lon="5.38029">
        <ele>218.8</ele>
        <time>2021-10-23T14:44:27Z</time>
      </trkpt>
      <trkpt lat="46.58458" lon="5.3802">
        <ele>218.8</ele>
        <time>2021-10-23T14:44:31Z</time>
      </trkpt>
      <trkpt lat="46.58423" lon="5.38006">
        <ele>217.8</ele>
        <time>2021-10-23T14:44:35Z</time>
      </trkpt>
      <trkpt lat="46.58391" lon="5.37994">
        <ele>216.4</ele>
        <time>2021-10-23T14:44:38Z</time>
      </trkpt>
      <trkpt lat="46.58361" lon="5.37983">
        <ele>215</ele>
        <time>2021-10-23T14:44:41Z</time>
      </trkpt>
      <trkpt lat="46.58312" lon="5.3796">
        <ele>213.8</ele>
        <time>2021-10-23T14:44:46Z</time>
      </trkpt>
      <trkpt lat="46.58284" lon="5.37944">
        <ele>212.8</ele>
        <time>2021-10-23T14:44:49Z</time>
      </trkpt>
      <trkpt lat="46.58247" lon="5.3792">
        <ele>211.8</ele>
        <time>2021-10-23T14:44:53Z</time>
      </trkpt>
      <trkpt lat="46.58191" lon="5.37884">
        <ele>210.2</ele>
        <time>2021-10-23T14:44:59Z</time>
      </trkpt>
      <trkpt lat="46.58171" lon="5.37876">
        <ele>209.4</ele>
        <time>2021-10-23T14:45:01Z</time>
      </trkpt>
      <trkpt lat="46.58152" lon="5.37878">
        <ele>209</ele>
        <time>2021-10-23T14:45:03Z</time>
      </trkpt>
      <trkpt lat="46.58143" lon="5.37884">
        <ele>208.8</ele>
        <time>2021-10-23T14:45:04Z</time>
      </trkpt>
      <trkpt lat="46.58134" lon="5.37891">
        <ele>208.6</ele>
        <time>2021-10-23T14:45:05Z</time>
      </trkpt>
      <trkpt lat="46.58118" lon="5.37904">
        <ele>208.2</ele>
        <time>2021-10-23T14:45:07Z</time>
      </trkpt>
      <trkpt lat="46.58109" lon="5.37909">
        <ele>208</ele>
        <time>2021-10-23T14:45:08Z</time>
      </trkpt>
      <trkpt lat="46.58062" lon="5.37926">
        <ele>207.8</ele>
        <time>2021-10-23T14:45:13Z</time>
      </trkpt>
      <trkpt lat="46.58003" lon="5.37948">
        <ele>207.6</ele>
        <time>2021-10-23T14:45:20Z</time>
      </trkpt>
      <trkpt lat="46.57967" lon="5.37976">
        <ele>207.6</ele>
        <time>2021-10-23T14:45:25Z</time>
      </trkpt>
      <trkpt lat="46.57933" lon="5.37997">
        <ele>208.2</ele>
        <time>2021-10-23T14:45:30Z</time>
      </trkpt>
      <trkpt lat="46.57917" lon="5.38014">
        <ele>209.2</ele>
        <time>2021-10-23T14:45:33Z</time>
      </trkpt>
      <trkpt lat="46.57907" lon="5.38028">
        <ele>209.8</ele>
        <time>2021-10-23T14:45:35Z</time>
      </trkpt>
      <trkpt lat="46.57897" lon="5.38053">
        <ele>210.8</ele>
        <time>2021-10-23T14:45:38Z</time>
      </trkpt>
      <trkpt lat="46.57891" lon="5.38072">
        <ele>211.2</ele>
        <time>2021-10-23T14:45:40Z</time>
      </trkpt>
      <trkpt lat="46.57865" lon="5.3815">
        <ele>211.6</ele>
        <time>2021-10-23T14:45:48Z</time>
      </trkpt>
      <trkpt lat="46.57849" lon="5.38187">
        <ele>211.8</ele>
        <time>2021-10-23T14:45:52Z</time>
      </trkpt>
      <trkpt lat="46.57845" lon="5.38195">
        <ele>211.8</ele>
        <time>2021-10-23T14:45:53Z</time>
      </trkpt>
      <trkpt lat="46.57833" lon="5.38208">
        <ele>212</ele>
        <time>2021-10-23T14:45:55Z</time>
      </trkpt>
      <trkpt lat="46.5779" lon="5.38249">
        <ele>212.4</ele>
        <time>2021-10-23T14:46:02Z</time>
      </trkpt>
      <trkpt lat="46.57766" lon="5.38273">
        <ele>212.8</ele>
        <time>2021-10-23T14:46:06Z</time>
      </trkpt>
      <trkpt lat="46.57746" lon="5.38288">
        <ele>213.2</ele>
        <time>2021-10-23T14:46:09Z</time>
      </trkpt>
      <trkpt lat="46.5774" lon="5.38292">
        <ele>213.4</ele>
        <time>2021-10-23T14:46:10Z</time>
      </trkpt>
      <trkpt lat="46.57705" lon="5.38305">
        <ele>213.8</ele>
        <time>2021-10-23T14:46:15Z</time>
      </trkpt>
      <trkpt lat="46.57652" lon="5.38315">
        <ele>213.6</ele>
        <time>2021-10-23T14:46:22Z</time>
      </trkpt>
      <trkpt lat="46.57645" lon="5.38318">
        <ele>213.6</ele>
        <time>2021-10-23T14:46:23Z</time>
      </trkpt>
      <trkpt lat="46.5763" lon="5.38322">
        <ele>213.4</ele>
        <time>2021-10-23T14:46:25Z</time>
      </trkpt>
      <trkpt lat="46.57615" lon="5.38313">
        <ele>213</ele>
        <time>2021-10-23T14:46:27Z</time>
      </trkpt>
      <trkpt lat="46.57602" lon="5.38281">
        <ele>212.2</ele>
        <time>2021-10-23T14:46:30Z</time>
      </trkpt>
      <trkpt lat="46.5759" lon="5.3826">
        <ele>211.6</ele>
        <time>2021-10-23T14:46:32Z</time>
      </trkpt>
      <trkpt lat="46.57577" lon="5.3824">
        <ele>210.6</ele>
        <time>2021-10-23T14:46:34Z</time>
      </trkpt>
      <trkpt lat="46.57569" lon="5.38231">
        <ele>209.6</ele>
        <time>2021-10-23T14:46:35Z</time>
      </trkpt>
      <trkpt lat="46.57545" lon="5.3821">
        <ele>208</ele>
        <time>2021-10-23T14:46:38Z</time>
      </trkpt>
      <trkpt lat="46.57529" lon="5.38196">
        <ele>207.6</ele>
        <time>2021-10-23T14:46:40Z</time>
      </trkpt>
      <trkpt lat="46.57476" lon="5.38153">
        <ele>207.4</ele>
        <time>2021-10-23T14:46:47Z</time>
      </trkpt>
      <trkpt lat="46.57454" lon="5.38136">
        <ele>207.4</ele>
        <time>2021-10-23T14:46:50Z</time>
      </trkpt>
      <trkpt lat="46.57404" lon="5.38096">
        <ele>207.6</ele>
        <time>2021-10-23T14:46:57Z</time>
      </trkpt>
      <trkpt lat="46.57397" lon="5.3809">
        <ele>207.8</ele>
        <time>2021-10-23T14:46:58Z</time>
      </trkpt>
      <trkpt lat="46.57384" lon="5.38076">
        <ele>208</ele>
        <time>2021-10-23T14:47:00Z</time>
      </trkpt>
      <trkpt lat="46.57374" lon="5.3806">
        <ele>208.4</ele>
        <time>2021-10-23T14:47:02Z</time>
      </trkpt>
      <trkpt lat="46.57354" lon="5.38019">
        <ele>209.2</ele>
        <time>2021-10-23T14:47:07Z</time>
      </trkpt>
      <trkpt lat="46.57343" lon="5.37996">
        <ele>210.6</ele>
        <time>2021-10-23T14:47:10Z</time>
      </trkpt>
      <trkpt lat="46.57336" lon="5.37984">
        <ele>211.2</ele>
        <time>2021-10-23T14:47:12Z</time>
      </trkpt>
      <trkpt lat="46.57328" lon="5.37968">
        <ele>211.8</ele>
        <time>2021-10-23T14:47:14Z</time>
      </trkpt>
      <trkpt lat="46.57317" lon="5.37945">
        <ele>212.8</ele>
        <time>2021-10-23T14:47:17Z</time>
      </trkpt>
      <trkpt lat="46.57314" lon="5.37939">
        <ele>213</ele>
        <time>2021-10-23T14:47:18Z</time>
      </trkpt>
      <trkpt lat="46.57295" lon="5.37902">
        <ele>213.6</ele>
        <time>2021-10-23T14:47:22Z</time>
      </trkpt>
      <trkpt lat="46.5729" lon="5.37895">
        <ele>214</ele>
        <time>2021-10-23T14:47:23Z</time>
      </trkpt>
      <trkpt lat="46.57284" lon="5.37883">
        <ele>214.4</ele>
        <time>2021-10-23T14:47:24Z</time>
      </trkpt>
      <trkpt lat="46.57269" lon="5.37852">
        <ele>214.8</ele>
        <time>2021-10-23T14:47:27Z</time>
      </trkpt>
      <trkpt lat="46.57264" lon="5.37841">
        <ele>215.2</ele>
        <time>2021-10-23T14:47:28Z</time>
      </trkpt>
      <trkpt lat="46.57253" lon="5.37815">
        <ele>216.2</ele>
        <time>2021-10-23T14:47:31Z</time>
      </trkpt>
      <trkpt lat="46.57248" lon="5.37804">
        <ele>216.4</ele>
        <time>2021-10-23T14:47:32Z</time>
      </trkpt>
      <trkpt lat="46.57236" lon="5.3778">
        <ele>217.8</ele>
        <time>2021-10-23T14:47:35Z</time>
      </trkpt>
      <trkpt lat="46.57232" lon="5.37773">
        <ele>218</ele>
        <time>2021-10-23T14:47:36Z</time>
      </trkpt>
      <trkpt lat="46.57228" lon="5.37767">
        <ele>218.8</ele>
        <time>2021-10-23T14:47:37Z</time>
      </trkpt>
      <trkpt lat="46.57224" lon="5.37762">
        <ele>219.6</ele>
        <time>2021-10-23T14:47:38Z</time>
      </trkpt>
      <trkpt lat="46.57217" lon="5.37755">
        <ele>220</ele>
        <time>2021-10-23T14:47:40Z</time>
      </trkpt>
      <trkpt lat="46.57213" lon="5.37755">
        <ele>220.2</ele>
        <time>2021-10-23T14:47:41Z</time>
      </trkpt>
      <trkpt lat="46.57204" lon="5.37761">
        <ele>221.2</ele>
        <time>2021-10-23T14:47:44Z</time>
      </trkpt>
      <trkpt lat="46.57187" lon="5.37779">
        <ele>222.2</ele>
        <time>2021-10-23T14:47:49Z</time>
      </trkpt>
      <trkpt lat="46.57184" lon="5.37783">
        <ele>222.2</ele>
        <time>2021-10-23T14:47:50Z</time>
      </trkpt>
      <trkpt lat="46.57156" lon="5.37814">
        <ele>221.8</ele>
        <time>2021-10-23T14:47:56Z</time>
      </trkpt>
      <trkpt lat="46.57128" lon="5.37842">
        <ele>221</ele>
        <time>2021-10-23T14:48:01Z</time>
      </trkpt>
      <trkpt lat="46.57101" lon="5.37867">
        <ele>220</ele>
        <time>2021-10-23T14:48:05Z</time>
      </trkpt>
      <trkpt lat="46.57088" lon="5.37879">
        <ele>219</ele>
        <time>2021-10-23T14:48:07Z</time>
      </trkpt>
      <trkpt lat="46.57059" lon="5.37902">
        <ele>218</ele>
        <time>2021-10-23T14:48:12Z</time>
      </trkpt>
      <trkpt lat="46.57048" lon="5.37911">
        <ele>217.8</ele>
        <time>2021-10-23T14:48:14Z</time>
      </trkpt>
      <trkpt lat="46.57009" lon="5.37945">
        <ele>218.2</ele>
        <time>2021-10-23T14:48:22Z</time>
      </trkpt>
      <trkpt lat="46.56979" lon="5.37967">
        <ele>219</ele>
        <time>2021-10-23T14:48:28Z</time>
      </trkpt>
      <trkpt lat="46.56974" lon="5.37971">
        <ele>219</ele>
        <time>2021-10-23T14:48:29Z</time>
      </trkpt>
      <trkpt lat="46.56943" lon="5.37989">
        <ele>219.4</ele>
        <time>2021-10-23T14:48:35Z</time>
      </trkpt>
      <trkpt lat="46.56938" lon="5.3799">
        <ele>219.6</ele>
        <time>2021-10-23T14:48:36Z</time>
      </trkpt>
      <trkpt lat="46.56927" lon="5.37992">
        <ele>219.8</ele>
        <time>2021-10-23T14:48:38Z</time>
      </trkpt>
      <trkpt lat="46.56916" lon="5.3799">
        <ele>220.2</ele>
        <time>2021-10-23T14:48:40Z</time>
      </trkpt>
      <trkpt lat="46.56905" lon="5.37988">
        <ele>220.4</ele>
        <time>2021-10-23T14:48:42Z</time>
      </trkpt>
      <trkpt lat="46.56884" lon="5.37984">
        <ele>221.2</ele>
        <time>2021-10-23T14:48:46Z</time>
      </trkpt>
      <trkpt lat="46.56856" lon="5.37979">
        <ele>222.2</ele>
        <time>2021-10-23T14:48:51Z</time>
      </trkpt>
      <trkpt lat="46.56813" lon="5.37968">
        <ele>222.8</ele>
        <time>2021-10-23T14:48:58Z</time>
      </trkpt>
      <trkpt lat="46.56768" lon="5.37957">
        <ele>223</ele>
        <time>2021-10-23T14:49:05Z</time>
      </trkpt>
      <trkpt lat="46.56738" lon="5.37948">
        <ele>223.2</ele>
        <time>2021-10-23T14:49:10Z</time>
      </trkpt>
      <trkpt lat="46.56725" lon="5.37945">
        <ele>223.4</ele>
        <time>2021-10-23T14:49:12Z</time>
      </trkpt>
      <trkpt lat="46.56676" lon="5.37935">
        <ele>224</ele>
        <time>2021-10-23T14:49:20Z</time>
      </trkpt>
      <trkpt lat="46.56638" lon="5.37927">
        <ele>224.4</ele>
        <time>2021-10-23T14:49:26Z</time>
      </trkpt>
      <trkpt lat="46.56624" lon="5.37924">
        <ele>224.8</ele>
        <time>2021-10-23T14:49:28Z</time>
      </trkpt>
      <trkpt lat="46.56578" lon="5.37919">
        <ele>225</ele>
        <time>2021-10-23T14:49:35Z</time>
      </trkpt>
      <trkpt lat="46.56553" lon="5.37927">
        <ele>225</ele>
        <time>2021-10-23T14:49:39Z</time>
      </trkpt>
      <trkpt lat="46.56547" lon="5.37931">
        <ele>225</ele>
        <time>2021-10-23T14:49:40Z</time>
      </trkpt>
      <trkpt lat="46.56514" lon="5.37951">
        <ele>224.6</ele>
        <time>2021-10-23T14:49:45Z</time>
      </trkpt>
      <trkpt lat="46.56506" lon="5.37953">
        <ele>224.4</ele>
        <time>2021-10-23T14:49:46Z</time>
      </trkpt>
      <trkpt lat="46.56499" lon="5.37954">
        <ele>224.4</ele>
        <time>2021-10-23T14:49:47Z</time>
      </trkpt>
      <trkpt lat="46.56476" lon="5.3795">
        <ele>224.2</ele>
        <time>2021-10-23T14:49:50Z</time>
      </trkpt>
      <trkpt lat="46.56416" lon="5.37934">
        <ele>223.4</ele>
        <time>2021-10-23T14:49:58Z</time>
      </trkpt>
      <trkpt lat="46.56409" lon="5.37932">
        <ele>223.4</ele>
        <time>2021-10-23T14:49:59Z</time>
      </trkpt>
      <trkpt lat="46.56401" lon="5.37931">
        <ele>223.4</ele>
        <time>2021-10-23T14:50:00Z</time>
      </trkpt>
      <trkpt lat="46.56393" lon="5.37931">
        <ele>223.4</ele>
        <time>2021-10-23T14:50:01Z</time>
      </trkpt>
      <trkpt lat="46.56378" lon="5.37934">
        <ele>223.2</ele>
        <time>2021-10-23T14:50:03Z</time>
      </trkpt>
      <trkpt lat="46.56362" lon="5.37942">
        <ele>222.2</ele>
        <time>2021-10-23T14:50:05Z</time>
      </trkpt>
      <trkpt lat="46.56347" lon="5.3795">
        <ele>222</ele>
        <time>2021-10-23T14:50:07Z</time>
      </trkpt>
      <trkpt lat="46.56339" lon="5.37953">
        <ele>221.8</ele>
        <time>2021-10-23T14:50:08Z</time>
      </trkpt>
      <trkpt lat="46.5633" lon="5.37954">
        <ele>221.6</ele>
        <time>2021-10-23T14:50:09Z</time>
      </trkpt>
      <trkpt lat="46.56306" lon="5.37952">
        <ele>221.4</ele>
        <time>2021-10-23T14:50:12Z</time>
      </trkpt>
      <trkpt lat="46.5629" lon="5.37953">
        <ele>221</ele>
        <time>2021-10-23T14:50:14Z</time>
      </trkpt>
      <trkpt lat="46.56275" lon="5.37956">
        <ele>220.8</ele>
        <time>2021-10-23T14:50:16Z</time>
      </trkpt>
      <trkpt lat="46.56267" lon="5.37959">
        <ele>220.8</ele>
        <time>2021-10-23T14:50:17Z</time>
      </trkpt>
      <trkpt lat="46.56226" lon="5.3798">
        <ele>220.8</ele>
        <time>2021-10-23T14:50:23Z</time>
      </trkpt>
      <trkpt lat="46.5622" lon="5.37984">
        <ele>220.8</ele>
        <time>2021-10-23T14:50:24Z</time>
      </trkpt>
      <trkpt lat="46.56208" lon="5.37995">
        <ele>221</ele>
        <time>2021-10-23T14:50:26Z</time>
      </trkpt>
      <trkpt lat="46.56202" lon="5.38002">
        <ele>221</ele>
        <time>2021-10-23T14:50:27Z</time>
      </trkpt>
      <trkpt lat="46.56181" lon="5.38037">
        <ele>221.6</ele>
        <time>2021-10-23T14:50:32Z</time>
      </trkpt>
      <trkpt lat="46.56157" lon="5.38082">
        <ele>221.8</ele>
        <time>2021-10-23T14:50:38Z</time>
      </trkpt>
      <trkpt lat="46.56152" lon="5.38089">
        <ele>222</ele>
        <time>2021-10-23T14:50:39Z</time>
      </trkpt>
      <trkpt lat="46.56146" lon="5.38095">
        <ele>222</ele>
        <time>2021-10-23T14:50:40Z</time>
      </trkpt>
      <trkpt lat="46.56123" lon="5.38116">
        <ele>222.4</ele>
        <time>2021-10-23T14:50:44Z</time>
      </trkpt>
      <trkpt lat="46.56072" lon="5.38154">
        <ele>223</ele>
        <time>2021-10-23T14:50:53Z</time>
      </trkpt>
      <trkpt lat="46.56061" lon="5.38161">
        <ele>223</ele>
        <time>2021-10-23T14:50:55Z</time>
      </trkpt>
      <trkpt lat="46.5605" lon="5.38168">
        <ele>223.4</ele>
        <time>2021-10-23T14:50:57Z</time>
      </trkpt>
      <trkpt lat="46.56035" lon="5.3818">
        <ele>223.4</ele>
        <time>2021-10-23T14:51:00Z</time>
      </trkpt>
      <trkpt lat="46.56014" lon="5.38205">
        <ele>223.4</ele>
        <time>2021-10-23T14:51:05Z</time>
      </trkpt>
      <trkpt lat="46.56008" lon="5.3822">
        <ele>223.2</ele>
        <time>2021-10-23T14:51:07Z</time>
      </trkpt>
      <trkpt lat="46.56005" lon="5.38236">
        <ele>223.2</ele>
        <time>2021-10-23T14:51:09Z</time>
      </trkpt>
      <trkpt lat="46.55998" lon="5.38287">
        <ele>223.2</ele>
        <time>2021-10-23T14:51:15Z</time>
      </trkpt>
      <trkpt lat="46.5599" lon="5.38344">
        <ele>223.4</ele>
        <time>2021-10-23T14:51:22Z</time>
      </trkpt>
      <trkpt lat="46.55987" lon="5.38366">
        <ele>224.2</ele>
        <time>2021-10-23T14:51:25Z</time>
      </trkpt>
      <trkpt lat="46.55983" lon="5.38396">
        <ele>224.8</ele>
        <time>2021-10-23T14:51:29Z</time>
      </trkpt>
      <trkpt lat="46.55979" lon="5.38452">
        <ele>225.4</ele>
        <time>2021-10-23T14:51:36Z</time>
      </trkpt>
      <trkpt lat="46.55979" lon="5.3846">
        <ele>225.6</ele>
        <time>2021-10-23T14:51:37Z</time>
      </trkpt>
      <trkpt lat="46.55979" lon="5.38494">
        <ele>226.6</ele>
        <time>2021-10-23T14:51:41Z</time>
      </trkpt>
      <trkpt lat="46.55981" lon="5.38521">
        <ele>226.8</ele>
        <time>2021-10-23T14:51:44Z</time>
      </trkpt>
      <trkpt lat="46.5599" lon="5.3859">
        <ele>226.2</ele>
        <time>2021-10-23T14:51:51Z</time>
      </trkpt>
      <trkpt lat="46.56" lon="5.38666">
        <ele>226.2</ele>
        <time>2021-10-23T14:51:59Z</time>
      </trkpt>
      <trkpt lat="46.56002" lon="5.3872">
        <ele>226.2</ele>
        <time>2021-10-23T14:52:05Z</time>
      </trkpt>
      <trkpt lat="46.56004" lon="5.38738">
        <ele>226.2</ele>
        <time>2021-10-23T14:52:07Z</time>
      </trkpt>
      <trkpt lat="46.56008" lon="5.38768">
        <ele>226</ele>
        <time>2021-10-23T14:52:10Z</time>
      </trkpt>
      <trkpt lat="46.56008" lon="5.38815">
        <ele>225.4</ele>
        <time>2021-10-23T14:52:14Z</time>
      </trkpt>
      <trkpt lat="46.56001" lon="5.38853">
        <ele>223.8</ele>
        <time>2021-10-23T14:52:17Z</time>
      </trkpt>
      <trkpt lat="46.55995" lon="5.38877">
        <ele>222.8</ele>
        <time>2021-10-23T14:52:19Z</time>
      </trkpt>
      <trkpt lat="46.55988" lon="5.389">
        <ele>221.4</ele>
        <time>2021-10-23T14:52:21Z</time>
      </trkpt>
      <trkpt lat="46.55981" lon="5.38922">
        <ele>221</ele>
        <time>2021-10-23T14:52:23Z</time>
      </trkpt>
      <trkpt lat="46.55973" lon="5.38942">
        <ele>220.6</ele>
        <time>2021-10-23T14:52:25Z</time>
      </trkpt>
      <trkpt lat="46.55949" lon="5.39011">
        <ele>220.8</ele>
        <time>2021-10-23T14:52:32Z</time>
      </trkpt>
      <trkpt lat="46.55942" lon="5.39057">
        <ele>221.4</ele>
        <time>2021-10-23T14:52:37Z</time>
      </trkpt>
      <trkpt lat="46.55941" lon="5.39066">
        <ele>221.8</ele>
        <time>2021-10-23T14:52:38Z</time>
      </trkpt>
      <trkpt lat="46.55939" lon="5.39099">
        <ele>222.6</ele>
        <time>2021-10-23T14:52:42Z</time>
      </trkpt>
      <trkpt lat="46.55938" lon="5.39115">
        <ele>223.2</ele>
        <time>2021-10-23T14:52:44Z</time>
      </trkpt>
      <trkpt lat="46.55938" lon="5.39131">
        <ele>223.8</ele>
        <time>2021-10-23T14:52:46Z</time>
      </trkpt>
      <trkpt lat="46.55936" lon="5.39179">
        <ele>224.8</ele>
        <time>2021-10-23T14:52:52Z</time>
      </trkpt>
      <trkpt lat="46.55932" lon="5.39258">
        <ele>225.6</ele>
        <time>2021-10-23T14:53:02Z</time>
      </trkpt>
      <trkpt lat="46.55929" lon="5.39282">
        <ele>225.8</ele>
        <time>2021-10-23T14:53:05Z</time>
      </trkpt>
      <trkpt lat="46.55924" lon="5.39322">
        <ele>226.4</ele>
        <time>2021-10-23T14:53:10Z</time>
      </trkpt>
      <trkpt lat="46.55918" lon="5.39363">
        <ele>227.2</ele>
        <time>2021-10-23T14:53:15Z</time>
      </trkpt>
      <trkpt lat="46.55915" lon="5.39394">
        <ele>228</ele>
        <time>2021-10-23T14:53:19Z</time>
      </trkpt>
      <trkpt lat="46.55912" lon="5.39426">
        <ele>228.2</ele>
        <time>2021-10-23T14:53:23Z</time>
      </trkpt>
      <trkpt lat="46.55907" lon="5.39472">
        <ele>228.6</ele>
        <time>2021-10-23T14:53:29Z</time>
      </trkpt>
      <trkpt lat="46.559" lon="5.39527">
        <ele>229.2</ele>
        <time>2021-10-23T14:53:36Z</time>
      </trkpt>
      <trkpt lat="46.55897" lon="5.39551">
        <ele>229.8</ele>
        <time>2021-10-23T14:53:39Z</time>
      </trkpt>
      <trkpt lat="46.55891" lon="5.39599">
        <ele>230.4</ele>
        <time>2021-10-23T14:53:45Z</time>
      </trkpt>
      <trkpt lat="46.55885" lon="5.39638">
        <ele>230.4</ele>
        <time>2021-10-23T14:53:50Z</time>
      </trkpt>
      <trkpt lat="46.55883" lon="5.39645">
        <ele>230.4</ele>
        <time>2021-10-23T14:53:51Z</time>
      </trkpt>
      <trkpt lat="46.55868" lon="5.39704">
        <ele>231</ele>
        <time>2021-10-23T14:53:59Z</time>
      </trkpt>
      <trkpt lat="46.55859" lon="5.39738">
        <ele>231.6</ele>
        <time>2021-10-23T14:54:04Z</time>
      </trkpt>
      <trkpt lat="46.55857" lon="5.39745">
        <ele>231.6</ele>
        <time>2021-10-23T14:54:05Z</time>
      </trkpt>
      <trkpt lat="46.55854" lon="5.39758">
        <ele>231.8</ele>
        <time>2021-10-23T14:54:07Z</time>
      </trkpt>
      <trkpt lat="46.55844" lon="5.39797">
        <ele>232.6</ele>
        <time>2021-10-23T14:54:13Z</time>
      </trkpt>
      <trkpt lat="46.55838" lon="5.39817">
        <ele>233.2</ele>
        <time>2021-10-23T14:54:16Z</time>
      </trkpt>
      <trkpt lat="46.55831" lon="5.39843">
        <ele>233.6</ele>
        <time>2021-10-23T14:54:20Z</time>
      </trkpt>
      <trkpt lat="46.5583" lon="5.3985">
        <ele>233.6</ele>
        <time>2021-10-23T14:54:21Z</time>
      </trkpt>
      <trkpt lat="46.55825" lon="5.39864">
        <ele>233.6</ele>
        <time>2021-10-23T14:54:23Z</time>
      </trkpt>
      <trkpt lat="46.55809" lon="5.39911">
        <ele>232.8</ele>
        <time>2021-10-23T14:54:30Z</time>
      </trkpt>
      <trkpt lat="46.55802" lon="5.39915">
        <ele>232.6</ele>
        <time>2021-10-23T14:54:32Z</time>
      </trkpt>
      <trkpt lat="46.55799" lon="5.39914">
        <ele>232.6</ele>
        <time>2021-10-23T14:54:33Z</time>
      </trkpt>
      <trkpt lat="46.55774" lon="5.39894">
        <ele>233</ele>
        <time>2021-10-23T14:54:39Z</time>
      </trkpt>
      <trkpt lat="46.55752" lon="5.39878">
        <ele>233.6</ele>
        <time>2021-10-23T14:54:44Z</time>
      </trkpt>
      <trkpt lat="46.55743" lon="5.3987">
        <ele>233.6</ele>
        <time>2021-10-23T14:54:46Z</time>
      </trkpt>
      <trkpt lat="46.55716" lon="5.39844">
        <ele>234.6</ele>
        <time>2021-10-23T14:54:53Z</time>
      </trkpt>
      <trkpt lat="46.55708" lon="5.39836">
        <ele>235.2</ele>
        <time>2021-10-23T14:54:55Z</time>
      </trkpt>
      <trkpt lat="46.557" lon="5.39827">
        <ele>235.8</ele>
        <time>2021-10-23T14:54:57Z</time>
      </trkpt>
      <trkpt lat="46.55695" lon="5.39823">
        <ele>236</ele>
        <time>2021-10-23T14:54:58Z</time>
      </trkpt>
      <trkpt lat="46.55676" lon="5.39807">
        <ele>236.8</ele>
        <time>2021-10-23T14:55:02Z</time>
      </trkpt>
      <trkpt lat="46.55671" lon="5.39803">
        <ele>237</ele>
        <time>2021-10-23T14:55:03Z</time>
      </trkpt>
      <trkpt lat="46.55643" lon="5.39783">
        <ele>237.6</ele>
        <time>2021-10-23T14:55:08Z</time>
      </trkpt>
      <trkpt lat="46.55602" lon="5.39757">
        <ele>237.4</ele>
        <time>2021-10-23T14:55:14Z</time>
      </trkpt>
      <trkpt lat="46.55567" lon="5.39729">
        <ele>235.8</ele>
        <time>2021-10-23T14:55:19Z</time>
      </trkpt>
      <trkpt lat="46.55554" lon="5.39718">
        <ele>235.4</ele>
        <time>2021-10-23T14:55:21Z</time>
      </trkpt>
      <trkpt lat="46.55517" lon="5.39686">
        <ele>235.2</ele>
        <time>2021-10-23T14:55:27Z</time>
      </trkpt>
      <trkpt lat="46.55466" lon="5.39646">
        <ele>236</ele>
        <time>2021-10-23T14:55:35Z</time>
      </trkpt>
      <trkpt lat="46.5542" lon="5.39607">
        <ele>236.8</ele>
        <time>2021-10-23T14:55:43Z</time>
      </trkpt>
      <trkpt lat="46.55414" lon="5.39602">
        <ele>237</ele>
        <time>2021-10-23T14:55:44Z</time>
      </trkpt>
      <trkpt lat="46.55399" lon="5.39589">
        <ele>238</ele>
        <time>2021-10-23T14:55:47Z</time>
      </trkpt>
      <trkpt lat="46.55373" lon="5.39566">
        <ele>239</ele>
        <time>2021-10-23T14:55:52Z</time>
      </trkpt>
      <trkpt lat="46.55368" lon="5.39562">
        <ele>239.2</ele>
        <time>2021-10-23T14:55:53Z</time>
      </trkpt>
      <trkpt lat="46.55331" lon="5.39532">
        <ele>239.8</ele>
        <time>2021-10-23T14:56:00Z</time>
      </trkpt>
      <trkpt lat="46.55296" lon="5.39506">
        <ele>240.2</ele>
        <time>2021-10-23T14:56:06Z</time>
      </trkpt>
      <trkpt lat="46.55271" lon="5.39487">
        <ele>240.4</ele>
        <time>2021-10-23T14:56:10Z</time>
      </trkpt>
      <trkpt lat="46.55234" lon="5.39453">
        <ele>240.6</ele>
        <time>2021-10-23T14:56:16Z</time>
      </trkpt>
      <trkpt lat="46.55228" lon="5.39445">
        <ele>240.6</ele>
        <time>2021-10-23T14:56:17Z</time>
      </trkpt>
      <trkpt lat="46.55223" lon="5.39438">
        <ele>240.6</ele>
        <time>2021-10-23T14:56:18Z</time>
      </trkpt>
      <trkpt lat="46.5521" lon="5.39428">
        <ele>240.4</ele>
        <time>2021-10-23T14:56:20Z</time>
      </trkpt>
      <trkpt lat="46.55181" lon="5.39425">
        <ele>239.6</ele>
        <time>2021-10-23T14:56:24Z</time>
      </trkpt>
      <trkpt lat="46.55139" lon="5.39415">
        <ele>239.6</ele>
        <time>2021-10-23T14:56:30Z</time>
      </trkpt>
      <trkpt lat="46.55085" lon="5.39389">
        <ele>240</ele>
        <time>2021-10-23T14:56:38Z</time>
      </trkpt>
      <trkpt lat="46.55062" lon="5.39378">
        <ele>240</ele>
        <time>2021-10-23T14:56:41Z</time>
      </trkpt>
      <trkpt lat="46.55014" lon="5.39348">
        <ele>239</ele>
        <time>2021-10-23T14:56:47Z</time>
      </trkpt>
      <trkpt lat="46.54985" lon="5.39332">
        <ele>238</ele>
        <time>2021-10-23T14:56:50Z</time>
      </trkpt>
      <trkpt lat="46.54966" lon="5.39323">
        <ele>236</ele>
        <time>2021-10-23T14:56:52Z</time>
      </trkpt>
      <trkpt lat="46.54946" lon="5.39314">
        <ele>234.6</ele>
        <time>2021-10-23T14:56:54Z</time>
      </trkpt>
      <trkpt lat="46.54911" lon="5.39302">
        <ele>234</ele>
        <time>2021-10-23T14:56:58Z</time>
      </trkpt>
      <trkpt lat="46.54873" lon="5.39289">
        <ele>235.2</ele>
        <time>2021-10-23T14:57:03Z</time>
      </trkpt>
      <trkpt lat="46.54866" lon="5.39286">
        <ele>235.8</ele>
        <time>2021-10-23T14:57:04Z</time>
      </trkpt>
      <trkpt lat="46.54852" lon="5.39282">
        <ele>236.8</ele>
        <time>2021-10-23T14:57:06Z</time>
      </trkpt>
      <trkpt lat="46.54824" lon="5.39269">
        <ele>238.2</ele>
        <time>2021-10-23T14:57:10Z</time>
      </trkpt>
      <trkpt lat="46.54817" lon="5.39266">
        <ele>238.6</ele>
        <time>2021-10-23T14:57:11Z</time>
      </trkpt>
      <trkpt lat="46.54804" lon="5.39259">
        <ele>239.6</ele>
        <time>2021-10-23T14:57:13Z</time>
      </trkpt>
      <trkpt lat="46.54784" lon="5.39247">
        <ele>240.6</ele>
        <time>2021-10-23T14:57:16Z</time>
      </trkpt>
      <trkpt lat="46.54756" lon="5.39234">
        <ele>241.2</ele>
        <time>2021-10-23T14:57:20Z</time>
      </trkpt>
      <trkpt lat="46.54735" lon="5.39224">
        <ele>241.6</ele>
        <time>2021-10-23T14:57:23Z</time>
      </trkpt>
      <trkpt lat="46.54703" lon="5.39207">
        <ele>242.8</ele>
        <time>2021-10-23T14:57:28Z</time>
      </trkpt>
      <trkpt lat="46.54696" lon="5.39204">
        <ele>243</ele>
        <time>2021-10-23T14:57:29Z</time>
      </trkpt>
      <trkpt lat="46.54651" lon="5.39184">
        <ele>243.6</ele>
        <time>2021-10-23T14:57:35Z</time>
      </trkpt>
      <trkpt lat="46.54603" lon="5.39162">
        <ele>243.2</ele>
        <time>2021-10-23T14:57:40Z</time>
      </trkpt>
      <trkpt lat="46.54593" lon="5.39158">
        <ele>243</ele>
        <time>2021-10-23T14:57:41Z</time>
      </trkpt>
      <trkpt lat="46.54554" lon="5.39137">
        <ele>242.8</ele>
        <time>2021-10-23T14:57:45Z</time>
      </trkpt>
      <trkpt lat="46.54522" lon="5.39117">
        <ele>243.8</ele>
        <time>2021-10-23T14:57:49Z</time>
      </trkpt>
      <trkpt lat="46.54516" lon="5.39113">
        <ele>244.2</ele>
        <time>2021-10-23T14:57:50Z</time>
      </trkpt>
      <trkpt lat="46.54508" lon="5.39109">
        <ele>245.6</ele>
        <time>2021-10-23T14:57:52Z</time>
      </trkpt>
      <trkpt lat="46.54503" lon="5.39108">
        <ele>246.6</ele>
        <time>2021-10-23T14:57:54Z</time>
      </trkpt>
      <trkpt lat="46.54501" lon="5.39111">
        <ele>246.8</ele>
        <time>2021-10-23T14:57:55Z</time>
      </trkpt>
      <trkpt lat="46.54503" lon="5.39117">
        <ele>247.6</ele>
        <time>2021-10-23T14:57:58Z</time>
      </trkpt>
      <trkpt lat="46.54505" lon="5.39115">
        <ele>247.8</ele>
        <time>2021-10-23T14:58:00Z</time>
      </trkpt>
      <trkpt lat="46.54503" lon="5.39112">
        <ele>248.2</ele>
        <time>2021-10-23T14:58:02Z</time>
      </trkpt>
      <trkpt lat="46.545" lon="5.39117">
        <ele>248.2</ele>
        <time>2021-10-23T14:58:05Z</time>
      </trkpt>
      <trkpt lat="46.54497" lon="5.39137">
        <ele>248.4</ele>
        <time>2021-10-23T14:58:10Z</time>
      </trkpt>
      <trkpt lat="46.54492" lon="5.39145">
        <ele>248.4</ele>
        <time>2021-10-23T14:58:12Z</time>
      </trkpt>
      <trkpt lat="46.54488" lon="5.39146">
        <ele>248.4</ele>
        <time>2021-10-23T14:58:13Z</time>
      </trkpt>
      <trkpt lat="46.54483" lon="5.39146">
        <ele>248.4</ele>
        <time>2021-10-23T14:58:14Z</time>
      </trkpt>
      <trkpt lat="46.54473" lon="5.39142">
        <ele>248.4</ele>
        <time>2021-10-23T14:58:16Z</time>
      </trkpt>
      <trkpt lat="46.54438" lon="5.39129">
        <ele>247</ele>
        <time>2021-10-23T14:58:21Z</time>
      </trkpt>
      <trkpt lat="46.54421" lon="5.39125">
        <ele>245.8</ele>
        <time>2021-10-23T14:58:23Z</time>
      </trkpt>
      <trkpt lat="46.54395" lon="5.39117">
        <ele>244.2</ele>
        <time>2021-10-23T14:58:26Z</time>
      </trkpt>
      <trkpt lat="46.54377" lon="5.3911">
        <ele>243</ele>
        <time>2021-10-23T14:58:28Z</time>
      </trkpt>
      <trkpt lat="46.5435" lon="5.39101">
        <ele>241.4</ele>
        <time>2021-10-23T14:58:31Z</time>
      </trkpt>
      <trkpt lat="46.54342" lon="5.39098">
        <ele>241.2</ele>
        <time>2021-10-23T14:58:32Z</time>
      </trkpt>
      <trkpt lat="46.54285" lon="5.39069">
        <ele>240.4</ele>
        <time>2021-10-23T14:58:39Z</time>
      </trkpt>
      <trkpt lat="46.54232" lon="5.39041">
        <ele>240.2</ele>
        <time>2021-10-23T14:58:46Z</time>
      </trkpt>
      <trkpt lat="46.54224" lon="5.39037">
        <ele>240.2</ele>
        <time>2021-10-23T14:58:47Z</time>
      </trkpt>
      <trkpt lat="46.54172" lon="5.39013">
        <ele>240.8</ele>
        <time>2021-10-23T14:58:54Z</time>
      </trkpt>
      <trkpt lat="46.54156" lon="5.39006">
        <ele>240.8</ele>
        <time>2021-10-23T14:58:56Z</time>
      </trkpt>
      <trkpt lat="46.54109" lon="5.3899">
        <ele>241.4</ele>
        <time>2021-10-23T14:59:02Z</time>
      </trkpt>
      <trkpt lat="46.54094" lon="5.38985">
        <ele>241.6</ele>
        <time>2021-10-23T14:59:04Z</time>
      </trkpt>
      <trkpt lat="46.54059" lon="5.38968">
        <ele>241.6</ele>
        <time>2021-10-23T14:59:09Z</time>
      </trkpt>
      <trkpt lat="46.54024" lon="5.38955">
        <ele>241.8</ele>
        <time>2021-10-23T14:59:14Z</time>
      </trkpt>
      <trkpt lat="46.53996" lon="5.38947">
        <ele>242.4</ele>
        <time>2021-10-23T14:59:18Z</time>
      </trkpt>
      <trkpt lat="46.53968" lon="5.38941">
        <ele>242.8</ele>
        <time>2021-10-23T14:59:22Z</time>
      </trkpt>
      <trkpt lat="46.5391" lon="5.38936">
        <ele>243</ele>
        <time>2021-10-23T14:59:30Z</time>
      </trkpt>
      <trkpt lat="46.53903" lon="5.38935">
        <ele>243</ele>
        <time>2021-10-23T14:59:31Z</time>
      </trkpt>
      <trkpt lat="46.53862" lon="5.38933">
        <ele>243.6</ele>
        <time>2021-10-23T14:59:37Z</time>
      </trkpt>
      <trkpt lat="46.53849" lon="5.38931">
        <ele>243.6</ele>
        <time>2021-10-23T14:59:39Z</time>
      </trkpt>
      <trkpt lat="46.53842" lon="5.38929">
        <ele>243.6</ele>
        <time>2021-10-23T14:59:40Z</time>
      </trkpt>
      <trkpt lat="46.53808" lon="5.38914">
        <ele>244.2</ele>
        <time>2021-10-23T14:59:45Z</time>
      </trkpt>
      <trkpt lat="46.53752" lon="5.38897">
        <ele>244.2</ele>
        <time>2021-10-23T14:59:53Z</time>
      </trkpt>
      <trkpt lat="46.53746" lon="5.38894">
        <ele>244.2</ele>
        <time>2021-10-23T14:59:54Z</time>
      </trkpt>
      <trkpt lat="46.53702" lon="5.38876">
        <ele>244.2</ele>
        <time>2021-10-23T15:00:01Z</time>
      </trkpt>
      <trkpt lat="46.53661" lon="5.38861">
        <ele>244.4</ele>
        <time>2021-10-23T15:00:08Z</time>
      </trkpt>
      <trkpt lat="46.53655" lon="5.38858">
        <ele>244.6</ele>
        <time>2021-10-23T15:00:09Z</time>
      </trkpt>
      <trkpt lat="46.53611" lon="5.38834">
        <ele>245</ele>
        <time>2021-10-23T15:00:16Z</time>
      </trkpt>
      <trkpt lat="46.53571" lon="5.38811">
        <ele>245.4</ele>
        <time>2021-10-23T15:00:23Z</time>
      </trkpt>
      <trkpt lat="46.53555" lon="5.38797">
        <ele>245.4</ele>
        <time>2021-10-23T15:00:26Z</time>
      </trkpt>
      <trkpt lat="46.53551" lon="5.38791">
        <ele>245.4</ele>
        <time>2021-10-23T15:00:27Z</time>
      </trkpt>
      <trkpt lat="46.53533" lon="5.38762">
        <ele>245</ele>
        <time>2021-10-23T15:00:31Z</time>
      </trkpt>
      <trkpt lat="46.53523" lon="5.38751">
        <ele>244.6</ele>
        <time>2021-10-23T15:00:33Z</time>
      </trkpt>
      <trkpt lat="46.53513" lon="5.38745">
        <ele>243.8</ele>
        <time>2021-10-23T15:00:35Z</time>
      </trkpt>
      <trkpt lat="46.53509" lon="5.38744">
        <ele>243.6</ele>
        <time>2021-10-23T15:00:36Z</time>
      </trkpt>
      <trkpt lat="46.53505" lon="5.38745">
        <ele>243.4</ele>
        <time>2021-10-23T15:00:37Z</time>
      </trkpt>
      <trkpt lat="46.53498" lon="5.38749">
        <ele>243.2</ele>
        <time>2021-10-23T15:00:40Z</time>
      </trkpt>
      <trkpt lat="46.53494" lon="5.3875">
        <ele>243.2</ele>
        <time>2021-10-23T15:00:42Z</time>
      </trkpt>
      <trkpt lat="46.53492" lon="5.38749">
        <ele>243.2</ele>
        <time>2021-10-23T15:00:44Z</time>
      </trkpt>
      <trkpt lat="46.53489" lon="5.38747">
        <ele>243.4</ele>
        <time>2021-10-23T15:00:47Z</time>
      </trkpt>
      <trkpt lat="46.53487" lon="5.38744">
        <ele>243.4</ele>
        <time>2021-10-23T15:00:49Z</time>
      </trkpt>
      <trkpt lat="46.53478" lon="5.38727">
        <ele>243.4</ele>
        <time>2021-10-23T15:00:55Z</time>
      </trkpt>
      <trkpt lat="46.53464" lon="5.38717">
        <ele>243.2</ele>
        <time>2021-10-23T15:01:01Z</time>
      </trkpt>
      <trkpt lat="46.53442" lon="5.38709">
        <ele>243.2</ele>
        <time>2021-10-23T15:01:06Z</time>
      </trkpt>
      <trkpt lat="46.53398" lon="5.38702">
        <ele>243.4</ele>
        <time>2021-10-23T15:01:15Z</time>
      </trkpt>
      <trkpt lat="46.53353" lon="5.38699">
        <ele>243</ele>
        <time>2021-10-23T15:01:23Z</time>
      </trkpt>
      <trkpt lat="46.53314" lon="5.38694">
        <ele>242.6</ele>
        <time>2021-10-23T15:01:30Z</time>
      </trkpt>
      <trkpt lat="46.53302" lon="5.38689">
        <ele>242.2</ele>
        <time>2021-10-23T15:01:32Z</time>
      </trkpt>
      <trkpt lat="46.5326" lon="5.38673">
        <ele>241</ele>
        <time>2021-10-23T15:01:39Z</time>
      </trkpt>
      <trkpt lat="46.53214" lon="5.38653">
        <ele>240</ele>
        <time>2021-10-23T15:01:46Z</time>
      </trkpt>
      <trkpt lat="46.53196" lon="5.38639">
        <ele>239.4</ele>
        <time>2021-10-23T15:01:49Z</time>
      </trkpt>
      <trkpt lat="46.53185" lon="5.38625">
        <ele>238.8</ele>
        <time>2021-10-23T15:01:51Z</time>
      </trkpt>
      <trkpt lat="46.53167" lon="5.38607">
        <ele>238.2</ele>
        <time>2021-10-23T15:01:54Z</time>
      </trkpt>
      <trkpt lat="46.53153" lon="5.38597">
        <ele>237.8</ele>
        <time>2021-10-23T15:01:56Z</time>
      </trkpt>
      <trkpt lat="46.53128" lon="5.38583">
        <ele>236.4</ele>
        <time>2021-10-23T15:02:00Z</time>
      </trkpt>
      <trkpt lat="46.53123" lon="5.3858">
        <ele>236</ele>
        <time>2021-10-23T15:02:01Z</time>
      </trkpt>
      <trkpt lat="46.53111" lon="5.38581">
        <ele>235.4</ele>
        <time>2021-10-23T15:02:03Z</time>
      </trkpt>
      <trkpt lat="46.53105" lon="5.38584">
        <ele>235.2</ele>
        <time>2021-10-23T15:02:04Z</time>
      </trkpt>
      <trkpt lat="46.53062" lon="5.38597">
        <ele>234.4</ele>
        <time>2021-10-23T15:02:10Z</time>
      </trkpt>
      <trkpt lat="46.53054" lon="5.38599">
        <ele>234.2</ele>
        <time>2021-10-23T15:02:11Z</time>
      </trkpt>
      <trkpt lat="46.53016" lon="5.38607">
        <ele>233.2</ele>
        <time>2021-10-23T15:02:16Z</time>
      </trkpt>
      <trkpt lat="46.53008" lon="5.38607">
        <ele>233</ele>
        <time>2021-10-23T15:02:17Z</time>
      </trkpt>
      <trkpt lat="46.52999" lon="5.38608">
        <ele>232.6</ele>
        <time>2021-10-23T15:02:18Z</time>
      </trkpt>
      <trkpt lat="46.52975" lon="5.38605">
        <ele>232.2</ele>
        <time>2021-10-23T15:02:21Z</time>
      </trkpt>
      <trkpt lat="46.52959" lon="5.38601">
        <ele>231.8</ele>
        <time>2021-10-23T15:02:23Z</time>
      </trkpt>
      <trkpt lat="46.52951" lon="5.38601">
        <ele>231.6</ele>
        <time>2021-10-23T15:02:24Z</time>
      </trkpt>
      <trkpt lat="46.52937" lon="5.38603">
        <ele>230.8</ele>
        <time>2021-10-23T15:02:26Z</time>
      </trkpt>
      <trkpt lat="46.52931" lon="5.38604">
        <ele>230</ele>
        <time>2021-10-23T15:02:27Z</time>
      </trkpt>
      <trkpt lat="46.52926" lon="5.38604">
        <ele>229.8</ele>
        <time>2021-10-23T15:02:28Z</time>
      </trkpt>
      <trkpt lat="46.52918" lon="5.38602">
        <ele>229.2</ele>
        <time>2021-10-23T15:02:30Z</time>
      </trkpt>
      <trkpt lat="46.52914" lon="5.38599">
        <ele>228.6</ele>
        <time>2021-10-23T15:02:32Z</time>
      </trkpt>
      <trkpt lat="46.52911" lon="5.38598">
        <ele>228.4</ele>
        <time>2021-10-23T15:02:34Z</time>
      </trkpt>
      <trkpt lat="46.52903" lon="5.38605">
        <ele>227.8</ele>
        <time>2021-10-23T15:02:38Z</time>
      </trkpt>
      <trkpt lat="46.52899" lon="5.38608">
        <ele>227.8</ele>
        <time>2021-10-23T15:02:39Z</time>
      </trkpt>
      <trkpt lat="46.52888" lon="5.38609">
        <ele>227.6</ele>
        <time>2021-10-23T15:02:42Z</time>
      </trkpt>
      <trkpt lat="46.52884" lon="5.38608">
        <ele>227.6</ele>
        <time>2021-10-23T15:02:43Z</time>
      </trkpt>
      <trkpt lat="46.52866" lon="5.38606">
        <ele>226.6</ele>
        <time>2021-10-23T15:02:47Z</time>
      </trkpt>
      <trkpt lat="46.52838" lon="5.386">
        <ele>225.4</ele>
        <time>2021-10-23T15:02:52Z</time>
      </trkpt>
      <trkpt lat="46.52814" lon="5.38591">
        <ele>225</ele>
        <time>2021-10-23T15:02:56Z</time>
      </trkpt>
      <trkpt lat="46.52804" lon="5.38582">
        <ele>224.8</ele>
        <time>2021-10-23T15:02:58Z</time>
      </trkpt>
      <trkpt lat="46.52792" lon="5.38563">
        <ele>224.4</ele>
        <time>2021-10-23T15:03:01Z</time>
      </trkpt>
      <trkpt lat="46.52788" lon="5.38555">
        <ele>224.2</ele>
        <time>2021-10-23T15:03:02Z</time>
      </trkpt>
      <trkpt lat="46.5278" lon="5.38536">
        <ele>224.4</ele>
        <time>2021-10-23T15:03:05Z</time>
      </trkpt>
      <trkpt lat="46.52776" lon="5.38531">
        <ele>224.6</ele>
        <time>2021-10-23T15:03:06Z</time>
      </trkpt>
      <trkpt lat="46.52771" lon="5.38529">
        <ele>224.6</ele>
        <time>2021-10-23T15:03:07Z</time>
      </trkpt>
      <trkpt lat="46.52761" lon="5.38529">
        <ele>224.8</ele>
        <time>2021-10-23T15:03:09Z</time>
      </trkpt>
      <trkpt lat="46.52751" lon="5.38531">
        <ele>224.8</ele>
        <time>2021-10-23T15:03:11Z</time>
      </trkpt>
      <trkpt lat="46.52741" lon="5.38535">
        <ele>224.8</ele>
        <time>2021-10-23T15:03:13Z</time>
      </trkpt>
      <trkpt lat="46.52736" lon="5.38535">
        <ele>224.8</ele>
        <time>2021-10-23T15:03:14Z</time>
      </trkpt>
      <trkpt lat="46.52732" lon="5.38534">
        <ele>225</ele>
        <time>2021-10-23T15:03:15Z</time>
      </trkpt>
      <trkpt lat="46.52719" lon="5.38528">
        <ele>225.2</ele>
        <time>2021-10-23T15:03:18Z</time>
      </trkpt>
      <trkpt lat="46.52714" lon="5.38526">
        <ele>225.4</ele>
        <time>2021-10-23T15:03:19Z</time>
      </trkpt>
      <trkpt lat="46.52679" lon="5.38512">
        <ele>226.2</ele>
        <time>2021-10-23T15:03:26Z</time>
      </trkpt>
      <trkpt lat="46.52643" lon="5.38507">
        <ele>226.2</ele>
        <time>2021-10-23T15:03:33Z</time>
      </trkpt>
      <trkpt lat="46.52612" lon="5.38503">
        <ele>226.4</ele>
        <time>2021-10-23T15:03:39Z</time>
      </trkpt>
      <trkpt lat="46.52597" lon="5.38501">
        <ele>226.6</ele>
        <time>2021-10-23T15:03:42Z</time>
      </trkpt>
      <trkpt lat="46.52557" lon="5.38485">
        <ele>227.8</ele>
        <time>2021-10-23T15:03:50Z</time>
      </trkpt>
      <trkpt lat="46.52535" lon="5.38461">
        <ele>228.4</ele>
        <time>2021-10-23T15:03:55Z</time>
      </trkpt>
      <trkpt lat="46.52529" lon="5.38447">
        <ele>228.4</ele>
        <time>2021-10-23T15:03:57Z</time>
      </trkpt>
      <trkpt lat="46.52525" lon="5.38433">
        <ele>228.6</ele>
        <time>2021-10-23T15:03:59Z</time>
      </trkpt>
      <trkpt lat="46.52524" lon="5.38425">
        <ele>228.8</ele>
        <time>2021-10-23T15:04:00Z</time>
      </trkpt>
      <trkpt lat="46.52524" lon="5.38417">
        <ele>228.8</ele>
        <time>2021-10-23T15:04:01Z</time>
      </trkpt>
      <trkpt lat="46.52523" lon="5.38394">
        <ele>229.2</ele>
        <time>2021-10-23T15:04:04Z</time>
      </trkpt>
      <trkpt lat="46.52524" lon="5.38377">
        <ele>229.2</ele>
        <time>2021-10-23T15:04:06Z</time>
      </trkpt>
      <trkpt lat="46.52518" lon="5.38329">
        <ele>228.2</ele>
        <time>2021-10-23T15:04:11Z</time>
      </trkpt>
      <trkpt lat="46.52514" lon="5.38297">
        <ele>227.4</ele>
        <time>2021-10-23T15:04:14Z</time>
      </trkpt>
      <trkpt lat="46.52512" lon="5.38274">
        <ele>227</ele>
        <time>2021-10-23T15:04:16Z</time>
      </trkpt>
      <trkpt lat="46.52513" lon="5.38263">
        <ele>226.6</ele>
        <time>2021-10-23T15:04:17Z</time>
      </trkpt>
      <trkpt lat="46.52514" lon="5.38252">
        <ele>226.4</ele>
        <time>2021-10-23T15:04:18Z</time>
      </trkpt>
      <trkpt lat="46.52523" lon="5.38207">
        <ele>225.6</ele>
        <time>2021-10-23T15:04:22Z</time>
      </trkpt>
      <trkpt lat="46.52525" lon="5.38196">
        <ele>225.4</ele>
        <time>2021-10-23T15:04:23Z</time>
      </trkpt>
      <trkpt lat="46.52531" lon="5.38173">
        <ele>223.8</ele>
        <time>2021-10-23T15:04:25Z</time>
      </trkpt>
      <trkpt lat="46.52541" lon="5.38128">
        <ele>222.8</ele>
        <time>2021-10-23T15:04:29Z</time>
      </trkpt>
      <trkpt lat="46.52543" lon="5.38117">
        <ele>222.4</ele>
        <time>2021-10-23T15:04:30Z</time>
      </trkpt>
      <trkpt lat="46.52544" lon="5.38083">
        <ele>221.8</ele>
        <time>2021-10-23T15:04:33Z</time>
      </trkpt>
      <trkpt lat="46.52543" lon="5.3806">
        <ele>221.6</ele>
        <time>2021-10-23T15:04:35Z</time>
      </trkpt>
      <trkpt lat="46.52534" lon="5.38006">
        <ele>221.4</ele>
        <time>2021-10-23T15:04:40Z</time>
      </trkpt>
      <trkpt lat="46.5252" lon="5.37954">
        <ele>221</ele>
        <time>2021-10-23T15:04:45Z</time>
      </trkpt>
      <trkpt lat="46.52519" lon="5.37942">
        <ele>221</ele>
        <time>2021-10-23T15:04:46Z</time>
      </trkpt>
      <trkpt lat="46.52519" lon="5.37931">
        <ele>220.8</ele>
        <time>2021-10-23T15:04:47Z</time>
      </trkpt>
      <trkpt lat="46.52521" lon="5.37884">
        <ele>220.2</ele>
        <time>2021-10-23T15:04:51Z</time>
      </trkpt>
      <trkpt lat="46.52524" lon="5.37851">
        <ele>219.6</ele>
        <time>2021-10-23T15:04:54Z</time>
      </trkpt>
      <trkpt lat="46.52529" lon="5.37787">
        <ele>220</ele>
        <time>2021-10-23T15:05:00Z</time>
      </trkpt>
      <trkpt lat="46.52534" lon="5.37701">
        <ele>219.4</ele>
        <time>2021-10-23T15:05:08Z</time>
      </trkpt>
      <trkpt lat="46.52534" lon="5.3769">
        <ele>219.2</ele>
        <time>2021-10-23T15:05:09Z</time>
      </trkpt>
      <trkpt lat="46.52542" lon="5.37605">
        <ele>219.2</ele>
        <time>2021-10-23T15:05:17Z</time>
      </trkpt>
      <trkpt lat="46.52548" lon="5.37543">
        <ele>218.8</ele>
        <time>2021-10-23T15:05:23Z</time>
      </trkpt>
      <trkpt lat="46.52552" lon="5.37502">
        <ele>218.6</ele>
        <time>2021-10-23T15:05:27Z</time>
      </trkpt>
      <trkpt lat="46.52559" lon="5.37419">
        <ele>218.6</ele>
        <time>2021-10-23T15:05:35Z</time>
      </trkpt>
      <trkpt lat="46.5256" lon="5.37408">
        <ele>218.6</ele>
        <time>2021-10-23T15:05:36Z</time>
      </trkpt>
      <trkpt lat="46.52565" lon="5.37323">
        <ele>217.8</ele>
        <time>2021-10-23T15:05:44Z</time>
      </trkpt>
      <trkpt lat="46.52565" lon="5.37303">
        <ele>218</ele>
        <time>2021-10-23T15:05:46Z</time>
      </trkpt>
      <trkpt lat="46.52561" lon="5.37264">
        <ele>218</ele>
        <time>2021-10-23T15:05:50Z</time>
      </trkpt>
      <trkpt lat="46.52558" lon="5.37254">
        <ele>218</ele>
        <time>2021-10-23T15:05:51Z</time>
      </trkpt>
      <trkpt lat="46.52538" lon="5.37209">
        <ele>218</ele>
        <time>2021-10-23T15:05:56Z</time>
      </trkpt>
      <trkpt lat="46.52527" lon="5.37194">
        <ele>217.8</ele>
        <time>2021-10-23T15:05:58Z</time>
      </trkpt>
      <trkpt lat="46.52505" lon="5.37167">
        <ele>217.4</ele>
        <time>2021-10-23T15:06:02Z</time>
      </trkpt>
      <trkpt lat="46.52467" lon="5.3712">
        <ele>217</ele>
        <time>2021-10-23T15:06:09Z</time>
      </trkpt>
      <trkpt lat="46.52454" lon="5.37095">
        <ele>216.8</ele>
        <time>2021-10-23T15:06:12Z</time>
      </trkpt>
      <trkpt lat="46.52445" lon="5.37069">
        <ele>216.8</ele>
        <time>2021-10-23T15:06:15Z</time>
      </trkpt>
      <trkpt lat="46.52434" lon="5.37028">
        <ele>216.8</ele>
        <time>2021-10-23T15:06:20Z</time>
      </trkpt>
      <trkpt lat="46.52427" lon="5.37019">
        <ele>216.8</ele>
        <time>2021-10-23T15:06:22Z</time>
      </trkpt>
      <trkpt lat="46.52423" lon="5.3702">
        <ele>216.8</ele>
        <time>2021-10-23T15:06:23Z</time>
      </trkpt>
      <trkpt lat="46.52414" lon="5.37036">
        <ele>216.8</ele>
        <time>2021-10-23T15:06:26Z</time>
      </trkpt>
      <trkpt lat="46.52411" lon="5.37043">
        <ele>217</ele>
        <time>2021-10-23T15:06:27Z</time>
      </trkpt>
      <trkpt lat="46.52396" lon="5.37068">
        <ele>217</ele>
        <time>2021-10-23T15:06:31Z</time>
      </trkpt>
      <trkpt lat="46.52369" lon="5.37098">
        <ele>217.2</ele>
        <time>2021-10-23T15:06:37Z</time>
      </trkpt>
      <trkpt lat="46.52336" lon="5.37134">
        <ele>218</ele>
        <time>2021-10-23T15:06:45Z</time>
      </trkpt>
      <trkpt lat="46.52332" lon="5.37137">
        <ele>218.2</ele>
        <time>2021-10-23T15:06:46Z</time>
      </trkpt>
      <trkpt lat="46.52325" lon="5.37144">
        <ele>218.6</ele>
        <time>2021-10-23T15:06:48Z</time>
      </trkpt>
      <trkpt lat="46.52318" lon="5.3715">
        <ele>218.8</ele>
        <time>2021-10-23T15:06:50Z</time>
      </trkpt>
      <trkpt lat="46.52315" lon="5.37154">
        <ele>219</ele>
        <time>2021-10-23T15:06:51Z</time>
      </trkpt>
      <trkpt lat="46.52304" lon="5.37164">
        <ele>220</ele>
        <time>2021-10-23T15:06:54Z</time>
      </trkpt>
      <trkpt lat="46.52301" lon="5.37169">
        <ele>220.2</ele>
        <time>2021-10-23T15:06:55Z</time>
      </trkpt>
      <trkpt lat="46.52294" lon="5.37177">
        <ele>220.6</ele>
        <time>2021-10-23T15:06:57Z</time>
      </trkpt>
      <trkpt lat="46.5228" lon="5.37193">
        <ele>221.2</ele>
        <time>2021-10-23T15:07:01Z</time>
      </trkpt>
      <trkpt lat="46.52266" lon="5.37208">
        <ele>222</ele>
        <time>2021-10-23T15:07:05Z</time>
      </trkpt>
      <trkpt lat="46.52259" lon="5.37216">
        <ele>222.4</ele>
        <time>2021-10-23T15:07:07Z</time>
      </trkpt>
      <trkpt lat="46.52241" lon="5.37233">
        <ele>223.6</ele>
        <time>2021-10-23T15:07:12Z</time>
      </trkpt>
      <trkpt lat="46.52237" lon="5.37236">
        <ele>223.8</ele>
        <time>2021-10-23T15:07:13Z</time>
      </trkpt>
      <trkpt lat="46.52219" lon="5.3725">
        <ele>224.6</ele>
        <time>2021-10-23T15:07:18Z</time>
      </trkpt>
      <trkpt lat="46.52207" lon="5.37258">
        <ele>225</ele>
        <time>2021-10-23T15:07:21Z</time>
      </trkpt>
      <trkpt lat="46.52191" lon="5.37269">
        <ele>225.8</ele>
        <time>2021-10-23T15:07:25Z</time>
      </trkpt>
      <trkpt lat="46.52179" lon="5.37278">
        <ele>226.6</ele>
        <time>2021-10-23T15:07:28Z</time>
      </trkpt>
      <trkpt lat="46.52164" lon="5.3729">
        <ele>226.8</ele>
        <time>2021-10-23T15:07:32Z</time>
      </trkpt>
      <trkpt lat="46.52152" lon="5.37299">
        <ele>227.2</ele>
        <time>2021-10-23T15:07:35Z</time>
      </trkpt>
      <trkpt lat="46.52141" lon="5.37308">
        <ele>227.8</ele>
        <time>2021-10-23T15:07:38Z</time>
      </trkpt>
      <trkpt lat="46.52124" lon="5.37321">
        <ele>229</ele>
        <time>2021-10-23T15:07:43Z</time>
      </trkpt>
      <trkpt lat="46.5212" lon="5.37323">
        <ele>229.4</ele>
        <time>2021-10-23T15:07:44Z</time>
      </trkpt>
      <trkpt lat="46.5211" lon="5.3733">
        <ele>230.2</ele>
        <time>2021-10-23T15:07:47Z</time>
      </trkpt>
      <trkpt lat="46.52094" lon="5.37342">
        <ele>231.2</ele>
        <time>2021-10-23T15:07:52Z</time>
      </trkpt>
      <trkpt lat="46.52088" lon="5.37348">
        <ele>231.4</ele>
        <time>2021-10-23T15:07:54Z</time>
      </trkpt>
      <trkpt lat="46.5208" lon="5.37363">
        <ele>232</ele>
        <time>2021-10-23T15:07:58Z</time>
      </trkpt>
      <trkpt lat="46.52078" lon="5.37368">
        <ele>232.2</ele>
        <time>2021-10-23T15:07:59Z</time>
      </trkpt>
      <trkpt lat="46.52075" lon="5.37383">
        <ele>233.2</ele>
        <time>2021-10-23T15:08:02Z</time>
      </trkpt>
      <trkpt lat="46.52068" lon="5.37412">
        <ele>234</ele>
        <time>2021-10-23T15:08:07Z</time>
      </trkpt>
      <trkpt lat="46.52064" lon="5.37431">
        <ele>234.4</ele>
        <time>2021-10-23T15:08:10Z</time>
      </trkpt>
      <trkpt lat="46.52058" lon="5.37459">
        <ele>234.2</ele>
        <time>2021-10-23T15:08:14Z</time>
      </trkpt>
      <trkpt lat="46.52043" lon="5.37527">
        <ele>234.2</ele>
        <time>2021-10-23T15:08:22Z</time>
      </trkpt>
      <trkpt lat="46.52028" lon="5.37597">
        <ele>234.6</ele>
        <time>2021-10-23T15:08:30Z</time>
      </trkpt>
      <trkpt lat="46.52024" lon="5.37613">
        <ele>234.4</ele>
        <time>2021-10-23T15:08:32Z</time>
      </trkpt>
      <trkpt lat="46.52017" lon="5.37626">
        <ele>234.4</ele>
        <time>2021-10-23T15:08:34Z</time>
      </trkpt>
      <trkpt lat="46.52006" lon="5.37631">
        <ele>234.4</ele>
        <time>2021-10-23T15:08:36Z</time>
      </trkpt>
      <trkpt lat="46.52" lon="5.37632">
        <ele>234.4</ele>
        <time>2021-10-23T15:08:37Z</time>
      </trkpt>
      <trkpt lat="46.51959" lon="5.37637">
        <ele>234.6</ele>
        <time>2021-10-23T15:08:44Z</time>
      </trkpt>
      <trkpt lat="46.51903" lon="5.37647">
        <ele>235</ele>
        <time>2021-10-23T15:08:53Z</time>
      </trkpt>
      <trkpt lat="46.51846" lon="5.37649">
        <ele>235.6</ele>
        <time>2021-10-23T15:09:02Z</time>
      </trkpt>
      <trkpt lat="46.5179" lon="5.37652">
        <ele>235.2</ele>
        <time>2021-10-23T15:09:10Z</time>
      </trkpt>
      <trkpt lat="46.5176" lon="5.37646">
        <ele>234.2</ele>
        <time>2021-10-23T15:09:14Z</time>
      </trkpt>
      <trkpt lat="46.51745" lon="5.37641">
        <ele>233.8</ele>
        <time>2021-10-23T15:09:16Z</time>
      </trkpt>
      <trkpt lat="46.5173" lon="5.37637">
        <ele>233</ele>
        <time>2021-10-23T15:09:18Z</time>
      </trkpt>
      <trkpt lat="46.51708" lon="5.37632">
        <ele>232.4</ele>
        <time>2021-10-23T15:09:21Z</time>
      </trkpt>
      <trkpt lat="46.51692" lon="5.37634">
        <ele>232</ele>
        <time>2021-10-23T15:09:23Z</time>
      </trkpt>
      <trkpt lat="46.51667" lon="5.37654">
        <ele>231.4</ele>
        <time>2021-10-23T15:09:27Z</time>
      </trkpt>
      <trkpt lat="46.5164" lon="5.37667">
        <ele>231.4</ele>
        <time>2021-10-23T15:09:31Z</time>
      </trkpt>
      <trkpt lat="46.51601" lon="5.37681">
        <ele>231.4</ele>
        <time>2021-10-23T15:09:37Z</time>
      </trkpt>
      <trkpt lat="46.51551" lon="5.37685">
        <ele>232.4</ele>
        <time>2021-10-23T15:09:45Z</time>
      </trkpt>
      <trkpt lat="46.51545" lon="5.37687">
        <ele>232.4</ele>
        <time>2021-10-23T15:09:46Z</time>
      </trkpt>
      <trkpt lat="46.5151" lon="5.37697">
        <ele>233</ele>
        <time>2021-10-23T15:09:52Z</time>
      </trkpt>
      <trkpt lat="46.51454" lon="5.3771">
        <ele>234</ele>
        <time>2021-10-23T15:10:01Z</time>
      </trkpt>
      <trkpt lat="46.51448" lon="5.37711">
        <ele>234</ele>
        <time>2021-10-23T15:10:02Z</time>
      </trkpt>
      <trkpt lat="46.51423" lon="5.37719">
        <ele>234.6</ele>
        <time>2021-10-23T15:10:06Z</time>
      </trkpt>
      <trkpt lat="46.51411" lon="5.37722">
        <ele>234.8</ele>
        <time>2021-10-23T15:10:08Z</time>
      </trkpt>
      <trkpt lat="46.51405" lon="5.37724">
        <ele>235.2</ele>
        <time>2021-10-23T15:10:09Z</time>
      </trkpt>
      <trkpt lat="46.51394" lon="5.37728">
        <ele>235.6</ele>
        <time>2021-10-23T15:10:11Z</time>
      </trkpt>
      <trkpt lat="46.51377" lon="5.37736">
        <ele>236.4</ele>
        <time>2021-10-23T15:10:14Z</time>
      </trkpt>
      <trkpt lat="46.51344" lon="5.37752">
        <ele>237</ele>
        <time>2021-10-23T15:10:20Z</time>
      </trkpt>
      <trkpt lat="46.51334" lon="5.37757">
        <ele>237.6</ele>
        <time>2021-10-23T15:10:22Z</time>
      </trkpt>
      <trkpt lat="46.51303" lon="5.37773">
        <ele>238.4</ele>
        <time>2021-10-23T15:10:28Z</time>
      </trkpt>
      <trkpt lat="46.51292" lon="5.37778">
        <ele>238.6</ele>
        <time>2021-10-23T15:10:30Z</time>
      </trkpt>
      <trkpt lat="46.51261" lon="5.37795">
        <ele>239.6</ele>
        <time>2021-10-23T15:10:36Z</time>
      </trkpt>
      <trkpt lat="46.51255" lon="5.37797">
        <ele>239.8</ele>
        <time>2021-10-23T15:10:37Z</time>
      </trkpt>
      <trkpt lat="46.5122" lon="5.37805">
        <ele>240.2</ele>
        <time>2021-10-23T15:10:43Z</time>
      </trkpt>
      <trkpt lat="46.51192" lon="5.37808">
        <ele>241</ele>
        <time>2021-10-23T15:10:48Z</time>
      </trkpt>
      <trkpt lat="46.51181" lon="5.37811">
        <ele>241.2</ele>
        <time>2021-10-23T15:10:50Z</time>
      </trkpt>
      <trkpt lat="46.51169" lon="5.37817">
        <ele>241.2</ele>
        <time>2021-10-23T15:10:52Z</time>
      </trkpt>
      <trkpt lat="46.51164" lon="5.37819">
        <ele>241.6</ele>
        <time>2021-10-23T15:10:53Z</time>
      </trkpt>
      <trkpt lat="46.51154" lon="5.37827">
        <ele>242</ele>
        <time>2021-10-23T15:10:55Z</time>
      </trkpt>
      <trkpt lat="46.51138" lon="5.3784">
        <ele>242.6</ele>
        <time>2021-10-23T15:10:58Z</time>
      </trkpt>
      <trkpt lat="46.51128" lon="5.37848">
        <ele>243.2</ele>
        <time>2021-10-23T15:11:00Z</time>
      </trkpt>
      <trkpt lat="46.511" lon="5.37863">
        <ele>244.4</ele>
        <time>2021-10-23T15:11:05Z</time>
      </trkpt>
      <trkpt lat="46.51061" lon="5.37872">
        <ele>245</ele>
        <time>2021-10-23T15:11:12Z</time>
      </trkpt>
      <trkpt lat="46.5105" lon="5.37872">
        <ele>245.6</ele>
        <time>2021-10-23T15:11:14Z</time>
      </trkpt>
      <trkpt lat="46.51012" lon="5.37877">
        <ele>246.6</ele>
        <time>2021-10-23T15:11:21Z</time>
      </trkpt>
      <trkpt lat="46.51006" lon="5.37878">
        <ele>246.6</ele>
        <time>2021-10-23T15:11:22Z</time>
      </trkpt>
      <trkpt lat="46.50966" lon="5.37886">
        <ele>247.6</ele>
        <time>2021-10-23T15:11:29Z</time>
      </trkpt>
      <trkpt lat="46.5095" lon="5.37891">
        <ele>248</ele>
        <time>2021-10-23T15:11:32Z</time>
      </trkpt>
      <trkpt lat="46.50899" lon="5.37904">
        <ele>248.4</ele>
        <time>2021-10-23T15:11:40Z</time>
      </trkpt>
      <trkpt lat="46.50842" lon="5.379">
        <ele>248</ele>
        <time>2021-10-23T15:11:48Z</time>
      </trkpt>
      <trkpt lat="46.50821" lon="5.37895">
        <ele>248</ele>
        <time>2021-10-23T15:11:51Z</time>
      </trkpt>
      <trkpt lat="46.50815" lon="5.37891">
        <ele>248</ele>
        <time>2021-10-23T15:11:52Z</time>
      </trkpt>
      <trkpt lat="46.50808" lon="5.37886">
        <ele>247.8</ele>
        <time>2021-10-23T15:11:53Z</time>
      </trkpt>
      <trkpt lat="46.50791" lon="5.37866">
        <ele>247.6</ele>
        <time>2021-10-23T15:11:56Z</time>
      </trkpt>
      <trkpt lat="46.50762" lon="5.37816">
        <ele>247.4</ele>
        <time>2021-10-23T15:12:02Z</time>
      </trkpt>
      <trkpt lat="46.50748" lon="5.37764">
        <ele>247.2</ele>
        <time>2021-10-23T15:12:07Z</time>
      </trkpt>
      <trkpt lat="46.50742" lon="5.37712">
        <ele>246.6</ele>
        <time>2021-10-23T15:12:12Z</time>
      </trkpt>
      <trkpt lat="46.50741" lon="5.37701">
        <ele>246.4</ele>
        <time>2021-10-23T15:12:13Z</time>
      </trkpt>
      <trkpt lat="46.5074" lon="5.37666">
        <ele>245.4</ele>
        <time>2021-10-23T15:12:16Z</time>
      </trkpt>
      <trkpt lat="46.50738" lon="5.37641">
        <ele>245.2</ele>
        <time>2021-10-23T15:12:18Z</time>
      </trkpt>
      <trkpt lat="46.50736" lon="5.37628">
        <ele>245</ele>
        <time>2021-10-23T15:12:19Z</time>
      </trkpt>
      <trkpt lat="46.50733" lon="5.37616">
        <ele>244</ele>
        <time>2021-10-23T15:12:20Z</time>
      </trkpt>
      <trkpt lat="46.50729" lon="5.37604">
        <ele>243.8</ele>
        <time>2021-10-23T15:12:21Z</time>
      </trkpt>
      <trkpt lat="46.50717" lon="5.37587">
        <ele>242.6</ele>
        <time>2021-10-23T15:12:23Z</time>
      </trkpt>
      <trkpt lat="46.50712" lon="5.3758">
        <ele>242</ele>
        <time>2021-10-23T15:12:24Z</time>
      </trkpt>
      <trkpt lat="46.50707" lon="5.37574">
        <ele>241.4</ele>
        <time>2021-10-23T15:12:25Z</time>
      </trkpt>
      <trkpt lat="46.50701" lon="5.37565">
        <ele>240.8</ele>
        <time>2021-10-23T15:12:27Z</time>
      </trkpt>
      <trkpt lat="46.50696" lon="5.37558">
        <ele>240.6</ele>
        <time>2021-10-23T15:12:30Z</time>
      </trkpt>
      <trkpt lat="46.50688" lon="5.37561">
        <ele>240.8</ele>
        <time>2021-10-23T15:12:33Z</time>
      </trkpt>
      <trkpt lat="46.50673" lon="5.37584">
        <ele>241.2</ele>
        <time>2021-10-23T15:12:38Z</time>
      </trkpt>
      <trkpt lat="46.50641" lon="5.37634">
        <ele>241.8</ele>
        <time>2021-10-23T15:12:47Z</time>
      </trkpt>
      <trkpt lat="46.50606" lon="5.37687">
        <ele>242</ele>
        <time>2021-10-23T15:12:56Z</time>
      </trkpt>
      <trkpt lat="46.50585" lon="5.37721">
        <ele>242.8</ele>
        <time>2021-10-23T15:13:02Z</time>
      </trkpt>
      <trkpt lat="46.50571" lon="5.37742">
        <ele>243.6</ele>
        <time>2021-10-23T15:13:06Z</time>
      </trkpt>
      <trkpt lat="46.50564" lon="5.37752">
        <ele>244</ele>
        <time>2021-10-23T15:13:08Z</time>
      </trkpt>
      <trkpt lat="46.50541" lon="5.37787">
        <ele>245</ele>
        <time>2021-10-23T15:13:15Z</time>
      </trkpt>
      <trkpt lat="46.50525" lon="5.37812">
        <ele>246.2</ele>
        <time>2021-10-23T15:13:20Z</time>
      </trkpt>
      <trkpt lat="46.50512" lon="5.37832">
        <ele>247</ele>
        <time>2021-10-23T15:13:24Z</time>
      </trkpt>
      <trkpt lat="46.50506" lon="5.37841">
        <ele>247.4</ele>
        <time>2021-10-23T15:13:26Z</time>
      </trkpt>
      <trkpt lat="46.5049" lon="5.37865">
        <ele>248.6</ele>
        <time>2021-10-23T15:13:31Z</time>
      </trkpt>
      <trkpt lat="46.50477" lon="5.37885">
        <ele>249.6</ele>
        <time>2021-10-23T15:13:35Z</time>
      </trkpt>
      <trkpt lat="46.50474" lon="5.3789">
        <ele>250</ele>
        <time>2021-10-23T15:13:36Z</time>
      </trkpt>
      <trkpt lat="46.50454" lon="5.3792">
        <ele>251</ele>
        <time>2021-10-23T15:13:42Z</time>
      </trkpt>
      <trkpt lat="46.50451" lon="5.37924">
        <ele>251.2</ele>
        <time>2021-10-23T15:13:43Z</time>
      </trkpt>
      <trkpt lat="46.50447" lon="5.37928">
        <ele>251.4</ele>
        <time>2021-10-23T15:13:44Z</time>
      </trkpt>
      <trkpt lat="46.50444" lon="5.37932">
        <ele>251.6</ele>
        <time>2021-10-23T15:13:45Z</time>
      </trkpt>
      <trkpt lat="46.50434" lon="5.37946">
        <ele>252.2</ele>
        <time>2021-10-23T15:13:48Z</time>
      </trkpt>
      <trkpt lat="46.50428" lon="5.37955">
        <ele>252.4</ele>
        <time>2021-10-23T15:13:50Z</time>
      </trkpt>
      <trkpt lat="46.50419" lon="5.3797">
        <ele>253.2</ele>
        <time>2021-10-23T15:13:53Z</time>
      </trkpt>
      <trkpt lat="46.50404" lon="5.37995">
        <ele>254.4</ele>
        <time>2021-10-23T15:13:58Z</time>
      </trkpt>
      <trkpt lat="46.50398" lon="5.38005">
        <ele>254.8</ele>
        <time>2021-10-23T15:14:00Z</time>
      </trkpt>
      <trkpt lat="46.50389" lon="5.3802">
        <ele>255.4</ele>
        <time>2021-10-23T15:14:03Z</time>
      </trkpt>
      <trkpt lat="46.50382" lon="5.38029">
        <ele>255.8</ele>
        <time>2021-10-23T15:14:05Z</time>
      </trkpt>
      <trkpt lat="46.50377" lon="5.38031">
        <ele>256.2</ele>
        <time>2021-10-23T15:14:06Z</time>
      </trkpt>
      <trkpt lat="46.50373" lon="5.38031">
        <ele>256.2</ele>
        <time>2021-10-23T15:14:07Z</time>
      </trkpt>
      <trkpt lat="46.50369" lon="5.38028">
        <ele>256.6</ele>
        <time>2021-10-23T15:14:08Z</time>
      </trkpt>
      <trkpt lat="46.50365" lon="5.38023">
        <ele>256.6</ele>
        <time>2021-10-23T15:14:09Z</time>
      </trkpt>
      <trkpt lat="46.50362" lon="5.38011">
        <ele>257.4</ele>
        <time>2021-10-23T15:14:11Z</time>
      </trkpt>
      <trkpt lat="46.50362" lon="5.38004">
        <ele>257.4</ele>
        <time>2021-10-23T15:14:12Z</time>
      </trkpt>
      <trkpt lat="46.50362" lon="5.37997">
        <ele>257.6</ele>
        <time>2021-10-23T15:14:13Z</time>
      </trkpt>
      <trkpt lat="46.50365" lon="5.37972">
        <ele>258</ele>
        <time>2021-10-23T15:14:17Z</time>
      </trkpt>
      <trkpt lat="46.50365" lon="5.37965">
        <ele>258.2</ele>
        <time>2021-10-23T15:14:18Z</time>
      </trkpt>
      <trkpt lat="46.50363" lon="5.37942">
        <ele>258.6</ele>
        <time>2021-10-23T15:14:21Z</time>
      </trkpt>
      <trkpt lat="46.5036" lon="5.37927">
        <ele>258.8</ele>
        <time>2021-10-23T15:14:23Z</time>
      </trkpt>
      <trkpt lat="46.50358" lon="5.37919">
        <ele>258.8</ele>
        <time>2021-10-23T15:14:24Z</time>
      </trkpt>
      <trkpt lat="46.50354" lon="5.37911">
        <ele>258.8</ele>
        <time>2021-10-23T15:14:25Z</time>
      </trkpt>
      <trkpt lat="46.50346" lon="5.37898">
        <ele>258.8</ele>
        <time>2021-10-23T15:14:27Z</time>
      </trkpt>
      <trkpt lat="46.50342" lon="5.37891">
        <ele>258.6</ele>
        <time>2021-10-23T15:14:28Z</time>
      </trkpt>
      <trkpt lat="46.503" lon="5.37848">
        <ele>257.8</ele>
        <time>2021-10-23T15:14:36Z</time>
      </trkpt>
      <trkpt lat="46.50254" lon="5.37802">
        <ele>257.8</ele>
        <time>2021-10-23T15:14:44Z</time>
      </trkpt>
      <trkpt lat="46.5024" lon="5.37791">
        <ele>257.8</ele>
        <time>2021-10-23T15:14:46Z</time>
      </trkpt>
      <trkpt lat="46.50227" lon="5.37777">
        <ele>257.6</ele>
        <time>2021-10-23T15:14:48Z</time>
      </trkpt>
      <trkpt lat="46.50221" lon="5.37773">
        <ele>257.6</ele>
        <time>2021-10-23T15:14:49Z</time>
      </trkpt>
      <trkpt lat="46.50207" lon="5.37763">
        <ele>257.4</ele>
        <time>2021-10-23T15:14:51Z</time>
      </trkpt>
      <trkpt lat="46.5017" lon="5.37749">
        <ele>256.8</ele>
        <time>2021-10-23T15:14:56Z</time>
      </trkpt>
      <trkpt lat="46.50163" lon="5.37747">
        <ele>256.6</ele>
        <time>2021-10-23T15:14:57Z</time>
      </trkpt>
      <trkpt lat="46.50129" lon="5.3774">
        <ele>256.6</ele>
        <time>2021-10-23T15:15:02Z</time>
      </trkpt>
      <trkpt lat="46.50096" lon="5.37732">
        <ele>257.6</ele>
        <time>2021-10-23T15:15:07Z</time>
      </trkpt>
      <trkpt lat="46.50091" lon="5.37731">
        <ele>257.8</ele>
        <time>2021-10-23T15:15:08Z</time>
      </trkpt>
      <trkpt lat="46.50084" lon="5.37728">
        <ele>257.8</ele>
        <time>2021-10-23T15:15:09Z</time>
      </trkpt>
      <trkpt lat="46.50076" lon="5.37725">
        <ele>258</ele>
        <time>2021-10-23T15:15:10Z</time>
      </trkpt>
      <trkpt lat="46.50043" lon="5.3771">
        <ele>258.4</ele>
        <time>2021-10-23T15:15:15Z</time>
      </trkpt>
      <trkpt lat="46.49986" lon="5.37682">
        <ele>258.6</ele>
        <time>2021-10-23T15:15:23Z</time>
      </trkpt>
      <trkpt lat="46.49965" lon="5.37671">
        <ele>258.2</ele>
        <time>2021-10-23T15:15:26Z</time>
      </trkpt>
      <trkpt lat="46.49908" lon="5.3765">
        <ele>257.6</ele>
        <time>2021-10-23T15:15:33Z</time>
      </trkpt>
      <trkpt lat="46.499" lon="5.37648">
        <ele>257.4</ele>
        <time>2021-10-23T15:15:34Z</time>
      </trkpt>
      <trkpt lat="46.49845" lon="5.37626">
        <ele>256.6</ele>
        <time>2021-10-23T15:15:41Z</time>
      </trkpt>
      <trkpt lat="46.49821" lon="5.37615">
        <ele>256.4</ele>
        <time>2021-10-23T15:15:44Z</time>
      </trkpt>
      <trkpt lat="46.49768" lon="5.37583">
        <ele>256.6</ele>
        <time>2021-10-23T15:15:51Z</time>
      </trkpt>
      <trkpt lat="46.49715" lon="5.37549">
        <ele>256.4</ele>
        <time>2021-10-23T15:15:58Z</time>
      </trkpt>
      <trkpt lat="46.49693" lon="5.37538">
        <ele>256</ele>
        <time>2021-10-23T15:16:01Z</time>
      </trkpt>
      <trkpt lat="46.49647" lon="5.37516">
        <ele>255.6</ele>
        <time>2021-10-23T15:16:08Z</time>
      </trkpt>
      <trkpt lat="46.49636" lon="5.37511">
        <ele>255.6</ele>
        <time>2021-10-23T15:16:10Z</time>
      </trkpt>
      <trkpt lat="46.49628" lon="5.37505">
        <ele>255.8</ele>
        <time>2021-10-23T15:16:12Z</time>
      </trkpt>
      <trkpt lat="46.49624" lon="5.37502">
        <ele>255.8</ele>
        <time>2021-10-23T15:16:13Z</time>
      </trkpt>
      <trkpt lat="46.49615" lon="5.37502">
        <ele>256</ele>
        <time>2021-10-23T15:16:15Z</time>
      </trkpt>
      <trkpt lat="46.49595" lon="5.37519">
        <ele>256.4</ele>
        <time>2021-10-23T15:16:20Z</time>
      </trkpt>
      <trkpt lat="46.49565" lon="5.37544">
        <ele>257.8</ele>
        <time>2021-10-23T15:16:27Z</time>
      </trkpt>
      <trkpt lat="46.49552" lon="5.37555">
        <ele>258.8</ele>
        <time>2021-10-23T15:16:30Z</time>
      </trkpt>
      <trkpt lat="46.49543" lon="5.37563">
        <ele>259.4</ele>
        <time>2021-10-23T15:16:32Z</time>
      </trkpt>
      <trkpt lat="46.49528" lon="5.37577">
        <ele>260</ele>
        <time>2021-10-23T15:16:35Z</time>
      </trkpt>
      <trkpt lat="46.49495" lon="5.37606">
        <ele>261</ele>
        <time>2021-10-23T15:16:42Z</time>
      </trkpt>
      <trkpt lat="46.49491" lon="5.37609">
        <ele>261</ele>
        <time>2021-10-23T15:16:43Z</time>
      </trkpt>
      <trkpt lat="46.49465" lon="5.37631">
        <ele>262.2</ele>
        <time>2021-10-23T15:16:49Z</time>
      </trkpt>
      <trkpt lat="46.49452" lon="5.37642">
        <ele>262.6</ele>
        <time>2021-10-23T15:16:52Z</time>
      </trkpt>
      <trkpt lat="46.4944" lon="5.37654">
        <ele>263.4</ele>
        <time>2021-10-23T15:16:55Z</time>
      </trkpt>
      <trkpt lat="46.49422" lon="5.37674">
        <ele>264.6</ele>
        <time>2021-10-23T15:17:00Z</time>
      </trkpt>
      <trkpt lat="46.49418" lon="5.37678">
        <ele>264.8</ele>
        <time>2021-10-23T15:17:01Z</time>
      </trkpt>
      <trkpt lat="46.49411" lon="5.37688">
        <ele>265.4</ele>
        <time>2021-10-23T15:17:03Z</time>
      </trkpt>
      <trkpt lat="46.49405" lon="5.37699">
        <ele>266.2</ele>
        <time>2021-10-23T15:17:05Z</time>
      </trkpt>
      <trkpt lat="46.49397" lon="5.37717">
        <ele>267.2</ele>
        <time>2021-10-23T15:17:08Z</time>
      </trkpt>
      <trkpt lat="46.49394" lon="5.37723">
        <ele>267.4</ele>
        <time>2021-10-23T15:17:09Z</time>
      </trkpt>
      <trkpt lat="46.49388" lon="5.37743">
        <ele>268.6</ele>
        <time>2021-10-23T15:17:12Z</time>
      </trkpt>
      <trkpt lat="46.49376" lon="5.37776">
        <ele>269.6</ele>
        <time>2021-10-23T15:17:17Z</time>
      </trkpt>
      <trkpt lat="46.49374" lon="5.37782">
        <ele>269.6</ele>
        <time>2021-10-23T15:17:18Z</time>
      </trkpt>
      <trkpt lat="46.4936" lon="5.37826">
        <ele>270.6</ele>
        <time>2021-10-23T15:17:24Z</time>
      </trkpt>
      <trkpt lat="46.4935" lon="5.37858">
        <ele>270.6</ele>
        <time>2021-10-23T15:17:28Z</time>
      </trkpt>
      <trkpt lat="46.49334" lon="5.37915">
        <ele>270.2</ele>
        <time>2021-10-23T15:17:34Z</time>
      </trkpt>
      <trkpt lat="46.49326" lon="5.37958">
        <ele>269.4</ele>
        <time>2021-10-23T15:17:38Z</time>
      </trkpt>
      <trkpt lat="46.4932" lon="5.37989">
        <ele>268.4</ele>
        <time>2021-10-23T15:17:41Z</time>
      </trkpt>
      <trkpt lat="46.49318" lon="5.37999">
        <ele>268.2</ele>
        <time>2021-10-23T15:17:42Z</time>
      </trkpt>
      <trkpt lat="46.49305" lon="5.38064">
        <ele>268.2</ele>
        <time>2021-10-23T15:17:49Z</time>
      </trkpt>
      <trkpt lat="46.49294" lon="5.38126">
        <ele>269.4</ele>
        <time>2021-10-23T15:17:57Z</time>
      </trkpt>
      <trkpt lat="46.49287" lon="5.38165">
        <ele>270.6</ele>
        <time>2021-10-23T15:18:02Z</time>
      </trkpt>
      <trkpt lat="46.49281" lon="5.38197">
        <ele>271.2</ele>
        <time>2021-10-23T15:18:06Z</time>
      </trkpt>
      <trkpt lat="46.49277" lon="5.38221">
        <ele>271.6</ele>
        <time>2021-10-23T15:18:09Z</time>
      </trkpt>
      <trkpt lat="46.49267" lon="5.38275">
        <ele>272.8</ele>
        <time>2021-10-23T15:18:16Z</time>
      </trkpt>
      <trkpt lat="46.4926" lon="5.38313">
        <ele>273.8</ele>
        <time>2021-10-23T15:18:21Z</time>
      </trkpt>
      <trkpt lat="46.49256" lon="5.38324">
        <ele>274.4</ele>
        <time>2021-10-23T15:18:23Z</time>
      </trkpt>
      <trkpt lat="46.4925" lon="5.38336">
        <ele>274.8</ele>
        <time>2021-10-23T15:18:26Z</time>
      </trkpt>
      <trkpt lat="46.49248" lon="5.38337">
        <ele>275</ele>
        <time>2021-10-23T15:18:27Z</time>
      </trkpt>
      <trkpt lat="46.49245" lon="5.38339">
        <ele>275.2</ele>
        <time>2021-10-23T15:18:29Z</time>
      </trkpt>
      <trkpt lat="46.49245" lon="5.38339">
        <ele>275.4</ele>
        <time>2021-10-23T15:18:31Z</time>
      </trkpt>
      <trkpt lat="46.49239" lon="5.38338">
        <ele>275.8</ele>
        <time>2021-10-23T15:19:15Z</time>
      </trkpt>
      <trkpt lat="46.49231" lon="5.38335">
        <ele>275.8</ele>
        <time>2021-10-23T15:19:17Z</time>
      </trkpt>
      <trkpt lat="46.49223" lon="5.38329">
        <ele>275.6</ele>
        <time>2021-10-23T15:19:19Z</time>
      </trkpt>
      <trkpt lat="46.49211" lon="5.38323">
        <ele>275.4</ele>
        <time>2021-10-23T15:19:21Z</time>
      </trkpt>
      <trkpt lat="46.49169" lon="5.38306">
        <ele>274.4</ele>
        <time>2021-10-23T15:19:27Z</time>
      </trkpt>
      <trkpt lat="46.49148" lon="5.38298">
        <ele>273.6</ele>
        <time>2021-10-23T15:19:30Z</time>
      </trkpt>
      <trkpt lat="46.4912" lon="5.3829">
        <ele>273</ele>
        <time>2021-10-23T15:19:34Z</time>
      </trkpt>
      <trkpt lat="46.49103" lon="5.38283">
        <ele>272.6</ele>
        <time>2021-10-23T15:19:37Z</time>
      </trkpt>
      <trkpt lat="46.49099" lon="5.3828">
        <ele>272.6</ele>
        <time>2021-10-23T15:19:38Z</time>
      </trkpt>
      <trkpt lat="46.49094" lon="5.38273">
        <ele>272.2</ele>
        <time>2021-10-23T15:19:39Z</time>
      </trkpt>
      <trkpt lat="46.49087" lon="5.38258">
        <ele>272</ele>
        <time>2021-10-23T15:19:41Z</time>
      </trkpt>
      <trkpt lat="46.49081" lon="5.38238">
        <ele>271.4</ele>
        <time>2021-10-23T15:19:43Z</time>
      </trkpt>
      <trkpt lat="46.49073" lon="5.38213">
        <ele>271</ele>
        <time>2021-10-23T15:19:45Z</time>
      </trkpt>
      <trkpt lat="46.49067" lon="5.38192">
        <ele>270.4</ele>
        <time>2021-10-23T15:19:47Z</time>
      </trkpt>
      <trkpt lat="46.49053" lon="5.38144">
        <ele>269.2</ele>
        <time>2021-10-23T15:19:51Z</time>
      </trkpt>
      <trkpt lat="46.49045" lon="5.38121">
        <ele>268.2</ele>
        <time>2021-10-23T15:19:53Z</time>
      </trkpt>
      <trkpt lat="46.49028" lon="5.38068">
        <ele>266.8</ele>
        <time>2021-10-23T15:19:57Z</time>
      </trkpt>
      <trkpt lat="46.49025" lon="5.38058">
        <ele>266.6</ele>
        <time>2021-10-23T15:19:58Z</time>
      </trkpt>
      <trkpt lat="46.49017" lon="5.38031">
        <ele>265.4</ele>
        <time>2021-10-23T15:20:00Z</time>
      </trkpt>
      <trkpt lat="46.49001" lon="5.37978">
        <ele>263.8</ele>
        <time>2021-10-23T15:20:04Z</time>
      </trkpt>
      <trkpt lat="46.48993" lon="5.37951">
        <ele>263</ele>
        <time>2021-10-23T15:20:06Z</time>
      </trkpt>
      <trkpt lat="46.48985" lon="5.37922">
        <ele>262.6</ele>
        <time>2021-10-23T15:20:08Z</time>
      </trkpt>
      <trkpt lat="46.48966" lon="5.37861">
        <ele>261.6</ele>
        <time>2021-10-23T15:20:13Z</time>
      </trkpt>
      <trkpt lat="46.4895" lon="5.37809">
        <ele>260.4</ele>
        <time>2021-10-23T15:20:17Z</time>
      </trkpt>
      <trkpt lat="46.4894" lon="5.37775">
        <ele>260</ele>
        <time>2021-10-23T15:20:20Z</time>
      </trkpt>
      <trkpt lat="46.48916" lon="5.37695">
        <ele>260.4</ele>
        <time>2021-10-23T15:20:27Z</time>
      </trkpt>
      <trkpt lat="46.48898" lon="5.37641">
        <ele>260.8</ele>
        <time>2021-10-23T15:20:33Z</time>
      </trkpt>
      <trkpt lat="46.48888" lon="5.3763">
        <ele>260.8</ele>
        <time>2021-10-23T15:20:35Z</time>
      </trkpt>
      <trkpt lat="46.48881" lon="5.37628">
        <ele>261</ele>
        <time>2021-10-23T15:20:36Z</time>
      </trkpt>
      <trkpt lat="46.48872" lon="5.37629">
        <ele>261.2</ele>
        <time>2021-10-23T15:20:38Z</time>
      </trkpt>
      <trkpt lat="46.48864" lon="5.37624">
        <ele>261.8</ele>
        <time>2021-10-23T15:20:40Z</time>
      </trkpt>
      <trkpt lat="46.4886" lon="5.37613">
        <ele>262.2</ele>
        <time>2021-10-23T15:20:42Z</time>
      </trkpt>
      <trkpt lat="46.48858" lon="5.37607">
        <ele>262.4</ele>
        <time>2021-10-23T15:20:43Z</time>
      </trkpt>
      <trkpt lat="46.48854" lon="5.37578">
        <ele>262.8</ele>
        <time>2021-10-23T15:20:47Z</time>
      </trkpt>
      <trkpt lat="46.48852" lon="5.37571">
        <ele>263.2</ele>
        <time>2021-10-23T15:20:48Z</time>
      </trkpt>
      <trkpt lat="46.4885" lon="5.37565">
        <ele>263.2</ele>
        <time>2021-10-23T15:20:49Z</time>
      </trkpt>
      <trkpt lat="46.48841" lon="5.37545">
        <ele>263.8</ele>
        <time>2021-10-23T15:20:52Z</time>
      </trkpt>
      <trkpt lat="46.48831" lon="5.37525">
        <ele>264.2</ele>
        <time>2021-10-23T15:20:55Z</time>
      </trkpt>
      <trkpt lat="46.48816" lon="5.37501">
        <ele>265</ele>
        <time>2021-10-23T15:20:59Z</time>
      </trkpt>
      <trkpt lat="46.488" lon="5.37479">
        <ele>265.8</ele>
        <time>2021-10-23T15:21:03Z</time>
      </trkpt>
      <trkpt lat="46.48795" lon="5.37473">
        <ele>266.2</ele>
        <time>2021-10-23T15:21:04Z</time>
      </trkpt>
      <trkpt lat="46.48766" lon="5.37433">
        <ele>266.8</ele>
        <time>2021-10-23T15:21:10Z</time>
      </trkpt>
      <trkpt lat="46.48734" lon="5.37385">
        <ele>265.2</ele>
        <time>2021-10-23T15:21:16Z</time>
      </trkpt>
      <trkpt lat="46.48728" lon="5.37377">
        <ele>264.6</ele>
        <time>2021-10-23T15:21:17Z</time>
      </trkpt>
      <trkpt lat="46.48694" lon="5.37329">
        <ele>263.6</ele>
        <time>2021-10-23T15:21:23Z</time>
      </trkpt>
      <trkpt lat="46.48656" lon="5.37278">
        <ele>263.4</ele>
        <time>2021-10-23T15:21:30Z</time>
      </trkpt>
    </trkseg>
  </trk>
</gpx>